<?xml version='1.0' encoding='UTF-8'?><gpx version="1.1" creator="JPX - https://github.com/jenetics/jpx" xmlns="http://www.topografix.com/GPX/1/1"><trk><trkseg><trkpt lat="43.8322927" lon="11.3082198"><ele>161.0</ele><time>2026-03-28T08:25:10.487Z</time></trkpt><trkpt lat="43.8324554" lon="11.3084486"><ele>161.0</ele><time>2026-03-28T08:25:20.465Z</time></trkpt><trkpt lat="43.8324079" lon="11.3085157"><ele>161.0</ele><time>2026-03-28T08:26:34.456Z</time></trkpt><trkpt lat="43.8324701" lon="11.308588"><ele>161.0</ele><time>2026-03-28T08:26:55.45Z</time></trkpt><trkpt lat="43.8325259" lon="11.3086787"><ele>161.0</ele><time>2026-03-28T08:26:59.459Z</time></trkpt><trkpt lat="43.8325917" lon="11.3087792"><ele>161.0</ele><time>2026-03-28T08:27:02.459Z</time></trkpt><trkpt lat="43.8326352" lon="11.3088504"><ele>161.0</ele><time>2026-03-28T08:27:04.465Z</time></trkpt><trkpt lat="43.8326863" lon="11.3089133"><ele>161.0</ele><time>2026-03-28T08:27:07.453Z</time></trkpt><trkpt lat="43.8327634" lon="11.3089348"><ele>161.0</ele><time>2026-03-28T08:27:11.448Z</time></trkpt><trkpt lat="43.8328336" lon="11.3089037"><ele>161.0</ele><time>2026-03-28T08:27:14.473Z</time></trkpt><trkpt lat="43.8329041" lon="11.3088636"><ele>160.66666666666666</ele><time>2026-03-28T08:27:17.469Z</time></trkpt><trkpt lat="43.8329965" lon="11.3088364"><ele>160.33333333333331</ele><time>2026-03-28T08:27:20.462Z</time></trkpt><trkpt lat="43.8330862" lon="11.3088237"><ele>160.0</ele><time>2026-03-28T08:27:23.468Z</time></trkpt><trkpt lat="43.8331499" lon="11.3088"><ele>159.66666666666666</ele><time>2026-03-28T08:27:25.472Z</time></trkpt><trkpt lat="43.8332147" lon="11.3087672"><ele>159.33333333333334</ele><time>2026-03-28T08:27:27.451Z</time></trkpt><trkpt lat="43.8332814" lon="11.3087351"><ele>159.0</ele><time>2026-03-28T08:27:29.461Z</time></trkpt><trkpt lat="43.8333583" lon="11.3087151"><ele>159.0</ele><time>2026-03-28T08:27:31.457Z</time></trkpt><trkpt lat="43.8334354" lon="11.3087125"><ele>159.0</ele><time>2026-03-28T08:27:33.521Z</time></trkpt><trkpt lat="43.8335159" lon="11.3087067"><ele>159.0</ele><time>2026-03-28T08:27:35.461Z</time></trkpt><trkpt lat="43.833572" lon="11.308664"><ele>159.0</ele><time>2026-03-28T08:27:37.467Z</time></trkpt><trkpt lat="43.8336292" lon="11.3085846"><ele>159.0</ele><time>2026-03-28T08:27:39.47Z</time></trkpt><trkpt lat="43.8336874" lon="11.3085073"><ele>159.0</ele><time>2026-03-28T08:27:41.456Z</time></trkpt><trkpt lat="43.8337648" lon="11.308455"><ele>159.66666666666666</ele><time>2026-03-28T08:27:43.462Z</time></trkpt><trkpt lat="43.8338486" lon="11.3084387"><ele>160.33333333333334</ele><time>2026-03-28T08:27:45.46Z</time></trkpt><trkpt lat="43.8339217" lon="11.3084013"><ele>161.0</ele><time>2026-03-28T08:27:47.454Z</time></trkpt><trkpt lat="43.8339933" lon="11.3083455"><ele>161.66666666666669</ele><time>2026-03-28T08:27:49.453Z</time></trkpt><trkpt lat="43.8340607" lon="11.3082908"><ele>162.33333333333334</ele><time>2026-03-28T08:27:51.462Z</time></trkpt><trkpt lat="43.8341225" lon="11.3082434"><ele>163.0</ele><time>2026-03-28T08:27:53.465Z</time></trkpt><trkpt lat="43.8341855" lon="11.3082048"><ele>163.0</ele><time>2026-03-28T08:27:55.463Z</time></trkpt><trkpt lat="43.8342566" lon="11.3081727"><ele>163.0</ele><time>2026-03-28T08:27:57.459Z</time></trkpt><trkpt lat="43.8343299" lon="11.3081394"><ele>163.0</ele><time>2026-03-28T08:27:59.46Z</time></trkpt><trkpt lat="43.8343961" lon="11.3080894"><ele>163.0</ele><time>2026-03-28T08:28:01.456Z</time></trkpt><trkpt lat="43.8344534" lon="11.3080359"><ele>163.0</ele><time>2026-03-28T08:28:03.466Z</time></trkpt><trkpt lat="43.8345126" lon="11.3079948"><ele>163.0</ele><time>2026-03-28T08:28:05.464Z</time></trkpt><trkpt lat="43.83458" lon="11.3079495"><ele>163.0</ele><time>2026-03-28T08:28:07.469Z</time></trkpt><trkpt lat="43.8346471" lon="11.3078944"><ele>163.14285714285714</ele><time>2026-03-28T08:28:09.471Z</time></trkpt><trkpt lat="43.8347142" lon="11.3078621"><ele>163.28571428571428</ele><time>2026-03-28T08:28:11.463Z</time></trkpt><trkpt lat="43.8347789" lon="11.3078306"><ele>163.42857142857142</ele><time>2026-03-28T08:28:13.464Z</time></trkpt><trkpt lat="43.8348469" lon="11.307807"><ele>163.57142857142856</ele><time>2026-03-28T08:28:15.462Z</time></trkpt><trkpt lat="43.8349184" lon="11.3077935"><ele>163.71428571428572</ele><time>2026-03-28T08:28:17.462Z</time></trkpt><trkpt lat="43.8349853" lon="11.3077719"><ele>163.85714285714283</ele><time>2026-03-28T08:28:19.45Z</time></trkpt><trkpt lat="43.8350471" lon="11.3077385"><ele>164.0</ele><time>2026-03-28T08:28:21.449Z</time></trkpt><trkpt lat="43.8351081" lon="11.3077066"><ele>164.7142857142857</ele><time>2026-03-28T08:28:23.463Z</time></trkpt><trkpt lat="43.8351734" lon="11.3076781"><ele>165.42857142857142</ele><time>2026-03-28T08:28:25.478Z</time></trkpt><trkpt lat="43.8352385" lon="11.3076407"><ele>166.14285714285714</ele><time>2026-03-28T08:28:27.463Z</time></trkpt><trkpt lat="43.8352991" lon="11.3075956"><ele>166.85714285714283</ele><time>2026-03-28T08:28:29.453Z</time></trkpt><trkpt lat="43.8353654" lon="11.3075551"><ele>167.57142857142856</ele><time>2026-03-28T08:28:31.481Z</time></trkpt><trkpt lat="43.8354329" lon="11.3075077"><ele>168.28571428571428</ele><time>2026-03-28T08:28:33.451Z</time></trkpt><trkpt lat="43.8355027" lon="11.307468"><ele>169.0</ele><time>2026-03-28T08:28:35.453Z</time></trkpt><trkpt lat="43.835571" lon="11.3074158"><ele>169.0</ele><time>2026-03-28T08:28:37.469Z</time></trkpt><trkpt lat="43.8356374" lon="11.3073852"><ele>169.0</ele><time>2026-03-28T08:28:39.46Z</time></trkpt><trkpt lat="43.8357014" lon="11.3073499"><ele>169.0</ele><time>2026-03-28T08:28:41.456Z</time></trkpt><trkpt lat="43.8357675" lon="11.3073271"><ele>169.0</ele><time>2026-03-28T08:28:43.45Z</time></trkpt><trkpt lat="43.8358371" lon="11.3073"><ele>169.0</ele><time>2026-03-28T08:28:45.464Z</time></trkpt><trkpt lat="43.8359057" lon="11.3072913"><ele>169.0</ele><time>2026-03-28T08:28:47.46Z</time></trkpt><trkpt lat="43.835978" lon="11.3072808"><ele>169.0</ele><time>2026-03-28T08:28:49.462Z</time></trkpt><trkpt lat="43.8360523" lon="11.3072731"><ele>169.66666666666669</ele><time>2026-03-28T08:28:51.464Z</time></trkpt><trkpt lat="43.8361269" lon="11.3072782"><ele>170.33333333333334</ele><time>2026-03-28T08:28:53.464Z</time></trkpt><trkpt lat="43.8361958" lon="11.3073022"><ele>171.0</ele><time>2026-03-28T08:28:55.459Z</time></trkpt><trkpt lat="43.8362679" lon="11.3073226"><ele>171.66666666666666</ele><time>2026-03-28T08:28:57.461Z</time></trkpt><trkpt lat="43.8363474" lon="11.3073467"><ele>172.33333333333331</ele><time>2026-03-28T08:28:59.47Z</time></trkpt><trkpt lat="43.8364186" lon="11.3073902"><ele>173.0</ele><time>2026-03-28T08:29:01.473Z</time></trkpt><trkpt lat="43.8364875" lon="11.3074373"><ele>173.0</ele><time>2026-03-28T08:29:03.464Z</time></trkpt><trkpt lat="43.8365551" lon="11.3074798"><ele>173.0</ele><time>2026-03-28T08:29:05.47Z</time></trkpt><trkpt lat="43.8366132" lon="11.3075245"><ele>173.0</ele><time>2026-03-28T08:29:07.466Z</time></trkpt><trkpt lat="43.8366762" lon="11.3075729"><ele>173.0</ele><time>2026-03-28T08:29:09.473Z</time></trkpt><trkpt lat="43.8367405" lon="11.3076297"><ele>173.0</ele><time>2026-03-28T08:29:11.452Z</time></trkpt><trkpt lat="43.8367976" lon="11.3076791"><ele>173.0</ele><time>2026-03-28T08:29:13.45Z</time></trkpt><trkpt lat="43.8368538" lon="11.3077366"><ele>173.0</ele><time>2026-03-28T08:29:15.45Z</time></trkpt><trkpt lat="43.8369125" lon="11.3077838"><ele>173.57142857142856</ele><time>2026-03-28T08:29:17.462Z</time></trkpt><trkpt lat="43.8369736" lon="11.3078292"><ele>174.14285714285717</ele><time>2026-03-28T08:29:19.452Z</time></trkpt><trkpt lat="43.8370353" lon="11.3078773"><ele>174.71428571428572</ele><time>2026-03-28T08:29:21.459Z</time></trkpt><trkpt lat="43.8370991" lon="11.3079198"><ele>175.28571428571428</ele><time>2026-03-28T08:29:23.469Z</time></trkpt><trkpt lat="43.8371673" lon="11.3079499"><ele>175.85714285714283</ele><time>2026-03-28T08:29:25.457Z</time></trkpt><trkpt lat="43.8372398" lon="11.307974"><ele>176.42857142857144</ele><time>2026-03-28T08:29:27.456Z</time></trkpt><trkpt lat="43.8373104" lon="11.307993"><ele>177.0</ele><time>2026-03-28T08:29:29.46Z</time></trkpt><trkpt lat="43.8373846" lon="11.308006"><ele>177.0</ele><time>2026-03-28T08:29:31.472Z</time></trkpt><trkpt lat="43.8374595" lon="11.3080104"><ele>177.0</ele><time>2026-03-28T08:29:33.467Z</time></trkpt><trkpt lat="43.8375246" lon="11.308024"><ele>177.0</ele><time>2026-03-28T08:29:35.462Z</time></trkpt><trkpt lat="43.8375908" lon="11.3080378"><ele>177.0</ele><time>2026-03-28T08:29:37.466Z</time></trkpt><trkpt lat="43.8376598" lon="11.3080522"><ele>177.0</ele><time>2026-03-28T08:29:39.473Z</time></trkpt><trkpt lat="43.8377276" lon="11.3080619"><ele>177.0</ele><time>2026-03-28T08:29:41.459Z</time></trkpt><trkpt lat="43.8377949" lon="11.3080706"><ele>177.0</ele><time>2026-03-28T08:29:43.485Z</time></trkpt><trkpt lat="43.8378657" lon="11.308081"><ele>177.2857142857143</ele><time>2026-03-28T08:29:45.459Z</time></trkpt><trkpt lat="43.8379467" lon="11.3081014"><ele>177.57142857142856</ele><time>2026-03-28T08:29:48.454Z</time></trkpt><trkpt lat="43.838036" lon="11.3081277"><ele>177.85714285714286</ele><time>2026-03-28T08:29:51.463Z</time></trkpt><trkpt lat="43.8380996" lon="11.3081356"><ele>178.14285714285717</ele><time>2026-03-28T08:29:53.47Z</time></trkpt><trkpt lat="43.8381634" lon="11.3081507"><ele>178.42857142857144</ele><time>2026-03-28T08:29:55.455Z</time></trkpt><trkpt lat="43.8382269" lon="11.3081465"><ele>178.71428571428572</ele><time>2026-03-28T08:29:57.456Z</time></trkpt><trkpt lat="43.8382944" lon="11.3081607"><ele>179.0</ele><time>2026-03-28T08:29:59.472Z</time></trkpt><trkpt lat="43.838379" lon="11.3081857"><ele>179.0</ele><time>2026-03-28T08:30:02.479Z</time></trkpt><trkpt lat="43.8384662" lon="11.3081987"><ele>179.0</ele><time>2026-03-28T08:30:05.459Z</time></trkpt><trkpt lat="43.83853" lon="11.3082041"><ele>179.0</ele><time>2026-03-28T08:30:07.457Z</time></trkpt><trkpt lat="43.8386191" lon="11.308227"><ele>179.0</ele><time>2026-03-28T08:30:10.47Z</time></trkpt><trkpt lat="43.8386837" lon="11.3082463"><ele>179.0</ele><time>2026-03-28T08:30:12.462Z</time></trkpt><trkpt lat="43.8387714" lon="11.3082729"><ele>179.0</ele><time>2026-03-28T08:30:15.461Z</time></trkpt><trkpt lat="43.8388416" lon="11.3083013"><ele>179.6</ele><time>2026-03-28T08:30:17.46Z</time></trkpt><trkpt lat="43.8389333" lon="11.3083497"><ele>180.2</ele><time>2026-03-28T08:30:19.462Z</time></trkpt><trkpt lat="43.8390288" lon="11.3084091"><ele>180.79999999999998</ele><time>2026-03-28T08:30:21.468Z</time></trkpt><trkpt lat="43.8391085" lon="11.3084587"><ele>181.39999999999998</ele><time>2026-03-28T08:30:23.471Z</time></trkpt><trkpt lat="43.8391773" lon="11.3085012"><ele>182.0</ele><time>2026-03-28T08:30:25.469Z</time></trkpt><trkpt lat="43.83926" lon="11.3085236"><ele>182.66666666666666</ele><time>2026-03-28T08:30:27.476Z</time></trkpt><trkpt lat="43.8393378" lon="11.3085322"><ele>183.33333333333331</ele><time>2026-03-28T08:30:29.479Z</time></trkpt><trkpt lat="43.8394272" lon="11.3085387"><ele>184.0</ele><time>2026-03-28T08:30:31.458Z</time></trkpt><trkpt lat="43.8394946" lon="11.3085442"><ele>184.66666666666666</ele><time>2026-03-28T08:30:33.453Z</time></trkpt><trkpt lat="43.8395613" lon="11.3085625"><ele>185.33333333333334</ele><time>2026-03-28T08:30:36.461Z</time></trkpt><trkpt lat="43.839647" lon="11.3085802"><ele>186.0</ele><time>2026-03-28T08:30:39.449Z</time></trkpt><trkpt lat="43.8397419" lon="11.3085662"><ele>186.0</ele><time>2026-03-28T08:30:42.465Z</time></trkpt><trkpt lat="43.8397966" lon="11.3085165"><ele>186.0</ele><time>2026-03-28T08:30:44.471Z</time></trkpt><trkpt lat="43.8398395" lon="11.3084385"><ele>186.0</ele><time>2026-03-28T08:30:46.466Z</time></trkpt><trkpt lat="43.8398637" lon="11.3083379"><ele>186.0</ele><time>2026-03-28T08:30:48.451Z</time></trkpt><trkpt lat="43.8398185" lon="11.3082306"><ele>186.0</ele><time>2026-03-28T08:30:51.472Z</time></trkpt><trkpt lat="43.8397446" lon="11.3081947"><ele>186.0</ele><time>2026-03-28T08:30:53.467Z</time></trkpt><trkpt lat="43.8396646" lon="11.308175"><ele>186.0</ele><time>2026-03-28T08:30:55.466Z</time></trkpt><trkpt lat="43.8395888" lon="11.3081626"><ele>186.0</ele><time>2026-03-28T08:30:57.47Z</time></trkpt><trkpt lat="43.8395018" lon="11.3081365"><ele>186.0</ele><time>2026-03-28T08:31:00.469Z</time></trkpt><trkpt lat="43.8394378" lon="11.3081198"><ele>186.0</ele><time>2026-03-28T08:31:02.459Z</time></trkpt><trkpt lat="43.8393743" lon="11.3080892"><ele>186.0</ele><time>2026-03-28T08:31:04.46Z</time></trkpt><trkpt lat="43.8393235" lon="11.3079881"><ele>186.0</ele><time>2026-03-28T08:31:06.469Z</time></trkpt><trkpt lat="43.8393336" lon="11.3078914"><ele>186.71428571428572</ele><time>2026-03-28T08:31:08.471Z</time></trkpt><trkpt lat="43.8393617" lon="11.3077797"><ele>187.42857142857144</ele><time>2026-03-28T08:31:11.467Z</time></trkpt><trkpt lat="43.8393965" lon="11.307702"><ele>188.14285714285717</ele><time>2026-03-28T08:31:14.457Z</time></trkpt><trkpt lat="43.8394215" lon="11.3076028"><ele>188.85714285714286</ele><time>2026-03-28T08:31:18.463Z</time></trkpt><trkpt lat="43.8394623" lon="11.3075207"><ele>189.57142857142856</ele><time>2026-03-28T08:31:22.474Z</time></trkpt><trkpt lat="43.8395225" lon="11.3074568"><ele>190.2857142857143</ele><time>2026-03-28T08:31:26.454Z</time></trkpt><trkpt lat="43.8395899" lon="11.3074414"><ele>191.0</ele><time>2026-03-28T08:31:30.462Z</time></trkpt><trkpt lat="43.8396527" lon="11.3074108"><ele>191.0</ele><time>2026-03-28T08:31:34.48Z</time></trkpt><trkpt lat="43.8397244" lon="11.3073746"><ele>191.0</ele><time>2026-03-28T08:31:38.473Z</time></trkpt><trkpt lat="43.8397885" lon="11.307312"><ele>191.0</ele><time>2026-03-28T08:31:42.462Z</time></trkpt><trkpt lat="43.8398389" lon="11.3072494"><ele>191.0</ele><time>2026-03-28T08:31:46.454Z</time></trkpt><trkpt lat="43.8398266" lon="11.307149"><ele>191.0</ele><time>2026-03-28T08:31:50.459Z</time></trkpt><trkpt lat="43.8397688" lon="11.3071068"><ele>191.0</ele><time>2026-03-28T08:31:53.471Z</time></trkpt><trkpt lat="43.8396916" lon="11.3070669"><ele>191.0</ele><time>2026-03-28T08:31:56.467Z</time></trkpt><trkpt lat="43.8396065" lon="11.3070195"><ele>193.0</ele><time>2026-03-28T08:31:59.468Z</time></trkpt><trkpt lat="43.8395132" lon="11.3070031"><ele>195.0</ele><time>2026-03-28T08:32:02.467Z</time></trkpt><trkpt lat="43.8394399" lon="11.3069998"><ele>197.0</ele><time>2026-03-28T08:32:04.473Z</time></trkpt><trkpt lat="43.8393749" lon="11.3069849"><ele>199.0</ele><time>2026-03-28T08:32:06.457Z</time></trkpt><trkpt lat="43.8393118" lon="11.3069666"><ele>201.00000000000003</ele><time>2026-03-28T08:32:08.47Z</time></trkpt><trkpt lat="43.8392429" lon="11.3069372"><ele>203.0</ele><time>2026-03-28T08:32:10.471Z</time></trkpt><trkpt lat="43.8391523" lon="11.3069043"><ele>203.00000000000003</ele><time>2026-03-28T08:32:13.464Z</time></trkpt><trkpt lat="43.8390708" lon="11.306849"><ele>203.0</ele><time>2026-03-28T08:32:16.46Z</time></trkpt><trkpt lat="43.8390164" lon="11.3068001"><ele>203.0</ele><time>2026-03-28T08:32:18.464Z</time></trkpt><trkpt lat="43.8389695" lon="11.30671"><ele>203.0</ele><time>2026-03-28T08:32:21.466Z</time></trkpt><trkpt lat="43.8389162" lon="11.306638"><ele>203.00000000000003</ele><time>2026-03-28T08:32:24.478Z</time></trkpt><trkpt lat="43.8388647" lon="11.3065572"><ele>203.0</ele><time>2026-03-28T08:32:27.483Z</time></trkpt><trkpt lat="43.8388032" lon="11.3064707"><ele>205.00000000000003</ele><time>2026-03-28T08:32:30.47Z</time></trkpt><trkpt lat="43.8387503" lon="11.3063785"><ele>207.0</ele><time>2026-03-28T08:32:33.467Z</time></trkpt><trkpt lat="43.8386866" lon="11.3062858"><ele>209.0</ele><time>2026-03-28T08:32:36.499Z</time></trkpt><trkpt lat="43.8386371" lon="11.3062175"><ele>211.0</ele><time>2026-03-28T08:32:38.469Z</time></trkpt><trkpt lat="43.8385927" lon="11.3061461"><ele>213.00000000000003</ele><time>2026-03-28T08:32:40.474Z</time></trkpt><trkpt lat="43.8385536" lon="11.3060753"><ele>215.0</ele><time>2026-03-28T08:32:42.456Z</time></trkpt><trkpt lat="43.8385253" lon="11.3059638"><ele>215.0</ele><time>2026-03-28T08:32:45.508Z</time></trkpt><trkpt lat="43.8385035" lon="11.3058577"><ele>215.0</ele><time>2026-03-28T08:32:48.477Z</time></trkpt><trkpt lat="43.8384955" lon="11.305763"><ele>215.0</ele><time>2026-03-28T08:32:51.454Z</time></trkpt><trkpt lat="43.8385121" lon="11.3056588"><ele>215.0</ele><time>2026-03-28T08:32:55.46Z</time></trkpt><trkpt lat="43.8385364" lon="11.3055778"><ele>215.0</ele><time>2026-03-28T08:32:59.462Z</time></trkpt><trkpt lat="43.8385386" lon="11.3054894"><ele>215.0</ele><time>2026-03-28T08:33:04.463Z</time></trkpt><trkpt lat="43.8385115" lon="11.3053949"><ele>215.0</ele><time>2026-03-28T08:33:09.478Z</time></trkpt><trkpt lat="43.8384698" lon="11.3053061"><ele>216.57142857142856</ele><time>2026-03-28T08:33:13.471Z</time></trkpt><trkpt lat="43.8384701" lon="11.3051952"><ele>218.14285714285717</ele><time>2026-03-28T08:33:18.465Z</time></trkpt><trkpt lat="43.8385228" lon="11.3051255"><ele>219.71428571428572</ele><time>2026-03-28T08:33:23.476Z</time></trkpt><trkpt lat="43.8385802" lon="11.3050764"><ele>221.28571428571428</ele><time>2026-03-28T08:33:28.477Z</time></trkpt><trkpt lat="43.8386534" lon="11.3050432"><ele>222.85714285714283</ele><time>2026-03-28T08:33:33.488Z</time></trkpt><trkpt lat="43.8387122" lon="11.305001"><ele>224.42857142857144</ele><time>2026-03-28T08:33:37.473Z</time></trkpt><trkpt lat="43.8387796" lon="11.3049527"><ele>226.0</ele><time>2026-03-28T08:33:41.467Z</time></trkpt><trkpt lat="43.8388379" lon="11.3049156"><ele>226.0</ele><time>2026-03-28T08:33:44.481Z</time></trkpt><trkpt lat="43.838918" lon="11.3048855"><ele>226.0</ele><time>2026-03-28T08:33:48.457Z</time></trkpt><trkpt lat="43.8389921" lon="11.3048724"><ele>226.0</ele><time>2026-03-28T08:33:53.466Z</time></trkpt><trkpt lat="43.8390591" lon="11.304843"><ele>226.0</ele><time>2026-03-28T08:33:57.471Z</time></trkpt><trkpt lat="43.8391275" lon="11.3048021"><ele>226.0</ele><time>2026-03-28T08:34:01.458Z</time></trkpt><trkpt lat="43.8391886" lon="11.3047654"><ele>226.0</ele><time>2026-03-28T08:34:05.471Z</time></trkpt><trkpt lat="43.8392618" lon="11.304746"><ele>226.0</ele><time>2026-03-28T08:34:10.459Z</time></trkpt><trkpt lat="43.8393392" lon="11.3047238"><ele>228.14285714285717</ele><time>2026-03-28T08:34:15.461Z</time></trkpt><trkpt lat="43.8394085" lon="11.3046923"><ele>230.28571428571428</ele><time>2026-03-28T08:34:20.461Z</time></trkpt><trkpt lat="43.8394753" lon="11.3046914"><ele>232.42857142857144</ele><time>2026-03-28T08:34:24.495Z</time></trkpt><trkpt lat="43.8395455" lon="11.3046668"><ele>234.57142857142858</ele><time>2026-03-28T08:34:30.468Z</time></trkpt><trkpt lat="43.839578" lon="11.3045864"><ele>236.71428571428572</ele><time>2026-03-28T08:34:35.485Z</time></trkpt><trkpt lat="43.839597" lon="11.3044961"><ele>238.85714285714286</ele><time>2026-03-28T08:34:39.471Z</time></trkpt><trkpt lat="43.8396238" lon="11.3044124"><ele>241.0</ele><time>2026-03-28T08:34:43.457Z</time></trkpt><trkpt lat="43.839631" lon="11.3043246"><ele>241.0</ele><time>2026-03-28T08:34:47.473Z</time></trkpt><trkpt lat="43.8396431" lon="11.3042345"><ele>241.00000000000003</ele><time>2026-03-28T08:34:52.475Z</time></trkpt><trkpt lat="43.8396602" lon="11.3041405"><ele>241.0</ele><time>2026-03-28T08:34:57.466Z</time></trkpt><trkpt lat="43.8396587" lon="11.3040373"><ele>241.0</ele><time>2026-03-28T08:35:01.455Z</time></trkpt><trkpt lat="43.8396753" lon="11.3039483"><ele>241.00000000000003</ele><time>2026-03-28T08:35:05.454Z</time></trkpt><trkpt lat="43.8396568" lon="11.3038574"><ele>241.0</ele><time>2026-03-28T08:35:09.47Z</time></trkpt><trkpt lat="43.8396265" lon="11.3037744"><ele>241.0</ele><time>2026-03-28T08:35:14.465Z</time></trkpt><trkpt lat="43.8395763" lon="11.3036925"><ele>242.16666666666666</ele><time>2026-03-28T08:35:18.449Z</time></trkpt><trkpt lat="43.8395156" lon="11.3036188"><ele>243.33333333333331</ele><time>2026-03-28T08:35:21.461Z</time></trkpt><trkpt lat="43.8394556" lon="11.303541"><ele>244.5</ele><time>2026-03-28T08:35:24.472Z</time></trkpt><trkpt lat="43.8393995" lon="11.3034723"><ele>245.66666666666669</ele><time>2026-03-28T08:35:27.463Z</time></trkpt><trkpt lat="43.8393491" lon="11.3034071"><ele>246.83333333333334</ele><time>2026-03-28T08:35:30.474Z</time></trkpt><trkpt lat="43.8393099" lon="11.3033262"><ele>248.0</ele><time>2026-03-28T08:35:33.467Z</time></trkpt><trkpt lat="43.8392451" lon="11.3032576"><ele>248.0</ele><time>2026-03-28T08:35:37.468Z</time></trkpt><trkpt lat="43.8391906" lon="11.3032027"><ele>248.00000000000003</ele><time>2026-03-28T08:35:40.466Z</time></trkpt><trkpt lat="43.8391336" lon="11.3031519"><ele>248.0</ele><time>2026-03-28T08:35:44.454Z</time></trkpt><trkpt lat="43.8390898" lon="11.3030783"><ele>248.0</ele><time>2026-03-28T08:36:32.452Z</time></trkpt><trkpt lat="43.8390257" lon="11.3030438"><ele>248.00000000000003</ele><time>2026-03-28T08:36:37.479Z</time></trkpt><trkpt lat="43.8389548" lon="11.3030295"><ele>248.0</ele><time>2026-03-28T08:36:43.459Z</time></trkpt><trkpt lat="43.8389221" lon="11.3029543"><ele>248.0</ele><time>2026-03-28T08:36:55.454Z</time></trkpt><trkpt lat="43.8388701" lon="11.3028949"><ele>250.42857142857144</ele><time>2026-03-28T08:37:04.465Z</time></trkpt><trkpt lat="43.8388068" lon="11.302882"><ele>252.8571428571429</ele><time>2026-03-28T08:37:11.467Z</time></trkpt><trkpt lat="43.8387431" lon="11.3028494"><ele>255.28571428571428</ele><time>2026-03-28T08:38:38.456Z</time></trkpt><trkpt lat="43.8386769" lon="11.3028599"><ele>257.7142857142857</ele><time>2026-03-28T08:38:42.448Z</time></trkpt><trkpt lat="43.8386094" lon="11.3028919"><ele>260.1428571428571</ele><time>2026-03-28T08:38:47.454Z</time></trkpt><trkpt lat="43.8385237" lon="11.3029228"><ele>262.57142857142856</ele><time>2026-03-28T08:38:50.46Z</time></trkpt><trkpt lat="43.8384595" lon="11.3029507"><ele>265.0</ele><time>2026-03-28T08:38:52.448Z</time></trkpt><trkpt lat="43.8383677" lon="11.3029663"><ele>266.57142857142856</ele><time>2026-03-28T08:38:55.448Z</time></trkpt><trkpt lat="43.8383025" lon="11.3029488"><ele>268.1428571428571</ele><time>2026-03-28T08:38:57.478Z</time></trkpt><trkpt lat="43.838238" lon="11.3029193"><ele>269.7142857142857</ele><time>2026-03-28T08:39:00.473Z</time></trkpt><trkpt lat="43.8381719" lon="11.302883"><ele>271.2857142857143</ele><time>2026-03-28T08:39:03.458Z</time></trkpt><trkpt lat="43.8380979" lon="11.3028313"><ele>272.8571428571429</ele><time>2026-03-28T08:39:06.451Z</time></trkpt><trkpt lat="43.83802" lon="11.302796"><ele>274.42857142857144</ele><time>2026-03-28T08:39:09.456Z</time></trkpt><trkpt lat="43.8379555" lon="11.3027605"><ele>276.0</ele><time>2026-03-28T08:39:12.453Z</time></trkpt><trkpt lat="43.8378889" lon="11.3027517"><ele>276.0</ele><time>2026-03-28T08:39:15.462Z</time></trkpt><trkpt lat="43.8378114" lon="11.3027335"><ele>276.0</ele><time>2026-03-28T08:39:19.451Z</time></trkpt><trkpt lat="43.8377273" lon="11.3027453"><ele>276.0</ele><time>2026-03-28T08:39:23.454Z</time></trkpt><trkpt lat="43.837661" lon="11.3027454"><ele>276.0</ele><time>2026-03-28T08:39:26.459Z</time></trkpt><trkpt lat="43.8375752" lon="11.3027399"><ele>276.0</ele><time>2026-03-28T08:39:30.453Z</time></trkpt><trkpt lat="43.8374988" lon="11.3027184"><ele>276.0</ele><time>2026-03-28T08:39:34.469Z</time></trkpt><trkpt lat="43.8374289" lon="11.3026745"><ele>276.0</ele><time>2026-03-28T08:39:39.461Z</time></trkpt><trkpt lat="43.8373528" lon="11.3026552"><ele>276.0</ele><time>2026-03-28T08:39:43.456Z</time></trkpt><trkpt lat="43.8372832" lon="11.3026389"><ele>276.0</ele><time>2026-03-28T08:39:47.462Z</time></trkpt><trkpt lat="43.837203" lon="11.3026171"><ele>276.0</ele><time>2026-03-28T08:39:51.453Z</time></trkpt><trkpt lat="43.8371225" lon="11.3025902"><ele>276.0</ele><time>2026-03-28T08:39:55.459Z</time></trkpt><trkpt lat="43.837067" lon="11.302544"><ele>276.0</ele><time>2026-03-28T08:39:58.452Z</time></trkpt><trkpt lat="43.8369994" lon="11.3024978"><ele>276.0</ele><time>2026-03-28T08:40:02.455Z</time></trkpt><trkpt lat="43.8369496" lon="11.3024213"><ele>276.0</ele><time>2026-03-28T08:40:06.459Z</time></trkpt><trkpt lat="43.836891" lon="11.3023649"><ele>276.0</ele><time>2026-03-28T08:40:10.455Z</time></trkpt><trkpt lat="43.8368483" lon="11.3022965"><ele>276.0</ele><time>2026-03-28T08:40:14.451Z</time></trkpt><trkpt lat="43.8368005" lon="11.3022388"><ele>276.0</ele><time>2026-03-28T08:40:17.455Z</time></trkpt><trkpt lat="43.836728" lon="11.3022058"><ele>276.0</ele><time>2026-03-28T08:40:20.458Z</time></trkpt><trkpt lat="43.8366559" lon="11.3021551"><ele>276.0</ele><time>2026-03-28T08:40:25.461Z</time></trkpt><trkpt lat="43.8365981" lon="11.3021053"><ele>277.0</ele><time>2026-03-28T08:40:29.45Z</time></trkpt><trkpt lat="43.8365459" lon="11.3020373"><ele>278.0</ele><time>2026-03-28T08:40:33.453Z</time></trkpt><trkpt lat="43.8364905" lon="11.3019887"><ele>279.0</ele><time>2026-03-28T08:40:37.46Z</time></trkpt><trkpt lat="43.8364344" lon="11.3019469"><ele>280.0</ele><time>2026-03-28T08:40:40.457Z</time></trkpt><trkpt lat="43.8363794" lon="11.3018784"><ele>281.0</ele><time>2026-03-28T08:40:44.455Z</time></trkpt><trkpt lat="43.8363166" lon="11.3018401"><ele>282.0</ele><time>2026-03-28T08:40:49.465Z</time></trkpt><trkpt lat="43.8363789" lon="11.3018777"><ele>283.0</ele><time>2026-03-28T08:40:56.449Z</time></trkpt><trkpt lat="43.8364593" lon="11.3018976"><ele>283.0</ele><time>2026-03-28T08:40:59.473Z</time></trkpt><trkpt lat="43.8365369" lon="11.3018857"><ele>283.0</ele><time>2026-03-28T08:41:03.465Z</time></trkpt><trkpt lat="43.8366079" lon="11.3018861"><ele>283.0</ele><time>2026-03-28T08:41:06.467Z</time></trkpt><trkpt lat="43.8366713" lon="11.30189"><ele>283.0</ele><time>2026-03-28T08:41:09.464Z</time></trkpt><trkpt lat="43.8367338" lon="11.3018518"><ele>283.0</ele><time>2026-03-28T08:41:13.464Z</time></trkpt><trkpt lat="43.8368053" lon="11.3018394"><ele>283.0</ele><time>2026-03-28T08:41:18.464Z</time></trkpt><trkpt lat="43.8368715" lon="11.3018021"><ele>283.0</ele><time>2026-03-28T08:41:23.468Z</time></trkpt><trkpt lat="43.8369444" lon="11.3017629"><ele>283.8333333333333</ele><time>2026-03-28T08:41:27.45Z</time></trkpt><trkpt lat="43.837014" lon="11.3017066"><ele>284.66666666666663</ele><time>2026-03-28T08:41:30.451Z</time></trkpt><trkpt lat="43.8370811" lon="11.3016492"><ele>285.5</ele><time>2026-03-28T08:41:33.476Z</time></trkpt><trkpt lat="43.8371295" lon="11.3015841"><ele>286.3333333333333</ele><time>2026-03-28T08:41:36.459Z</time></trkpt><trkpt lat="43.8371733" lon="11.3015132"><ele>287.1666666666667</ele><time>2026-03-28T08:41:39.476Z</time></trkpt><trkpt lat="43.8372313" lon="11.3014355"><ele>288.0</ele><time>2026-03-28T08:41:43.472Z</time></trkpt><trkpt lat="43.8372917" lon="11.3013572"><ele>288.28571428571433</ele><time>2026-03-28T08:41:47.473Z</time></trkpt><trkpt lat="43.8373453" lon="11.301306"><ele>288.57142857142856</ele><time>2026-03-28T08:41:50.45Z</time></trkpt><trkpt lat="43.8374092" lon="11.3012299"><ele>288.8571428571429</ele><time>2026-03-28T08:41:54.459Z</time></trkpt><trkpt lat="43.8374755" lon="11.3011732"><ele>289.14285714285717</ele><time>2026-03-28T08:41:57.459Z</time></trkpt><trkpt lat="43.8375307" lon="11.3011013"><ele>289.42857142857144</ele><time>2026-03-28T08:42:00.478Z</time></trkpt><trkpt lat="43.8375831" lon="11.3010385"><ele>289.7142857142857</ele><time>2026-03-28T08:42:03.469Z</time></trkpt><trkpt lat="43.8376364" lon="11.3009901"><ele>290.0</ele><time>2026-03-28T08:42:06.471Z</time></trkpt><trkpt lat="43.8376993" lon="11.3009331"><ele>291.83333333333337</ele><time>2026-03-28T08:42:09.453Z</time></trkpt><trkpt lat="43.8377776" lon="11.3008846"><ele>293.6666666666667</ele><time>2026-03-28T08:42:12.462Z</time></trkpt><trkpt lat="43.8378631" lon="11.3008357"><ele>295.5</ele><time>2026-03-28T08:42:15.454Z</time></trkpt><trkpt lat="43.837939" lon="11.3007881"><ele>297.3333333333333</ele><time>2026-03-28T08:42:18.466Z</time></trkpt><trkpt lat="43.8380086" lon="11.3007497"><ele>299.16666666666663</ele><time>2026-03-28T08:42:21.468Z</time></trkpt><trkpt lat="43.8380878" lon="11.300714"><ele>301.0</ele><time>2026-03-28T08:42:24.476Z</time></trkpt><trkpt lat="43.8381714" lon="11.3006727"><ele>301.0</ele><time>2026-03-28T08:42:27.454Z</time></trkpt><trkpt lat="43.8382408" lon="11.3006198"><ele>301.0</ele><time>2026-03-28T08:42:30.473Z</time></trkpt><trkpt lat="43.838301" lon="11.3005772"><ele>301.0</ele><time>2026-03-28T08:42:33.464Z</time></trkpt><trkpt lat="43.8383689" lon="11.3005164"><ele>301.0</ele><time>2026-03-28T08:42:36.469Z</time></trkpt><trkpt lat="43.8384303" lon="11.3004643"><ele>301.0</ele><time>2026-03-28T08:42:39.454Z</time></trkpt><trkpt lat="43.8384944" lon="11.300418"><ele>301.0</ele><time>2026-03-28T08:42:42.455Z</time></trkpt><trkpt lat="43.8385515" lon="11.3003576"><ele>301.0</ele><time>2026-03-28T08:42:45.455Z</time></trkpt><trkpt lat="43.8386152" lon="11.3002976"><ele>302.8333333333333</ele><time>2026-03-28T08:42:48.451Z</time></trkpt><trkpt lat="43.8386722" lon="11.3002031"><ele>304.66666666666663</ele><time>2026-03-28T08:42:52.471Z</time></trkpt><trkpt lat="43.8387344" lon="11.3001267"><ele>306.5</ele><time>2026-03-28T08:42:55.462Z</time></trkpt><trkpt lat="43.8387857" lon="11.3000747"><ele>308.3333333333333</ele><time>2026-03-28T08:42:58.473Z</time></trkpt><trkpt lat="43.8388526" lon="11.3000305"><ele>310.1666666666667</ele><time>2026-03-28T08:43:01.463Z</time></trkpt><trkpt lat="43.8389386" lon="11.2999981"><ele>312.0</ele><time>2026-03-28T08:43:04.485Z</time></trkpt><trkpt lat="43.8390232" lon="11.2999537"><ele>312.0</ele><time>2026-03-28T08:43:07.463Z</time></trkpt><trkpt lat="43.8391025" lon="11.299911"><ele>312.0</ele><time>2026-03-28T08:43:10.48Z</time></trkpt><trkpt lat="43.83918" lon="11.2998871"><ele>312.0</ele><time>2026-03-28T08:43:13.473Z</time></trkpt><trkpt lat="43.8392476" lon="11.2998644"><ele>312.0</ele><time>2026-03-28T08:43:15.46Z</time></trkpt><trkpt lat="43.8393108" lon="11.2998469"><ele>312.0</ele><time>2026-03-28T08:43:17.483Z</time></trkpt><trkpt lat="43.8393965" lon="11.2998144"><ele>312.0</ele><time>2026-03-28T08:43:20.471Z</time></trkpt><trkpt lat="43.8394774" lon="11.2997763"><ele>312.6666666666667</ele><time>2026-03-28T08:43:23.474Z</time></trkpt><trkpt lat="43.8395412" lon="11.2997161"><ele>313.3333333333333</ele><time>2026-03-28T08:43:26.465Z</time></trkpt><trkpt lat="43.8396139" lon="11.2996706"><ele>314.0</ele><time>2026-03-28T08:43:29.478Z</time></trkpt><trkpt lat="43.8396848" lon="11.2996241"><ele>314.66666666666663</ele><time>2026-03-28T08:43:32.473Z</time></trkpt><trkpt lat="43.839757" lon="11.2995927"><ele>315.3333333333333</ele><time>2026-03-28T08:43:35.471Z</time></trkpt><trkpt lat="43.8398417" lon="11.2996025"><ele>316.0</ele><time>2026-03-28T08:43:38.469Z</time></trkpt><trkpt lat="43.8399022" lon="11.2996277"><ele>316.0</ele><time>2026-03-28T08:43:40.459Z</time></trkpt><trkpt lat="43.8399699" lon="11.2996475"><ele>316.0</ele><time>2026-03-28T08:43:42.466Z</time></trkpt><trkpt lat="43.8400395" lon="11.2996805"><ele>316.0</ele><time>2026-03-28T08:43:44.475Z</time></trkpt><trkpt lat="43.8400991" lon="11.2997188"><ele>316.0</ele><time>2026-03-28T08:43:46.467Z</time></trkpt><trkpt lat="43.8401778" lon="11.2997348"><ele>316.0</ele><time>2026-03-28T08:43:48.467Z</time></trkpt><trkpt lat="43.8402827" lon="11.2997133"><ele>316.0</ele><time>2026-03-28T08:43:50.471Z</time></trkpt><trkpt lat="43.840346" lon="11.2996821"><ele>315.2</ele><time>2026-03-28T08:43:51.464Z</time></trkpt><trkpt lat="43.840425" lon="11.2996315"><ele>314.40000000000003</ele><time>2026-03-28T08:43:52.49Z</time></trkpt><trkpt lat="43.8405085" lon="11.2995763"><ele>313.6</ele><time>2026-03-28T08:43:53.465Z</time></trkpt><trkpt lat="43.840598" lon="11.2995216"><ele>312.8</ele><time>2026-03-28T08:43:54.46Z</time></trkpt><trkpt lat="43.8406877" lon="11.2994709"><ele>312.0</ele><time>2026-03-28T08:43:55.47Z</time></trkpt><trkpt lat="43.8407627" lon="11.2994091"><ele>312.0</ele><time>2026-03-28T08:43:56.477Z</time></trkpt><trkpt lat="43.8408387" lon="11.2993581"><ele>312.0</ele><time>2026-03-28T08:43:57.467Z</time></trkpt><trkpt lat="43.840902" lon="11.299305"><ele>312.0</ele><time>2026-03-28T08:43:58.464Z</time></trkpt><trkpt lat="43.8409553" lon="11.2992502"><ele>312.0</ele><time>2026-03-28T08:43:59.472Z</time></trkpt><trkpt lat="43.8410327" lon="11.2991616"><ele>312.0</ele><time>2026-03-28T08:44:01.46Z</time></trkpt><trkpt lat="43.8410866" lon="11.299112"><ele>312.0</ele><time>2026-03-28T08:44:03.465Z</time></trkpt><trkpt lat="43.8411542" lon="11.299061"><ele>312.6666666666667</ele><time>2026-03-28T08:44:06.48Z</time></trkpt><trkpt lat="43.841227" lon="11.2990052"><ele>313.3333333333333</ele><time>2026-03-28T08:44:09.477Z</time></trkpt><trkpt lat="43.8413066" lon="11.2989385"><ele>314.0</ele><time>2026-03-28T08:44:12.469Z</time></trkpt><trkpt lat="43.8413664" lon="11.2988737"><ele>314.66666666666663</ele><time>2026-03-28T08:44:14.465Z</time></trkpt><trkpt lat="43.8414258" lon="11.298795"><ele>315.3333333333333</ele><time>2026-03-28T08:44:16.475Z</time></trkpt><trkpt lat="43.8414798" lon="11.2987101"><ele>316.0</ele><time>2026-03-28T08:44:19.47Z</time></trkpt><trkpt lat="43.8415328" lon="11.298653"><ele>316.00000000000006</ele><time>2026-03-28T08:44:22.48Z</time></trkpt><trkpt lat="43.8415535" lon="11.2985667"><ele>316.0</ele><time>2026-03-28T08:44:25.464Z</time></trkpt><trkpt lat="43.841594" lon="11.2984851"><ele>316.0</ele><time>2026-03-28T08:44:28.479Z</time></trkpt><trkpt lat="43.8416318" lon="11.2984041"><ele>316.0</ele><time>2026-03-28T08:44:31.456Z</time></trkpt><trkpt lat="43.8416825" lon="11.2983239"><ele>316.0</ele><time>2026-03-28T08:44:35.464Z</time></trkpt><trkpt lat="43.8417185" lon="11.298237"><ele>316.00000000000006</ele><time>2026-03-28T08:44:38.467Z</time></trkpt><trkpt lat="43.8417713" lon="11.2981594"><ele>316.0</ele><time>2026-03-28T08:44:41.462Z</time></trkpt><trkpt lat="43.8418204" lon="11.2980686"><ele>317.8333333333333</ele><time>2026-03-28T08:44:44.468Z</time></trkpt><trkpt lat="43.8418573" lon="11.2979583"><ele>319.66666666666663</ele><time>2026-03-28T08:44:47.478Z</time></trkpt><trkpt lat="43.8418905" lon="11.2978386"><ele>321.5</ele><time>2026-03-28T08:44:50.478Z</time></trkpt><trkpt lat="43.8419279" lon="11.2977361"><ele>323.3333333333333</ele><time>2026-03-28T08:44:53.456Z</time></trkpt><trkpt lat="43.8419514" lon="11.297625"><ele>325.1666666666667</ele><time>2026-03-28T08:44:56.479Z</time></trkpt><trkpt lat="43.8419763" lon="11.2975261"><ele>327.0</ele><time>2026-03-28T08:44:59.467Z</time></trkpt><trkpt lat="43.8420109" lon="11.2974343"><ele>327.0</ele><time>2026-03-28T08:45:02.469Z</time></trkpt><trkpt lat="43.8420483" lon="11.2973515"><ele>327.0</ele><time>2026-03-28T08:45:05.479Z</time></trkpt><trkpt lat="43.8420881" lon="11.2972774"><ele>327.0</ele><time>2026-03-28T08:45:08.463Z</time></trkpt><trkpt lat="43.8421065" lon="11.2971867"><ele>327.0</ele><time>2026-03-28T08:45:11.462Z</time></trkpt><trkpt lat="43.8421396" lon="11.2971016"><ele>327.0</ele><time>2026-03-28T08:45:14.478Z</time></trkpt><trkpt lat="43.842186" lon="11.2970209"><ele>327.0</ele><time>2026-03-28T08:45:17.476Z</time></trkpt><trkpt lat="43.8422243" lon="11.2969336"><ele>327.0</ele><time>2026-03-28T08:45:20.482Z</time></trkpt><trkpt lat="43.8422656" lon="11.2968636"><ele>327.85714285714283</ele><time>2026-03-28T08:45:23.472Z</time></trkpt><trkpt lat="43.8423059" lon="11.2967713"><ele>328.7142857142857</ele><time>2026-03-28T08:45:27.466Z</time></trkpt><trkpt lat="43.8423303" lon="11.2966693"><ele>329.57142857142856</ele><time>2026-03-28T08:45:31.462Z</time></trkpt><trkpt lat="43.8423596" lon="11.2965878"><ele>330.42857142857144</ele><time>2026-03-28T08:45:34.471Z</time></trkpt><trkpt lat="43.8423984" lon="11.2965"><ele>331.2857142857143</ele><time>2026-03-28T08:45:38.489Z</time></trkpt><trkpt lat="43.8424331" lon="11.2964213"><ele>332.14285714285717</ele><time>2026-03-28T08:45:42.463Z</time></trkpt><trkpt lat="43.8424574" lon="11.2963158"><ele>333.0</ele><time>2026-03-28T08:45:47.464Z</time></trkpt><trkpt lat="43.8424882" lon="11.2962387"><ele>333.6666666666667</ele><time>2026-03-28T08:45:51.461Z</time></trkpt><trkpt lat="43.8425377" lon="11.2961468"><ele>334.3333333333333</ele><time>2026-03-28T08:45:56.47Z</time></trkpt><trkpt lat="43.8425651" lon="11.2960643"><ele>335.0</ele><time>2026-03-28T08:45:59.463Z</time></trkpt><trkpt lat="43.8425898" lon="11.2959546"><ele>335.66666666666663</ele><time>2026-03-28T08:46:03.463Z</time></trkpt><trkpt lat="43.8425987" lon="11.2958588"><ele>336.3333333333333</ele><time>2026-03-28T08:46:07.466Z</time></trkpt><trkpt lat="43.8426206" lon="11.2957685"><ele>337.0</ele><time>2026-03-28T08:46:11.463Z</time></trkpt><trkpt lat="43.8426612" lon="11.2956338"><ele>338.3333333333333</ele><time>2026-03-28T08:46:17.476Z</time></trkpt><trkpt lat="43.8426897" lon="11.2955493"><ele>339.66666666666663</ele><time>2026-03-28T08:46:22.462Z</time></trkpt><trkpt lat="43.8427076" lon="11.295454"><ele>341.0</ele><time>2026-03-28T08:46:26.466Z</time></trkpt><trkpt lat="43.8427253" lon="11.2953479"><ele>342.3333333333333</ele><time>2026-03-28T08:46:30.471Z</time></trkpt><trkpt lat="43.8427154" lon="11.2952119"><ele>343.6666666666667</ele><time>2026-03-28T08:46:36.479Z</time></trkpt><trkpt lat="43.8426904" lon="11.2951284"><ele>345.0</ele><time>2026-03-28T08:46:39.473Z</time></trkpt><trkpt lat="43.8426618" lon="11.2950371"><ele>345.0</ele><time>2026-03-28T08:46:42.465Z</time></trkpt><trkpt lat="43.8426358" lon="11.2949296"><ele>345.0</ele><time>2026-03-28T08:46:45.453Z</time></trkpt><trkpt lat="43.8426162" lon="11.2948332"><ele>345.0</ele><time>2026-03-28T08:46:48.465Z</time></trkpt><trkpt lat="43.8426072" lon="11.2947267"><ele>345.0</ele><time>2026-03-28T08:46:51.464Z</time></trkpt><trkpt lat="43.8425972" lon="11.2946126"><ele>345.0</ele><time>2026-03-28T08:46:54.467Z</time></trkpt><trkpt lat="43.8425957" lon="11.294502"><ele>345.0</ele><time>2026-03-28T08:46:57.479Z</time></trkpt><trkpt lat="43.842574" lon="11.2944113"><ele>346.1666666666667</ele><time>2026-03-28T08:47:00.465Z</time></trkpt><trkpt lat="43.8425688" lon="11.2943057"><ele>347.3333333333333</ele><time>2026-03-28T08:47:04.475Z</time></trkpt><trkpt lat="43.842571" lon="11.2941964"><ele>348.5</ele><time>2026-03-28T08:47:08.465Z</time></trkpt><trkpt lat="43.8425603" lon="11.2940955"><ele>349.66666666666663</ele><time>2026-03-28T08:47:11.468Z</time></trkpt><trkpt lat="43.8425443" lon="11.2939824"><ele>350.8333333333333</ele><time>2026-03-28T08:47:14.465Z</time></trkpt><trkpt lat="43.8425389" lon="11.2938827"><ele>352.0</ele><time>2026-03-28T08:47:17.486Z</time></trkpt><trkpt lat="43.842523" lon="11.2937794"><ele>352.8333333333333</ele><time>2026-03-28T08:47:20.46Z</time></trkpt><trkpt lat="43.842504" lon="11.2936767"><ele>353.66666666666663</ele><time>2026-03-28T08:47:23.464Z</time></trkpt><trkpt lat="43.8424979" lon="11.2935504"><ele>354.5</ele><time>2026-03-28T08:47:26.46Z</time></trkpt><trkpt lat="43.8424992" lon="11.2934184"><ele>355.3333333333333</ele><time>2026-03-28T08:47:29.466Z</time></trkpt><trkpt lat="43.8424959" lon="11.2932931"><ele>356.1666666666667</ele><time>2026-03-28T08:47:32.478Z</time></trkpt><trkpt lat="43.8424957" lon="11.2931905"><ele>357.0</ele><time>2026-03-28T08:47:35.463Z</time></trkpt><trkpt lat="43.8424791" lon="11.2930789"><ele>358.8333333333333</ele><time>2026-03-28T08:47:38.46Z</time></trkpt><trkpt lat="43.8424738" lon="11.2929837"><ele>360.6666666666667</ele><time>2026-03-28T08:47:41.472Z</time></trkpt><trkpt lat="43.8424626" lon="11.2928764"><ele>362.5</ele><time>2026-03-28T08:47:45.471Z</time></trkpt><trkpt lat="43.8424444" lon="11.2927587"><ele>364.33333333333337</ele><time>2026-03-28T08:47:49.476Z</time></trkpt><trkpt lat="43.8424348" lon="11.292666"><ele>366.1666666666667</ele><time>2026-03-28T08:47:52.473Z</time></trkpt><trkpt lat="43.842422" lon="11.2925607"><ele>368.0</ele><time>2026-03-28T08:47:56.459Z</time></trkpt><trkpt lat="43.8424191" lon="11.292455"><ele>368.0</ele><time>2026-03-28T08:48:00.464Z</time></trkpt><trkpt lat="43.8424259" lon="11.2923448"><ele>368.0</ele><time>2026-03-28T08:48:04.463Z</time></trkpt><trkpt lat="43.8424334" lon="11.2922323"><ele>368.0</ele><time>2026-03-28T08:48:08.462Z</time></trkpt><trkpt lat="43.842436" lon="11.2921449"><ele>368.0</ele><time>2026-03-28T08:48:12.471Z</time></trkpt><trkpt lat="43.8424397" lon="11.2920487"><ele>368.0</ele><time>2026-03-28T08:48:16.474Z</time></trkpt><trkpt lat="43.8424339" lon="11.2919558"><ele>368.0</ele><time>2026-03-28T08:48:20.459Z</time></trkpt><trkpt lat="43.8424331" lon="11.2918601"><ele>368.0</ele><time>2026-03-28T08:48:24.47Z</time></trkpt><trkpt lat="43.8424114" lon="11.2917617"><ele>370.0</ele><time>2026-03-28T08:48:27.468Z</time></trkpt><trkpt lat="43.842392" lon="11.2916532"><ele>372.0</ele><time>2026-03-28T08:48:31.456Z</time></trkpt><trkpt lat="43.8423402" lon="11.291567"><ele>374.0</ele><time>2026-03-28T08:48:35.466Z</time></trkpt><trkpt lat="43.8422986" lon="11.2914899"><ele>376.0</ele><time>2026-03-28T08:48:38.46Z</time></trkpt><trkpt lat="43.8422892" lon="11.2914009"><ele>378.0</ele><time>2026-03-28T08:48:43.454Z</time></trkpt><trkpt lat="43.8422787" lon="11.2912871"><ele>380.0</ele><time>2026-03-28T08:48:47.455Z</time></trkpt><trkpt lat="43.8422784" lon="11.291183"><ele>381.2857142857143</ele><time>2026-03-28T08:48:52.506Z</time></trkpt><trkpt lat="43.8422834" lon="11.2910807"><ele>382.57142857142856</ele><time>2026-03-28T08:48:56.46Z</time></trkpt><trkpt lat="43.8422943" lon="11.290991"><ele>383.8571428571429</ele><time>2026-03-28T08:48:59.456Z</time></trkpt><trkpt lat="43.8422977" lon="11.2908775"><ele>385.1428571428571</ele><time>2026-03-28T08:49:03.459Z</time></trkpt><trkpt lat="43.8423037" lon="11.2907822"><ele>386.4285714285714</ele><time>2026-03-28T08:49:08.473Z</time></trkpt><trkpt lat="43.8422998" lon="11.2906806"><ele>387.7142857142857</ele><time>2026-03-28T08:49:13.46Z</time></trkpt><trkpt lat="43.8423365" lon="11.2905906"><ele>389.0</ele><time>2026-03-28T08:49:18.471Z</time></trkpt><trkpt lat="43.842369" lon="11.2905047"><ele>389.0</ele><time>2026-03-28T08:49:22.472Z</time></trkpt><trkpt lat="43.842399" lon="11.2904218"><ele>389.0</ele><time>2026-03-28T08:49:26.47Z</time></trkpt><trkpt lat="43.8424448" lon="11.2903394"><ele>389.0</ele><time>2026-03-28T08:49:31.462Z</time></trkpt><trkpt lat="43.8425116" lon="11.2902773"><ele>389.0</ele><time>2026-03-28T08:49:36.462Z</time></trkpt><trkpt lat="43.842568" lon="11.2902302"><ele>389.0</ele><time>2026-03-28T08:49:39.47Z</time></trkpt><trkpt lat="43.842624" lon="11.2901872"><ele>389.0</ele><time>2026-03-28T08:49:43.477Z</time></trkpt><trkpt lat="43.8426992" lon="11.2901466"><ele>389.0</ele><time>2026-03-28T08:49:47.454Z</time></trkpt><trkpt lat="43.8427682" lon="11.2901002"><ele>388.7142857142857</ele><time>2026-03-28T08:49:51.454Z</time></trkpt><trkpt lat="43.8428148" lon="11.2900402"><ele>388.4285714285714</ele><time>2026-03-28T08:49:54.453Z</time></trkpt><trkpt lat="43.8428703" lon="11.2899498"><ele>388.1428571428571</ele><time>2026-03-28T08:49:57.468Z</time></trkpt><trkpt lat="43.842911" lon="11.2898811"><ele>387.8571428571429</ele><time>2026-03-28T08:49:59.449Z</time></trkpt><trkpt lat="43.842958" lon="11.2897979"><ele>387.57142857142856</ele><time>2026-03-28T08:50:02.463Z</time></trkpt><trkpt lat="43.8429893" lon="11.289705"><ele>387.2857142857143</ele><time>2026-03-28T08:50:05.454Z</time></trkpt><trkpt lat="43.8430657" lon="11.289706"><ele>387.0</ele><time>2026-03-28T08:50:09.462Z</time></trkpt><trkpt lat="43.84314" lon="11.2897407"><ele>388.8333333333333</ele><time>2026-03-28T08:50:12.462Z</time></trkpt><trkpt lat="43.8432067" lon="11.289774"><ele>390.66666666666663</ele><time>2026-03-28T08:50:15.456Z</time></trkpt><trkpt lat="43.8432747" lon="11.2898231"><ele>392.5</ele><time>2026-03-28T08:50:18.461Z</time></trkpt><trkpt lat="43.8433385" lon="11.2898659"><ele>394.3333333333333</ele><time>2026-03-28T08:50:21.492Z</time></trkpt><trkpt lat="43.8434113" lon="11.2899033"><ele>396.16666666666663</ele><time>2026-03-28T08:50:24.462Z</time></trkpt><trkpt lat="43.843494" lon="11.2899234"><ele>398.0</ele><time>2026-03-28T08:50:27.47Z</time></trkpt><trkpt lat="43.8435792" lon="11.2899435"><ele>398.66666666666663</ele><time>2026-03-28T08:50:30.464Z</time></trkpt><trkpt lat="43.8436424" lon="11.2899808"><ele>399.3333333333333</ele><time>2026-03-28T08:50:33.459Z</time></trkpt><trkpt lat="43.8437094" lon="11.2900229"><ele>400.0</ele><time>2026-03-28T08:50:37.464Z</time></trkpt><trkpt lat="43.8437601" lon="11.2899618"><ele>400.66666666666663</ele><time>2026-03-28T08:51:13.46Z</time></trkpt><trkpt lat="43.8437705" lon="11.2898651"><ele>401.3333333333333</ele><time>2026-03-28T08:51:17.455Z</time></trkpt><trkpt lat="43.8438392" lon="11.2897802"><ele>402.0</ele><time>2026-03-28T08:51:23.47Z</time></trkpt><trkpt lat="43.8439131" lon="11.2896607"><ele>400.8333333333333</ele><time>2026-03-28T08:51:25.45Z</time></trkpt><trkpt lat="43.843957" lon="11.2895892"><ele>399.66666666666663</ele><time>2026-03-28T08:51:26.452Z</time></trkpt><trkpt lat="43.8439989" lon="11.2895135"><ele>398.5</ele><time>2026-03-28T08:51:27.471Z</time></trkpt><trkpt lat="43.8440759" lon="11.2894057"><ele>397.3333333333333</ele><time>2026-03-28T08:51:29.462Z</time></trkpt><trkpt lat="43.8441467" lon="11.289332"><ele>396.16666666666663</ele><time>2026-03-28T08:51:31.487Z</time></trkpt><trkpt lat="43.844234" lon="11.2892373"><ele>395.0</ele><time>2026-03-28T08:51:33.462Z</time></trkpt><trkpt lat="43.844332" lon="11.2891454"><ele>394.99999999999994</ele><time>2026-03-28T08:51:35.451Z</time></trkpt><trkpt lat="43.8444194" lon="11.2890339"><ele>395.0</ele><time>2026-03-28T08:51:37.451Z</time></trkpt><trkpt lat="43.8445096" lon="11.2889265"><ele>395.0</ele><time>2026-03-28T08:51:39.466Z</time></trkpt><trkpt lat="43.8445529" lon="11.2888593"><ele>395.0</ele><time>2026-03-28T08:51:40.458Z</time></trkpt><trkpt lat="43.8445901" lon="11.2887793"><ele>394.99999999999994</ele><time>2026-03-28T08:51:41.461Z</time></trkpt><trkpt lat="43.8446217" lon="11.288693"><ele>395.0</ele><time>2026-03-28T08:51:42.465Z</time></trkpt><trkpt lat="43.8446513" lon="11.2886051"><ele>392.99999999999994</ele><time>2026-03-28T08:51:43.467Z</time></trkpt><trkpt lat="43.8446845" lon="11.2885153"><ele>391.0</ele><time>2026-03-28T08:51:44.472Z</time></trkpt><trkpt lat="43.8447198" lon="11.2884282"><ele>389.0</ele><time>2026-03-28T08:51:45.455Z</time></trkpt><trkpt lat="43.8447551" lon="11.2883437"><ele>387.0</ele><time>2026-03-28T08:51:46.465Z</time></trkpt><trkpt lat="43.8447874" lon="11.2882621"><ele>385.0</ele><time>2026-03-28T08:51:47.452Z</time></trkpt><trkpt lat="43.8448653" lon="11.2881439"><ele>383.0</ele><time>2026-03-28T08:51:49.465Z</time></trkpt><trkpt lat="43.8449093" lon="11.2880789"><ele>381.1666666666667</ele><time>2026-03-28T08:51:50.466Z</time></trkpt><trkpt lat="43.8449509" lon="11.2880086"><ele>379.33333333333337</ele><time>2026-03-28T08:51:51.454Z</time></trkpt><trkpt lat="43.8449939" lon="11.2879373"><ele>377.5</ele><time>2026-03-28T08:51:52.478Z</time></trkpt><trkpt lat="43.8450297" lon="11.2878643"><ele>375.6666666666667</ele><time>2026-03-28T08:51:53.458Z</time></trkpt><trkpt lat="43.8450912" lon="11.2877288"><ele>373.8333333333333</ele><time>2026-03-28T08:51:55.465Z</time></trkpt><trkpt lat="43.8451432" lon="11.2876093"><ele>372.0</ele><time>2026-03-28T08:51:57.455Z</time></trkpt><trkpt lat="43.8451998" lon="11.2874835"><ele>372.00000000000006</ele><time>2026-03-28T08:51:59.451Z</time></trkpt><trkpt lat="43.8452394" lon="11.2874078"><ele>372.0</ele><time>2026-03-28T08:52:00.476Z</time></trkpt><trkpt lat="43.8452835" lon="11.2873288"><ele>372.0</ele><time>2026-03-28T08:52:01.459Z</time></trkpt><trkpt lat="43.8453307" lon="11.2872534"><ele>372.0</ele><time>2026-03-28T08:52:02.482Z</time></trkpt><trkpt lat="43.8453813" lon="11.2871807"><ele>372.0</ele><time>2026-03-28T08:52:03.453Z</time></trkpt><trkpt lat="43.8454328" lon="11.287112"><ele>372.00000000000006</ele><time>2026-03-28T08:52:04.463Z</time></trkpt><trkpt lat="43.8454836" lon="11.2870414"><ele>372.0</ele><time>2026-03-28T08:52:05.474Z</time></trkpt><trkpt lat="43.8455374" lon="11.2869819"><ele>370.5</ele><time>2026-03-28T08:52:06.455Z</time></trkpt><trkpt lat="43.8455971" lon="11.2869191"><ele>369.0</ele><time>2026-03-28T08:52:07.454Z</time></trkpt><trkpt lat="43.845666" lon="11.2868566"><ele>367.5</ele><time>2026-03-28T08:52:08.45Z</time></trkpt><trkpt lat="43.8457387" lon="11.2867954"><ele>366.0</ele><time>2026-03-28T08:52:09.458Z</time></trkpt><trkpt lat="43.8458172" lon="11.2867406"><ele>364.5</ele><time>2026-03-28T08:52:10.451Z</time></trkpt><trkpt lat="43.8458926" lon="11.286692"><ele>363.0</ele><time>2026-03-28T08:52:11.473Z</time></trkpt><trkpt lat="43.8459578" lon="11.2866428"><ele>363.4</ele><time>2026-03-28T08:52:12.453Z</time></trkpt><trkpt lat="43.8460227" lon="11.286611"><ele>363.79999999999995</ele><time>2026-03-28T08:52:13.45Z</time></trkpt><trkpt lat="43.8461231" lon="11.2865195"><ele>364.2</ele><time>2026-03-28T08:52:15.493Z</time></trkpt><trkpt lat="43.8461927" lon="11.2863941"><ele>364.6</ele><time>2026-03-28T08:52:17.458Z</time></trkpt><trkpt lat="43.8462829" lon="11.2862849"><ele>365.0</ele><time>2026-03-28T08:52:19.461Z</time></trkpt><trkpt lat="43.8463472" lon="11.2862479"><ele>364.0</ele><time>2026-03-28T08:52:20.454Z</time></trkpt><trkpt lat="43.8464148" lon="11.2862252"><ele>363.0</ele><time>2026-03-28T08:52:21.46Z</time></trkpt><trkpt lat="43.8464811" lon="11.2862225"><ele>362.0</ele><time>2026-03-28T08:52:22.456Z</time></trkpt><trkpt lat="43.8465478" lon="11.2862316"><ele>361.0</ele><time>2026-03-28T08:52:23.45Z</time></trkpt><trkpt lat="43.8466653" lon="11.2862772"><ele>360.0</ele><time>2026-03-28T08:52:25.468Z</time></trkpt><trkpt lat="43.8467697" lon="11.2863098"><ele>359.0</ele><time>2026-03-28T08:52:27.456Z</time></trkpt><trkpt lat="43.8468523" lon="11.2863281"><ele>361.7142857142857</ele><time>2026-03-28T08:52:29.463Z</time></trkpt><trkpt lat="43.8469328" lon="11.2863158"><ele>364.42857142857144</ele><time>2026-03-28T08:52:32.464Z</time></trkpt><trkpt lat="43.8470012" lon="11.2863195"><ele>367.1428571428571</ele><time>2026-03-28T08:52:36.46Z</time></trkpt><trkpt lat="43.8470699" lon="11.2862827"><ele>369.8571428571429</ele><time>2026-03-28T08:52:39.458Z</time></trkpt><trkpt lat="43.8471317" lon="11.2862448"><ele>372.57142857142856</ele><time>2026-03-28T08:52:42.453Z</time></trkpt><trkpt lat="43.847196" lon="11.2861999"><ele>375.2857142857143</ele><time>2026-03-28T08:52:46.471Z</time></trkpt><trkpt lat="43.8472505" lon="11.2861132"><ele>378.0</ele><time>2026-03-28T08:52:50.449Z</time></trkpt><trkpt lat="43.8472877" lon="11.286031"><ele>378.0</ele><time>2026-03-28T08:52:53.462Z</time></trkpt><trkpt lat="43.847325" lon="11.2859549"><ele>378.0</ele><time>2026-03-28T08:52:56.454Z</time></trkpt><trkpt lat="43.8473787" lon="11.2858908"><ele>378.0</ele><time>2026-03-28T08:53:00.458Z</time></trkpt><trkpt lat="43.8474343" lon="11.2858134"><ele>378.0</ele><time>2026-03-28T08:53:03.456Z</time></trkpt><trkpt lat="43.8474844" lon="11.2857139"><ele>378.0</ele><time>2026-03-28T08:53:07.459Z</time></trkpt><trkpt lat="43.8475358" lon="11.2856387"><ele>378.0</ele><time>2026-03-28T08:53:10.46Z</time></trkpt><trkpt lat="43.8475733" lon="11.2855542"><ele>377.1666666666667</ele><time>2026-03-28T08:53:13.463Z</time></trkpt><trkpt lat="43.8476269" lon="11.285499"><ele>376.3333333333333</ele><time>2026-03-28T08:53:16.457Z</time></trkpt><trkpt lat="43.8476898" lon="11.2854527"><ele>375.5</ele><time>2026-03-28T08:53:20.459Z</time></trkpt><trkpt lat="43.8477613" lon="11.2853754"><ele>374.66666666666663</ele><time>2026-03-28T08:53:23.467Z</time></trkpt><trkpt lat="43.8478199" lon="11.2853222"><ele>373.8333333333333</ele><time>2026-03-28T08:53:26.462Z</time></trkpt><trkpt lat="43.8478779" lon="11.2852623"><ele>373.0</ele><time>2026-03-28T08:53:29.479Z</time></trkpt><trkpt lat="43.8479347" lon="11.2851702"><ele>375.3333333333333</ele><time>2026-03-28T08:53:32.462Z</time></trkpt><trkpt lat="43.847987" lon="11.2850739"><ele>377.66666666666663</ele><time>2026-03-28T08:53:35.457Z</time></trkpt><trkpt lat="43.8480237" lon="11.2850029"><ele>380.0</ele><time>2026-03-28T08:53:37.477Z</time></trkpt><trkpt lat="43.8480841" lon="11.284924"><ele>382.3333333333333</ele><time>2026-03-28T08:53:40.461Z</time></trkpt><trkpt lat="43.8481535" lon="11.2848703"><ele>384.6666666666667</ele><time>2026-03-28T08:53:43.452Z</time></trkpt><trkpt lat="43.8482241" lon="11.2848539"><ele>387.0</ele><time>2026-03-28T08:53:45.455Z</time></trkpt><trkpt lat="43.8483304" lon="11.2848183"><ele>387.0</ele><time>2026-03-28T08:53:47.455Z</time></trkpt><trkpt lat="43.8484005" lon="11.2847822"><ele>387.0</ele><time>2026-03-28T08:53:48.452Z</time></trkpt><trkpt lat="43.8484638" lon="11.284741"><ele>387.0</ele><time>2026-03-28T08:53:49.448Z</time></trkpt><trkpt lat="43.8485347" lon="11.2846868"><ele>387.0</ele><time>2026-03-28T08:53:50.46Z</time></trkpt><trkpt lat="43.8485972" lon="11.2846168"><ele>387.0</ele><time>2026-03-28T08:53:51.449Z</time></trkpt><trkpt lat="43.8486485" lon="11.2845474"><ele>387.0</ele><time>2026-03-28T08:53:52.451Z</time></trkpt><trkpt lat="43.8487011" lon="11.2844739"><ele>386.6666666666667</ele><time>2026-03-28T08:53:53.452Z</time></trkpt><trkpt lat="43.8487531" lon="11.2844136"><ele>386.33333333333337</ele><time>2026-03-28T08:53:54.451Z</time></trkpt><trkpt lat="43.8488412" lon="11.2843377"><ele>386.0</ele><time>2026-03-28T08:53:56.449Z</time></trkpt><trkpt lat="43.8489074" lon="11.2842908"><ele>385.6666666666667</ele><time>2026-03-28T08:53:59.45Z</time></trkpt><trkpt lat="43.8489809" lon="11.2842293"><ele>385.33333333333337</ele><time>2026-03-28T08:54:03.462Z</time></trkpt><trkpt lat="43.8490393" lon="11.2841613"><ele>385.0</ele><time>2026-03-28T08:54:06.453Z</time></trkpt><trkpt lat="43.8491044" lon="11.2840949"><ele>385.00000000000006</ele><time>2026-03-28T08:54:09.449Z</time></trkpt><trkpt lat="43.8491644" lon="11.2840284"><ele>385.0</ele><time>2026-03-28T08:54:12.457Z</time></trkpt><trkpt lat="43.8492365" lon="11.2839439"><ele>385.0</ele><time>2026-03-28T08:54:15.452Z</time></trkpt><trkpt lat="43.8493066" lon="11.2838957"><ele>385.0</ele><time>2026-03-28T08:54:17.447Z</time></trkpt><trkpt lat="43.8493715" lon="11.2838465"><ele>385.00000000000006</ele><time>2026-03-28T08:54:19.454Z</time></trkpt><trkpt lat="43.8494271" lon="11.2837935"><ele>385.0</ele><time>2026-03-28T08:54:21.467Z</time></trkpt><trkpt lat="43.8494858" lon="11.2837251"><ele>385.6666666666667</ele><time>2026-03-28T08:54:24.45Z</time></trkpt><trkpt lat="43.8495244" lon="11.283637"><ele>386.33333333333337</ele><time>2026-03-28T08:54:29.459Z</time></trkpt><trkpt lat="43.8495334" lon="11.2835406"><ele>387.0</ele><time>2026-03-28T08:54:34.446Z</time></trkpt><trkpt lat="43.8495449" lon="11.2834303"><ele>387.66666666666663</ele><time>2026-03-28T08:54:37.45Z</time></trkpt><trkpt lat="43.8495907" lon="11.2833297"><ele>388.3333333333333</ele><time>2026-03-28T08:54:40.453Z</time></trkpt><trkpt lat="43.8496605" lon="11.2833048"><ele>389.0</ele><time>2026-03-28T08:54:43.462Z</time></trkpt><trkpt lat="43.8497377" lon="11.2832811"><ele>388.99999999999994</ele><time>2026-03-28T08:54:46.453Z</time></trkpt><trkpt lat="43.8497943" lon="11.2832143"><ele>389.0</ele><time>2026-03-28T08:54:49.467Z</time></trkpt><trkpt lat="43.8498578" lon="11.2831467"><ele>389.0</ele><time>2026-03-28T08:54:51.452Z</time></trkpt><trkpt lat="43.8499401" lon="11.2830655"><ele>389.0</ele><time>2026-03-28T08:54:53.463Z</time></trkpt><trkpt lat="43.8500415" lon="11.2829742"><ele>388.99999999999994</ele><time>2026-03-28T08:54:55.458Z</time></trkpt><trkpt lat="43.8501091" lon="11.2829352"><ele>389.0</ele><time>2026-03-28T08:54:56.451Z</time></trkpt><trkpt lat="43.8501815" lon="11.2828913"><ele>387.16666666666663</ele><time>2026-03-28T08:54:57.452Z</time></trkpt><trkpt lat="43.8502506" lon="11.2828398"><ele>385.3333333333333</ele><time>2026-03-28T08:54:58.452Z</time></trkpt><trkpt lat="43.8503229" lon="11.2828027"><ele>383.5</ele><time>2026-03-28T08:54:59.464Z</time></trkpt><trkpt lat="43.8503949" lon="11.2827608"><ele>381.66666666666663</ele><time>2026-03-28T08:55:00.45Z</time></trkpt><trkpt lat="43.8504657" lon="11.2827068"><ele>379.8333333333333</ele><time>2026-03-28T08:55:01.449Z</time></trkpt><trkpt lat="43.8505362" lon="11.2826575"><ele>378.0</ele><time>2026-03-28T08:55:02.46Z</time></trkpt><trkpt lat="43.8506152" lon="11.2825946"><ele>378.0</ele><time>2026-03-28T08:55:03.456Z</time></trkpt><trkpt lat="43.8506868" lon="11.2825236"><ele>378.0</ele><time>2026-03-28T08:55:04.453Z</time></trkpt><trkpt lat="43.8507585" lon="11.2824513"><ele>378.0</ele><time>2026-03-28T08:55:05.453Z</time></trkpt><trkpt lat="43.8508297" lon="11.2823904"><ele>378.0</ele><time>2026-03-28T08:55:06.454Z</time></trkpt><trkpt lat="43.8508894" lon="11.2823305"><ele>378.0</ele><time>2026-03-28T08:55:07.45Z</time></trkpt><trkpt lat="43.85098" lon="11.2822139"><ele>378.0</ele><time>2026-03-28T08:55:09.476Z</time></trkpt><trkpt lat="43.8510194" lon="11.2821443"><ele>378.0</ele><time>2026-03-28T08:55:10.456Z</time></trkpt><trkpt lat="43.8510792" lon="11.2820405"><ele>378.0</ele><time>2026-03-28T08:55:12.448Z</time></trkpt><trkpt lat="43.8511178" lon="11.2819658"><ele>378.0</ele><time>2026-03-28T08:55:14.449Z</time></trkpt><trkpt lat="43.8511466" lon="11.2818874"><ele>378.0</ele><time>2026-03-28T08:55:16.45Z</time></trkpt><trkpt lat="43.8511969" lon="11.2818004"><ele>378.0</ele><time>2026-03-28T08:55:19.446Z</time></trkpt><trkpt lat="43.8512356" lon="11.2817095"><ele>378.0</ele><time>2026-03-28T08:55:22.463Z</time></trkpt><trkpt lat="43.8512768" lon="11.2816113"><ele>378.0</ele><time>2026-03-28T08:55:25.45Z</time></trkpt><trkpt lat="43.8513043" lon="11.281529"><ele>378.0</ele><time>2026-03-28T08:55:27.451Z</time></trkpt><trkpt lat="43.8513314" lon="11.2814426"><ele>378.0</ele><time>2026-03-28T08:55:29.47Z</time></trkpt><trkpt lat="43.8513668" lon="11.2813674"><ele>378.0</ele><time>2026-03-28T08:55:31.448Z</time></trkpt><trkpt lat="43.8514038" lon="11.2812544"><ele>378.0</ele><time>2026-03-28T08:55:33.449Z</time></trkpt><trkpt lat="43.8514519" lon="11.2811465"><ele>378.0</ele><time>2026-03-28T08:55:35.451Z</time></trkpt><trkpt lat="43.8514988" lon="11.2810771"><ele>378.0</ele><time>2026-03-28T08:55:37.455Z</time></trkpt><trkpt lat="43.851558" lon="11.2810118"><ele>378.14285714285717</ele><time>2026-03-28T08:55:41.451Z</time></trkpt><trkpt lat="43.8516094" lon="11.2809488"><ele>378.2857142857143</ele><time>2026-03-28T08:55:44.468Z</time></trkpt><trkpt lat="43.8516418" lon="11.2808681"><ele>378.42857142857144</ele><time>2026-03-28T08:55:47.463Z</time></trkpt><trkpt lat="43.8516655" lon="11.2807664"><ele>378.57142857142856</ele><time>2026-03-28T08:55:50.453Z</time></trkpt><trkpt lat="43.8516856" lon="11.2806768"><ele>378.7142857142857</ele><time>2026-03-28T08:55:53.457Z</time></trkpt><trkpt lat="43.8516997" lon="11.2805799"><ele>378.8571428571429</ele><time>2026-03-28T08:55:56.471Z</time></trkpt><trkpt lat="43.8517275" lon="11.2804947"><ele>379.0</ele><time>2026-03-28T08:55:59.455Z</time></trkpt><trkpt lat="43.8517685" lon="11.2804066"><ele>382.14285714285717</ele><time>2026-03-28T08:56:03.475Z</time></trkpt><trkpt lat="43.8518045" lon="11.2803285"><ele>385.2857142857143</ele><time>2026-03-28T08:56:07.455Z</time></trkpt><trkpt lat="43.8518353" lon="11.2802353"><ele>388.42857142857144</ele><time>2026-03-28T08:56:11.451Z</time></trkpt><trkpt lat="43.8518405" lon="11.2801321"><ele>391.57142857142856</ele><time>2026-03-28T08:56:16.456Z</time></trkpt><trkpt lat="43.8518411" lon="11.2800233"><ele>394.7142857142857</ele><time>2026-03-28T08:56:21.451Z</time></trkpt><trkpt lat="43.8518389" lon="11.2799288"><ele>397.8571428571429</ele><time>2026-03-28T08:56:25.474Z</time></trkpt><trkpt lat="43.8518168" lon="11.2798351"><ele>401.0</ele><time>2026-03-28T08:56:30.455Z</time></trkpt><trkpt lat="43.8517963" lon="11.2797258"><ele>399.14285714285717</ele><time>2026-03-28T08:56:34.46Z</time></trkpt><trkpt lat="43.8517877" lon="11.279637"><ele>397.28571428571433</ele><time>2026-03-28T08:56:37.458Z</time></trkpt><trkpt lat="43.8517854" lon="11.2795362"><ele>395.42857142857144</ele><time>2026-03-28T08:56:41.475Z</time></trkpt><trkpt lat="43.8517696" lon="11.2794465"><ele>393.57142857142856</ele><time>2026-03-28T08:56:45.455Z</time></trkpt><trkpt lat="43.8517668" lon="11.2793463"><ele>391.7142857142857</ele><time>2026-03-28T08:56:49.462Z</time></trkpt><trkpt lat="43.851769" lon="11.2792367"><ele>389.85714285714283</ele><time>2026-03-28T08:56:53.462Z</time></trkpt><trkpt lat="43.8517506" lon="11.2791281"><ele>388.0</ele><time>2026-03-28T08:56:57.472Z</time></trkpt><trkpt lat="43.8517433" lon="11.2790313"><ele>388.0</ele><time>2026-03-28T08:57:00.457Z</time></trkpt><trkpt lat="43.8517315" lon="11.2789452"><ele>388.0</ele><time>2026-03-28T08:57:03.46Z</time></trkpt><trkpt lat="43.8517164" lon="11.2788517"><ele>388.0</ele><time>2026-03-28T08:57:08.465Z</time></trkpt><trkpt lat="43.8517228" lon="11.2787452"><ele>388.0</ele><time>2026-03-28T08:57:13.479Z</time></trkpt><trkpt lat="43.851794" lon="11.2787234"><ele>388.0</ele><time>2026-03-28T08:57:18.456Z</time></trkpt><trkpt lat="43.8518559" lon="11.2787529"><ele>388.0</ele><time>2026-03-28T08:57:23.458Z</time></trkpt><trkpt lat="43.8519171" lon="11.2788026"><ele>388.0</ele><time>2026-03-28T08:57:29.457Z</time></trkpt><trkpt lat="43.852007" lon="11.2788559"><ele>390.0</ele><time>2026-03-28T08:57:38.454Z</time></trkpt><trkpt lat="43.8520595" lon="11.2789098"><ele>392.0</ele><time>2026-03-28T08:57:43.482Z</time></trkpt><trkpt lat="43.8521175" lon="11.2789518"><ele>394.0</ele><time>2026-03-28T08:57:48.453Z</time></trkpt><trkpt lat="43.8521661" lon="11.2790104"><ele>396.0</ele><time>2026-03-28T08:57:54.453Z</time></trkpt><trkpt lat="43.8522247" lon="11.2790594"><ele>398.0</ele><time>2026-03-28T08:58:00.468Z</time></trkpt><trkpt lat="43.8522625" lon="11.2791307"><ele>400.0</ele><time>2026-03-28T08:58:06.454Z</time></trkpt><trkpt lat="43.8523235" lon="11.2791636"><ele>402.0</ele><time>2026-03-28T08:58:53.455Z</time></trkpt><trkpt lat="43.8523748" lon="11.2791101"><ele>402.85714285714283</ele><time>2026-03-28T08:58:56.45Z</time></trkpt><trkpt lat="43.8524396" lon="11.2790679"><ele>403.7142857142857</ele><time>2026-03-28T08:59:00.463Z</time></trkpt><trkpt lat="43.8525094" lon="11.2790355"><ele>404.57142857142856</ele><time>2026-03-28T08:59:05.454Z</time></trkpt><trkpt lat="43.8525798" lon="11.2790019"><ele>405.42857142857144</ele><time>2026-03-28T08:59:32.465Z</time></trkpt><trkpt lat="43.852657" lon="11.2789737"><ele>406.28571428571433</ele><time>2026-03-28T08:59:36.46Z</time></trkpt><trkpt lat="43.8527262" lon="11.2789746"><ele>407.14285714285717</ele><time>2026-03-28T08:59:39.471Z</time></trkpt><trkpt lat="43.8527974" lon="11.2789887"><ele>408.0</ele><time>2026-03-28T08:59:43.462Z</time></trkpt><trkpt lat="43.8528697" lon="11.2789467"><ele>409.42857142857144</ele><time>2026-03-28T09:01:42.46Z</time></trkpt><trkpt lat="43.8529322" lon="11.2789602"><ele>410.8571428571429</ele><time>2026-03-28T09:01:46.463Z</time></trkpt><trkpt lat="43.8529651" lon="11.2790506"><ele>412.2857142857143</ele><time>2026-03-28T09:01:50.453Z</time></trkpt><trkpt lat="43.8529888" lon="11.2791375"><ele>413.7142857142857</ele><time>2026-03-28T09:01:54.462Z</time></trkpt><trkpt lat="43.8530083" lon="11.2792238"><ele>415.1428571428571</ele><time>2026-03-28T09:01:57.456Z</time></trkpt><trkpt lat="43.8530491" lon="11.2793077"><ele>416.57142857142856</ele><time>2026-03-28T09:02:01.452Z</time></trkpt><trkpt lat="43.8530749" lon="11.2793986"><ele>418.0</ele><time>2026-03-28T09:02:06.469Z</time></trkpt><trkpt lat="43.8531156" lon="11.2794867"><ele>418.0</ele><time>2026-03-28T09:02:12.464Z</time></trkpt><trkpt lat="43.8531584" lon="11.2795555"><ele>418.0</ele><time>2026-03-28T09:02:17.464Z</time></trkpt><trkpt lat="43.8532201" lon="11.2796219"><ele>418.0</ele><time>2026-03-28T09:02:22.456Z</time></trkpt><trkpt lat="43.8532799" lon="11.279693"><ele>418.0</ele><time>2026-03-28T09:02:26.466Z</time></trkpt><trkpt lat="43.8533486" lon="11.2797364"><ele>418.0</ele><time>2026-03-28T09:02:30.46Z</time></trkpt><trkpt lat="43.8534214" lon="11.2797626"><ele>418.0</ele><time>2026-03-28T09:02:35.465Z</time></trkpt><trkpt lat="43.8534918" lon="11.2797895"><ele>418.0</ele><time>2026-03-28T09:02:39.461Z</time></trkpt><trkpt lat="43.8535662" lon="11.2798127"><ele>421.0</ele><time>2026-03-28T09:02:44.459Z</time></trkpt><trkpt lat="43.8536359" lon="11.2798595"><ele>424.0</ele><time>2026-03-28T09:02:49.472Z</time></trkpt><trkpt lat="43.8536933" lon="11.2798984"><ele>427.0</ele><time>2026-03-28T09:02:53.48Z</time></trkpt><trkpt lat="43.8537362" lon="11.2799695"><ele>430.0</ele><time>2026-03-28T09:02:57.458Z</time></trkpt><trkpt lat="43.8537671" lon="11.2800493"><ele>433.0</ele><time>2026-03-28T09:03:16.451Z</time></trkpt><trkpt lat="43.853805" lon="11.2801303"><ele>436.0</ele><time>2026-03-28T09:03:21.456Z</time></trkpt><trkpt lat="43.8538646" lon="11.2801876"><ele>439.0</ele><time>2026-03-28T09:03:25.467Z</time></trkpt><trkpt lat="43.8539128" lon="11.2802601"><ele>439.0</ele><time>2026-03-28T09:03:29.473Z</time></trkpt><trkpt lat="43.8539544" lon="11.2803438"><ele>439.0</ele><time>2026-03-28T09:03:33.456Z</time></trkpt><trkpt lat="43.8540045" lon="11.2804044"><ele>439.0</ele><time>2026-03-28T09:03:37.463Z</time></trkpt><trkpt lat="43.854063" lon="11.2804535"><ele>439.0</ele><time>2026-03-28T09:03:41.467Z</time></trkpt><trkpt lat="43.8541218" lon="11.2805122"><ele>439.0</ele><time>2026-03-28T09:03:45.488Z</time></trkpt><trkpt lat="43.8541704" lon="11.2805928"><ele>439.0</ele><time>2026-03-28T09:03:49.472Z</time></trkpt><trkpt lat="43.8542342" lon="11.2806506"><ele>439.0</ele><time>2026-03-28T09:03:54.455Z</time></trkpt><trkpt lat="43.8542978" lon="11.2806789"><ele>441.1428571428571</ele><time>2026-03-28T09:03:58.462Z</time></trkpt><trkpt lat="43.8543723" lon="11.2807105"><ele>443.2857142857143</ele><time>2026-03-28T09:04:03.454Z</time></trkpt><trkpt lat="43.8544207" lon="11.2807826"><ele>445.42857142857144</ele><time>2026-03-28T09:04:08.457Z</time></trkpt><trkpt lat="43.8544778" lon="11.2808308"><ele>447.57142857142856</ele><time>2026-03-28T09:04:12.47Z</time></trkpt><trkpt lat="43.854529" lon="11.2808962"><ele>449.7142857142858</ele><time>2026-03-28T09:04:17.453Z</time></trkpt><trkpt lat="43.8545935" lon="11.2809437"><ele>451.8571428571429</ele><time>2026-03-28T09:04:22.456Z</time></trkpt><trkpt lat="43.8546572" lon="11.2810001"><ele>454.0</ele><time>2026-03-28T09:04:26.469Z</time></trkpt><trkpt lat="43.8547081" lon="11.2810629"><ele>454.0</ele><time>2026-03-28T09:04:30.467Z</time></trkpt><trkpt lat="43.8547548" lon="11.2811333"><ele>454.00000000000006</ele><time>2026-03-28T09:04:35.448Z</time></trkpt><trkpt lat="43.8548026" lon="11.2812093"><ele>454.0</ele><time>2026-03-28T09:04:39.452Z</time></trkpt><trkpt lat="43.8548504" lon="11.2812849"><ele>454.0</ele><time>2026-03-28T09:04:43.453Z</time></trkpt><trkpt lat="43.8549066" lon="11.281334"><ele>454.00000000000006</ele><time>2026-03-28T09:04:47.458Z</time></trkpt><trkpt lat="43.8549582" lon="11.2814146"><ele>454.0</ele><time>2026-03-28T09:04:52.451Z</time></trkpt><trkpt lat="43.8550029" lon="11.2815002"><ele>454.0</ele><time>2026-03-28T09:04:56.453Z</time></trkpt><trkpt lat="43.8550541" lon="11.2815926"><ele>454.5714285714286</ele><time>2026-03-28T09:05:00.46Z</time></trkpt><trkpt lat="43.8550932" lon="11.2816847"><ele>455.1428571428572</ele><time>2026-03-28T09:05:04.453Z</time></trkpt><trkpt lat="43.8551173" lon="11.2817855"><ele>455.7142857142857</ele><time>2026-03-28T09:05:08.453Z</time></trkpt><trkpt lat="43.8551348" lon="11.2818786"><ele>456.28571428571433</ele><time>2026-03-28T09:05:13.477Z</time></trkpt><trkpt lat="43.8551705" lon="11.2819734"><ele>456.8571428571429</ele><time>2026-03-28T09:05:17.462Z</time></trkpt><trkpt lat="43.8552053" lon="11.2820642"><ele>457.42857142857144</ele><time>2026-03-28T09:05:21.457Z</time></trkpt><trkpt lat="43.8552449" lon="11.282141"><ele>458.0</ele><time>2026-03-28T09:05:24.466Z</time></trkpt><trkpt lat="43.8552822" lon="11.2822257"><ele>460.42857142857144</ele><time>2026-03-28T09:05:28.461Z</time></trkpt><trkpt lat="43.8553059" lon="11.2823252"><ele>462.8571428571429</ele><time>2026-03-28T09:05:33.452Z</time></trkpt><trkpt lat="43.855313" lon="11.282427"><ele>465.28571428571433</ele><time>2026-03-28T09:05:36.465Z</time></trkpt><trkpt lat="43.8553187" lon="11.2825185"><ele>467.7142857142857</ele><time>2026-03-28T09:05:39.453Z</time></trkpt><trkpt lat="43.8553357" lon="11.2826254"><ele>470.1428571428572</ele><time>2026-03-28T09:05:43.468Z</time></trkpt><trkpt lat="43.8553495" lon="11.2827142"><ele>472.5714285714286</ele><time>2026-03-28T09:05:46.458Z</time></trkpt><trkpt lat="43.8553652" lon="11.2828133"><ele>475.0</ele><time>2026-03-28T09:05:50.47Z</time></trkpt><trkpt lat="43.8553707" lon="11.2829049"><ele>475.0</ele><time>2026-03-28T09:05:54.459Z</time></trkpt><trkpt lat="43.8553801" lon="11.2830095"><ele>475.00000000000006</ele><time>2026-03-28T09:05:59.457Z</time></trkpt><trkpt lat="43.8553769" lon="11.2831166"><ele>475.0</ele><time>2026-03-28T09:06:05.459Z</time></trkpt><trkpt lat="43.8553859" lon="11.2832176"><ele>475.0</ele><time>2026-03-28T09:06:10.474Z</time></trkpt><trkpt lat="43.8553803" lon="11.283313"><ele>475.00000000000006</ele><time>2026-03-28T09:06:16.462Z</time></trkpt><trkpt lat="43.8553776" lon="11.2834174"><ele>475.0</ele><time>2026-03-28T09:06:21.468Z</time></trkpt><trkpt lat="43.8553745" lon="11.2835256"><ele>475.0</ele><time>2026-03-28T09:06:27.475Z</time></trkpt><trkpt lat="43.8553903" lon="11.2836225"><ele>477.83333333333337</ele><time>2026-03-28T09:06:33.462Z</time></trkpt><trkpt lat="43.8554058" lon="11.2837172"><ele>480.6666666666667</ele><time>2026-03-28T09:06:38.468Z</time></trkpt><trkpt lat="43.8554373" lon="11.2838188"><ele>483.5</ele><time>2026-03-28T09:06:43.464Z</time></trkpt><trkpt lat="43.8554547" lon="11.2839205"><ele>486.33333333333337</ele><time>2026-03-28T09:06:48.462Z</time></trkpt><trkpt lat="43.8554893" lon="11.2840147"><ele>489.1666666666667</ele><time>2026-03-28T09:06:53.453Z</time></trkpt><trkpt lat="43.8555549" lon="11.2840386"><ele>492.0</ele><time>2026-03-28T09:06:57.475Z</time></trkpt><trkpt lat="43.8556296" lon="11.2840972"><ele>492.8571428571429</ele><time>2026-03-28T09:07:01.465Z</time></trkpt><trkpt lat="43.8556705" lon="11.2841885"><ele>493.7142857142857</ele><time>2026-03-28T09:07:04.483Z</time></trkpt><trkpt lat="43.8556805" lon="11.2842873"><ele>494.57142857142856</ele><time>2026-03-28T09:07:07.452Z</time></trkpt><trkpt lat="43.8556543" lon="11.2843671"><ele>495.42857142857144</ele><time>2026-03-28T09:07:10.482Z</time></trkpt><trkpt lat="43.8556385" lon="11.2844556"><ele>496.2857142857142</ele><time>2026-03-28T09:07:13.466Z</time></trkpt><trkpt lat="43.855621" lon="11.2845432"><ele>497.1428571428571</ele><time>2026-03-28T09:07:16.474Z</time></trkpt><trkpt lat="43.8556013" lon="11.2846562"><ele>498.0</ele><time>2026-03-28T09:07:19.465Z</time></trkpt><trkpt lat="43.855587" lon="11.2847851"><ele>498.0</ele><time>2026-03-28T09:07:22.47Z</time></trkpt><trkpt lat="43.8555895" lon="11.2848927"><ele>498.0</ele><time>2026-03-28T09:07:24.453Z</time></trkpt><trkpt lat="43.8556009" lon="11.2850141"><ele>498.0</ele><time>2026-03-28T09:07:26.466Z</time></trkpt><trkpt lat="43.8556186" lon="11.2851162"><ele>498.0</ele><time>2026-03-28T09:07:28.455Z</time></trkpt><trkpt lat="43.8556499" lon="11.2852156"><ele>498.0</ele><time>2026-03-28T09:07:30.482Z</time></trkpt><trkpt lat="43.8556657" lon="11.2853104"><ele>498.0</ele><time>2026-03-28T09:07:32.459Z</time></trkpt><trkpt lat="43.8556879" lon="11.2854241"><ele>498.0</ele><time>2026-03-28T09:07:35.475Z</time></trkpt><trkpt lat="43.8557112" lon="11.2855365"><ele>498.0</ele><time>2026-03-28T09:07:38.458Z</time></trkpt><trkpt lat="43.8557348" lon="11.2856461"><ele>498.0</ele><time>2026-03-28T09:07:41.455Z</time></trkpt><trkpt lat="43.8557604" lon="11.2857497"><ele>498.0</ele><time>2026-03-28T09:07:44.472Z</time></trkpt><trkpt lat="43.8557843" lon="11.2858543"><ele>498.0</ele><time>2026-03-28T09:07:47.459Z</time></trkpt><trkpt lat="43.8558024" lon="11.2859462"><ele>498.0</ele><time>2026-03-28T09:07:50.469Z</time></trkpt><trkpt lat="43.8558275" lon="11.2860427"><ele>498.1666666666667</ele><time>2026-03-28T09:07:54.459Z</time></trkpt><trkpt lat="43.8558584" lon="11.286124"><ele>498.33333333333337</ele><time>2026-03-28T09:07:58.463Z</time></trkpt><trkpt lat="43.8559194" lon="11.2860978"><ele>498.5</ele><time>2026-03-28T09:08:05.469Z</time></trkpt><trkpt lat="43.8559693" lon="11.2859999"><ele>498.6666666666667</ele><time>2026-03-28T09:08:07.472Z</time></trkpt><trkpt lat="43.8560156" lon="11.2858837"><ele>498.83333333333337</ele><time>2026-03-28T09:08:09.462Z</time></trkpt><trkpt lat="43.8560582" lon="11.28576"><ele>499.0</ele><time>2026-03-28T09:08:11.466Z</time></trkpt><trkpt lat="43.8561108" lon="11.2856329"><ele>498.79999999999995</ele><time>2026-03-28T09:08:13.485Z</time></trkpt><trkpt lat="43.8561648" lon="11.2854927"><ele>498.59999999999997</ele><time>2026-03-28T09:08:15.48Z</time></trkpt><trkpt lat="43.8562133" lon="11.2853316"><ele>498.4</ele><time>2026-03-28T09:08:17.468Z</time></trkpt><trkpt lat="43.8562485" lon="11.2852429"><ele>498.2</ele><time>2026-03-28T09:08:18.454Z</time></trkpt><trkpt lat="43.8562788" lon="11.2851526"><ele>498.0</ele><time>2026-03-28T09:08:19.45Z</time></trkpt><trkpt lat="43.8563108" lon="11.2850603"><ele>498.0</ele><time>2026-03-28T09:08:20.453Z</time></trkpt><trkpt lat="43.856341" lon="11.2849712"><ele>498.0</ele><time>2026-03-28T09:08:21.458Z</time></trkpt><trkpt lat="43.8563755" lon="11.2848924"><ele>498.0</ele><time>2026-03-28T09:08:22.457Z</time></trkpt><trkpt lat="43.8564082" lon="11.2848123"><ele>498.0</ele><time>2026-03-28T09:08:23.463Z</time></trkpt><trkpt lat="43.8564472" lon="11.2847326"><ele>498.0</ele><time>2026-03-28T09:08:24.459Z</time></trkpt><trkpt lat="43.8565214" lon="11.2845912"><ele>498.0</ele><time>2026-03-28T09:08:26.453Z</time></trkpt><trkpt lat="43.8565534" lon="11.2845159"><ele>498.2</ele><time>2026-03-28T09:08:27.451Z</time></trkpt><trkpt lat="43.8566303" lon="11.2843749"><ele>498.4</ele><time>2026-03-28T09:08:29.456Z</time></trkpt><trkpt lat="43.8566786" lon="11.2843063"><ele>498.59999999999997</ele><time>2026-03-28T09:08:30.452Z</time></trkpt><trkpt lat="43.8567742" lon="11.2842138"><ele>498.79999999999995</ele><time>2026-03-28T09:08:32.463Z</time></trkpt><trkpt lat="43.8568836" lon="11.2841598"><ele>499.0</ele><time>2026-03-28T09:08:34.457Z</time></trkpt><trkpt lat="43.857" lon="11.284112"><ele>499.00000000000006</ele><time>2026-03-28T09:08:36.46Z</time></trkpt><trkpt lat="43.8570984" lon="11.2840749"><ele>499.0</ele><time>2026-03-28T09:08:38.459Z</time></trkpt><trkpt lat="43.8571912" lon="11.2840506"><ele>499.0</ele><time>2026-03-28T09:08:40.452Z</time></trkpt><trkpt lat="43.8572717" lon="11.2840292"><ele>499.0</ele><time>2026-03-28T09:08:42.486Z</time></trkpt><trkpt lat="43.857357" lon="11.2840167"><ele>499.00000000000006</ele><time>2026-03-28T09:08:44.456Z</time></trkpt><trkpt lat="43.8574388" lon="11.2840341"><ele>499.0</ele><time>2026-03-28T09:08:46.462Z</time></trkpt><trkpt lat="43.8575103" lon="11.2840418"><ele>499.0</ele><time>2026-03-28T09:08:48.482Z</time></trkpt><trkpt lat="43.8575917" lon="11.2840356"><ele>499.0</ele><time>2026-03-28T09:08:50.456Z</time></trkpt><trkpt lat="43.8576747" lon="11.2840399"><ele>499.0</ele><time>2026-03-28T09:08:52.466Z</time></trkpt><trkpt lat="43.8577636" lon="11.2840695"><ele>499.0</ele><time>2026-03-28T09:08:54.45Z</time></trkpt><trkpt lat="43.8578629" lon="11.2841092"><ele>499.0</ele><time>2026-03-28T09:08:56.453Z</time></trkpt><trkpt lat="43.8579608" lon="11.2841558"><ele>498.0</ele><time>2026-03-28T09:08:58.454Z</time></trkpt><trkpt lat="43.8580728" lon="11.2841708"><ele>497.0</ele><time>2026-03-28T09:09:00.46Z</time></trkpt><trkpt lat="43.8581973" lon="11.2841417"><ele>496.0</ele><time>2026-03-28T09:09:02.451Z</time></trkpt><trkpt lat="43.8582694" lon="11.2841085"><ele>495.0</ele><time>2026-03-28T09:09:03.473Z</time></trkpt><trkpt lat="43.8583445" lon="11.284063"><ele>494.0</ele><time>2026-03-28T09:09:04.456Z</time></trkpt><trkpt lat="43.8584087" lon="11.2839951"><ele>492.8333333333333</ele><time>2026-03-28T09:09:05.462Z</time></trkpt><trkpt lat="43.8584655" lon="11.2838999"><ele>491.66666666666663</ele><time>2026-03-28T09:09:06.454Z</time></trkpt><trkpt lat="43.8585138" lon="11.2838056"><ele>490.5</ele><time>2026-03-28T09:09:07.451Z</time></trkpt><trkpt lat="43.8585549" lon="11.2836962"><ele>489.33333333333337</ele><time>2026-03-28T09:09:08.455Z</time></trkpt><trkpt lat="43.8585804" lon="11.2835867"><ele>488.1666666666667</ele><time>2026-03-28T09:09:09.461Z</time></trkpt><trkpt lat="43.8586008" lon="11.2834792"><ele>487.0</ele><time>2026-03-28T09:09:10.449Z</time></trkpt><trkpt lat="43.8586217" lon="11.2833712"><ele>487.00000000000006</ele><time>2026-03-28T09:09:11.451Z</time></trkpt><trkpt lat="43.858637" lon="11.2832657"><ele>487.0</ele><time>2026-03-28T09:09:12.458Z</time></trkpt><trkpt lat="43.8586544" lon="11.2831618"><ele>487.0</ele><time>2026-03-28T09:09:13.475Z</time></trkpt><trkpt lat="43.8586717" lon="11.2830495"><ele>487.0</ele><time>2026-03-28T09:09:14.464Z</time></trkpt><trkpt lat="43.8586956" lon="11.2829418"><ele>487.00000000000006</ele><time>2026-03-28T09:09:15.455Z</time></trkpt><trkpt lat="43.8587248" lon="11.2828516"><ele>487.0</ele><time>2026-03-28T09:09:16.465Z</time></trkpt><trkpt lat="43.8587494" lon="11.2827622"><ele>488.6</ele><time>2026-03-28T09:09:17.48Z</time></trkpt><trkpt lat="43.8587703" lon="11.2826739"><ele>490.20000000000005</ele><time>2026-03-28T09:09:18.484Z</time></trkpt><trkpt lat="43.8588004" lon="11.2825157"><ele>491.8</ele><time>2026-03-28T09:09:20.463Z</time></trkpt><trkpt lat="43.8588337" lon="11.2823755"><ele>493.4</ele><time>2026-03-28T09:09:22.472Z</time></trkpt><trkpt lat="43.8588576" lon="11.2822501"><ele>495.0</ele><time>2026-03-28T09:09:24.493Z</time></trkpt><trkpt lat="43.8588846" lon="11.2821333"><ele>495.0</ele><time>2026-03-28T09:09:26.453Z</time></trkpt><trkpt lat="43.8589117" lon="11.2820458"><ele>495.0</ele><time>2026-03-28T09:09:28.452Z</time></trkpt><trkpt lat="43.8589423" lon="11.2819615"><ele>495.0</ele><time>2026-03-28T09:09:30.463Z</time></trkpt><trkpt lat="43.8589936" lon="11.281862"><ele>495.0</ele><time>2026-03-28T09:09:33.454Z</time></trkpt><trkpt lat="43.8590654" lon="11.2817893"><ele>495.0</ele><time>2026-03-28T09:09:36.462Z</time></trkpt><trkpt lat="43.859143" lon="11.2817218"><ele>495.0</ele><time>2026-03-28T09:09:39.457Z</time></trkpt><trkpt lat="43.8592241" lon="11.2816748"><ele>495.0</ele><time>2026-03-28T09:09:42.463Z</time></trkpt><trkpt lat="43.8592976" lon="11.2816221"><ele>495.0</ele><time>2026-03-28T09:09:45.455Z</time></trkpt><trkpt lat="43.8593749" lon="11.2815673"><ele>495.0</ele><time>2026-03-28T09:09:48.458Z</time></trkpt><trkpt lat="43.8594477" lon="11.2815015"><ele>495.0</ele><time>2026-03-28T09:09:51.454Z</time></trkpt><trkpt lat="43.8595269" lon="11.2814458"><ele>495.0</ele><time>2026-03-28T09:09:54.455Z</time></trkpt><trkpt lat="43.8595917" lon="11.2813932"><ele>495.0</ele><time>2026-03-28T09:09:57.47Z</time></trkpt><trkpt lat="43.8596554" lon="11.2813396"><ele>495.5</ele><time>2026-03-28T09:10:00.454Z</time></trkpt><trkpt lat="43.8597326" lon="11.2812682"><ele>496.0</ele><time>2026-03-28T09:10:03.457Z</time></trkpt><trkpt lat="43.8597759" lon="11.2812031"><ele>496.5</ele><time>2026-03-28T09:10:05.47Z</time></trkpt><trkpt lat="43.8598347" lon="11.281104"><ele>497.0</ele><time>2026-03-28T09:10:08.486Z</time></trkpt><trkpt lat="43.8598798" lon="11.2810396"><ele>497.5</ele><time>2026-03-28T09:10:10.473Z</time></trkpt><trkpt lat="43.8599373" lon="11.2809369"><ele>498.0</ele><time>2026-03-28T09:10:13.474Z</time></trkpt><trkpt lat="43.8599884" lon="11.2808237"><ele>498.0</ele><time>2026-03-28T09:10:16.475Z</time></trkpt><trkpt lat="43.8600151" lon="11.2807385"><ele>498.0</ele><time>2026-03-28T09:10:18.485Z</time></trkpt><trkpt lat="43.8600475" lon="11.2806582"><ele>498.0</ele><time>2026-03-28T09:10:20.46Z</time></trkpt><trkpt lat="43.8600776" lon="11.2805762"><ele>498.0</ele><time>2026-03-28T09:10:22.469Z</time></trkpt><trkpt lat="43.8601169" lon="11.2804598"><ele>498.0</ele><time>2026-03-28T09:10:25.47Z</time></trkpt><trkpt lat="43.8601447" lon="11.2803333"><ele>498.0</ele><time>2026-03-28T09:10:28.465Z</time></trkpt><trkpt lat="43.8601781" lon="11.2802073"><ele>498.3333333333333</ele><time>2026-03-28T09:10:31.476Z</time></trkpt><trkpt lat="43.8601966" lon="11.2801236"><ele>498.66666666666663</ele><time>2026-03-28T09:10:33.464Z</time></trkpt><trkpt lat="43.8602277" lon="11.280008"><ele>499.0</ele><time>2026-03-28T09:10:36.459Z</time></trkpt><trkpt lat="43.860253" lon="11.2798913"><ele>499.3333333333333</ele><time>2026-03-28T09:10:39.46Z</time></trkpt><trkpt lat="43.8602759" lon="11.2797867"><ele>499.66666666666663</ele><time>2026-03-28T09:10:42.462Z</time></trkpt><trkpt lat="43.860297" lon="11.2796664"><ele>500.0</ele><time>2026-03-28T09:10:45.466Z</time></trkpt><trkpt lat="43.8603141" lon="11.2795425"><ele>500.66666666666663</ele><time>2026-03-28T09:10:48.467Z</time></trkpt><trkpt lat="43.8603273" lon="11.279426"><ele>501.3333333333333</ele><time>2026-03-28T09:10:51.508Z</time></trkpt><trkpt lat="43.8603438" lon="11.2793005"><ele>502.0</ele><time>2026-03-28T09:10:54.454Z</time></trkpt><trkpt lat="43.8603529" lon="11.2791726"><ele>502.66666666666663</ele><time>2026-03-28T09:10:57.48Z</time></trkpt><trkpt lat="43.8603508" lon="11.2790591"><ele>503.3333333333333</ele><time>2026-03-28T09:11:00.477Z</time></trkpt><trkpt lat="43.8603672" lon="11.2789534"><ele>504.0</ele><time>2026-03-28T09:11:03.469Z</time></trkpt><trkpt lat="43.8603745" lon="11.2788494"><ele>504.0</ele><time>2026-03-28T09:11:06.476Z</time></trkpt><trkpt lat="43.8603651" lon="11.2787452"><ele>504.0</ele><time>2026-03-28T09:11:09.46Z</time></trkpt><trkpt lat="43.8603509" lon="11.2786369"><ele>504.0</ele><time>2026-03-28T09:11:12.452Z</time></trkpt><trkpt lat="43.8603202" lon="11.2785257"><ele>504.0</ele><time>2026-03-28T09:11:15.465Z</time></trkpt><trkpt lat="43.8602867" lon="11.278438"><ele>504.0</ele><time>2026-03-28T09:11:18.456Z</time></trkpt><trkpt lat="43.8602027" lon="11.2783501"><ele>504.0</ele><time>2026-03-28T09:12:12.467Z</time></trkpt><trkpt lat="43.8602079" lon="11.2782604"><ele>504.0</ele><time>2026-03-28T09:12:16.484Z</time></trkpt><trkpt lat="43.8602325" lon="11.2781718"><ele>504.0</ele><time>2026-03-28T09:12:19.454Z</time></trkpt><trkpt lat="43.8602753" lon="11.2780884"><ele>504.0</ele><time>2026-03-28T09:12:22.453Z</time></trkpt><trkpt lat="43.8603162" lon="11.2779984"><ele>504.0</ele><time>2026-03-28T09:12:25.468Z</time></trkpt><trkpt lat="43.8603517" lon="11.2778951"><ele>504.0</ele><time>2026-03-28T09:12:28.457Z</time></trkpt><trkpt lat="43.8603703" lon="11.2777893"><ele>504.0</ele><time>2026-03-28T09:12:31.472Z</time></trkpt><trkpt lat="43.860394" lon="11.2776897"><ele>505.0</ele><time>2026-03-28T09:12:34.474Z</time></trkpt><trkpt lat="43.8604177" lon="11.2775862"><ele>506.0</ele><time>2026-03-28T09:12:37.462Z</time></trkpt><trkpt lat="43.8604414" lon="11.2774817"><ele>507.0</ele><time>2026-03-28T09:12:40.454Z</time></trkpt><trkpt lat="43.86047" lon="11.2773615"><ele>508.0</ele><time>2026-03-28T09:12:43.452Z</time></trkpt><trkpt lat="43.860507" lon="11.2772652"><ele>509.0</ele><time>2026-03-28T09:12:46.462Z</time></trkpt><trkpt lat="43.8605359" lon="11.2771684"><ele>510.0</ele><time>2026-03-28T09:12:49.47Z</time></trkpt><trkpt lat="43.8605699" lon="11.2770896"><ele>511.42857142857144</ele><time>2026-03-28T09:12:52.461Z</time></trkpt><trkpt lat="43.8606029" lon="11.2770128"><ele>512.8571428571429</ele><time>2026-03-28T09:12:55.461Z</time></trkpt><trkpt lat="43.860623" lon="11.2769225"><ele>514.2857142857143</ele><time>2026-03-28T09:12:58.462Z</time></trkpt><trkpt lat="43.8606639" lon="11.276843"><ele>515.7142857142858</ele><time>2026-03-28T09:13:01.461Z</time></trkpt><trkpt lat="43.8606978" lon="11.2767472"><ele>517.1428571428571</ele><time>2026-03-28T09:13:05.45Z</time></trkpt><trkpt lat="43.8607363" lon="11.2766718"><ele>518.5714285714287</ele><time>2026-03-28T09:13:09.491Z</time></trkpt><trkpt lat="43.8607652" lon="11.2765942"><ele>520.0</ele><time>2026-03-28T09:13:13.458Z</time></trkpt><trkpt lat="43.8608012" lon="11.2764923"><ele>521.2857142857143</ele><time>2026-03-28T09:13:17.471Z</time></trkpt><trkpt lat="43.8608384" lon="11.2764035"><ele>522.5714285714286</ele><time>2026-03-28T09:13:21.455Z</time></trkpt><trkpt lat="43.8608797" lon="11.2763193"><ele>523.8571428571429</ele><time>2026-03-28T09:13:25.448Z</time></trkpt><trkpt lat="43.8609113" lon="11.2762402"><ele>525.1428571428571</ele><time>2026-03-28T09:13:28.469Z</time></trkpt><trkpt lat="43.8609406" lon="11.2761521"><ele>526.4285714285714</ele><time>2026-03-28T09:13:32.457Z</time></trkpt><trkpt lat="43.8609791" lon="11.2760689"><ele>527.7142857142858</ele><time>2026-03-28T09:13:36.456Z</time></trkpt><trkpt lat="43.8610266" lon="11.2760083"><ele>529.0</ele><time>2026-03-28T09:13:39.454Z</time></trkpt><trkpt lat="43.8610714" lon="11.2759216"><ele>529.0</ele><time>2026-03-28T09:13:43.471Z</time></trkpt><trkpt lat="43.8611278" lon="11.2758452"><ele>529.0</ele><time>2026-03-28T09:13:47.452Z</time></trkpt><trkpt lat="43.8611943" lon="11.2757958"><ele>529.0</ele><time>2026-03-28T09:13:51.458Z</time></trkpt><trkpt lat="43.8612719" lon="11.2757676"><ele>529.0</ele><time>2026-03-28T09:13:54.484Z</time></trkpt><trkpt lat="43.8613345" lon="11.2757375"><ele>529.0</ele><time>2026-03-28T09:13:57.453Z</time></trkpt><trkpt lat="43.8614011" lon="11.2757008"><ele>529.0</ele><time>2026-03-28T09:14:00.455Z</time></trkpt><trkpt lat="43.8614632" lon="11.2756654"><ele>529.0</ele><time>2026-03-28T09:14:03.456Z</time></trkpt><trkpt lat="43.8615323" lon="11.27562"><ele>531.3333333333334</ele><time>2026-03-28T09:14:06.47Z</time></trkpt><trkpt lat="43.8615979" lon="11.2755692"><ele>533.6666666666667</ele><time>2026-03-28T09:14:09.455Z</time></trkpt><trkpt lat="43.8616631" lon="11.2755106"><ele>536.0</ele><time>2026-03-28T09:14:12.463Z</time></trkpt><trkpt lat="43.861717" lon="11.2754465"><ele>538.3333333333334</ele><time>2026-03-28T09:14:15.456Z</time></trkpt><trkpt lat="43.8617662" lon="11.2753729"><ele>540.6666666666666</ele><time>2026-03-28T09:14:18.461Z</time></trkpt><trkpt lat="43.8618286" lon="11.2752995"><ele>543.0</ele><time>2026-03-28T09:14:21.481Z</time></trkpt><trkpt lat="43.8618922" lon="11.2752408"><ele>543.4285714285714</ele><time>2026-03-28T09:14:24.45Z</time></trkpt><trkpt lat="43.8619631" lon="11.275182"><ele>543.8571428571429</ele><time>2026-03-28T09:14:27.452Z</time></trkpt><trkpt lat="43.8620373" lon="11.2751413"><ele>544.2857142857142</ele><time>2026-03-28T09:14:30.455Z</time></trkpt><trkpt lat="43.862109" lon="11.2751363"><ele>544.7142857142858</ele><time>2026-03-28T09:14:33.469Z</time></trkpt><trkpt lat="43.8621791" lon="11.2751489"><ele>545.1428571428571</ele><time>2026-03-28T09:14:36.457Z</time></trkpt><trkpt lat="43.8622509" lon="11.2751861"><ele>545.5714285714286</ele><time>2026-03-28T09:14:39.473Z</time></trkpt><trkpt lat="43.8623024" lon="11.2752459"><ele>546.0</ele><time>2026-03-28T09:14:42.466Z</time></trkpt><trkpt lat="43.8623359" lon="11.2753526"><ele>546.0</ele><time>2026-03-28T09:14:45.456Z</time></trkpt><trkpt lat="43.8623646" lon="11.275467"><ele>546.0</ele><time>2026-03-28T09:14:48.47Z</time></trkpt><trkpt lat="43.8623679" lon="11.2755554"><ele>546.0</ele><time>2026-03-28T09:14:50.474Z</time></trkpt><trkpt lat="43.8623626" lon="11.2756459"><ele>546.0</ele><time>2026-03-28T09:14:52.468Z</time></trkpt><trkpt lat="43.8623527" lon="11.2757418"><ele>546.0</ele><time>2026-03-28T09:14:54.468Z</time></trkpt><trkpt lat="43.8623372" lon="11.2758427"><ele>546.0</ele><time>2026-03-28T09:14:56.48Z</time></trkpt><trkpt lat="43.8623242" lon="11.2759494"><ele>546.0</ele><time>2026-03-28T09:14:58.451Z</time></trkpt><trkpt lat="43.8623104" lon="11.2760482"><ele>546.0</ele><time>2026-03-28T09:15:00.479Z</time></trkpt><trkpt lat="43.8622753" lon="11.2761573"><ele>546.0</ele><time>2026-03-28T09:15:02.468Z</time></trkpt><trkpt lat="43.8622481" lon="11.2762835"><ele>546.0</ele><time>2026-03-28T09:15:04.46Z</time></trkpt><trkpt lat="43.8622234" lon="11.27639"><ele>546.0</ele><time>2026-03-28T09:15:06.471Z</time></trkpt><trkpt lat="43.8621913" lon="11.276482"><ele>546.0</ele><time>2026-03-28T09:15:08.46Z</time></trkpt><trkpt lat="43.8621605" lon="11.2765673"><ele>546.0</ele><time>2026-03-28T09:15:10.47Z</time></trkpt><trkpt lat="43.8621263" lon="11.2766499"><ele>546.0</ele><time>2026-03-28T09:15:12.454Z</time></trkpt><trkpt lat="43.8620823" lon="11.2767673"><ele>546.0</ele><time>2026-03-28T09:15:15.453Z</time></trkpt><trkpt lat="43.8620425" lon="11.2768357"><ele>546.0</ele><time>2026-03-28T09:15:17.465Z</time></trkpt><trkpt lat="43.861989" lon="11.2769397"><ele>546.0</ele><time>2026-03-28T09:15:20.463Z</time></trkpt><trkpt lat="43.861953" lon="11.2770158"><ele>546.0</ele><time>2026-03-28T09:15:22.459Z</time></trkpt><trkpt lat="43.8619326" lon="11.2771055"><ele>546.0</ele><time>2026-03-28T09:15:24.459Z</time></trkpt><trkpt lat="43.8619187" lon="11.2771959"><ele>546.0</ele><time>2026-03-28T09:15:26.454Z</time></trkpt><trkpt lat="43.861917" lon="11.27729"><ele>546.0</ele><time>2026-03-28T09:15:28.483Z</time></trkpt><trkpt lat="43.8619302" lon="11.2773837"><ele>546.0</ele><time>2026-03-28T09:15:30.463Z</time></trkpt><trkpt lat="43.861965" lon="11.2774979"><ele>546.0</ele><time>2026-03-28T09:15:33.459Z</time></trkpt><trkpt lat="43.8620059" lon="11.2776096"><ele>546.0</ele><time>2026-03-28T09:15:36.45Z</time></trkpt><trkpt lat="43.8620429" lon="11.2777053"><ele>546.0</ele><time>2026-03-28T09:15:39.455Z</time></trkpt><trkpt lat="43.8620699" lon="11.2778217"><ele>546.0</ele><time>2026-03-28T09:16:41.461Z</time></trkpt><trkpt lat="43.8620739" lon="11.277942"><ele>546.0</ele><time>2026-03-28T09:16:44.471Z</time></trkpt><trkpt lat="43.8620998" lon="11.2780463"><ele>546.0</ele><time>2026-03-28T09:16:46.455Z</time></trkpt><trkpt lat="43.862118" lon="11.2781879"><ele>546.0</ele><time>2026-03-28T09:16:48.473Z</time></trkpt><trkpt lat="43.8621509" lon="11.2783546"><ele>546.0</ele><time>2026-03-28T09:16:50.477Z</time></trkpt><trkpt lat="43.8621768" lon="11.2784395"><ele>545.0</ele><time>2026-03-28T09:16:51.48Z</time></trkpt><trkpt lat="43.8622061" lon="11.2785247"><ele>544.0</ele><time>2026-03-28T09:16:52.455Z</time></trkpt><trkpt lat="43.8622349" lon="11.278608"><ele>543.0</ele><time>2026-03-28T09:16:53.462Z</time></trkpt><trkpt lat="43.8622532" lon="11.2786946"><ele>542.0</ele><time>2026-03-28T09:16:54.484Z</time></trkpt><trkpt lat="43.8622735" lon="11.2787967"><ele>541.0</ele><time>2026-03-28T09:16:55.477Z</time></trkpt><trkpt lat="43.8622985" lon="11.278886"><ele>540.0</ele><time>2026-03-28T09:16:56.478Z</time></trkpt><trkpt lat="43.8623252" lon="11.2789661"><ele>539.0</ele><time>2026-03-28T09:16:57.458Z</time></trkpt><trkpt lat="43.8623681" lon="11.2791292"><ele>537.0</ele><time>2026-03-28T09:16:59.477Z</time></trkpt><trkpt lat="43.8624042" lon="11.2792807"><ele>535.0</ele><time>2026-03-28T09:17:01.472Z</time></trkpt><trkpt lat="43.8624462" lon="11.2794501"><ele>533.0</ele><time>2026-03-28T09:17:03.48Z</time></trkpt><trkpt lat="43.8624843" lon="11.2795979"><ele>531.0</ele><time>2026-03-28T09:17:05.485Z</time></trkpt><trkpt lat="43.8625217" lon="11.2797161"><ele>530.5714285714286</ele><time>2026-03-28T09:17:07.468Z</time></trkpt><trkpt lat="43.8625476" lon="11.2798119"><ele>530.1428571428572</ele><time>2026-03-28T09:17:09.461Z</time></trkpt><trkpt lat="43.8625759" lon="11.2799004"><ele>529.7142857142858</ele><time>2026-03-28T09:17:11.474Z</time></trkpt><trkpt lat="43.8626107" lon="11.2800212"><ele>529.2857142857143</ele><time>2026-03-28T09:17:14.472Z</time></trkpt><trkpt lat="43.8626492" lon="11.2800992"><ele>528.8571428571429</ele><time>2026-03-28T09:17:17.467Z</time></trkpt><trkpt lat="43.8627221" lon="11.2801171"><ele>528.4285714285714</ele><time>2026-03-28T09:17:21.465Z</time></trkpt><trkpt lat="43.8627399" lon="11.2800271"><ele>528.0</ele><time>2026-03-28T09:17:26.463Z</time></trkpt><trkpt lat="43.8626967" lon="11.2799461"><ele>528.0</ele><time>2026-03-28T09:17:30.471Z</time></trkpt><trkpt lat="43.8626496" lon="11.2798688"><ele>528.0</ele><time>2026-03-28T09:17:35.472Z</time></trkpt><trkpt lat="43.8626051" lon="11.2797895"><ele>528.0</ele><time>2026-03-28T09:17:38.457Z</time></trkpt><trkpt lat="43.8625447" lon="11.2797024"><ele>528.0</ele><time>2026-03-28T09:17:41.454Z</time></trkpt><trkpt lat="43.8625089" lon="11.2796258"><ele>528.0</ele><time>2026-03-28T09:17:43.475Z</time></trkpt><trkpt lat="43.8624726" lon="11.2795085"><ele>528.0</ele><time>2026-03-28T09:17:46.477Z</time></trkpt><trkpt lat="43.8624441" lon="11.27942"><ele>528.5</ele><time>2026-03-28T09:17:48.478Z</time></trkpt><trkpt lat="43.8624164" lon="11.2793304"><ele>529.0</ele><time>2026-03-28T09:17:50.479Z</time></trkpt><trkpt lat="43.8623848" lon="11.2792427"><ele>529.5</ele><time>2026-03-28T09:17:52.475Z</time></trkpt><trkpt lat="43.8623457" lon="11.2791435"><ele>530.0</ele><time>2026-03-28T09:17:55.461Z</time></trkpt><trkpt lat="43.8623355" lon="11.2790249"><ele>530.5</ele><time>2026-03-28T09:17:58.478Z</time></trkpt><trkpt lat="43.8623236" lon="11.2789242"><ele>531.0</ele><time>2026-03-28T09:18:01.474Z</time></trkpt><trkpt lat="43.8622993" lon="11.2788305"><ele>532.3333333333334</ele><time>2026-03-28T09:18:04.472Z</time></trkpt><trkpt lat="43.8622833" lon="11.2787241"><ele>533.6666666666666</ele><time>2026-03-28T09:18:07.481Z</time></trkpt><trkpt lat="43.8622696" lon="11.2786165"><ele>535.0</ele><time>2026-03-28T09:18:10.463Z</time></trkpt><trkpt lat="43.8622408" lon="11.2785126"><ele>536.3333333333333</ele><time>2026-03-28T09:18:13.481Z</time></trkpt><trkpt lat="43.862227" lon="11.2784045"><ele>537.6666666666666</ele><time>2026-03-28T09:18:16.471Z</time></trkpt><trkpt lat="43.8622249" lon="11.2783012"><ele>539.0</ele><time>2026-03-28T09:18:19.481Z</time></trkpt><trkpt lat="43.8622206" lon="11.278197"><ele>540.0</ele><time>2026-03-28T09:18:22.464Z</time></trkpt><trkpt lat="43.8622162" lon="11.278095"><ele>541.0</ele><time>2026-03-28T09:18:25.47Z</time></trkpt><trkpt lat="43.8622272" lon="11.2779978"><ele>542.0</ele><time>2026-03-28T09:18:28.466Z</time></trkpt><trkpt lat="43.8622649" lon="11.2779153"><ele>543.0</ele><time>2026-03-28T09:18:31.475Z</time></trkpt><trkpt lat="43.8623294" lon="11.2778982"><ele>544.0</ele><time>2026-03-28T09:18:33.457Z</time></trkpt><trkpt lat="43.8623938" lon="11.2778722"><ele>545.0</ele><time>2026-03-28T09:18:35.453Z</time></trkpt><trkpt lat="43.8624789" lon="11.2778469"><ele>546.0</ele><time>2026-03-28T09:18:38.46Z</time></trkpt><trkpt lat="43.8625535" lon="11.2778398"><ele>547.0</ele><time>2026-03-28T09:18:41.465Z</time></trkpt><trkpt lat="43.8626214" lon="11.2778395"><ele>548.0</ele><time>2026-03-28T09:18:44.461Z</time></trkpt><trkpt lat="43.8627003" lon="11.2778457"><ele>549.0</ele><time>2026-03-28T09:18:47.477Z</time></trkpt><trkpt lat="43.8627831" lon="11.2778583"><ele>550.0</ele><time>2026-03-28T09:18:50.459Z</time></trkpt><trkpt lat="43.8628618" lon="11.2778827"><ele>551.0</ele><time>2026-03-28T09:18:53.465Z</time></trkpt><trkpt lat="43.8629196" lon="11.2779349"><ele>552.0</ele><time>2026-03-28T09:18:55.473Z</time></trkpt><trkpt lat="43.8629961" lon="11.2779992"><ele>552.0</ele><time>2026-03-28T09:18:58.455Z</time></trkpt><trkpt lat="43.8630741" lon="11.2780673"><ele>552.0</ele><time>2026-03-28T09:19:01.46Z</time></trkpt><trkpt lat="43.8631515" lon="11.278121"><ele>552.0</ele><time>2026-03-28T09:19:04.457Z</time></trkpt><trkpt lat="43.8632252" lon="11.2781688"><ele>552.0</ele><time>2026-03-28T09:19:07.455Z</time></trkpt><trkpt lat="43.8633032" lon="11.2782019"><ele>552.0</ele><time>2026-03-28T09:19:10.48Z</time></trkpt><trkpt lat="43.8633767" lon="11.2782035"><ele>552.0</ele><time>2026-03-28T09:19:13.477Z</time></trkpt><trkpt lat="43.8634463" lon="11.2782028"><ele>551.5714285714286</ele><time>2026-03-28T09:19:16.466Z</time></trkpt><trkpt lat="43.8635137" lon="11.2782131"><ele>551.1428571428572</ele><time>2026-03-28T09:19:19.48Z</time></trkpt><trkpt lat="43.8635817" lon="11.2782094"><ele>550.7142857142858</ele><time>2026-03-28T09:19:22.475Z</time></trkpt><trkpt lat="43.8636596" lon="11.2782035"><ele>550.2857142857143</ele><time>2026-03-28T09:19:26.474Z</time></trkpt><trkpt lat="43.863719" lon="11.2781638"><ele>549.8571428571429</ele><time>2026-03-28T09:19:29.463Z</time></trkpt><trkpt lat="43.8637843" lon="11.2781037"><ele>549.4285714285714</ele><time>2026-03-28T09:19:32.472Z</time></trkpt><trkpt lat="43.8637969" lon="11.2780136"><ele>549.0</ele><time>2026-03-28T09:19:35.463Z</time></trkpt><trkpt lat="43.863794" lon="11.2779223"><ele>549.0</ele><time>2026-03-28T09:19:38.463Z</time></trkpt><trkpt lat="43.8637473" lon="11.277849"><ele>549.0</ele><time>2026-03-28T09:19:41.454Z</time></trkpt><trkpt lat="43.8636873" lon="11.2777941"><ele>549.0</ele><time>2026-03-28T09:19:44.481Z</time></trkpt><trkpt lat="43.8636249" lon="11.2777435"><ele>549.0</ele><time>2026-03-28T09:19:47.467Z</time></trkpt><trkpt lat="43.8635533" lon="11.2777069"><ele>549.0</ele><time>2026-03-28T09:19:50.456Z</time></trkpt><trkpt lat="43.8634926" lon="11.2776676"><ele>549.0</ele><time>2026-03-28T09:19:53.466Z</time></trkpt><trkpt lat="43.8634301" lon="11.2776251"><ele>549.0</ele><time>2026-03-28T09:19:56.462Z</time></trkpt><trkpt lat="43.863361" lon="11.2775857"><ele>549.0</ele><time>2026-03-28T09:19:59.47Z</time></trkpt><trkpt lat="43.8632951" lon="11.2775318"><ele>549.0</ele><time>2026-03-28T09:20:02.464Z</time></trkpt><trkpt lat="43.863317" lon="11.2774309"><ele>549.0</ele><time>2026-03-28T09:20:06.464Z</time></trkpt><trkpt lat="43.8633841" lon="11.2774418"><ele>549.0</ele><time>2026-03-28T09:20:09.466Z</time></trkpt><trkpt lat="43.8634509" lon="11.2774473"><ele>549.0</ele><time>2026-03-28T09:20:12.472Z</time></trkpt><trkpt lat="43.8635237" lon="11.2774346"><ele>549.0</ele><time>2026-03-28T09:20:15.469Z</time></trkpt><trkpt lat="43.8636008" lon="11.2774088"><ele>549.0</ele><time>2026-03-28T09:20:19.457Z</time></trkpt><trkpt lat="43.8636803" lon="11.2773636"><ele>549.0</ele><time>2026-03-28T09:20:23.451Z</time></trkpt><trkpt lat="43.8637262" lon="11.2772952"><ele>549.0</ele><time>2026-03-28T09:20:26.457Z</time></trkpt><trkpt lat="43.8637646" lon="11.2772052"><ele>549.0</ele><time>2026-03-28T09:20:30.457Z</time></trkpt><trkpt lat="43.8637862" lon="11.2771204"><ele>549.0</ele><time>2026-03-28T09:20:34.46Z</time></trkpt><trkpt lat="43.8638086" lon="11.2770357"><ele>549.0</ele><time>2026-03-28T09:20:38.482Z</time></trkpt><trkpt lat="43.863826" lon="11.2769334"><ele>549.0</ele><time>2026-03-28T09:20:42.459Z</time></trkpt><trkpt lat="43.8638303" lon="11.276818"><ele>549.0</ele><time>2026-03-28T09:20:46.471Z</time></trkpt><trkpt lat="43.8638431" lon="11.2767096"><ele>550.0</ele><time>2026-03-28T09:20:50.46Z</time></trkpt><trkpt lat="43.8638517" lon="11.2766182"><ele>551.0</ele><time>2026-03-28T09:20:53.472Z</time></trkpt><trkpt lat="43.863861" lon="11.2765223"><ele>552.0</ele><time>2026-03-28T09:20:56.459Z</time></trkpt><trkpt lat="43.8638776" lon="11.2764236"><ele>553.0</ele><time>2026-03-28T09:20:59.455Z</time></trkpt><trkpt lat="43.8638851" lon="11.2763323"><ele>554.0</ele><time>2026-03-28T09:21:02.477Z</time></trkpt><trkpt lat="43.8638922" lon="11.276222"><ele>555.0</ele><time>2026-03-28T09:21:05.466Z</time></trkpt><trkpt lat="43.8639061" lon="11.2761043"><ele>556.0</ele><time>2026-03-28T09:21:08.459Z</time></trkpt><trkpt lat="43.8639118" lon="11.2760042"><ele>556.5</ele><time>2026-03-28T09:21:11.456Z</time></trkpt><trkpt lat="43.8639431" lon="11.2758852"><ele>557.0</ele><time>2026-03-28T09:21:14.475Z</time></trkpt><trkpt lat="43.8639421" lon="11.2757762"><ele>557.5</ele><time>2026-03-28T09:21:17.469Z</time></trkpt><trkpt lat="43.8639389" lon="11.275658"><ele>558.0</ele><time>2026-03-28T09:21:20.47Z</time></trkpt><trkpt lat="43.8639398" lon="11.2755686"><ele>558.5</ele><time>2026-03-28T09:21:22.487Z</time></trkpt><trkpt lat="43.8639376" lon="11.2754528"><ele>559.0</ele><time>2026-03-28T09:21:25.475Z</time></trkpt><trkpt lat="43.8639378" lon="11.2753414"><ele>559.1666666666667</ele><time>2026-03-28T09:21:28.46Z</time></trkpt><trkpt lat="43.8639427" lon="11.2752485"><ele>559.3333333333334</ele><time>2026-03-28T09:21:31.467Z</time></trkpt><trkpt lat="43.8639425" lon="11.2751453"><ele>559.5</ele><time>2026-03-28T09:21:34.463Z</time></trkpt><trkpt lat="43.8639399" lon="11.275016"><ele>559.6666666666666</ele><time>2026-03-28T09:21:37.474Z</time></trkpt><trkpt lat="43.8639435" lon="11.2749262"><ele>559.8333333333333</ele><time>2026-03-28T09:21:39.465Z</time></trkpt><trkpt lat="43.8639448" lon="11.2748258"><ele>560.0</ele><time>2026-03-28T09:21:41.475Z</time></trkpt><trkpt lat="43.8639567" lon="11.2746948"><ele>561.5</ele><time>2026-03-28T09:21:44.473Z</time></trkpt><trkpt lat="43.8639661" lon="11.2745995"><ele>563.0</ele><time>2026-03-28T09:21:46.459Z</time></trkpt><trkpt lat="43.8639794" lon="11.2744904"><ele>564.5</ele><time>2026-03-28T09:21:48.466Z</time></trkpt><trkpt lat="43.8639878" lon="11.2743824"><ele>566.0</ele><time>2026-03-28T09:21:50.479Z</time></trkpt><trkpt lat="43.8639996" lon="11.2742807"><ele>567.5</ele><time>2026-03-28T09:21:52.454Z</time></trkpt><trkpt lat="43.8640154" lon="11.2741835"><ele>569.0</ele><time>2026-03-28T09:21:54.467Z</time></trkpt><trkpt lat="43.8640305" lon="11.2740789"><ele>569.0000000000001</ele><time>2026-03-28T09:21:56.46Z</time></trkpt><trkpt lat="43.8640499" lon="11.2739833"><ele>569.0</ele><time>2026-03-28T09:21:58.455Z</time></trkpt><trkpt lat="43.8640766" lon="11.2738895"><ele>569.0</ele><time>2026-03-28T09:22:00.457Z</time></trkpt><trkpt lat="43.8641043" lon="11.2737901"><ele>569.0</ele><time>2026-03-28T09:22:02.465Z</time></trkpt><trkpt lat="43.8641367" lon="11.2737038"><ele>569.0</ele><time>2026-03-28T09:22:04.447Z</time></trkpt><trkpt lat="43.8641718" lon="11.2736169"><ele>569.0000000000001</ele><time>2026-03-28T09:22:06.474Z</time></trkpt><trkpt lat="43.8642102" lon="11.2735327"><ele>569.0</ele><time>2026-03-28T09:22:08.471Z</time></trkpt><trkpt lat="43.8642499" lon="11.2734539"><ele>568.3333333333333</ele><time>2026-03-28T09:22:10.468Z</time></trkpt><trkpt lat="43.8642988" lon="11.2733875"><ele>567.6666666666666</ele><time>2026-03-28T09:22:12.459Z</time></trkpt><trkpt lat="43.8643585" lon="11.2732875"><ele>567.0</ele><time>2026-03-28T09:22:15.461Z</time></trkpt><trkpt lat="43.8644042" lon="11.2732179"><ele>566.3333333333334</ele><time>2026-03-28T09:22:17.476Z</time></trkpt><trkpt lat="43.8644486" lon="11.273153"><ele>565.6666666666667</ele><time>2026-03-28T09:22:19.45Z</time></trkpt><trkpt lat="43.8644924" lon="11.2730782"><ele>565.0</ele><time>2026-03-28T09:22:21.454Z</time></trkpt><trkpt lat="43.8645476" lon="11.2729775"><ele>566.5714285714286</ele><time>2026-03-28T09:22:24.454Z</time></trkpt><trkpt lat="43.8645929" lon="11.2729029"><ele>568.1428571428571</ele><time>2026-03-28T09:22:26.454Z</time></trkpt><trkpt lat="43.8646359" lon="11.2728323"><ele>569.7142857142858</ele><time>2026-03-28T09:22:28.457Z</time></trkpt><trkpt lat="43.8646781" lon="11.2727632"><ele>571.2857142857142</ele><time>2026-03-28T09:22:30.453Z</time></trkpt><trkpt lat="43.8647257" lon="11.2726979"><ele>572.8571428571429</ele><time>2026-03-28T09:22:32.458Z</time></trkpt><trkpt lat="43.8647716" lon="11.2726167"><ele>574.4285714285714</ele><time>2026-03-28T09:22:35.452Z</time></trkpt><trkpt lat="43.8648184" lon="11.2725155"><ele>576.0</ele><time>2026-03-28T09:22:38.447Z</time></trkpt><trkpt lat="43.8648767" lon="11.2724174"><ele>576.0</ele><time>2026-03-28T09:22:41.474Z</time></trkpt><trkpt lat="43.8649416" lon="11.2723229"><ele>576.0</ele><time>2026-03-28T09:22:44.456Z</time></trkpt><trkpt lat="43.8649959" lon="11.272254"><ele>576.0</ele><time>2026-03-28T09:22:46.459Z</time></trkpt><trkpt lat="43.865042" lon="11.2721843"><ele>576.0</ele><time>2026-03-28T09:22:48.462Z</time></trkpt><trkpt lat="43.865087" lon="11.2721019"><ele>576.0</ele><time>2026-03-28T09:22:50.474Z</time></trkpt><trkpt lat="43.8651324" lon="11.2720405"><ele>576.0</ele><time>2026-03-28T09:22:52.467Z</time></trkpt><trkpt lat="43.8652096" lon="11.2719748"><ele>574.1666666666666</ele><time>2026-03-28T09:22:55.461Z</time></trkpt><trkpt lat="43.8652838" lon="11.2719462"><ele>572.3333333333334</ele><time>2026-03-28T09:22:58.465Z</time></trkpt><trkpt lat="43.865342" lon="11.2719903"><ele>570.5</ele><time>2026-03-28T09:23:00.475Z</time></trkpt><trkpt lat="43.8654147" lon="11.2720158"><ele>568.6666666666667</ele><time>2026-03-28T09:23:02.454Z</time></trkpt><trkpt lat="43.8654918" lon="11.2720767"><ele>566.8333333333334</ele><time>2026-03-28T09:23:04.473Z</time></trkpt><trkpt lat="43.8655935" lon="11.2721571"><ele>565.0</ele><time>2026-03-28T09:23:06.454Z</time></trkpt><trkpt lat="43.8656951" lon="11.2722509"><ele>565.5</ele><time>2026-03-28T09:23:08.461Z</time></trkpt><trkpt lat="43.8657503" lon="11.272301"><ele>566.0</ele><time>2026-03-28T09:23:09.458Z</time></trkpt><trkpt lat="43.8658037" lon="11.2723502"><ele>566.5</ele><time>2026-03-28T09:23:10.464Z</time></trkpt><trkpt lat="43.8658597" lon="11.2723984"><ele>567.0</ele><time>2026-03-28T09:23:11.458Z</time></trkpt><trkpt lat="43.8659099" lon="11.2724517"><ele>567.5</ele><time>2026-03-28T09:23:12.452Z</time></trkpt><trkpt lat="43.8660181" lon="11.2725286"><ele>568.0</ele><time>2026-03-28T09:23:14.461Z</time></trkpt><trkpt lat="43.8661206" lon="11.2725868"><ele>567.0</ele><time>2026-03-28T09:23:16.466Z</time></trkpt><trkpt lat="43.8662083" lon="11.2726453"><ele>566.0</ele><time>2026-03-28T09:23:18.462Z</time></trkpt><trkpt lat="43.8662941" lon="11.2727033"><ele>565.0</ele><time>2026-03-28T09:23:20.456Z</time></trkpt><trkpt lat="43.8663705" lon="11.2727518"><ele>564.0</ele><time>2026-03-28T09:23:22.459Z</time></trkpt><trkpt lat="43.8664431" lon="11.2728128"><ele>563.0</ele><time>2026-03-28T09:23:24.458Z</time></trkpt><trkpt lat="43.8665188" lon="11.2728703"><ele>562.0</ele><time>2026-03-28T09:23:26.482Z</time></trkpt><trkpt lat="43.8665842" lon="11.2729306"><ele>562.0</ele><time>2026-03-28T09:23:28.46Z</time></trkpt><trkpt lat="43.8666471" lon="11.2729576"><ele>562.0</ele><time>2026-03-28T09:23:30.461Z</time></trkpt><trkpt lat="43.8667289" lon="11.2730251"><ele>562.0</ele><time>2026-03-28T09:23:33.476Z</time></trkpt><trkpt lat="43.8667881" lon="11.2730752"><ele>562.0</ele><time>2026-03-28T09:23:35.462Z</time></trkpt><trkpt lat="43.8668743" lon="11.2731049"><ele>562.0</ele><time>2026-03-28T09:23:37.458Z</time></trkpt><trkpt lat="43.8669522" lon="11.2731451"><ele>562.0</ele><time>2026-03-28T09:23:39.474Z</time></trkpt><trkpt lat="43.8670424" lon="11.2731879"><ele>563.0</ele><time>2026-03-28T09:23:41.459Z</time></trkpt><trkpt lat="43.8671388" lon="11.2732159"><ele>564.0</ele><time>2026-03-28T09:23:43.464Z</time></trkpt><trkpt lat="43.8672349" lon="11.2732476"><ele>565.0</ele><time>2026-03-28T09:23:45.463Z</time></trkpt><trkpt lat="43.8673341" lon="11.2732764"><ele>566.0</ele><time>2026-03-28T09:23:47.47Z</time></trkpt><trkpt lat="43.8674353" lon="11.2732786"><ele>567.0</ele><time>2026-03-28T09:23:49.46Z</time></trkpt><trkpt lat="43.8675355" lon="11.2732662"><ele>566.8333333333334</ele><time>2026-03-28T09:23:51.468Z</time></trkpt><trkpt lat="43.8676163" lon="11.273241"><ele>566.6666666666666</ele><time>2026-03-28T09:23:53.469Z</time></trkpt><trkpt lat="43.8676787" lon="11.2732045"><ele>566.5</ele><time>2026-03-28T09:23:55.466Z</time></trkpt><trkpt lat="43.8677364" lon="11.2731553"><ele>566.3333333333333</ele><time>2026-03-28T09:23:57.459Z</time></trkpt><trkpt lat="43.8677935" lon="11.2731014"><ele>566.1666666666666</ele><time>2026-03-28T09:23:59.461Z</time></trkpt><trkpt lat="43.8678592" lon="11.2730241"><ele>566.0</ele><time>2026-03-28T09:24:01.458Z</time></trkpt><trkpt lat="43.8679208" lon="11.2729206"><ele>566.0</ele><time>2026-03-28T09:24:03.462Z</time></trkpt><trkpt lat="43.8679782" lon="11.2728217"><ele>566.0</ele><time>2026-03-28T09:24:05.464Z</time></trkpt><trkpt lat="43.8680278" lon="11.2727348"><ele>566.0</ele><time>2026-03-28T09:24:07.465Z</time></trkpt><trkpt lat="43.8680856" lon="11.2726394"><ele>566.0</ele><time>2026-03-28T09:24:09.457Z</time></trkpt><trkpt lat="43.8681494" lon="11.2725337"><ele>566.0</ele><time>2026-03-28T09:24:11.468Z</time></trkpt><trkpt lat="43.868221" lon="11.2724213"><ele>566.0</ele><time>2026-03-28T09:24:13.476Z</time></trkpt><trkpt lat="43.8682836" lon="11.2722978"><ele>566.0</ele><time>2026-03-28T09:24:15.458Z</time></trkpt><trkpt lat="43.8683461" lon="11.2721762"><ele>566.0</ele><time>2026-03-28T09:24:17.463Z</time></trkpt><trkpt lat="43.8683975" lon="11.2720706"><ele>566.0</ele><time>2026-03-28T09:24:19.461Z</time></trkpt><trkpt lat="43.8684501" lon="11.2719534"><ele>566.0</ele><time>2026-03-28T09:24:21.465Z</time></trkpt><trkpt lat="43.8685148" lon="11.2718426"><ele>564.6</ele><time>2026-03-28T09:24:23.47Z</time></trkpt><trkpt lat="43.8685846" lon="11.2717471"><ele>563.2</ele><time>2026-03-28T09:24:25.46Z</time></trkpt><trkpt lat="43.8686599" lon="11.2716437"><ele>561.8</ele><time>2026-03-28T09:24:27.458Z</time></trkpt><trkpt lat="43.8687059" lon="11.2715833"><ele>560.4</ele><time>2026-03-28T09:24:28.454Z</time></trkpt><trkpt lat="43.8688014" lon="11.2714697"><ele>559.0</ele><time>2026-03-28T09:24:30.462Z</time></trkpt><trkpt lat="43.8688944" lon="11.271364"><ele>556.1666666666667</ele><time>2026-03-28T09:24:32.467Z</time></trkpt><trkpt lat="43.8689488" lon="11.2713126"><ele>553.3333333333334</ele><time>2026-03-28T09:24:33.453Z</time></trkpt><trkpt lat="43.869043" lon="11.2712026"><ele>550.5</ele><time>2026-03-28T09:24:35.474Z</time></trkpt><trkpt lat="43.8690935" lon="11.2711367"><ele>547.6666666666666</ele><time>2026-03-28T09:24:36.473Z</time></trkpt><trkpt lat="43.8691412" lon="11.2710723"><ele>544.8333333333333</ele><time>2026-03-28T09:24:37.466Z</time></trkpt><trkpt lat="43.869187" lon="11.2710029"><ele>542.0</ele><time>2026-03-28T09:24:38.452Z</time></trkpt><trkpt lat="43.8692733" lon="11.2708818"><ele>541.1666666666666</ele><time>2026-03-28T09:24:40.455Z</time></trkpt><trkpt lat="43.8693523" lon="11.2707672"><ele>540.3333333333333</ele><time>2026-03-28T09:24:42.45Z</time></trkpt><trkpt lat="43.8694023" lon="11.2707032"><ele>539.5</ele><time>2026-03-28T09:24:43.459Z</time></trkpt><trkpt lat="43.8694476" lon="11.2706371"><ele>538.6666666666666</ele><time>2026-03-28T09:24:44.466Z</time></trkpt><trkpt lat="43.8695284" lon="11.2705177"><ele>537.8333333333334</ele><time>2026-03-28T09:24:46.477Z</time></trkpt><trkpt lat="43.869574" lon="11.2704541"><ele>537.0</ele><time>2026-03-28T09:24:47.457Z</time></trkpt><trkpt lat="43.8696169" lon="11.2703843"><ele>537.0</ele><time>2026-03-28T09:24:48.448Z</time></trkpt><trkpt lat="43.8696937" lon="11.2702635"><ele>537.0</ele><time>2026-03-28T09:24:50.458Z</time></trkpt><trkpt lat="43.8697649" lon="11.2701568"><ele>537.0</ele><time>2026-03-28T09:24:52.468Z</time></trkpt><trkpt lat="43.8698574" lon="11.2700616"><ele>537.0</ele><time>2026-03-28T09:24:54.468Z</time></trkpt><trkpt lat="43.8699605" lon="11.2699951"><ele>537.0</ele><time>2026-03-28T09:24:56.47Z</time></trkpt><trkpt lat="43.8700575" lon="11.2699676"><ele>537.0</ele><time>2026-03-28T09:24:58.456Z</time></trkpt><trkpt lat="43.8701512" lon="11.2699171"><ele>537.0</ele><time>2026-03-28T09:25:00.45Z</time></trkpt><trkpt lat="43.8702447" lon="11.2698468"><ele>537.0</ele><time>2026-03-28T09:25:02.45Z</time></trkpt><trkpt lat="43.8703413" lon="11.2697772"><ele>537.0</ele><time>2026-03-28T09:25:04.45Z</time></trkpt><trkpt lat="43.8704387" lon="11.2697055"><ele>534.0</ele><time>2026-03-28T09:25:06.451Z</time></trkpt><trkpt lat="43.8705326" lon="11.2696599"><ele>531.0</ele><time>2026-03-28T09:25:08.459Z</time></trkpt><trkpt lat="43.8706164" lon="11.2696508"><ele>528.0</ele><time>2026-03-28T09:25:10.475Z</time></trkpt><trkpt lat="43.8707059" lon="11.2696362"><ele>525.0</ele><time>2026-03-28T09:25:12.455Z</time></trkpt><trkpt lat="43.8707921" lon="11.2696325"><ele>522.0</ele><time>2026-03-28T09:25:14.471Z</time></trkpt><trkpt lat="43.8708865" lon="11.2696747"><ele>518.6</ele><time>2026-03-28T09:25:16.463Z</time></trkpt><trkpt lat="43.8709575" lon="11.2697589"><ele>515.2</ele><time>2026-03-28T09:25:18.452Z</time></trkpt><trkpt lat="43.8710018" lon="11.269854"><ele>511.8</ele><time>2026-03-28T09:25:20.457Z</time></trkpt><trkpt lat="43.8710416" lon="11.2699773"><ele>508.4</ele><time>2026-03-28T09:25:22.481Z</time></trkpt><trkpt lat="43.8710734" lon="11.2700985"><ele>505.0</ele><time>2026-03-28T09:25:24.469Z</time></trkpt><trkpt lat="43.8711031" lon="11.2702216"><ele>505.0</ele><time>2026-03-28T09:25:26.466Z</time></trkpt><trkpt lat="43.8711382" lon="11.2703545"><ele>505.0</ele><time>2026-03-28T09:25:28.462Z</time></trkpt><trkpt lat="43.8711706" lon="11.2704926"><ele>505.0</ele><time>2026-03-28T09:25:30.462Z</time></trkpt><trkpt lat="43.8712136" lon="11.270623"><ele>505.0</ele><time>2026-03-28T09:25:32.471Z</time></trkpt><trkpt lat="43.871241" lon="11.2707518"><ele>505.0</ele><time>2026-03-28T09:25:34.451Z</time></trkpt><trkpt lat="43.8712436" lon="11.2708746"><ele>505.33333333333337</ele><time>2026-03-28T09:25:36.467Z</time></trkpt><trkpt lat="43.8712274" lon="11.2709907"><ele>505.6666666666667</ele><time>2026-03-28T09:25:38.454Z</time></trkpt><trkpt lat="43.8712044" lon="11.2710861"><ele>506.0</ele><time>2026-03-28T09:25:40.465Z</time></trkpt><trkpt lat="43.8711764" lon="11.2711996"><ele>506.33333333333337</ele><time>2026-03-28T09:25:42.463Z</time></trkpt><trkpt lat="43.8711517" lon="11.2713256"><ele>506.6666666666667</ele><time>2026-03-28T09:25:44.455Z</time></trkpt><trkpt lat="43.8711268" lon="11.2714617"><ele>507.0</ele><time>2026-03-28T09:25:46.454Z</time></trkpt><trkpt lat="43.8710978" lon="11.2716225"><ele>507.6</ele><time>2026-03-28T09:25:48.462Z</time></trkpt><trkpt lat="43.8710991" lon="11.2717101"><ele>508.20000000000005</ele><time>2026-03-28T09:25:49.463Z</time></trkpt><trkpt lat="43.8711016" lon="11.27187"><ele>508.8</ele><time>2026-03-28T09:25:51.456Z</time></trkpt><trkpt lat="43.8710948" lon="11.2720138"><ele>509.4</ele><time>2026-03-28T09:25:53.466Z</time></trkpt><trkpt lat="43.8710755" lon="11.2721483"><ele>510.0</ele><time>2026-03-28T09:25:55.474Z</time></trkpt><trkpt lat="43.8710782" lon="11.2722884"><ele>511.8571428571429</ele><time>2026-03-28T09:25:57.46Z</time></trkpt><trkpt lat="43.8711003" lon="11.2723879"><ele>513.7142857142858</ele><time>2026-03-28T09:25:59.47Z</time></trkpt><trkpt lat="43.8711257" lon="11.2724761"><ele>515.5714285714286</ele><time>2026-03-28T09:26:01.465Z</time></trkpt><trkpt lat="43.8711641" lon="11.272556"><ele>517.4285714285714</ele><time>2026-03-28T09:26:04.461Z</time></trkpt><trkpt lat="43.871224" lon="11.2725851"><ele>519.2857142857142</ele><time>2026-03-28T09:26:10.456Z</time></trkpt><trkpt lat="43.8712545" lon="11.2724798"><ele>521.1428571428571</ele><time>2026-03-28T09:27:20.452Z</time></trkpt><trkpt lat="43.8712781" lon="11.2723887"><ele>523.0</ele><time>2026-03-28T09:27:25.457Z</time></trkpt><trkpt lat="43.8713254" lon="11.2723005"><ele>520.8333333333334</ele><time>2026-03-28T09:27:29.46Z</time></trkpt><trkpt lat="43.8713903" lon="11.2722091"><ele>518.6666666666667</ele><time>2026-03-28T09:27:32.448Z</time></trkpt><trkpt lat="43.8714299" lon="11.2721388"><ele>516.5</ele><time>2026-03-28T09:27:34.461Z</time></trkpt><trkpt lat="43.8714707" lon="11.272044"><ele>514.3333333333334</ele><time>2026-03-28T09:27:37.464Z</time></trkpt><trkpt lat="43.8715093" lon="11.2719642"><ele>512.1666666666666</ele><time>2026-03-28T09:27:40.462Z</time></trkpt><trkpt lat="43.8715484" lon="11.2718769"><ele>510.0</ele><time>2026-03-28T09:27:43.464Z</time></trkpt><trkpt lat="43.8715959" lon="11.2717895"><ele>510.0</ele><time>2026-03-28T09:27:46.458Z</time></trkpt><trkpt lat="43.8716445" lon="11.2716878"><ele>510.00000000000006</ele><time>2026-03-28T09:27:50.451Z</time></trkpt><trkpt lat="43.871684" lon="11.2716061"><ele>510.0</ele><time>2026-03-28T09:27:53.474Z</time></trkpt><trkpt lat="43.8717261" lon="11.2715328"><ele>510.0</ele><time>2026-03-28T09:27:56.465Z</time></trkpt><trkpt lat="43.871766" lon="11.2714423"><ele>510.00000000000006</ele><time>2026-03-28T09:27:59.467Z</time></trkpt><trkpt lat="43.8717803" lon="11.2713522"><ele>510.0</ele><time>2026-03-28T09:28:01.458Z</time></trkpt><trkpt lat="43.8718046" lon="11.2712598"><ele>510.0</ele><time>2026-03-28T09:28:03.459Z</time></trkpt><trkpt lat="43.8718299" lon="11.2711797"><ele>509.5</ele><time>2026-03-28T09:28:05.464Z</time></trkpt><trkpt lat="43.8718668" lon="11.2710548"><ele>509.0</ele><time>2026-03-28T09:28:08.452Z</time></trkpt><trkpt lat="43.8718928" lon="11.270941"><ele>508.5</ele><time>2026-03-28T09:28:11.445Z</time></trkpt><trkpt lat="43.8718999" lon="11.2708434"><ele>508.0</ele><time>2026-03-28T09:28:25.46Z</time></trkpt><trkpt lat="43.871959" lon="11.2707425"><ele>507.5</ele><time>2026-03-28T09:28:39.479Z</time></trkpt><trkpt lat="43.8720058" lon="11.2706502"><ele>507.0</ele><time>2026-03-28T09:28:43.453Z</time></trkpt><trkpt lat="43.872033" lon="11.2705579"><ele>505.5</ele><time>2026-03-28T09:28:45.462Z</time></trkpt><trkpt lat="43.8720605" lon="11.270452"><ele>504.0</ele><time>2026-03-28T09:28:47.447Z</time></trkpt><trkpt lat="43.8720921" lon="11.2703474"><ele>502.5</ele><time>2026-03-28T09:28:49.462Z</time></trkpt><trkpt lat="43.8721127" lon="11.2702566"><ele>501.0</ele><time>2026-03-28T09:28:51.463Z</time></trkpt><trkpt lat="43.8721484" lon="11.2701478"><ele>499.5</ele><time>2026-03-28T09:28:53.474Z</time></trkpt><trkpt lat="43.872169" lon="11.2700471"><ele>498.0</ele><time>2026-03-28T09:28:55.463Z</time></trkpt><trkpt lat="43.8721693" lon="11.2699301"><ele>498.0</ele><time>2026-03-28T09:28:58.483Z</time></trkpt><trkpt lat="43.8721739" lon="11.2698386"><ele>497.99999999999994</ele><time>2026-03-28T09:29:02.476Z</time></trkpt><trkpt lat="43.8721628" lon="11.2697219"><ele>498.0</ele><time>2026-03-28T09:29:10.471Z</time></trkpt><trkpt lat="43.872176" lon="11.269633"><ele>498.0</ele><time>2026-03-28T09:29:12.461Z</time></trkpt><trkpt lat="43.8722092" lon="11.2695339"><ele>497.99999999999994</ele><time>2026-03-28T09:29:14.465Z</time></trkpt><trkpt lat="43.8722354" lon="11.2694431"><ele>498.0</ele><time>2026-03-28T09:29:16.468Z</time></trkpt><trkpt lat="43.8722627" lon="11.2693619"><ele>498.0</ele><time>2026-03-28T09:29:18.467Z</time></trkpt><trkpt lat="43.8723127" lon="11.269253"><ele>496.8333333333333</ele><time>2026-03-28T09:29:21.469Z</time></trkpt><trkpt lat="43.8723542" lon="11.2691834"><ele>495.66666666666663</ele><time>2026-03-28T09:29:23.467Z</time></trkpt><trkpt lat="43.8723961" lon="11.2691121"><ele>494.5</ele><time>2026-03-28T09:29:25.461Z</time></trkpt><trkpt lat="43.8724382" lon="11.2690297"><ele>493.3333333333333</ele><time>2026-03-28T09:29:27.458Z</time></trkpt><trkpt lat="43.8724882" lon="11.2689515"><ele>492.16666666666663</ele><time>2026-03-28T09:29:29.459Z</time></trkpt><trkpt lat="43.8725421" lon="11.2688598"><ele>491.0</ele><time>2026-03-28T09:29:31.454Z</time></trkpt><trkpt lat="43.8726067" lon="11.2687826"><ele>490.99999999999994</ele><time>2026-03-28T09:29:33.465Z</time></trkpt><trkpt lat="43.8726681" lon="11.2687104"><ele>491.0</ele><time>2026-03-28T09:29:35.471Z</time></trkpt><trkpt lat="43.8727348" lon="11.2686406"><ele>491.0</ele><time>2026-03-28T09:29:37.465Z</time></trkpt><trkpt lat="43.8727978" lon="11.268587"><ele>491.0</ele><time>2026-03-28T09:29:39.476Z</time></trkpt><trkpt lat="43.8728622" lon="11.2685441"><ele>490.99999999999994</ele><time>2026-03-28T09:29:41.467Z</time></trkpt><trkpt lat="43.8729237" lon="11.2684927"><ele>491.0</ele><time>2026-03-28T09:29:43.456Z</time></trkpt><trkpt lat="43.8729979" lon="11.2684404"><ele>491.0</ele><time>2026-03-28T09:29:45.467Z</time></trkpt><trkpt lat="43.8730763" lon="11.2684201"><ele>490.99999999999994</ele><time>2026-03-28T09:29:48.462Z</time></trkpt><trkpt lat="43.873162" lon="11.2683813"><ele>491.0</ele><time>2026-03-28T09:29:51.454Z</time></trkpt><trkpt lat="43.8732182" lon="11.268338"><ele>491.0</ele><time>2026-03-28T09:29:53.462Z</time></trkpt><trkpt lat="43.8732783" lon="11.2682964"><ele>490.99999999999994</ele><time>2026-03-28T09:29:55.464Z</time></trkpt><trkpt lat="43.8733335" lon="11.268253"><ele>491.0</ele><time>2026-03-28T09:29:57.463Z</time></trkpt><trkpt lat="43.8733902" lon="11.2682053"><ele>491.0</ele><time>2026-03-28T09:29:59.477Z</time></trkpt><trkpt lat="43.8734501" lon="11.2681477"><ele>489.8333333333333</ele><time>2026-03-28T09:30:01.471Z</time></trkpt><trkpt lat="43.8735289" lon="11.2680897"><ele>488.66666666666663</ele><time>2026-03-28T09:30:03.473Z</time></trkpt><trkpt lat="43.8736094" lon="11.2680312"><ele>487.5</ele><time>2026-03-28T09:30:05.456Z</time></trkpt><trkpt lat="43.8736886" lon="11.2679804"><ele>486.33333333333337</ele><time>2026-03-28T09:30:07.451Z</time></trkpt><trkpt lat="43.8737533" lon="11.2679504"><ele>485.1666666666667</ele><time>2026-03-28T09:30:09.456Z</time></trkpt><trkpt lat="43.8738408" lon="11.2679229"><ele>484.0</ele><time>2026-03-28T09:30:12.475Z</time></trkpt><trkpt lat="43.8739355" lon="11.267895"><ele>484.00000000000006</ele><time>2026-03-28T09:30:15.473Z</time></trkpt><trkpt lat="43.8740079" lon="11.2678865"><ele>484.0</ele><time>2026-03-28T09:30:17.471Z</time></trkpt><trkpt lat="43.8740897" lon="11.2678893"><ele>484.0</ele><time>2026-03-28T09:30:19.481Z</time></trkpt><trkpt lat="43.8741676" lon="11.2678818"><ele>484.0</ele><time>2026-03-28T09:30:21.472Z</time></trkpt><trkpt lat="43.8742439" lon="11.2678654"><ele>484.00000000000006</ele><time>2026-03-28T09:30:23.477Z</time></trkpt><trkpt lat="43.8743186" lon="11.2678391"><ele>484.0</ele><time>2026-03-28T09:30:25.481Z</time></trkpt><trkpt lat="43.8743872" lon="11.267816"><ele>484.1666666666667</ele><time>2026-03-28T09:30:27.471Z</time></trkpt><trkpt lat="43.8744736" lon="11.2677741"><ele>484.33333333333337</ele><time>2026-03-28T09:30:29.471Z</time></trkpt><trkpt lat="43.8745497" lon="11.2677395"><ele>484.5</ele><time>2026-03-28T09:30:31.47Z</time></trkpt><trkpt lat="43.8746216" lon="11.2677161"><ele>484.66666666666663</ele><time>2026-03-28T09:30:33.475Z</time></trkpt><trkpt lat="43.8746903" lon="11.2676799"><ele>484.8333333333333</ele><time>2026-03-28T09:30:35.461Z</time></trkpt><trkpt lat="43.8747779" lon="11.2676235"><ele>485.0</ele><time>2026-03-28T09:30:37.486Z</time></trkpt><trkpt lat="43.8748557" lon="11.26759"><ele>484.99999999999994</ele><time>2026-03-28T09:30:39.47Z</time></trkpt><trkpt lat="43.8749325" lon="11.2675709"><ele>485.0</ele><time>2026-03-28T09:30:42.476Z</time></trkpt><trkpt lat="43.8749909" lon="11.2675287"><ele>485.0</ele><time>2026-03-28T09:30:46.471Z</time></trkpt><trkpt lat="43.8750517" lon="11.2674795"><ele>485.0</ele><time>2026-03-28T09:30:53.467Z</time></trkpt><trkpt lat="43.875134" lon="11.2674494"><ele>484.99999999999994</ele><time>2026-03-28T09:30:56.473Z</time></trkpt><trkpt lat="43.8752042" lon="11.2674098"><ele>485.0</ele><time>2026-03-28T09:30:59.483Z</time></trkpt><trkpt lat="43.8752687" lon="11.2673472"><ele>484.57142857142867</ele><time>2026-03-28T09:31:02.474Z</time></trkpt><trkpt lat="43.8753425" lon="11.2672962"><ele>484.14285714285717</ele><time>2026-03-28T09:31:05.489Z</time></trkpt><trkpt lat="43.8754222" lon="11.2672688"><ele>483.7142857142858</ele><time>2026-03-28T09:31:08.467Z</time></trkpt><trkpt lat="43.875491" lon="11.2672427"><ele>483.28571428571433</ele><time>2026-03-28T09:31:11.471Z</time></trkpt><trkpt lat="43.8755464" lon="11.2671987"><ele>482.8571428571429</ele><time>2026-03-28T09:31:13.486Z</time></trkpt><trkpt lat="43.8755817" lon="11.2671145"><ele>482.42857142857144</ele><time>2026-03-28T09:31:15.451Z</time></trkpt><trkpt lat="43.8756086" lon="11.2670213"><ele>482.0</ele><time>2026-03-28T09:31:17.46Z</time></trkpt><trkpt lat="43.8756355" lon="11.2668951"><ele>479.49999999999994</ele><time>2026-03-28T09:31:20.469Z</time></trkpt><trkpt lat="43.875657" lon="11.2667821"><ele>477.0</ele><time>2026-03-28T09:31:22.484Z</time></trkpt><trkpt lat="43.875685" lon="11.2666652"><ele>474.5</ele><time>2026-03-28T09:31:25.476Z</time></trkpt><trkpt lat="43.8757527" lon="11.2665968"><ele>472.0</ele><time>2026-03-28T09:31:28.46Z</time></trkpt><trkpt lat="43.8758228" lon="11.2666053"><ele>469.49999999999994</ele><time>2026-03-28T09:31:30.463Z</time></trkpt><trkpt lat="43.8759126" lon="11.2666444"><ele>467.0</ele><time>2026-03-28T09:31:33.466Z</time></trkpt><trkpt lat="43.8759746" lon="11.2666794"><ele>465.71428571428567</ele><time>2026-03-28T09:31:35.448Z</time></trkpt><trkpt lat="43.8760398" lon="11.2667265"><ele>464.42857142857144</ele><time>2026-03-28T09:31:37.457Z</time></trkpt><trkpt lat="43.8761012" lon="11.2667656"><ele>463.1428571428571</ele><time>2026-03-28T09:31:39.462Z</time></trkpt><trkpt lat="43.876167" lon="11.2668056"><ele>461.85714285714283</ele><time>2026-03-28T09:31:41.455Z</time></trkpt><trkpt lat="43.8762405" lon="11.2668535"><ele>460.57142857142856</ele><time>2026-03-28T09:31:43.46Z</time></trkpt><trkpt lat="43.8763084" lon="11.266888"><ele>459.2857142857143</ele><time>2026-03-28T09:31:45.466Z</time></trkpt><trkpt lat="43.8763773" lon="11.2669223"><ele>458.0</ele><time>2026-03-28T09:31:47.458Z</time></trkpt><trkpt lat="43.8764501" lon="11.2669703"><ele>458.0</ele><time>2026-03-28T09:31:49.471Z</time></trkpt><trkpt lat="43.8765258" lon="11.2670199"><ele>458.0</ele><time>2026-03-28T09:31:51.449Z</time></trkpt><trkpt lat="43.8765962" lon="11.2670371"><ele>458.0</ele><time>2026-03-28T09:31:53.454Z</time></trkpt><trkpt lat="43.8766664" lon="11.2670475"><ele>458.0</ele><time>2026-03-28T09:31:57.452Z</time></trkpt><trkpt lat="43.8767394" lon="11.2670354"><ele>458.0</ele><time>2026-03-28T09:32:01.466Z</time></trkpt><trkpt lat="43.876805" lon="11.2670419"><ele>458.0</ele><time>2026-03-28T09:32:04.464Z</time></trkpt><trkpt lat="43.8768782" lon="11.2670505"><ele>458.0</ele><time>2026-03-28T09:32:07.468Z</time></trkpt><trkpt lat="43.8769599" lon="11.2670409"><ele>456.66666666666663</ele><time>2026-03-28T09:32:10.466Z</time></trkpt><trkpt lat="43.8770503" lon="11.2670435"><ele>455.3333333333333</ele><time>2026-03-28T09:32:13.468Z</time></trkpt><trkpt lat="43.877117" lon="11.2670679"><ele>454.0</ele><time>2026-03-28T09:32:16.453Z</time></trkpt><trkpt lat="43.8771877" lon="11.2670948"><ele>452.66666666666663</ele><time>2026-03-28T09:32:19.455Z</time></trkpt><trkpt lat="43.8772588" lon="11.2671087"><ele>451.3333333333333</ele><time>2026-03-28T09:32:22.467Z</time></trkpt><trkpt lat="43.877329" lon="11.2671303"><ele>450.0</ele><time>2026-03-28T09:32:25.455Z</time></trkpt><trkpt lat="43.8774129" lon="11.267144"><ele>450.0</ele><time>2026-03-28T09:32:28.474Z</time></trkpt><trkpt lat="43.8775115" lon="11.2671573"><ele>450.0</ele><time>2026-03-28T09:32:30.453Z</time></trkpt><trkpt lat="43.8776208" lon="11.2671707"><ele>450.0</ele><time>2026-03-28T09:32:32.466Z</time></trkpt><trkpt lat="43.8777171" lon="11.2671986"><ele>450.0</ele><time>2026-03-28T09:32:34.462Z</time></trkpt><trkpt lat="43.8777795" lon="11.267233"><ele>450.0</ele><time>2026-03-28T09:32:36.455Z</time></trkpt><trkpt lat="43.8778413" lon="11.2672539"><ele>450.0</ele><time>2026-03-28T09:32:38.453Z</time></trkpt><trkpt lat="43.8779256" lon="11.2672826"><ele>450.5</ele><time>2026-03-28T09:32:41.458Z</time></trkpt><trkpt lat="43.8779922" lon="11.2673179"><ele>451.0</ele><time>2026-03-28T09:32:43.454Z</time></trkpt><trkpt lat="43.8780505" lon="11.2673717"><ele>451.5</ele><time>2026-03-28T09:32:45.478Z</time></trkpt><trkpt lat="43.8781209" lon="11.2674345"><ele>452.0</ele><time>2026-03-28T09:32:48.466Z</time></trkpt><trkpt lat="43.8781893" lon="11.2674691"><ele>452.5</ele><time>2026-03-28T09:32:51.456Z</time></trkpt><trkpt lat="43.8782798" lon="11.2674716"><ele>453.0</ele><time>2026-03-28T09:32:54.467Z</time></trkpt><trkpt lat="43.8783628" lon="11.2674764"><ele>451.5</ele><time>2026-03-28T09:32:56.465Z</time></trkpt><trkpt lat="43.8784552" lon="11.2674957"><ele>450.0</ele><time>2026-03-28T09:32:58.446Z</time></trkpt><trkpt lat="43.8785365" lon="11.2675031"><ele>448.5</ele><time>2026-03-28T09:33:00.46Z</time></trkpt><trkpt lat="43.8785972" lon="11.2674755"><ele>447.0</ele><time>2026-03-28T09:33:02.459Z</time></trkpt><trkpt lat="43.8786592" lon="11.2674287"><ele>445.5</ele><time>2026-03-28T09:33:04.448Z</time></trkpt><trkpt lat="43.8787304" lon="11.2673687"><ele>444.0</ele><time>2026-03-28T09:33:07.471Z</time></trkpt><trkpt lat="43.8787946" lon="11.2673138"><ele>442.0</ele><time>2026-03-28T09:33:09.455Z</time></trkpt><trkpt lat="43.8788794" lon="11.2672648"><ele>440.0</ele><time>2026-03-28T09:33:12.451Z</time></trkpt><trkpt lat="43.878958" lon="11.2672039"><ele>438.0</ele><time>2026-03-28T09:33:15.472Z</time></trkpt><trkpt lat="43.8790342" lon="11.2671382"><ele>436.0</ele><time>2026-03-28T09:33:17.467Z</time></trkpt><trkpt lat="43.8790862" lon="11.2670838"><ele>434.0</ele><time>2026-03-28T09:33:18.456Z</time></trkpt><trkpt lat="43.8791322" lon="11.2670236"><ele>432.0</ele><time>2026-03-28T09:33:19.474Z</time></trkpt><trkpt lat="43.8792007" lon="11.2668983"><ele>432.0</ele><time>2026-03-28T09:33:21.48Z</time></trkpt><trkpt lat="43.8792668" lon="11.2667917"><ele>432.00000000000006</ele><time>2026-03-28T09:33:23.462Z</time></trkpt><trkpt lat="43.8793307" lon="11.2667004"><ele>432.00000000000006</ele><time>2026-03-28T09:33:25.474Z</time></trkpt><trkpt lat="43.8794033" lon="11.2666031"><ele>432.0</ele><time>2026-03-28T09:33:27.486Z</time></trkpt><trkpt lat="43.8794983" lon="11.266519"><ele>432.0</ele><time>2026-03-28T09:33:29.454Z</time></trkpt><trkpt lat="43.879601" lon="11.266455"><ele>429.6</ele><time>2026-03-28T09:33:31.458Z</time></trkpt><trkpt lat="43.8796899" lon="11.2664175"><ele>427.20000000000005</ele><time>2026-03-28T09:33:33.464Z</time></trkpt><trkpt lat="43.8797754" lon="11.2663946"><ele>424.8</ele><time>2026-03-28T09:33:35.463Z</time></trkpt><trkpt lat="43.8798594" lon="11.2663998"><ele>422.4</ele><time>2026-03-28T09:33:37.452Z</time></trkpt><trkpt lat="43.8799682" lon="11.266406"><ele>420.0</ele><time>2026-03-28T09:33:39.458Z</time></trkpt><trkpt lat="43.8800795" lon="11.2663958"><ele>419.3333333333333</ele><time>2026-03-28T09:33:41.458Z</time></trkpt><trkpt lat="43.8801723" lon="11.2663822"><ele>418.66666666666663</ele><time>2026-03-28T09:33:43.463Z</time></trkpt><trkpt lat="43.8802422" lon="11.266375"><ele>418.0</ele><time>2026-03-28T09:33:45.47Z</time></trkpt><trkpt lat="43.8803241" lon="11.2663616"><ele>417.3333333333333</ele><time>2026-03-28T09:33:48.467Z</time></trkpt><trkpt lat="43.8804016" lon="11.2663349"><ele>416.66666666666663</ele><time>2026-03-28T09:33:50.472Z</time></trkpt><trkpt lat="43.880473" lon="11.2662827"><ele>416.0</ele><time>2026-03-28T09:33:53.466Z</time></trkpt><trkpt lat="43.8805417" lon="11.2662326"><ele>415.99999999999994</ele><time>2026-03-28T09:33:56.464Z</time></trkpt><trkpt lat="43.8806115" lon="11.2662035"><ele>416.0</ele><time>2026-03-28T09:33:58.464Z</time></trkpt><trkpt lat="43.8806754" lon="11.2661811"><ele>416.0</ele><time>2026-03-28T09:34:00.472Z</time></trkpt><trkpt lat="43.8807453" lon="11.2661944"><ele>416.0</ele><time>2026-03-28T09:34:02.483Z</time></trkpt><trkpt lat="43.8808083" lon="11.266248"><ele>415.99999999999994</ele><time>2026-03-28T09:34:04.478Z</time></trkpt><trkpt lat="43.8808675" lon="11.2663429"><ele>416.0</ele><time>2026-03-28T09:34:07.468Z</time></trkpt><trkpt lat="43.8809354" lon="11.2664243"><ele>416.3333333333333</ele><time>2026-03-28T09:34:09.464Z</time></trkpt><trkpt lat="43.8810292" lon="11.2664639"><ele>416.66666666666663</ele><time>2026-03-28T09:34:11.46Z</time></trkpt><trkpt lat="43.881094" lon="11.2664517"><ele>417.0</ele><time>2026-03-28T09:34:15.476Z</time></trkpt><trkpt lat="43.8811592" lon="11.2664003"><ele>417.33333333333337</ele><time>2026-03-28T09:34:47.46Z</time></trkpt><trkpt lat="43.8812444" lon="11.2663519"><ele>417.6666666666667</ele><time>2026-03-28T09:34:51.458Z</time></trkpt><trkpt lat="43.8813237" lon="11.2663358"><ele>418.0</ele><time>2026-03-28T09:34:54.448Z</time></trkpt><trkpt lat="43.8814098" lon="11.2663249"><ele>416.50000000000006</ele><time>2026-03-28T09:34:57.459Z</time></trkpt><trkpt lat="43.8814925" lon="11.2663166"><ele>415.0</ele><time>2026-03-28T09:35:00.457Z</time></trkpt><trkpt lat="43.881578" lon="11.2663248"><ele>413.5</ele><time>2026-03-28T09:35:03.452Z</time></trkpt><trkpt lat="43.881663" lon="11.2663064"><ele>412.0</ele><time>2026-03-28T09:35:06.457Z</time></trkpt><trkpt lat="43.8817586" lon="11.2663338"><ele>410.50000000000006</ele><time>2026-03-28T09:35:09.457Z</time></trkpt><trkpt lat="43.8818277" lon="11.2663755"><ele>409.0</ele><time>2026-03-28T09:35:11.46Z</time></trkpt><trkpt lat="43.8818907" lon="11.2664334"><ele>410.00000000000006</ele><time>2026-03-28T09:35:13.454Z</time></trkpt><trkpt lat="43.8819633" lon="11.2665022"><ele>411.0</ele><time>2026-03-28T09:35:16.455Z</time></trkpt><trkpt lat="43.882022" lon="11.2665792"><ele>412.0</ele><time>2026-03-28T09:35:19.453Z</time></trkpt><trkpt lat="43.8820816" lon="11.2666384"><ele>413.0</ele><time>2026-03-28T09:35:22.473Z</time></trkpt><trkpt lat="43.8821568" lon="11.2666916"><ele>414.00000000000006</ele><time>2026-03-28T09:35:25.469Z</time></trkpt><trkpt lat="43.8822355" lon="11.266723"><ele>415.0</ele><time>2026-03-28T09:35:28.455Z</time></trkpt><trkpt lat="43.8823162" lon="11.2667475"><ele>415.00000000000006</ele><time>2026-03-28T09:35:31.459Z</time></trkpt><trkpt lat="43.8823843" lon="11.2667885"><ele>415.0</ele><time>2026-03-28T09:35:34.478Z</time></trkpt><trkpt lat="43.8824479" lon="11.2668064"><ele>415.0</ele><time>2026-03-28T09:35:36.458Z</time></trkpt><trkpt lat="43.8825201" lon="11.2668154"><ele>415.0</ele><time>2026-03-28T09:35:38.482Z</time></trkpt><trkpt lat="43.8826034" lon="11.2668158"><ele>415.00000000000006</ele><time>2026-03-28T09:35:41.468Z</time></trkpt><trkpt lat="43.882683" lon="11.2667895"><ele>415.0</ele><time>2026-03-28T09:35:44.475Z</time></trkpt><trkpt lat="43.8827579" lon="11.2667403"><ele>413.14285714285717</ele><time>2026-03-28T09:35:48.458Z</time></trkpt><trkpt lat="43.8828116" lon="11.2666937"><ele>411.28571428571433</ele><time>2026-03-28T09:35:50.45Z</time></trkpt><trkpt lat="43.8828746" lon="11.2666626"><ele>409.42857142857144</ele><time>2026-03-28T09:35:52.453Z</time></trkpt><trkpt lat="43.882942" lon="11.2666439"><ele>407.57142857142856</ele><time>2026-03-28T09:35:54.464Z</time></trkpt><trkpt lat="43.8830119" lon="11.2666254"><ele>405.7142857142857</ele><time>2026-03-28T09:35:56.457Z</time></trkpt><trkpt lat="43.8830899" lon="11.266625"><ele>403.85714285714283</ele><time>2026-03-28T09:35:58.472Z</time></trkpt><trkpt lat="43.8831908" lon="11.2666133"><ele>402.0</ele><time>2026-03-28T09:36:00.465Z</time></trkpt><trkpt lat="43.8832705" lon="11.2665949"><ele>402.0</ele><time>2026-03-28T09:36:02.464Z</time></trkpt><trkpt lat="43.8833714" lon="11.2665715"><ele>402.0</ele><time>2026-03-28T09:36:04.476Z</time></trkpt><trkpt lat="43.8834825" lon="11.2665667"><ele>402.0</ele><time>2026-03-28T09:36:06.456Z</time></trkpt><trkpt lat="43.8835538" lon="11.266575"><ele>402.0</ele><time>2026-03-28T09:36:08.467Z</time></trkpt><trkpt lat="43.8836185" lon="11.2665701"><ele>402.0</ele><time>2026-03-28T09:36:10.46Z</time></trkpt><trkpt lat="43.8837071" lon="11.2665714"><ele>402.0</ele><time>2026-03-28T09:36:13.482Z</time></trkpt><trkpt lat="43.8837771" lon="11.2665902"><ele>400.1666666666667</ele><time>2026-03-28T09:36:15.461Z</time></trkpt><trkpt lat="43.8838423" lon="11.2666135"><ele>398.33333333333337</ele><time>2026-03-28T09:36:17.469Z</time></trkpt><trkpt lat="43.883912" lon="11.2666255"><ele>396.5</ele><time>2026-03-28T09:36:19.456Z</time></trkpt><trkpt lat="43.8839808" lon="11.2666415"><ele>394.6666666666667</ele><time>2026-03-28T09:36:21.461Z</time></trkpt><trkpt lat="43.8840657" lon="11.2666604"><ele>392.83333333333337</ele><time>2026-03-28T09:36:24.463Z</time></trkpt><trkpt lat="43.8841386" lon="11.2666818"><ele>391.0</ele><time>2026-03-28T09:36:26.471Z</time></trkpt><trkpt lat="43.8842272" lon="11.2667085"><ele>388.50000000000006</ele><time>2026-03-28T09:36:28.454Z</time></trkpt><trkpt lat="43.8842885" lon="11.2667384"><ele>386.0</ele><time>2026-03-28T09:36:30.474Z</time></trkpt><trkpt lat="43.8843578" lon="11.2667625"><ele>383.5</ele><time>2026-03-28T09:36:32.461Z</time></trkpt><trkpt lat="43.8844413" lon="11.2667865"><ele>381.0</ele><time>2026-03-28T09:36:34.452Z</time></trkpt><trkpt lat="43.8845176" lon="11.2668277"><ele>378.5</ele><time>2026-03-28T09:36:37.464Z</time></trkpt><trkpt lat="43.8845925" lon="11.2668748"><ele>376.0</ele><time>2026-03-28T09:36:40.45Z</time></trkpt><trkpt lat="43.8846626" lon="11.2669017"><ele>376.0</ele><time>2026-03-28T09:36:42.456Z</time></trkpt><trkpt lat="43.884746" lon="11.2669265"><ele>376.0</ele><time>2026-03-28T09:36:45.457Z</time></trkpt><trkpt lat="43.8848019" lon="11.2668372"><ele>376.0</ele><time>2026-03-28T09:36:48.454Z</time></trkpt><trkpt lat="43.8847868" lon="11.2667295"><ele>376.0</ele><time>2026-03-28T09:36:50.453Z</time></trkpt><trkpt lat="43.8847385" lon="11.2666334"><ele>376.0</ele><time>2026-03-28T09:36:52.458Z</time></trkpt><trkpt lat="43.8847063" lon="11.2665235"><ele>376.0</ele><time>2026-03-28T09:36:54.474Z</time></trkpt><trkpt lat="43.8846537" lon="11.2664137"><ele>375.42857142857144</ele><time>2026-03-28T09:36:56.454Z</time></trkpt><trkpt lat="43.884584" lon="11.2662893"><ele>374.85714285714283</ele><time>2026-03-28T09:36:58.451Z</time></trkpt><trkpt lat="43.8845396" lon="11.2662173"><ele>374.28571428571433</ele><time>2026-03-28T09:36:59.476Z</time></trkpt><trkpt lat="43.884493" lon="11.2661551"><ele>373.7142857142857</ele><time>2026-03-28T09:37:00.455Z</time></trkpt><trkpt lat="43.8844422" lon="11.2660949"><ele>373.14285714285717</ele><time>2026-03-28T09:37:01.453Z</time></trkpt><trkpt lat="43.8843913" lon="11.2660357"><ele>372.5714285714286</ele><time>2026-03-28T09:37:02.458Z</time></trkpt><trkpt lat="43.8843397" lon="11.2659784"><ele>372.0</ele><time>2026-03-28T09:37:03.462Z</time></trkpt><trkpt lat="43.8842412" lon="11.2658974"><ele>372.0</ele><time>2026-03-28T09:37:05.463Z</time></trkpt><trkpt lat="43.8841563" lon="11.2658345"><ele>372.0</ele><time>2026-03-28T09:37:07.452Z</time></trkpt><trkpt lat="43.8840889" lon="11.2657883"><ele>372.0</ele><time>2026-03-28T09:37:09.474Z</time></trkpt><trkpt lat="43.8840336" lon="11.265729"><ele>372.0</ele><time>2026-03-28T09:37:11.447Z</time></trkpt><trkpt lat="43.8840341" lon="11.2656138"><ele>372.0</ele><time>2026-03-28T09:37:13.448Z</time></trkpt><trkpt lat="43.8841031" lon="11.2655341"><ele>372.0</ele><time>2026-03-28T09:37:15.466Z</time></trkpt><trkpt lat="43.8842378" lon="11.2655083"><ele>370.0</ele><time>2026-03-28T09:37:17.456Z</time></trkpt><trkpt lat="43.8843131" lon="11.265499"><ele>368.0</ele><time>2026-03-28T09:37:18.45Z</time></trkpt><trkpt lat="43.8843802" lon="11.2655076"><ele>366.0</ele><time>2026-03-28T09:37:19.473Z</time></trkpt><trkpt lat="43.884502" lon="11.2655165"><ele>364.0</ele><time>2026-03-28T09:37:21.455Z</time></trkpt><trkpt lat="43.8845692" lon="11.2655124"><ele>362.0</ele><time>2026-03-28T09:37:22.456Z</time></trkpt><trkpt lat="43.8846355" lon="11.2655078"><ele>360.0</ele><time>2026-03-28T09:37:23.445Z</time></trkpt><trkpt lat="43.8847005" lon="11.265517"><ele>360.0</ele><time>2026-03-28T09:37:24.449Z</time></trkpt><trkpt lat="43.8848004" lon="11.2655454"><ele>360.0</ele><time>2026-03-28T09:37:26.459Z</time></trkpt><trkpt lat="43.8849125" lon="11.2655679"><ele>360.0</ele><time>2026-03-28T09:37:28.459Z</time></trkpt><trkpt lat="43.8850333" lon="11.2655824"><ele>360.0</ele><time>2026-03-28T09:37:30.459Z</time></trkpt><trkpt lat="43.8850971" lon="11.2656033"><ele>360.0</ele><time>2026-03-28T09:37:31.451Z</time></trkpt><trkpt lat="43.8852101" lon="11.2656564"><ele>360.8333333333333</ele><time>2026-03-28T09:37:33.456Z</time></trkpt><trkpt lat="43.8853047" lon="11.2657071"><ele>361.6666666666667</ele><time>2026-03-28T09:37:35.465Z</time></trkpt><trkpt lat="43.8853885" lon="11.2657326"><ele>362.5</ele><time>2026-03-28T09:37:37.47Z</time></trkpt><trkpt lat="43.8854534" lon="11.2656726"><ele>363.33333333333337</ele><time>2026-03-28T09:37:39.457Z</time></trkpt><trkpt lat="43.8855146" lon="11.2655949"><ele>364.1666666666667</ele><time>2026-03-28T09:37:41.451Z</time></trkpt><trkpt lat="43.8855792" lon="11.2656346"><ele>365.0</ele><time>2026-03-28T09:37:43.455Z</time></trkpt><trkpt lat="43.8856538" lon="11.2657204"><ele>360.6</ele><time>2026-03-28T09:37:45.45Z</time></trkpt><trkpt lat="43.8857214" lon="11.2658094"><ele>356.2</ele><time>2026-03-28T09:37:47.45Z</time></trkpt><trkpt lat="43.8857877" lon="11.2658801"><ele>351.79999999999995</ele><time>2026-03-28T09:37:49.479Z</time></trkpt><trkpt lat="43.885873" lon="11.265956"><ele>347.4</ele><time>2026-03-28T09:37:51.458Z</time></trkpt><trkpt lat="43.8859587" lon="11.2660339"><ele>343.0</ele><time>2026-03-28T09:37:53.448Z</time></trkpt><trkpt lat="43.8860373" lon="11.2661235"><ele>341.59999999999997</ele><time>2026-03-28T09:37:55.461Z</time></trkpt><trkpt lat="43.8861201" lon="11.2662084"><ele>340.2</ele><time>2026-03-28T09:37:57.457Z</time></trkpt><trkpt lat="43.8861877" lon="11.2662982"><ele>338.8</ele><time>2026-03-28T09:37:59.454Z</time></trkpt><trkpt lat="43.8862606" lon="11.2663798"><ele>337.4</ele><time>2026-03-28T09:38:01.45Z</time></trkpt><trkpt lat="43.8863356" lon="11.2664373"><ele>336.0</ele><time>2026-03-28T09:38:03.464Z</time></trkpt><trkpt lat="43.8864249" lon="11.2664906"><ele>336.0</ele><time>2026-03-28T09:38:05.462Z</time></trkpt><trkpt lat="43.8865179" lon="11.2665399"><ele>336.0</ele><time>2026-03-28T09:38:07.456Z</time></trkpt><trkpt lat="43.8866123" lon="11.2665914"><ele>336.0</ele><time>2026-03-28T09:38:09.45Z</time></trkpt><trkpt lat="43.8867054" lon="11.2666339"><ele>336.0</ele><time>2026-03-28T09:38:11.467Z</time></trkpt><trkpt lat="43.8867929" lon="11.2666855"><ele>336.0</ele><time>2026-03-28T09:38:13.461Z</time></trkpt><trkpt lat="43.8868733" lon="11.2667315"><ele>336.1666666666667</ele><time>2026-03-28T09:38:15.469Z</time></trkpt><trkpt lat="43.8869545" lon="11.2667708"><ele>336.3333333333333</ele><time>2026-03-28T09:38:17.471Z</time></trkpt><trkpt lat="43.8870356" lon="11.2668215"><ele>336.5</ele><time>2026-03-28T09:38:19.471Z</time></trkpt><trkpt lat="43.8871111" lon="11.2668554"><ele>336.66666666666663</ele><time>2026-03-28T09:38:21.474Z</time></trkpt><trkpt lat="43.887182" lon="11.2668887"><ele>336.8333333333333</ele><time>2026-03-28T09:38:23.471Z</time></trkpt><trkpt lat="43.8872654" lon="11.2669076"><ele>337.0</ele><time>2026-03-28T09:38:25.462Z</time></trkpt><trkpt lat="43.8873356" lon="11.2669307"><ele>337.0</ele><time>2026-03-28T09:38:27.467Z</time></trkpt><trkpt lat="43.8874016" lon="11.2669437"><ele>337.0</ele><time>2026-03-28T09:38:29.45Z</time></trkpt><trkpt lat="43.8874493" lon="11.2668841"><ele>337.0</ele><time>2026-03-28T09:38:31.46Z</time></trkpt><trkpt lat="43.8874322" lon="11.2667662"><ele>337.0</ele><time>2026-03-28T09:38:33.456Z</time></trkpt><trkpt lat="43.8874128" lon="11.2666372"><ele>337.0</ele><time>2026-03-28T09:38:35.452Z</time></trkpt><trkpt lat="43.887395" lon="11.266503"><ele>337.0</ele><time>2026-03-28T09:38:37.453Z</time></trkpt><trkpt lat="43.8873609" lon="11.2663917"><ele>337.8333333333333</ele><time>2026-03-28T09:38:39.454Z</time></trkpt><trkpt lat="43.8873204" lon="11.2662764"><ele>338.66666666666663</ele><time>2026-03-28T09:38:41.452Z</time></trkpt><trkpt lat="43.8872889" lon="11.2661606"><ele>339.5</ele><time>2026-03-28T09:38:43.449Z</time></trkpt><trkpt lat="43.8872638" lon="11.2660414"><ele>340.3333333333333</ele><time>2026-03-28T09:38:45.449Z</time></trkpt><trkpt lat="43.8872348" lon="11.265933"><ele>341.1666666666667</ele><time>2026-03-28T09:38:47.451Z</time></trkpt><trkpt lat="43.8871985" lon="11.2658359"><ele>342.0</ele><time>2026-03-28T09:38:49.463Z</time></trkpt><trkpt lat="43.8871547" lon="11.2657421"><ele>342.0</ele><time>2026-03-28T09:38:51.448Z</time></trkpt><trkpt lat="43.887118" lon="11.2656498"><ele>342.0</ele><time>2026-03-28T09:38:53.45Z</time></trkpt><trkpt lat="43.8870832" lon="11.2655608"><ele>342.0</ele><time>2026-03-28T09:38:55.45Z</time></trkpt><trkpt lat="43.8870607" lon="11.2654613"><ele>342.0</ele><time>2026-03-28T09:38:57.455Z</time></trkpt><trkpt lat="43.887047" lon="11.2653623"><ele>342.0</ele><time>2026-03-28T09:38:59.45Z</time></trkpt><trkpt lat="43.8870378" lon="11.2652507"><ele>342.0</ele><time>2026-03-28T09:39:01.47Z</time></trkpt><trkpt lat="43.8870281" lon="11.2651429"><ele>343.1428571428571</ele><time>2026-03-28T09:39:03.451Z</time></trkpt><trkpt lat="43.8870262" lon="11.2650346"><ele>344.2857142857143</ele><time>2026-03-28T09:39:05.457Z</time></trkpt><trkpt lat="43.8870346" lon="11.2649237"><ele>345.42857142857144</ele><time>2026-03-28T09:39:07.449Z</time></trkpt><trkpt lat="43.8870381" lon="11.264821"><ele>346.57142857142856</ele><time>2026-03-28T09:39:09.451Z</time></trkpt><trkpt lat="43.8870409" lon="11.2647251"><ele>347.7142857142857</ele><time>2026-03-28T09:39:11.454Z</time></trkpt><trkpt lat="43.8870639" lon="11.2646395"><ele>348.85714285714283</ele><time>2026-03-28T09:39:13.451Z</time></trkpt><trkpt lat="43.8870808" lon="11.2645429"><ele>350.0</ele><time>2026-03-28T09:39:15.451Z</time></trkpt><trkpt lat="43.8870975" lon="11.2644412"><ele>351.42857142857144</ele><time>2026-03-28T09:39:17.459Z</time></trkpt><trkpt lat="43.8871171" lon="11.264346"><ele>352.8571428571429</ele><time>2026-03-28T09:39:19.447Z</time></trkpt><trkpt lat="43.8871278" lon="11.2642522"><ele>354.2857142857143</ele><time>2026-03-28T09:39:21.461Z</time></trkpt><trkpt lat="43.8871487" lon="11.2641598"><ele>355.7142857142857</ele><time>2026-03-28T09:39:23.453Z</time></trkpt><trkpt lat="43.8871671" lon="11.264052"><ele>357.14285714285717</ele><time>2026-03-28T09:39:25.448Z</time></trkpt><trkpt lat="43.8871867" lon="11.263948"><ele>358.57142857142856</ele><time>2026-03-28T09:39:27.456Z</time></trkpt><trkpt lat="43.8872074" lon="11.2638474"><ele>360.0</ele><time>2026-03-28T09:39:29.449Z</time></trkpt><trkpt lat="43.8872262" lon="11.2637609"><ele>360.0</ele><time>2026-03-28T09:39:31.447Z</time></trkpt><trkpt lat="43.8872555" lon="11.2636407"><ele>360.0</ele><time>2026-03-28T09:39:34.445Z</time></trkpt><trkpt lat="43.8872682" lon="11.2635529"><ele>360.0</ele><time>2026-03-28T09:39:36.449Z</time></trkpt><trkpt lat="43.887278" lon="11.2634665"><ele>360.0</ele><time>2026-03-28T09:39:38.447Z</time></trkpt><trkpt lat="43.8872879" lon="11.2633772"><ele>360.0</ele><time>2026-03-28T09:39:40.446Z</time></trkpt><trkpt lat="43.8872983" lon="11.26328"><ele>360.0</ele><time>2026-03-28T09:39:42.45Z</time></trkpt><trkpt lat="43.887316" lon="11.2631532"><ele>360.0</ele><time>2026-03-28T09:39:45.451Z</time></trkpt><trkpt lat="43.8873259" lon="11.2630422"><ele>359.6666666666667</ele><time>2026-03-28T09:39:47.452Z</time></trkpt><trkpt lat="43.8873298" lon="11.2629241"><ele>359.3333333333333</ele><time>2026-03-28T09:39:49.451Z</time></trkpt><trkpt lat="43.8873342" lon="11.2628159"><ele>359.0</ele><time>2026-03-28T09:39:51.444Z</time></trkpt><trkpt lat="43.8873417" lon="11.2626995"><ele>358.66666666666663</ele><time>2026-03-28T09:39:53.454Z</time></trkpt><trkpt lat="43.8873515" lon="11.2625837"><ele>358.3333333333333</ele><time>2026-03-28T09:39:55.453Z</time></trkpt><trkpt lat="43.8873704" lon="11.2624765"><ele>358.0</ele><time>2026-03-28T09:39:57.457Z</time></trkpt><trkpt lat="43.8873969" lon="11.2623843"><ele>358.00000000000006</ele><time>2026-03-28T09:39:59.452Z</time></trkpt><trkpt lat="43.8874189" lon="11.2622948"><ele>358.0</ele><time>2026-03-28T09:40:01.448Z</time></trkpt><trkpt lat="43.8874469" lon="11.2622062"><ele>358.0</ele><time>2026-03-28T09:40:03.445Z</time></trkpt><trkpt lat="43.8874721" lon="11.2621178"><ele>358.0</ele><time>2026-03-28T09:40:05.452Z</time></trkpt><trkpt lat="43.887497" lon="11.2619963"><ele>358.0</ele><time>2026-03-28T09:40:08.452Z</time></trkpt><trkpt lat="43.8875167" lon="11.2619071"><ele>358.00000000000006</ele><time>2026-03-28T09:40:10.451Z</time></trkpt><trkpt lat="43.8875401" lon="11.2618106"><ele>358.0</ele><time>2026-03-28T09:40:13.448Z</time></trkpt><trkpt lat="43.8875783" lon="11.2617373"><ele>361.5</ele><time>2026-03-28T09:40:15.449Z</time></trkpt><trkpt lat="43.8876106" lon="11.2616303"><ele>365.0</ele><time>2026-03-28T09:40:17.455Z</time></trkpt><trkpt lat="43.8876437" lon="11.2615156"><ele>368.5</ele><time>2026-03-28T09:40:19.449Z</time></trkpt><trkpt lat="43.8876769" lon="11.2614042"><ele>372.0</ele><time>2026-03-28T09:40:21.452Z</time></trkpt><trkpt lat="43.887721" lon="11.2613048"><ele>375.5</ele><time>2026-03-28T09:40:23.445Z</time></trkpt><trkpt lat="43.8877651" lon="11.2611924"><ele>379.0</ele><time>2026-03-28T09:40:25.454Z</time></trkpt><trkpt lat="43.8878053" lon="11.2610947"><ele>379.0</ele><time>2026-03-28T09:40:27.443Z</time></trkpt><trkpt lat="43.8878442" lon="11.2609915"><ele>379.0</ele><time>2026-03-28T09:40:29.449Z</time></trkpt><trkpt lat="43.8878805" lon="11.2608864"><ele>379.0</ele><time>2026-03-28T09:40:31.444Z</time></trkpt><trkpt lat="43.887916" lon="11.2607968"><ele>379.0</ele><time>2026-03-28T09:40:33.447Z</time></trkpt><trkpt lat="43.8879579" lon="11.2606965"><ele>379.0</ele><time>2026-03-28T09:40:35.446Z</time></trkpt><trkpt lat="43.8879886" lon="11.2605984"><ele>379.0</ele><time>2026-03-28T09:40:37.446Z</time></trkpt><trkpt lat="43.8880099" lon="11.2605107"><ele>377.00000000000006</ele><time>2026-03-28T09:40:39.458Z</time></trkpt><trkpt lat="43.8880278" lon="11.2604261"><ele>375.0</ele><time>2026-03-28T09:40:41.459Z</time></trkpt><trkpt lat="43.8880405" lon="11.2603379"><ele>373.0</ele><time>2026-03-28T09:40:43.443Z</time></trkpt><trkpt lat="43.8880676" lon="11.2602412"><ele>371.0</ele><time>2026-03-28T09:40:46.452Z</time></trkpt><trkpt lat="43.8881098" lon="11.260172"><ele>369.0</ele><time>2026-03-28T09:40:49.448Z</time></trkpt><trkpt lat="43.88817" lon="11.2601037"><ele>367.00000000000006</ele><time>2026-03-28T09:40:53.446Z</time></trkpt><trkpt lat="43.8882269" lon="11.2600427"><ele>365.0</ele><time>2026-03-28T09:40:58.456Z</time></trkpt><trkpt lat="43.8882806" lon="11.2599799"><ele>365.0</ele><time>2026-03-28T09:41:02.445Z</time></trkpt><trkpt lat="43.8883443" lon="11.2599113"><ele>365.0</ele><time>2026-03-28T09:41:05.451Z</time></trkpt><trkpt lat="43.8884002" lon="11.2598378"><ele>365.0</ele><time>2026-03-28T09:41:07.451Z</time></trkpt><trkpt lat="43.8884756" lon="11.2597374"><ele>365.0</ele><time>2026-03-28T09:41:09.447Z</time></trkpt><trkpt lat="43.888567" lon="11.2596073"><ele>365.0</ele><time>2026-03-28T09:41:11.452Z</time></trkpt><trkpt lat="43.8886093" lon="11.2595355"><ele>367.4</ele><time>2026-03-28T09:41:12.454Z</time></trkpt><trkpt lat="43.8886457" lon="11.2594638"><ele>369.8</ele><time>2026-03-28T09:41:13.451Z</time></trkpt><trkpt lat="43.8887165" lon="11.259338"><ele>372.20000000000005</ele><time>2026-03-28T09:41:15.445Z</time></trkpt><trkpt lat="43.8887892" lon="11.2592182"><ele>374.6</ele><time>2026-03-28T09:41:17.452Z</time></trkpt><trkpt lat="43.8888491" lon="11.2591159"><ele>377.0</ele><time>2026-03-28T09:41:19.45Z</time></trkpt><trkpt lat="43.8889044" lon="11.2590402"><ele>376.99999999999994</ele><time>2026-03-28T09:41:21.447Z</time></trkpt><trkpt lat="43.8889533" lon="11.258958"><ele>377.0</ele><time>2026-03-28T09:41:23.452Z</time></trkpt><trkpt lat="43.8889883" lon="11.2588785"><ele>377.0</ele><time>2026-03-28T09:41:25.45Z</time></trkpt><trkpt lat="43.8890411" lon="11.2588028"><ele>377.0</ele><time>2026-03-28T09:41:29.454Z</time></trkpt><trkpt lat="43.88909" lon="11.2587085"><ele>377.0</ele><time>2026-03-28T09:41:33.465Z</time></trkpt><trkpt lat="43.8891118" lon="11.2586234"><ele>376.99999999999994</ele><time>2026-03-28T09:41:36.447Z</time></trkpt><trkpt lat="43.8891374" lon="11.2585359"><ele>377.0</ele><time>2026-03-28T09:41:39.447Z</time></trkpt><trkpt lat="43.8891717" lon="11.2584428"><ele>376.2857142857143</ele><time>2026-03-28T09:41:42.447Z</time></trkpt><trkpt lat="43.8892155" lon="11.2583652"><ele>375.57142857142856</ele><time>2026-03-28T09:41:45.45Z</time></trkpt><trkpt lat="43.8892763" lon="11.2583019"><ele>374.8571428571429</ele><time>2026-03-28T09:41:49.448Z</time></trkpt><trkpt lat="43.8893264" lon="11.2582165"><ele>374.1428571428571</ele><time>2026-03-28T09:41:53.466Z</time></trkpt><trkpt lat="43.8893723" lon="11.2581337"><ele>373.42857142857144</ele><time>2026-03-28T09:41:57.448Z</time></trkpt><trkpt lat="43.889433" lon="11.2580802"><ele>372.7142857142857</ele><time>2026-03-28T09:42:01.453Z</time></trkpt><trkpt lat="43.8894893" lon="11.2580346"><ele>372.0</ele><time>2026-03-28T09:42:04.444Z</time></trkpt><trkpt lat="43.8895528" lon="11.25796"><ele>372.00000000000006</ele><time>2026-03-28T09:42:08.456Z</time></trkpt><trkpt lat="43.8896056" lon="11.2578917"><ele>372.0</ele><time>2026-03-28T09:42:11.457Z</time></trkpt><trkpt lat="43.8896632" lon="11.2578192"><ele>372.0</ele><time>2026-03-28T09:42:14.452Z</time></trkpt><trkpt lat="43.889723" lon="11.2577563"><ele>372.0</ele><time>2026-03-28T09:42:17.451Z</time></trkpt><trkpt lat="43.8897795" lon="11.2576829"><ele>372.0</ele><time>2026-03-28T09:42:20.451Z</time></trkpt><trkpt lat="43.8898307" lon="11.2576256"><ele>372.00000000000006</ele><time>2026-03-28T09:42:23.443Z</time></trkpt><trkpt lat="43.8898812" lon="11.2575634"><ele>372.0</ele><time>2026-03-28T09:42:26.448Z</time></trkpt><trkpt lat="43.8899603" lon="11.2575264"><ele>372.00000000000006</ele><time>2026-03-28T09:42:30.454Z</time></trkpt><trkpt lat="43.8900213" lon="11.257489"><ele>372.0</ele><time>2026-03-28T09:42:33.449Z</time></trkpt><trkpt lat="43.8900872" lon="11.2574378"><ele>372.0</ele><time>2026-03-28T09:42:36.446Z</time></trkpt><trkpt lat="43.890145" lon="11.2573959"><ele>372.0</ele><time>2026-03-28T09:42:39.447Z</time></trkpt><trkpt lat="43.8902068" lon="11.2573611"><ele>372.0</ele><time>2026-03-28T09:42:42.461Z</time></trkpt><trkpt lat="43.8902721" lon="11.257366"><ele>372.00000000000006</ele><time>2026-03-28T09:42:46.453Z</time></trkpt><trkpt lat="43.890344" lon="11.2573851"><ele>372.0</ele><time>2026-03-28T09:42:52.455Z</time></trkpt><trkpt lat="43.8904128" lon="11.2573853"><ele>371.5</ele><time>2026-03-28T09:42:56.453Z</time></trkpt><trkpt lat="43.8904777" lon="11.257353"><ele>371.0</ele><time>2026-03-28T09:43:00.448Z</time></trkpt><trkpt lat="43.8905333" lon="11.257305"><ele>370.5</ele><time>2026-03-28T09:43:34.462Z</time></trkpt><trkpt lat="43.8905977" lon="11.2572782"><ele>370.0</ele><time>2026-03-28T09:43:37.454Z</time></trkpt><trkpt lat="43.8906865" lon="11.2572513"><ele>369.5</ele><time>2026-03-28T09:43:40.463Z</time></trkpt><trkpt lat="43.8907572" lon="11.2572593"><ele>369.0</ele><time>2026-03-28T09:43:42.447Z</time></trkpt><trkpt lat="43.8908587" lon="11.2572598"><ele>373.0</ele><time>2026-03-28T09:43:44.451Z</time></trkpt><trkpt lat="43.8909654" lon="11.2572728"><ele>377.0</ele><time>2026-03-28T09:43:46.459Z</time></trkpt><trkpt lat="43.8910833" lon="11.2572648"><ele>381.0</ele><time>2026-03-28T09:43:48.447Z</time></trkpt><trkpt lat="43.8912037" lon="11.2572267"><ele>385.0</ele><time>2026-03-28T09:43:50.455Z</time></trkpt><trkpt lat="43.8913176" lon="11.2571829"><ele>385.00000000000006</ele><time>2026-03-28T09:43:52.454Z</time></trkpt><trkpt lat="43.8914153" lon="11.2571543"><ele>385.0</ele><time>2026-03-28T09:43:54.47Z</time></trkpt><trkpt lat="43.8914933" lon="11.2571349"><ele>385.0</ele><time>2026-03-28T09:43:57.452Z</time></trkpt><trkpt lat="43.8915674" lon="11.2571313"><ele>385.0</ele><time>2026-03-28T09:44:00.456Z</time></trkpt><trkpt lat="43.8916348" lon="11.2571161"><ele>385.00000000000006</ele><time>2026-03-28T09:44:03.461Z</time></trkpt><trkpt lat="43.8917095" lon="11.2570862"><ele>385.0</ele><time>2026-03-28T09:44:07.474Z</time></trkpt><trkpt lat="43.8917784" lon="11.2570771"><ele>386.85714285714283</ele><time>2026-03-28T09:44:12.456Z</time></trkpt><trkpt lat="43.8918538" lon="11.2570694"><ele>388.7142857142857</ele><time>2026-03-28T09:44:16.458Z</time></trkpt><trkpt lat="43.8919344" lon="11.2570687"><ele>390.57142857142856</ele><time>2026-03-28T09:44:20.472Z</time></trkpt><trkpt lat="43.892003" lon="11.2570932"><ele>392.42857142857144</ele><time>2026-03-28T09:44:24.45Z</time></trkpt><trkpt lat="43.892082" lon="11.2571301"><ele>394.2857142857143</ele><time>2026-03-28T09:44:28.452Z</time></trkpt><trkpt lat="43.892153" lon="11.2571413"><ele>396.1428571428571</ele><time>2026-03-28T09:44:31.465Z</time></trkpt><trkpt lat="43.8922167" lon="11.2571498"><ele>398.0</ele><time>2026-03-28T09:44:34.453Z</time></trkpt><trkpt lat="43.8922918" lon="11.2571407"><ele>397.99999999999994</ele><time>2026-03-28T09:44:38.456Z</time></trkpt><trkpt lat="43.8923587" lon="11.2571265"><ele>398.0</ele><time>2026-03-28T09:44:42.451Z</time></trkpt><trkpt lat="43.8924269" lon="11.2571137"><ele>398.0</ele><time>2026-03-28T09:44:46.458Z</time></trkpt><trkpt lat="43.8925014" lon="11.2571068"><ele>398.0</ele><time>2026-03-28T09:44:51.453Z</time></trkpt><trkpt lat="43.8925768" lon="11.2570918"><ele>398.0</ele><time>2026-03-28T09:44:56.468Z</time></trkpt><trkpt lat="43.8926491" lon="11.2570667"><ele>397.99999999999994</ele><time>2026-03-28T09:45:00.456Z</time></trkpt><trkpt lat="43.89272" lon="11.2570237"><ele>398.0</ele><time>2026-03-28T09:45:04.455Z</time></trkpt><trkpt lat="43.8927872" lon="11.2569898"><ele>397.99999999999994</ele><time>2026-03-28T09:45:08.453Z</time></trkpt><trkpt lat="43.8928443" lon="11.256953"><ele>398.0</ele><time>2026-03-28T09:45:12.456Z</time></trkpt><trkpt lat="43.8929044" lon="11.2569219"><ele>398.0</ele><time>2026-03-28T09:45:16.453Z</time></trkpt><trkpt lat="43.8929671" lon="11.2568747"><ele>398.0</ele><time>2026-03-28T09:45:20.448Z</time></trkpt><trkpt lat="43.8930237" lon="11.2568106"><ele>398.0</ele><time>2026-03-28T09:45:25.462Z</time></trkpt><trkpt lat="43.8930778" lon="11.2567627"><ele>397.99999999999994</ele><time>2026-03-28T09:45:29.471Z</time></trkpt><trkpt lat="43.8931277" lon="11.2567054"><ele>398.0</ele><time>2026-03-28T09:45:33.459Z</time></trkpt><trkpt lat="43.8931896" lon="11.2566427"><ele>397.99999999999994</ele><time>2026-03-28T09:45:38.448Z</time></trkpt><trkpt lat="43.8932442" lon="11.2565692"><ele>398.0</ele><time>2026-03-28T09:45:42.464Z</time></trkpt><trkpt lat="43.8932985" lon="11.2565129"><ele>398.0</ele><time>2026-03-28T09:45:46.454Z</time></trkpt><trkpt lat="43.8933435" lon="11.2564396"><ele>398.0</ele><time>2026-03-28T09:45:51.456Z</time></trkpt><trkpt lat="43.89334" lon="11.2563475"><ele>398.0</ele><time>2026-03-28T09:45:56.464Z</time></trkpt><trkpt lat="43.8932761" lon="11.2562995"><ele>397.99999999999994</ele><time>2026-03-28T09:46:01.466Z</time></trkpt><trkpt lat="43.8932028" lon="11.2562954"><ele>398.0</ele><time>2026-03-28T09:46:05.451Z</time></trkpt><trkpt lat="43.8931337" lon="11.256299"><ele>400.85714285714283</ele><time>2026-03-28T09:46:09.47Z</time></trkpt><trkpt lat="43.8930607" lon="11.2562913"><ele>403.7142857142857</ele><time>2026-03-28T09:46:14.448Z</time></trkpt><trkpt lat="43.8929926" lon="11.2562874"><ele>406.57142857142856</ele><time>2026-03-28T09:46:18.455Z</time></trkpt><trkpt lat="43.8929277" lon="11.256291"><ele>409.42857142857144</ele><time>2026-03-28T09:46:22.475Z</time></trkpt><trkpt lat="43.8928552" lon="11.2563008"><ele>412.2857142857143</ele><time>2026-03-28T09:46:26.455Z</time></trkpt><trkpt lat="43.8927894" lon="11.2562837"><ele>415.1428571428571</ele><time>2026-03-28T09:46:30.465Z</time></trkpt><trkpt lat="43.8927201" lon="11.2562858"><ele>418.0</ele><time>2026-03-28T09:46:34.477Z</time></trkpt><trkpt lat="43.8926452" lon="11.2562913"><ele>418.57142857142856</ele><time>2026-03-28T09:46:38.458Z</time></trkpt><trkpt lat="43.8925648" lon="11.2562889"><ele>419.1428571428571</ele><time>2026-03-28T09:46:43.468Z</time></trkpt><trkpt lat="43.8924905" lon="11.2562813"><ele>419.7142857142857</ele><time>2026-03-28T09:46:47.466Z</time></trkpt><trkpt lat="43.8924141" lon="11.2562545"><ele>420.2857142857143</ele><time>2026-03-28T09:46:52.46Z</time></trkpt><trkpt lat="43.892356" lon="11.2562104"><ele>420.8571428571429</ele><time>2026-03-28T09:46:56.449Z</time></trkpt><trkpt lat="43.8923078" lon="11.2561466"><ele>421.42857142857144</ele><time>2026-03-28T09:47:00.455Z</time></trkpt><trkpt lat="43.8923273" lon="11.2560518"><ele>422.0</ele><time>2026-03-28T09:47:05.452Z</time></trkpt><trkpt lat="43.8923961" lon="11.2560059"><ele>422.0</ele><time>2026-03-28T09:47:09.461Z</time></trkpt><trkpt lat="43.8924619" lon="11.2559812"><ele>422.0</ele><time>2026-03-28T09:47:13.458Z</time></trkpt><trkpt lat="43.8925289" lon="11.2559423"><ele>422.0</ele><time>2026-03-28T09:47:17.458Z</time></trkpt><trkpt lat="43.8925849" lon="11.25589"><ele>422.0</ele><time>2026-03-28T09:47:21.448Z</time></trkpt><trkpt lat="43.8926391" lon="11.2558135"><ele>422.0</ele><time>2026-03-28T09:47:25.452Z</time></trkpt><trkpt lat="43.8926781" lon="11.25572"><ele>422.0</ele><time>2026-03-28T09:47:31.447Z</time></trkpt><trkpt lat="43.8927065" lon="11.2556324"><ele>422.0</ele><time>2026-03-28T09:47:37.462Z</time></trkpt><trkpt lat="43.8927336" lon="11.2555414"><ele>423.7142857142857</ele><time>2026-03-28T09:47:43.46Z</time></trkpt><trkpt lat="43.8927528" lon="11.2554497"><ele>425.42857142857144</ele><time>2026-03-28T09:47:48.463Z</time></trkpt><trkpt lat="43.8927676" lon="11.2553572"><ele>427.1428571428571</ele><time>2026-03-28T09:47:53.47Z</time></trkpt><trkpt lat="43.8927716" lon="11.2552575"><ele>428.8571428571429</ele><time>2026-03-28T09:47:58.456Z</time></trkpt><trkpt lat="43.8927756" lon="11.2551662"><ele>430.57142857142856</ele><time>2026-03-28T09:48:03.456Z</time></trkpt><trkpt lat="43.8927977" lon="11.255068"><ele>432.2857142857143</ele><time>2026-03-28T09:48:08.472Z</time></trkpt><trkpt lat="43.8928444" lon="11.2549981"><ele>434.0</ele><time>2026-03-28T09:48:13.451Z</time></trkpt><trkpt lat="43.8928896" lon="11.2549238"><ele>434.0</ele><time>2026-03-28T09:48:18.456Z</time></trkpt><trkpt lat="43.8929283" lon="11.2548525"><ele>434.0</ele><time>2026-03-28T09:48:22.458Z</time></trkpt><trkpt lat="43.8929739" lon="11.2547734"><ele>434.0</ele><time>2026-03-28T09:48:26.456Z</time></trkpt><trkpt lat="43.8930161" lon="11.2546857"><ele>434.0</ele><time>2026-03-28T09:48:30.449Z</time></trkpt><trkpt lat="43.8930668" lon="11.2546217"><ele>434.0</ele><time>2026-03-28T09:48:33.455Z</time></trkpt><trkpt lat="43.8931223" lon="11.2545406"><ele>434.0</ele><time>2026-03-28T09:48:37.452Z</time></trkpt><trkpt lat="43.8931593" lon="11.2544593"><ele>434.0</ele><time>2026-03-28T09:48:40.448Z</time></trkpt><trkpt lat="43.8932134" lon="11.2543702"><ele>435.14285714285717</ele><time>2026-03-28T09:48:44.457Z</time></trkpt><trkpt lat="43.8932489" lon="11.2542754"><ele>436.2857142857143</ele><time>2026-03-28T09:48:49.451Z</time></trkpt><trkpt lat="43.8932825" lon="11.2541894"><ele>437.42857142857144</ele><time>2026-03-28T09:48:54.458Z</time></trkpt><trkpt lat="43.8932944" lon="11.2540874"><ele>438.57142857142856</ele><time>2026-03-28T09:48:59.46Z</time></trkpt><trkpt lat="43.8932869" lon="11.2539965"><ele>439.7142857142857</ele><time>2026-03-28T09:49:03.448Z</time></trkpt><trkpt lat="43.893331" lon="11.2539267"><ele>440.8571428571429</ele><time>2026-03-28T09:49:07.452Z</time></trkpt><trkpt lat="43.8933838" lon="11.2538579"><ele>442.0</ele><time>2026-03-28T09:49:11.46Z</time></trkpt><trkpt lat="43.8934372" lon="11.2537905"><ele>443.5714285714286</ele><time>2026-03-28T09:49:15.478Z</time></trkpt><trkpt lat="43.8935018" lon="11.2537403"><ele>445.1428571428571</ele><time>2026-03-28T09:49:19.455Z</time></trkpt><trkpt lat="43.8935663" lon="11.2537013"><ele>446.71428571428567</ele><time>2026-03-28T09:49:23.462Z</time></trkpt><trkpt lat="43.8936337" lon="11.2536751"><ele>448.2857142857143</ele><time>2026-03-28T09:49:27.451Z</time></trkpt><trkpt lat="43.8936984" lon="11.253649"><ele>449.85714285714283</ele><time>2026-03-28T09:49:31.453Z</time></trkpt><trkpt lat="43.8937568" lon="11.2536152"><ele>451.4285714285714</ele><time>2026-03-28T09:49:34.451Z</time></trkpt><trkpt lat="43.8938158" lon="11.2535706"><ele>452.99999999999994</ele><time>2026-03-28T09:49:38.45Z</time></trkpt><trkpt lat="43.8938797" lon="11.2535064"><ele>452.99999999999994</ele><time>2026-03-28T09:49:43.453Z</time></trkpt><trkpt lat="43.893918" lon="11.2534294"><ele>453.0</ele><time>2026-03-28T09:49:47.45Z</time></trkpt><trkpt lat="43.8939247" lon="11.2533145"><ele>452.99999999999994</ele><time>2026-03-28T09:49:52.451Z</time></trkpt><trkpt lat="43.8938967" lon="11.2532275"><ele>452.99999999999994</ele><time>2026-03-28T09:49:57.459Z</time></trkpt><trkpt lat="43.8938387" lon="11.2531498"><ele>453.0</ele><time>2026-03-28T09:50:02.47Z</time></trkpt><trkpt lat="43.8938124" lon="11.2530594"><ele>452.99999999999994</ele><time>2026-03-28T09:50:06.453Z</time></trkpt><trkpt lat="43.8937941" lon="11.2529664"><ele>452.99999999999994</ele><time>2026-03-28T09:50:10.45Z</time></trkpt><trkpt lat="43.8937976" lon="11.2528769"><ele>454.5714285714285</ele><time>2026-03-28T09:50:14.45Z</time></trkpt><trkpt lat="43.8938087" lon="11.2527732"><ele>456.1428571428571</ele><time>2026-03-28T09:50:19.455Z</time></trkpt><trkpt lat="43.8938272" lon="11.2526728"><ele>457.7142857142857</ele><time>2026-03-28T09:50:24.456Z</time></trkpt><trkpt lat="43.8938474" lon="11.2525899"><ele>459.2857142857143</ele><time>2026-03-28T09:50:28.459Z</time></trkpt><trkpt lat="43.893884" lon="11.2525142"><ele>460.8571428571429</ele><time>2026-03-28T09:50:32.462Z</time></trkpt><trkpt lat="43.8939318" lon="11.2524392"><ele>462.4285714285715</ele><time>2026-03-28T09:50:37.465Z</time></trkpt><trkpt lat="43.8939808" lon="11.2523817"><ele>464.00000000000006</ele><time>2026-03-28T09:50:41.449Z</time></trkpt><trkpt lat="43.8940264" lon="11.2523173"><ele>465.4285714285715</ele><time>2026-03-28T09:50:45.45Z</time></trkpt><trkpt lat="43.8940836" lon="11.2522614"><ele>466.8571428571429</ele><time>2026-03-28T09:50:50.486Z</time></trkpt><trkpt lat="43.8941375" lon="11.2521982"><ele>468.2857142857143</ele><time>2026-03-28T09:50:55.458Z</time></trkpt><trkpt lat="43.8941869" lon="11.2521336"><ele>469.7142857142857</ele><time>2026-03-28T09:51:00.457Z</time></trkpt><trkpt lat="43.8942252" lon="11.2520442"><ele>471.1428571428571</ele><time>2026-03-28T09:51:05.485Z</time></trkpt><trkpt lat="43.8942564" lon="11.2519609"><ele>472.5714285714285</ele><time>2026-03-28T09:51:10.455Z</time></trkpt><trkpt lat="43.8942852" lon="11.251882"><ele>473.99999999999994</ele><time>2026-03-28T09:51:14.454Z</time></trkpt><trkpt lat="43.894297" lon="11.2517837"><ele>475.8571428571428</ele><time>2026-03-28T09:51:19.446Z</time></trkpt><trkpt lat="43.8943424" lon="11.2517003"><ele>477.71428571428567</ele><time>2026-03-28T09:51:24.463Z</time></trkpt><trkpt lat="43.8943836" lon="11.2516314"><ele>479.57142857142856</ele><time>2026-03-28T09:51:28.453Z</time></trkpt><trkpt lat="43.8944264" lon="11.2515481"><ele>481.4285714285714</ele><time>2026-03-28T09:51:33.482Z</time></trkpt><trkpt lat="43.8944552" lon="11.2514694"><ele>483.2857142857142</ele><time>2026-03-28T09:51:37.447Z</time></trkpt><trkpt lat="43.8944874" lon="11.2513884"><ele>485.14285714285717</ele><time>2026-03-28T09:51:41.454Z</time></trkpt><trkpt lat="43.894515" lon="11.2513049"><ele>487.0</ele><time>2026-03-28T09:51:45.46Z</time></trkpt><trkpt lat="43.8945455" lon="11.2512265"><ele>488.14285714285717</ele><time>2026-03-28T09:51:50.451Z</time></trkpt><trkpt lat="43.8945863" lon="11.2511371"><ele>489.2857142857142</ele><time>2026-03-28T09:51:55.446Z</time></trkpt><trkpt lat="43.8946278" lon="11.2510606"><ele>490.4285714285714</ele><time>2026-03-28T09:52:00.465Z</time></trkpt><trkpt lat="43.8946546" lon="11.2509716"><ele>491.57142857142856</ele><time>2026-03-28T09:52:05.46Z</time></trkpt><trkpt lat="43.8946904" lon="11.2508937"><ele>492.71428571428567</ele><time>2026-03-28T09:52:09.454Z</time></trkpt><trkpt lat="43.8947291" lon="11.2508141"><ele>493.8571428571428</ele><time>2026-03-28T09:52:14.449Z</time></trkpt><trkpt lat="43.8947749" lon="11.2507386"><ele>494.99999999999994</ele><time>2026-03-28T09:52:19.46Z</time></trkpt><trkpt lat="43.8948224" lon="11.25066"><ele>495.99999999999994</ele><time>2026-03-28T09:52:25.454Z</time></trkpt><trkpt lat="43.8948586" lon="11.2505882"><ele>497.0</ele><time>2026-03-28T09:52:30.454Z</time></trkpt><trkpt lat="43.8948954" lon="11.2504939"><ele>497.99999999999994</ele><time>2026-03-28T09:52:35.455Z</time></trkpt><trkpt lat="43.8949345" lon="11.2504248"><ele>498.99999999999994</ele><time>2026-03-28T09:52:40.462Z</time></trkpt><trkpt lat="43.8949736" lon="11.2503392"><ele>500.0</ele><time>2026-03-28T09:52:45.449Z</time></trkpt><trkpt lat="43.895017" lon="11.2502567"><ele>500.99999999999994</ele><time>2026-03-28T09:52:51.475Z</time></trkpt><trkpt lat="43.8949942" lon="11.2501629"><ele>501.99999999999994</ele><time>2026-03-28T09:52:57.461Z</time></trkpt><trkpt lat="43.8949473" lon="11.250091"><ele>501.99999999999994</ele><time>2026-03-28T09:53:03.449Z</time></trkpt><trkpt lat="43.8949098" lon="11.2500194"><ele>502.0</ele><time>2026-03-28T09:53:07.459Z</time></trkpt><trkpt lat="43.8948627" lon="11.2499583"><ele>501.99999999999994</ele><time>2026-03-28T09:53:12.452Z</time></trkpt><trkpt lat="43.8948064" lon="11.2499122"><ele>501.99999999999994</ele><time>2026-03-28T09:53:17.458Z</time></trkpt><trkpt lat="43.894751" lon="11.2498702"><ele>502.0</ele><time>2026-03-28T09:53:21.47Z</time></trkpt><trkpt lat="43.8946854" lon="11.2498186"><ele>501.99999999999994</ele><time>2026-03-28T09:53:26.455Z</time></trkpt><trkpt lat="43.8946132" lon="11.2497863"><ele>501.99999999999994</ele><time>2026-03-28T09:53:31.466Z</time></trkpt><trkpt lat="43.8945368" lon="11.2497873"><ele>501.99999999999994</ele><time>2026-03-28T09:53:36.452Z</time></trkpt><trkpt lat="43.8944777" lon="11.2498423"><ele>502.0</ele><time>2026-03-28T09:53:41.455Z</time></trkpt><trkpt lat="43.8944221" lon="11.2498992"><ele>501.99999999999994</ele><time>2026-03-28T09:53:47.463Z</time></trkpt><trkpt lat="43.8943597" lon="11.2499416"><ele>501.99999999999994</ele><time>2026-03-28T09:53:52.453Z</time></trkpt><trkpt lat="43.8942977" lon="11.2499834"><ele>502.0</ele><time>2026-03-28T09:53:56.467Z</time></trkpt><trkpt lat="43.8942328" lon="11.2500111"><ele>501.99999999999994</ele><time>2026-03-28T09:54:01.463Z</time></trkpt><trkpt lat="43.8941604" lon="11.2499897"><ele>501.99999999999994</ele><time>2026-03-28T09:54:07.468Z</time></trkpt><trkpt lat="43.8940936" lon="11.2499387"><ele>502.8571428571428</ele><time>2026-03-28T09:54:12.451Z</time></trkpt><trkpt lat="43.8940357" lon="11.2498769"><ele>503.71428571428567</ele><time>2026-03-28T09:54:17.455Z</time></trkpt><trkpt lat="43.8939949" lon="11.2497959"><ele>504.57142857142856</ele><time>2026-03-28T09:54:22.469Z</time></trkpt><trkpt lat="43.8939687" lon="11.2497099"><ele>505.4285714285714</ele><time>2026-03-28T09:54:27.452Z</time></trkpt><trkpt lat="43.8939372" lon="11.2496266"><ele>506.2857142857142</ele><time>2026-03-28T09:54:31.454Z</time></trkpt><trkpt lat="43.8938904" lon="11.2495479"><ele>507.14285714285717</ele><time>2026-03-28T09:54:36.461Z</time></trkpt><trkpt lat="43.8938386" lon="11.2494858"><ele>508.0</ele><time>2026-03-28T09:54:40.458Z</time></trkpt><trkpt lat="43.8937769" lon="11.2494271"><ele>510.14285714285717</ele><time>2026-03-28T09:54:45.462Z</time></trkpt><trkpt lat="43.8937065" lon="11.2493877"><ele>512.2857142857142</ele><time>2026-03-28T09:54:50.47Z</time></trkpt><trkpt lat="43.8936501" lon="11.2493426"><ele>514.4285714285713</ele><time>2026-03-28T09:54:54.449Z</time></trkpt><trkpt lat="43.8936104" lon="11.2492734"><ele>516.5714285714286</ele><time>2026-03-28T09:54:58.471Z</time></trkpt><trkpt lat="43.8935555" lon="11.2491931"><ele>518.7142857142857</ele><time>2026-03-28T09:55:03.446Z</time></trkpt><trkpt lat="43.8935219" lon="11.2491075"><ele>520.8571428571428</ele><time>2026-03-28T09:55:08.455Z</time></trkpt><trkpt lat="43.8935846" lon="11.2490731"><ele>523.0</ele><time>2026-03-28T09:55:16.46Z</time></trkpt><trkpt lat="43.8936481" lon="11.2490988"><ele>522.9999999999999</ele><time>2026-03-28T09:55:22.462Z</time></trkpt><trkpt lat="43.893706" lon="11.2490536"><ele>523.0</ele><time>2026-03-28T09:55:26.452Z</time></trkpt><trkpt lat="43.8937495" lon="11.2489896"><ele>523.0</ele><time>2026-03-28T09:55:30.46Z</time></trkpt><trkpt lat="43.8938104" lon="11.248934"><ele>523.0</ele><time>2026-03-28T09:55:34.469Z</time></trkpt><trkpt lat="43.8938794" lon="11.2488828"><ele>523.0</ele><time>2026-03-28T09:55:38.462Z</time></trkpt><trkpt lat="43.8939553" lon="11.2488445"><ele>522.9999999999999</ele><time>2026-03-28T09:55:42.461Z</time></trkpt><trkpt lat="43.8940172" lon="11.248801"><ele>523.0</ele><time>2026-03-28T09:55:48.479Z</time></trkpt><trkpt lat="43.8940802" lon="11.2487711"><ele>523.5714285714286</ele><time>2026-03-28T09:55:52.462Z</time></trkpt><trkpt lat="43.8941279" lon="11.2487011"><ele>524.1428571428571</ele><time>2026-03-28T09:55:57.457Z</time></trkpt><trkpt lat="43.8941812" lon="11.2486334"><ele>524.7142857142858</ele><time>2026-03-28T09:56:00.455Z</time></trkpt><trkpt lat="43.8942335" lon="11.2485621"><ele>525.2857142857142</ele><time>2026-03-28T09:56:04.465Z</time></trkpt><trkpt lat="43.8942919" lon="11.2484782"><ele>525.8571428571429</ele><time>2026-03-28T09:56:07.455Z</time></trkpt><trkpt lat="43.8943324" lon="11.2483986"><ele>526.4285714285714</ele><time>2026-03-28T09:56:09.462Z</time></trkpt><trkpt lat="43.8943681" lon="11.2483255"><ele>527.0</ele><time>2026-03-28T09:56:11.464Z</time></trkpt><trkpt lat="43.8944165" lon="11.2482449"><ele>527.7142857142858</ele><time>2026-03-28T09:56:14.482Z</time></trkpt><trkpt lat="43.8944637" lon="11.2481759"><ele>528.4285714285714</ele><time>2026-03-28T09:56:17.452Z</time></trkpt><trkpt lat="43.8945024" lon="11.2481017"><ele>529.1428571428571</ele><time>2026-03-28T09:56:20.464Z</time></trkpt><trkpt lat="43.8945493" lon="11.2480308"><ele>529.8571428571429</ele><time>2026-03-28T09:56:41.468Z</time></trkpt><trkpt lat="43.8945966" lon="11.2479687"><ele>530.5714285714286</ele><time>2026-03-28T09:56:54.463Z</time></trkpt><trkpt lat="43.8946706" lon="11.2479358"><ele>531.2857142857143</ele><time>2026-03-28T10:00:23.467Z</time></trkpt><trkpt lat="43.8947482" lon="11.2479348"><ele>532.0</ele><time>2026-03-28T10:00:43.468Z</time></trkpt><trkpt lat="43.8948115" lon="11.2479283"><ele>533.2857142857143</ele><time>2026-03-28T10:00:47.468Z</time></trkpt><trkpt lat="43.8948767" lon="11.2479281"><ele>534.5714285714286</ele><time>2026-03-28T10:00:50.467Z</time></trkpt><trkpt lat="43.8949463" lon="11.2479029"><ele>535.8571428571429</ele><time>2026-03-28T10:00:53.467Z</time></trkpt><trkpt lat="43.895013" lon="11.2478512"><ele>537.1428571428571</ele><time>2026-03-28T10:00:56.471Z</time></trkpt><trkpt lat="43.8950751" lon="11.2478109"><ele>538.4285714285714</ele><time>2026-03-28T10:00:59.49Z</time></trkpt><trkpt lat="43.8951255" lon="11.2477508"><ele>539.7142857142858</ele><time>2026-03-28T10:01:03.469Z</time></trkpt><trkpt lat="43.8952077" lon="11.2477563"><ele>541.0</ele><time>2026-03-28T10:03:14.464Z</time></trkpt><trkpt lat="43.8952688" lon="11.2477306"><ele>542.5</ele><time>2026-03-28T10:03:17.463Z</time></trkpt><trkpt lat="43.8953414" lon="11.2476762"><ele>544.0</ele><time>2026-03-28T10:03:20.468Z</time></trkpt><trkpt lat="43.8954207" lon="11.2476414"><ele>545.5</ele><time>2026-03-28T10:03:23.468Z</time></trkpt><trkpt lat="43.8954947" lon="11.2476319"><ele>547.0</ele><time>2026-03-28T10:03:26.466Z</time></trkpt><trkpt lat="43.895575" lon="11.2476339"><ele>548.5</ele><time>2026-03-28T10:03:29.448Z</time></trkpt><trkpt lat="43.8956534" lon="11.2476222"><ele>550.0</ele><time>2026-03-28T10:03:33.486Z</time></trkpt><trkpt lat="43.895728" lon="11.2476024"><ele>550.0</ele><time>2026-03-28T10:03:36.471Z</time></trkpt><trkpt lat="43.8958045" lon="11.2476008"><ele>550.0</ele><time>2026-03-28T10:03:39.464Z</time></trkpt><trkpt lat="43.8958683" lon="11.2476014"><ele>550.0</ele><time>2026-03-28T10:03:42.473Z</time></trkpt><trkpt lat="43.8959464" lon="11.2476122"><ele>550.0</ele><time>2026-03-28T10:03:46.465Z</time></trkpt><trkpt lat="43.8960185" lon="11.2476378"><ele>550.0</ele><time>2026-03-28T10:03:50.467Z</time></trkpt><trkpt lat="43.8960867" lon="11.2476907"><ele>550.0</ele><time>2026-03-28T10:03:53.448Z</time></trkpt><trkpt lat="43.8961522" lon="11.2477452"><ele>550.0</ele><time>2026-03-28T10:03:56.469Z</time></trkpt><trkpt lat="43.8962257" lon="11.2477724"><ele>549.5</ele><time>2026-03-28T10:03:59.491Z</time></trkpt><trkpt lat="43.8962892" lon="11.2478028"><ele>549.0</ele><time>2026-03-28T10:04:02.455Z</time></trkpt><trkpt lat="43.8963663" lon="11.2478346"><ele>548.5</ele><time>2026-03-28T10:04:06.465Z</time></trkpt><trkpt lat="43.8964427" lon="11.2478697"><ele>548.0</ele><time>2026-03-28T10:04:10.462Z</time></trkpt><trkpt lat="43.8964987" lon="11.2479428"><ele>547.5</ele><time>2026-03-28T10:04:14.486Z</time></trkpt><trkpt lat="43.8965696" lon="11.247976"><ele>547.0</ele><time>2026-03-28T10:04:19.472Z</time></trkpt><trkpt lat="43.8966371" lon="11.2480283"><ele>547.0</ele><time>2026-03-28T10:04:24.47Z</time></trkpt><trkpt lat="43.8966802" lon="11.2481015"><ele>547.0</ele><time>2026-03-28T10:04:29.469Z</time></trkpt><trkpt lat="43.8967416" lon="11.2481492"><ele>547.0</ele><time>2026-03-28T10:04:32.471Z</time></trkpt><trkpt lat="43.8967953" lon="11.2481969"><ele>547.0</ele><time>2026-03-28T10:04:34.462Z</time></trkpt><trkpt lat="43.8968623" lon="11.2482582"><ele>547.0</ele><time>2026-03-28T10:04:37.468Z</time></trkpt><trkpt lat="43.8969345" lon="11.2483138"><ele>547.0</ele><time>2026-03-28T10:04:41.467Z</time></trkpt><trkpt lat="43.8970044" lon="11.248355"><ele>547.0</ele><time>2026-03-28T10:04:44.461Z</time></trkpt><trkpt lat="43.8970702" lon="11.2484201"><ele>546.1428571428571</ele><time>2026-03-28T10:04:47.463Z</time></trkpt><trkpt lat="43.8971142" lon="11.248498"><ele>545.2857142857142</ele><time>2026-03-28T10:04:50.467Z</time></trkpt><trkpt lat="43.8971404" lon="11.2485827"><ele>544.4285714285714</ele><time>2026-03-28T10:04:57.469Z</time></trkpt><trkpt lat="43.8972106" lon="11.2485603"><ele>543.5714285714286</ele><time>2026-03-28T10:06:01.473Z</time></trkpt><trkpt lat="43.8972886" lon="11.2485859"><ele>542.7142857142858</ele><time>2026-03-28T10:06:05.474Z</time></trkpt><trkpt lat="43.8973578" lon="11.2486224"><ele>541.8571428571429</ele><time>2026-03-28T10:06:10.476Z</time></trkpt><trkpt lat="43.897425" lon="11.248639"><ele>541.0</ele><time>2026-03-28T10:06:14.471Z</time></trkpt><trkpt lat="43.897495" lon="11.2486676"><ele>541.0</ele><time>2026-03-28T10:06:25.478Z</time></trkpt><trkpt lat="43.8975527" lon="11.2486213"><ele>541.0</ele><time>2026-03-28T10:09:15.459Z</time></trkpt><trkpt lat="43.8976369" lon="11.2485578"><ele>541.0</ele><time>2026-03-28T10:09:19.468Z</time></trkpt><trkpt lat="43.897709" lon="11.2485107"><ele>541.0</ele><time>2026-03-28T10:09:21.463Z</time></trkpt><trkpt lat="43.8977742" lon="11.2484552"><ele>541.0</ele><time>2026-03-28T10:09:23.471Z</time></trkpt><trkpt lat="43.8978268" lon="11.2484042"><ele>541.0</ele><time>2026-03-28T10:09:25.464Z</time></trkpt><trkpt lat="43.8978861" lon="11.2483186"><ele>540.3333333333334</ele><time>2026-03-28T10:09:28.476Z</time></trkpt><trkpt lat="43.8979339" lon="11.2482559"><ele>539.6666666666667</ele><time>2026-03-28T10:09:30.464Z</time></trkpt><trkpt lat="43.8980103" lon="11.248183"><ele>539.0</ele><time>2026-03-28T10:09:33.478Z</time></trkpt><trkpt lat="43.8980685" lon="11.248136"><ele>538.3333333333334</ele><time>2026-03-28T10:09:35.463Z</time></trkpt><trkpt lat="43.8981519" lon="11.2480881"><ele>537.6666666666666</ele><time>2026-03-28T10:09:37.466Z</time></trkpt><trkpt lat="43.8982322" lon="11.2480596"><ele>537.0</ele><time>2026-03-28T10:09:39.466Z</time></trkpt><trkpt lat="43.8983184" lon="11.2480215"><ele>535.5</ele><time>2026-03-28T10:09:42.463Z</time></trkpt><trkpt lat="43.8984013" lon="11.2479878"><ele>534.0</ele><time>2026-03-28T10:09:45.475Z</time></trkpt><trkpt lat="43.8984706" lon="11.2479327"><ele>532.5</ele><time>2026-03-28T10:09:48.475Z</time></trkpt><trkpt lat="43.8985225" lon="11.2478522"><ele>531.0</ele><time>2026-03-28T10:09:52.466Z</time></trkpt><trkpt lat="43.8985743" lon="11.2477928"><ele>529.5</ele><time>2026-03-28T10:09:55.463Z</time></trkpt><trkpt lat="43.8986352" lon="11.2477485"><ele>528.0</ele><time>2026-03-28T10:09:58.464Z</time></trkpt><trkpt lat="43.8986998" lon="11.2476933"><ele>526.0</ele><time>2026-03-28T10:10:02.461Z</time></trkpt><trkpt lat="43.8987756" lon="11.2476298"><ele>524.0</ele><time>2026-03-28T10:10:05.468Z</time></trkpt><trkpt lat="43.8988384" lon="11.2476595"><ele>522.0</ele><time>2026-03-28T10:10:07.467Z</time></trkpt><trkpt lat="43.898927" lon="11.2476788"><ele>520.0</ele><time>2026-03-28T10:10:10.471Z</time></trkpt><trkpt lat="43.8989977" lon="11.2476915"><ele>518.0</ele><time>2026-03-28T10:10:13.455Z</time></trkpt><trkpt lat="43.8990695" lon="11.2476816"><ele>516.0</ele><time>2026-03-28T10:10:16.47Z</time></trkpt><trkpt lat="43.8991474" lon="11.2476349"><ele>515.9999999999999</ele><time>2026-03-28T10:10:20.466Z</time></trkpt><trkpt lat="43.8991956" lon="11.247569"><ele>516.0</ele><time>2026-03-28T10:10:24.462Z</time></trkpt><trkpt lat="43.8991994" lon="11.2474723"><ele>516.0</ele><time>2026-03-28T10:10:45.475Z</time></trkpt><trkpt lat="43.8991795" lon="11.2473725"><ele>516.0</ele><time>2026-03-28T10:10:51.468Z</time></trkpt><trkpt lat="43.8991939" lon="11.2472773"><ele>516.0</ele><time>2026-03-28T10:10:55.467Z</time></trkpt><trkpt lat="43.8992498" lon="11.2471978"><ele>515.9999999999999</ele><time>2026-03-28T10:10:59.466Z</time></trkpt><trkpt lat="43.899306" lon="11.2471333"><ele>516.0</ele><time>2026-03-28T10:11:02.47Z</time></trkpt><trkpt lat="43.8993583" lon="11.2470657"><ele>514.1666666666666</ele><time>2026-03-28T10:11:10.483Z</time></trkpt><trkpt lat="43.8994293" lon="11.2470079"><ele>512.3333333333334</ele><time>2026-03-28T10:16:19.476Z</time></trkpt><trkpt lat="43.8994908" lon="11.2469474"><ele>510.5</ele><time>2026-03-28T10:16:53.471Z</time></trkpt><trkpt lat="43.8995559" lon="11.2468789"><ele>508.6666666666667</ele><time>2026-03-28T10:16:56.47Z</time></trkpt><trkpt lat="43.8996078" lon="11.2467799"><ele>506.83333333333337</ele><time>2026-03-28T10:16:59.465Z</time></trkpt><trkpt lat="43.8996527" lon="11.246676"><ele>505.0</ele><time>2026-03-28T10:17:03.465Z</time></trkpt><trkpt lat="43.899701" lon="11.246599"><ele>505.0</ele><time>2026-03-28T10:17:06.469Z</time></trkpt><trkpt lat="43.8997662" lon="11.2465135"><ele>504.99999999999994</ele><time>2026-03-28T10:17:09.466Z</time></trkpt><trkpt lat="43.8998214" lon="11.24646"><ele>505.0</ele><time>2026-03-28T10:17:12.455Z</time></trkpt><trkpt lat="43.8998595" lon="11.2463788"><ele>505.0</ele><time>2026-03-28T10:17:17.463Z</time></trkpt><trkpt lat="43.8998479" lon="11.2462842"><ele>504.99999999999994</ele><time>2026-03-28T10:17:23.466Z</time></trkpt><trkpt lat="43.8997833" lon="11.2462654"><ele>505.0</ele><time>2026-03-28T10:17:26.469Z</time></trkpt><trkpt lat="43.8997237" lon="11.2462188"><ele>505.0</ele><time>2026-03-28T10:17:28.476Z</time></trkpt><trkpt lat="43.8996424" lon="11.2461808"><ele>503.85714285714283</ele><time>2026-03-28T10:17:31.469Z</time></trkpt><trkpt lat="43.8995791" lon="11.2461613"><ele>502.71428571428567</ele><time>2026-03-28T10:17:34.47Z</time></trkpt><trkpt lat="43.8995084" lon="11.2461385"><ele>501.57142857142856</ele><time>2026-03-28T10:17:37.472Z</time></trkpt><trkpt lat="43.8994446" lon="11.2461063"><ele>500.42857142857144</ele><time>2026-03-28T10:17:40.465Z</time></trkpt><trkpt lat="43.8993827" lon="11.2460544"><ele>499.2857142857143</ele><time>2026-03-28T10:17:43.458Z</time></trkpt><trkpt lat="43.8993426" lon="11.2459819"><ele>498.1428571428571</ele><time>2026-03-28T10:17:45.464Z</time></trkpt><trkpt lat="43.8993118" lon="11.2459034"><ele>497.0</ele><time>2026-03-28T10:17:47.462Z</time></trkpt><trkpt lat="43.8992813" lon="11.2458062"><ele>497.16666666666663</ele><time>2026-03-28T10:17:49.464Z</time></trkpt><trkpt lat="43.899246" lon="11.245726"><ele>497.3333333333333</ele><time>2026-03-28T10:17:51.464Z</time></trkpt><trkpt lat="43.8991884" lon="11.245627"><ele>497.5</ele><time>2026-03-28T10:17:54.482Z</time></trkpt><trkpt lat="43.8991246" lon="11.2455442"><ele>497.66666666666663</ele><time>2026-03-28T10:17:57.462Z</time></trkpt><trkpt lat="43.8990805" lon="11.2454451"><ele>497.8333333333333</ele><time>2026-03-28T10:17:59.453Z</time></trkpt><trkpt lat="43.899037" lon="11.245359"><ele>498.0</ele><time>2026-03-28T10:18:01.468Z</time></trkpt><trkpt lat="43.8989768" lon="11.2452646"><ele>496.3333333333333</ele><time>2026-03-28T10:18:04.472Z</time></trkpt><trkpt lat="43.898941" lon="11.2451908"><ele>494.66666666666663</ele><time>2026-03-28T10:18:06.48Z</time></trkpt><trkpt lat="43.8989065" lon="11.2450926"><ele>493.0</ele><time>2026-03-28T10:18:08.465Z</time></trkpt><trkpt lat="43.8988556" lon="11.2449686"><ele>491.3333333333333</ele><time>2026-03-28T10:18:10.463Z</time></trkpt><trkpt lat="43.8987981" lon="11.2448709"><ele>489.66666666666663</ele><time>2026-03-28T10:18:12.467Z</time></trkpt><trkpt lat="43.8987421" lon="11.2447661"><ele>488.0</ele><time>2026-03-28T10:18:14.472Z</time></trkpt><trkpt lat="43.8986763" lon="11.244673"><ele>486.16666666666663</ele><time>2026-03-28T10:18:16.469Z</time></trkpt><trkpt lat="43.8986169" lon="11.244581"><ele>484.3333333333333</ele><time>2026-03-28T10:18:19.468Z</time></trkpt><trkpt lat="43.8985901" lon="11.2444842"><ele>482.5</ele><time>2026-03-28T10:18:21.471Z</time></trkpt><trkpt lat="43.898588" lon="11.244377"><ele>480.66666666666663</ele><time>2026-03-28T10:18:23.463Z</time></trkpt><trkpt lat="43.89859" lon="11.2442313"><ele>478.8333333333333</ele><time>2026-03-28T10:18:25.464Z</time></trkpt><trkpt lat="43.8985837" lon="11.2440962"><ele>477.0</ele><time>2026-03-28T10:18:27.467Z</time></trkpt><trkpt lat="43.8985774" lon="11.2439748"><ele>475.20000000000005</ele><time>2026-03-28T10:18:29.465Z</time></trkpt><trkpt lat="43.8985614" lon="11.2438598"><ele>473.40000000000003</ele><time>2026-03-28T10:18:31.463Z</time></trkpt><trkpt lat="43.8985523" lon="11.2437285"><ele>471.59999999999997</ele><time>2026-03-28T10:18:33.465Z</time></trkpt><trkpt lat="43.8985258" lon="11.2435976"><ele>469.79999999999995</ele><time>2026-03-28T10:18:35.477Z</time></trkpt><trkpt lat="43.8984834" lon="11.2434827"><ele>468.0</ele><time>2026-03-28T10:18:37.467Z</time></trkpt><trkpt lat="43.8984303" lon="11.2433864"><ele>468.5</ele><time>2026-03-28T10:18:39.475Z</time></trkpt><trkpt lat="43.898372" lon="11.2432892"><ele>469.0</ele><time>2026-03-28T10:18:41.463Z</time></trkpt><trkpt lat="43.8983124" lon="11.2432133"><ele>469.5</ele><time>2026-03-28T10:18:43.467Z</time></trkpt><trkpt lat="43.8982623" lon="11.2431511"><ele>470.0</ele><time>2026-03-28T10:18:45.471Z</time></trkpt><trkpt lat="43.8982001" lon="11.2430736"><ele>470.5</ele><time>2026-03-28T10:18:48.474Z</time></trkpt><trkpt lat="43.8981371" lon="11.242979"><ele>471.0</ele><time>2026-03-28T10:18:51.474Z</time></trkpt><trkpt lat="43.898079" lon="11.2428925"><ele>471.0</ele><time>2026-03-28T10:18:53.474Z</time></trkpt><trkpt lat="43.8980227" lon="11.2428232"><ele>471.0</ele><time>2026-03-28T10:18:56.451Z</time></trkpt><trkpt lat="43.8979696" lon="11.2427292"><ele>471.0</ele><time>2026-03-28T10:18:59.451Z</time></trkpt><trkpt lat="43.8979047" lon="11.2426457"><ele>471.0</ele><time>2026-03-28T10:19:01.469Z</time></trkpt><trkpt lat="43.897816" lon="11.2425876"><ele>471.0</ele><time>2026-03-28T10:19:03.478Z</time></trkpt><trkpt lat="43.8977349" lon="11.2425391"><ele>471.0</ele><time>2026-03-28T10:19:05.446Z</time></trkpt><trkpt lat="43.8976972" lon="11.2424523"><ele>471.0</ele><time>2026-03-28T10:19:07.464Z</time></trkpt><trkpt lat="43.8976767" lon="11.2423484"><ele>471.0</ele><time>2026-03-28T10:19:09.471Z</time></trkpt><trkpt lat="43.8976732" lon="11.2422384"><ele>471.0</ele><time>2026-03-28T10:19:11.462Z</time></trkpt><trkpt lat="43.8976674" lon="11.2421098"><ele>471.0</ele><time>2026-03-28T10:19:13.474Z</time></trkpt><trkpt lat="43.8976612" lon="11.2419882"><ele>471.0</ele><time>2026-03-28T10:19:15.453Z</time></trkpt><trkpt lat="43.8976609" lon="11.2418667"><ele>471.0</ele><time>2026-03-28T10:19:17.461Z</time></trkpt><trkpt lat="43.8976439" lon="11.2417511"><ele>469.5</ele><time>2026-03-28T10:19:19.471Z</time></trkpt><trkpt lat="43.8976324" lon="11.2416286"><ele>468.0</ele><time>2026-03-28T10:19:21.462Z</time></trkpt><trkpt lat="43.8976287" lon="11.2415063"><ele>466.5</ele><time>2026-03-28T10:19:23.473Z</time></trkpt><trkpt lat="43.8976221" lon="11.2413858"><ele>465.0</ele><time>2026-03-28T10:19:25.474Z</time></trkpt><trkpt lat="43.8976136" lon="11.2412676"><ele>463.5</ele><time>2026-03-28T10:19:27.46Z</time></trkpt><trkpt lat="43.8976102" lon="11.2411729"><ele>462.0</ele><time>2026-03-28T10:19:29.47Z</time></trkpt><trkpt lat="43.8976052" lon="11.241075"><ele>460.8333333333333</ele><time>2026-03-28T10:19:31.468Z</time></trkpt><trkpt lat="43.8976038" lon="11.2409869"><ele>459.66666666666663</ele><time>2026-03-28T10:19:33.468Z</time></trkpt><trkpt lat="43.8976084" lon="11.2408708"><ele>458.5</ele><time>2026-03-28T10:19:36.463Z</time></trkpt><trkpt lat="43.8976079" lon="11.2407401"><ele>457.3333333333333</ele><time>2026-03-28T10:19:39.449Z</time></trkpt><trkpt lat="43.8976035" lon="11.2406409"><ele>456.16666666666663</ele><time>2026-03-28T10:19:41.47Z</time></trkpt><trkpt lat="43.8976309" lon="11.2405397"><ele>455.0</ele><time>2026-03-28T10:19:43.462Z</time></trkpt><trkpt lat="43.8976663" lon="11.2404467"><ele>455.0</ele><time>2026-03-28T10:19:45.463Z</time></trkpt><trkpt lat="43.8977016" lon="11.2403452"><ele>455.0</ele><time>2026-03-28T10:19:47.467Z</time></trkpt><trkpt lat="43.897733" lon="11.2402563"><ele>455.0</ele><time>2026-03-28T10:19:49.463Z</time></trkpt><trkpt lat="43.8977688" lon="11.2401567"><ele>455.0</ele><time>2026-03-28T10:19:51.451Z</time></trkpt><trkpt lat="43.8977939" lon="11.2400582"><ele>455.0</ele><time>2026-03-28T10:19:53.467Z</time></trkpt><trkpt lat="43.8978109" lon="11.2399682"><ele>455.0</ele><time>2026-03-28T10:19:55.475Z</time></trkpt><trkpt lat="43.8978415" lon="11.2398763"><ele>455.0</ele><time>2026-03-28T10:19:57.498Z</time></trkpt><trkpt lat="43.8978697" lon="11.2397901"><ele>455.0</ele><time>2026-03-28T10:19:59.458Z</time></trkpt><trkpt lat="43.8978951" lon="11.2396811"><ele>455.0</ele><time>2026-03-28T10:20:02.468Z</time></trkpt><trkpt lat="43.8979089" lon="11.2395946"><ele>455.0</ele><time>2026-03-28T10:20:04.467Z</time></trkpt><trkpt lat="43.8979174" lon="11.239495"><ele>455.0</ele><time>2026-03-28T10:20:06.465Z</time></trkpt><trkpt lat="43.8979276" lon="11.2393965"><ele>455.0</ele><time>2026-03-28T10:20:08.466Z</time></trkpt><trkpt lat="43.8979441" lon="11.2393116"><ele>455.0</ele><time>2026-03-28T10:20:10.467Z</time></trkpt><trkpt lat="43.89796" lon="11.2391936"><ele>455.0</ele><time>2026-03-28T10:20:13.467Z</time></trkpt><trkpt lat="43.8979589" lon="11.2390646"><ele>454.99999999999994</ele><time>2026-03-28T10:20:16.466Z</time></trkpt><trkpt lat="43.8979488" lon="11.2389783"><ele>455.0</ele><time>2026-03-28T10:20:18.467Z</time></trkpt><trkpt lat="43.8979327" lon="11.2388414"><ele>455.0</ele><time>2026-03-28T10:20:21.467Z</time></trkpt><trkpt lat="43.8979176" lon="11.2387295"><ele>455.0</ele><time>2026-03-28T10:20:23.469Z</time></trkpt><trkpt lat="43.8978903" lon="11.2386418"><ele>454.99999999999994</ele><time>2026-03-28T10:20:25.463Z</time></trkpt><trkpt lat="43.8978429" lon="11.2385588"><ele>455.0</ele><time>2026-03-28T10:20:27.456Z</time></trkpt><trkpt lat="43.8977893" lon="11.2384853"><ele>453.57142857142856</ele><time>2026-03-28T10:20:29.46Z</time></trkpt><trkpt lat="43.8977248" lon="11.2384103"><ele>452.1428571428571</ele><time>2026-03-28T10:20:31.474Z</time></trkpt><trkpt lat="43.8976624" lon="11.2383695"><ele>450.7142857142857</ele><time>2026-03-28T10:20:33.467Z</time></trkpt><trkpt lat="43.8975823" lon="11.2383212"><ele>449.2857142857143</ele><time>2026-03-28T10:20:36.464Z</time></trkpt><trkpt lat="43.8975227" lon="11.2382826"><ele>447.85714285714283</ele><time>2026-03-28T10:20:38.467Z</time></trkpt><trkpt lat="43.8974612" lon="11.2382601"><ele>446.42857142857144</ele><time>2026-03-28T10:20:40.471Z</time></trkpt><trkpt lat="43.8973923" lon="11.2382346"><ele>445.0</ele><time>2026-03-28T10:20:42.466Z</time></trkpt><trkpt lat="43.897322" lon="11.2382204"><ele>444.5714285714286</ele><time>2026-03-28T10:20:44.46Z</time></trkpt><trkpt lat="43.8972481" lon="11.238218"><ele>444.1428571428571</ele><time>2026-03-28T10:20:46.462Z</time></trkpt><trkpt lat="43.8971767" lon="11.238231"><ele>443.7142857142857</ele><time>2026-03-28T10:20:48.476Z</time></trkpt><trkpt lat="43.8971004" lon="11.2382581"><ele>443.28571428571433</ele><time>2026-03-28T10:20:50.463Z</time></trkpt><trkpt lat="43.897034" lon="11.2382905"><ele>442.8571428571429</ele><time>2026-03-28T10:20:52.477Z</time></trkpt><trkpt lat="43.8969599" lon="11.2382566"><ele>442.42857142857144</ele><time>2026-03-28T10:20:55.464Z</time></trkpt><trkpt lat="43.8969467" lon="11.2381688"><ele>442.0</ele><time>2026-03-28T10:20:57.455Z</time></trkpt><trkpt lat="43.8969396" lon="11.2380412"><ele>442.00000000000006</ele><time>2026-03-28T10:21:00.466Z</time></trkpt><trkpt lat="43.8969249" lon="11.2379212"><ele>442.0</ele><time>2026-03-28T10:21:03.472Z</time></trkpt><trkpt lat="43.8969249" lon="11.2378185"><ele>442.0</ele><time>2026-03-28T10:21:05.459Z</time></trkpt><trkpt lat="43.8969216" lon="11.237686"><ele>442.0</ele><time>2026-03-28T10:21:07.481Z</time></trkpt><trkpt lat="43.8969135" lon="11.237563"><ele>442.00000000000006</ele><time>2026-03-28T10:21:09.464Z</time></trkpt><trkpt lat="43.8969037" lon="11.237474"><ele>442.0</ele><time>2026-03-28T10:21:11.472Z</time></trkpt><trkpt lat="43.8969073" lon="11.2373722"><ele>439.28571428571433</ele><time>2026-03-28T10:21:13.474Z</time></trkpt><trkpt lat="43.8969159" lon="11.2372659"><ele>436.57142857142856</ele><time>2026-03-28T10:21:15.466Z</time></trkpt><trkpt lat="43.8969236" lon="11.2371612"><ele>433.8571428571429</ele><time>2026-03-28T10:21:17.459Z</time></trkpt><trkpt lat="43.8969364" lon="11.237062"><ele>431.14285714285717</ele><time>2026-03-28T10:21:19.47Z</time></trkpt><trkpt lat="43.8969391" lon="11.2369735"><ele>428.42857142857144</ele><time>2026-03-28T10:21:21.467Z</time></trkpt><trkpt lat="43.8969184" lon="11.2368894"><ele>425.7142857142857</ele><time>2026-03-28T10:21:23.462Z</time></trkpt><trkpt lat="43.8969" lon="11.2368015"><ele>423.0</ele><time>2026-03-28T10:21:25.472Z</time></trkpt><trkpt lat="43.8968726" lon="11.2367172"><ele>423.0</ele><time>2026-03-28T10:21:27.464Z</time></trkpt><trkpt lat="43.8968214" lon="11.2366134"><ele>423.0</ele><time>2026-03-28T10:21:30.46Z</time></trkpt><trkpt lat="43.89679" lon="11.2365019"><ele>423.0</ele><time>2026-03-28T10:21:33.464Z</time></trkpt><trkpt lat="43.8967998" lon="11.2363954"><ele>423.0</ele><time>2026-03-28T10:21:36.462Z</time></trkpt><trkpt lat="43.8968422" lon="11.2362719"><ele>423.0</ele><time>2026-03-28T10:21:39.462Z</time></trkpt><trkpt lat="43.8968566" lon="11.2361559"><ele>423.0</ele><time>2026-03-28T10:21:42.466Z</time></trkpt><trkpt lat="43.8968682" lon="11.2360699"><ele>421.8333333333333</ele><time>2026-03-28T10:21:44.478Z</time></trkpt><trkpt lat="43.8968602" lon="11.2359482"><ele>420.66666666666663</ele><time>2026-03-28T10:21:47.46Z</time></trkpt><trkpt lat="43.8968299" lon="11.2358422"><ele>419.5</ele><time>2026-03-28T10:21:50.467Z</time></trkpt><trkpt lat="43.8968092" lon="11.23572"><ele>418.3333333333333</ele><time>2026-03-28T10:21:53.465Z</time></trkpt><trkpt lat="43.8968208" lon="11.23561"><ele>417.16666666666663</ele><time>2026-03-28T10:21:55.464Z</time></trkpt><trkpt lat="43.8968392" lon="11.2354999"><ele>416.0</ele><time>2026-03-28T10:21:57.47Z</time></trkpt><trkpt lat="43.8968505" lon="11.2353893"><ele>415.16666666666663</ele><time>2026-03-28T10:21:59.449Z</time></trkpt><trkpt lat="43.8968673" lon="11.2352535"><ele>414.3333333333333</ele><time>2026-03-28T10:22:02.47Z</time></trkpt><trkpt lat="43.8968579" lon="11.235135"><ele>413.5</ele><time>2026-03-28T10:22:05.476Z</time></trkpt><trkpt lat="43.8968535" lon="11.2350422"><ele>412.66666666666663</ele><time>2026-03-28T10:22:07.479Z</time></trkpt><trkpt lat="43.8968485" lon="11.2349484"><ele>411.8333333333333</ele><time>2026-03-28T10:22:09.462Z</time></trkpt><trkpt lat="43.8968385" lon="11.2348572"><ele>411.0</ele><time>2026-03-28T10:22:11.464Z</time></trkpt><trkpt lat="43.8968306" lon="11.2347684"><ele>408.8333333333333</ele><time>2026-03-28T10:22:13.463Z</time></trkpt><trkpt lat="43.8968079" lon="11.234673"><ele>406.66666666666663</ele><time>2026-03-28T10:22:16.471Z</time></trkpt><trkpt lat="43.8967792" lon="11.2345737"><ele>404.5</ele><time>2026-03-28T10:22:19.473Z</time></trkpt><trkpt lat="43.8967414" lon="11.2344922"><ele>402.3333333333333</ele><time>2026-03-28T10:22:22.468Z</time></trkpt><trkpt lat="43.8966963" lon="11.2344303"><ele>400.16666666666663</ele><time>2026-03-28T10:22:25.477Z</time></trkpt><trkpt lat="43.8966312" lon="11.2343538"><ele>398.0</ele><time>2026-03-28T10:22:28.47Z</time></trkpt><trkpt lat="43.8965532" lon="11.2343081"><ele>401.2857142857143</ele><time>2026-03-28T10:22:31.468Z</time></trkpt><trkpt lat="43.8964907" lon="11.2342908"><ele>404.57142857142856</ele><time>2026-03-28T10:22:33.47Z</time></trkpt><trkpt lat="43.896442" lon="11.2342258"><ele>407.8571428571429</ele><time>2026-03-28T10:22:36.47Z</time></trkpt><trkpt lat="43.8964396" lon="11.2341319"><ele>411.1428571428571</ele><time>2026-03-28T10:22:39.462Z</time></trkpt><trkpt lat="43.8964572" lon="11.23403"><ele>414.42857142857144</ele><time>2026-03-28T10:22:42.463Z</time></trkpt><trkpt lat="43.8964716" lon="11.2339241"><ele>417.7142857142857</ele><time>2026-03-28T10:22:45.474Z</time></trkpt><trkpt lat="43.8965008" lon="11.2338174"><ele>421.0</ele><time>2026-03-28T10:22:47.474Z</time></trkpt><trkpt lat="43.8965201" lon="11.233702"><ele>421.00000000000006</ele><time>2026-03-28T10:22:49.465Z</time></trkpt><trkpt lat="43.8965378" lon="11.2335956"><ele>421.0</ele><time>2026-03-28T10:22:51.469Z</time></trkpt><trkpt lat="43.8965663" lon="11.2334986"><ele>421.0</ele><time>2026-03-28T10:22:53.467Z</time></trkpt><trkpt lat="43.8965821" lon="11.2334123"><ele>421.0</ele><time>2026-03-28T10:22:55.462Z</time></trkpt><trkpt lat="43.896602" lon="11.2333034"><ele>421.00000000000006</ele><time>2026-03-28T10:22:58.466Z</time></trkpt><trkpt lat="43.8966207" lon="11.2331877"><ele>421.0</ele><time>2026-03-28T10:23:01.468Z</time></trkpt><trkpt lat="43.8966393" lon="11.2330833"><ele>419.83333333333337</ele><time>2026-03-28T10:23:03.467Z</time></trkpt><trkpt lat="43.8966744" lon="11.2329647"><ele>418.6666666666667</ele><time>2026-03-28T10:23:05.466Z</time></trkpt><trkpt lat="43.8966896" lon="11.2328606"><ele>417.5</ele><time>2026-03-28T10:23:07.464Z</time></trkpt><trkpt lat="43.8967072" lon="11.2327655"><ele>416.33333333333337</ele><time>2026-03-28T10:23:09.465Z</time></trkpt><trkpt lat="43.8967262" lon="11.2326723"><ele>415.1666666666667</ele><time>2026-03-28T10:23:11.464Z</time></trkpt><trkpt lat="43.8967402" lon="11.232557"><ele>414.0</ele><time>2026-03-28T10:23:14.463Z</time></trkpt><trkpt lat="43.8967459" lon="11.2324626"><ele>414.0</ele><time>2026-03-28T10:23:16.472Z</time></trkpt><trkpt lat="43.8967439" lon="11.2323555"><ele>414.0</ele><time>2026-03-28T10:23:18.465Z</time></trkpt><trkpt lat="43.8967216" lon="11.2322517"><ele>414.0</ele><time>2026-03-28T10:23:20.473Z</time></trkpt><trkpt lat="43.8966868" lon="11.2321693"><ele>414.0</ele><time>2026-03-28T10:23:22.468Z</time></trkpt><trkpt lat="43.8966495" lon="11.2320969"><ele>414.0</ele><time>2026-03-28T10:23:24.475Z</time></trkpt><trkpt lat="43.8965995" lon="11.2320209"><ele>414.0</ele><time>2026-03-28T10:23:26.463Z</time></trkpt><trkpt lat="43.8965301" lon="11.2319444"><ele>411.42857142857144</ele><time>2026-03-28T10:23:28.461Z</time></trkpt><trkpt lat="43.8964766" lon="11.2318786"><ele>408.8571428571429</ele><time>2026-03-28T10:23:30.469Z</time></trkpt><trkpt lat="43.8964238" lon="11.2318271"><ele>406.28571428571433</ele><time>2026-03-28T10:23:32.471Z</time></trkpt><trkpt lat="43.8963778" lon="11.231766"><ele>403.7142857142857</ele><time>2026-03-28T10:23:34.47Z</time></trkpt><trkpt lat="43.8963081" lon="11.23169"><ele>401.1428571428571</ele><time>2026-03-28T10:23:37.46Z</time></trkpt><trkpt lat="43.8962531" lon="11.2316363"><ele>398.5714285714286</ele><time>2026-03-28T10:23:39.478Z</time></trkpt><trkpt lat="43.8961912" lon="11.2315926"><ele>396.0</ele><time>2026-03-28T10:23:41.463Z</time></trkpt><trkpt lat="43.8961236" lon="11.2315337"><ele>395.0</ele><time>2026-03-28T10:23:43.472Z</time></trkpt><trkpt lat="43.8960801" lon="11.2314537"><ele>394.0</ele><time>2026-03-28T10:23:45.47Z</time></trkpt><trkpt lat="43.8960847" lon="11.2313436"><ele>393.0</ele><time>2026-03-28T10:23:48.467Z</time></trkpt><trkpt lat="43.8961147" lon="11.2312615"><ele>392.0</ele><time>2026-03-28T10:23:51.48Z</time></trkpt><trkpt lat="43.8961624" lon="11.2311714"><ele>391.0</ele><time>2026-03-28T10:23:55.468Z</time></trkpt><trkpt lat="43.896202" lon="11.2310933"><ele>390.0</ele><time>2026-03-28T10:23:58.461Z</time></trkpt><trkpt lat="43.8962381" lon="11.2310214"><ele>389.0</ele><time>2026-03-28T10:24:00.473Z</time></trkpt><trkpt lat="43.8962813" lon="11.2309183"><ele>389.0</ele><time>2026-03-28T10:24:02.455Z</time></trkpt><trkpt lat="43.8963383" lon="11.2308129"><ele>389.0</ele><time>2026-03-28T10:24:04.464Z</time></trkpt><trkpt lat="43.8964127" lon="11.2307055"><ele>389.0</ele><time>2026-03-28T10:24:06.464Z</time></trkpt><trkpt lat="43.8964672" lon="11.2306004"><ele>389.0</ele><time>2026-03-28T10:24:08.474Z</time></trkpt><trkpt lat="43.896516" lon="11.2304881"><ele>389.0</ele><time>2026-03-28T10:24:10.478Z</time></trkpt><trkpt lat="43.8965561" lon="11.2303852"><ele>389.3333333333333</ele><time>2026-03-28T10:24:12.46Z</time></trkpt><trkpt lat="43.8965968" lon="11.2302765"><ele>389.66666666666663</ele><time>2026-03-28T10:24:14.467Z</time></trkpt><trkpt lat="43.8966395" lon="11.2301476"><ele>390.0</ele><time>2026-03-28T10:24:16.467Z</time></trkpt><trkpt lat="43.8966725" lon="11.2300318"><ele>390.33333333333337</ele><time>2026-03-28T10:24:18.464Z</time></trkpt><trkpt lat="43.8966799" lon="11.2299258"><ele>390.6666666666667</ele><time>2026-03-28T10:24:20.462Z</time></trkpt><trkpt lat="43.896691" lon="11.2298239"><ele>391.0</ele><time>2026-03-28T10:24:22.467Z</time></trkpt><trkpt lat="43.896693" lon="11.2297111"><ele>391.00000000000006</ele><time>2026-03-28T10:24:24.484Z</time></trkpt><trkpt lat="43.8967272" lon="11.2296122"><ele>391.0</ele><time>2026-03-28T10:24:26.466Z</time></trkpt><trkpt lat="43.8967833" lon="11.2295498"><ele>391.0</ele><time>2026-03-28T10:24:28.459Z</time></trkpt><trkpt lat="43.8968646" lon="11.2294958"><ele>391.0</ele><time>2026-03-28T10:24:31.463Z</time></trkpt><trkpt lat="43.8969255" lon="11.2294641"><ele>391.00000000000006</ele><time>2026-03-28T10:24:33.455Z</time></trkpt><trkpt lat="43.8969975" lon="11.2294144"><ele>391.0</ele><time>2026-03-28T10:24:35.462Z</time></trkpt><trkpt lat="43.8970609" lon="11.2293451"><ele>387.1666666666667</ele><time>2026-03-28T10:24:37.461Z</time></trkpt><trkpt lat="43.8970964" lon="11.2292726"><ele>383.33333333333337</ele><time>2026-03-28T10:24:39.462Z</time></trkpt><trkpt lat="43.8971368" lon="11.2291475"><ele>379.5</ele><time>2026-03-28T10:24:42.467Z</time></trkpt><trkpt lat="43.8971539" lon="11.229044"><ele>375.6666666666667</ele><time>2026-03-28T10:24:44.467Z</time></trkpt><trkpt lat="43.8971711" lon="11.2289553"><ele>371.83333333333337</ele><time>2026-03-28T10:24:46.464Z</time></trkpt><trkpt lat="43.8971852" lon="11.228826"><ele>368.0</ele><time>2026-03-28T10:24:49.465Z</time></trkpt><trkpt lat="43.8971916" lon="11.2287311"><ele>368.2857142857143</ele><time>2026-03-28T10:24:51.469Z</time></trkpt><trkpt lat="43.8971824" lon="11.2286288"><ele>368.57142857142856</ele><time>2026-03-28T10:24:53.471Z</time></trkpt><trkpt lat="43.8971538" lon="11.2285472"><ele>368.85714285714283</ele><time>2026-03-28T10:24:55.465Z</time></trkpt><trkpt lat="43.8971206" lon="11.2284414"><ele>369.1428571428571</ele><time>2026-03-28T10:24:58.47Z</time></trkpt><trkpt lat="43.897103" lon="11.2283435"><ele>369.42857142857144</ele><time>2026-03-28T10:25:01.47Z</time></trkpt><trkpt lat="43.8970771" lon="11.2282605"><ele>369.71428571428567</ele><time>2026-03-28T10:25:04.466Z</time></trkpt><trkpt lat="43.8970469" lon="11.2281612"><ele>370.0</ele><time>2026-03-28T10:25:07.466Z</time></trkpt><trkpt lat="43.8970421" lon="11.2280708"><ele>369.99999999999994</ele><time>2026-03-28T10:25:10.469Z</time></trkpt><trkpt lat="43.8970853" lon="11.2279785"><ele>370.0</ele><time>2026-03-28T10:25:14.455Z</time></trkpt><trkpt lat="43.8971376" lon="11.2279284"><ele>370.0</ele><time>2026-03-28T10:25:17.467Z</time></trkpt><trkpt lat="43.8972096" lon="11.2278704"><ele>370.0</ele><time>2026-03-28T10:25:20.464Z</time></trkpt><trkpt lat="43.8972664" lon="11.2278031"><ele>370.0</ele><time>2026-03-28T10:25:23.476Z</time></trkpt><trkpt lat="43.8973188" lon="11.227749"><ele>369.99999999999994</ele><time>2026-03-28T10:25:26.468Z</time></trkpt><trkpt lat="43.8973919" lon="11.2277002"><ele>370.0</ele><time>2026-03-28T10:25:30.469Z</time></trkpt><trkpt lat="43.8974697" lon="11.2276481"><ele>370.0</ele><time>2026-03-28T10:25:34.469Z</time></trkpt><trkpt lat="43.8975138" lon="11.2275787"><ele>370.0</ele><time>2026-03-28T10:25:37.464Z</time></trkpt><trkpt lat="43.8975783" lon="11.227509"><ele>370.0</ele><time>2026-03-28T10:25:40.463Z</time></trkpt><trkpt lat="43.897645" lon="11.227448"><ele>370.0</ele><time>2026-03-28T10:25:43.463Z</time></trkpt><trkpt lat="43.8977139" lon="11.2273907"><ele>370.0</ele><time>2026-03-28T10:25:45.464Z</time></trkpt><trkpt lat="43.8977831" lon="11.2273201"><ele>370.0</ele><time>2026-03-28T10:25:47.473Z</time></trkpt><trkpt lat="43.897836" lon="11.2272689"><ele>367.2857142857143</ele><time>2026-03-28T10:25:49.462Z</time></trkpt><trkpt lat="43.8978797" lon="11.2271944"><ele>364.57142857142856</ele><time>2026-03-28T10:25:51.464Z</time></trkpt><trkpt lat="43.8979193" lon="11.2271144"><ele>361.8571428571429</ele><time>2026-03-28T10:25:53.46Z</time></trkpt><trkpt lat="43.8979602" lon="11.2270429"><ele>359.1428571428571</ele><time>2026-03-28T10:25:55.45Z</time></trkpt><trkpt lat="43.8980085" lon="11.2269825"><ele>356.42857142857144</ele><time>2026-03-28T10:25:57.46Z</time></trkpt><trkpt lat="43.8980745" lon="11.226923"><ele>353.7142857142857</ele><time>2026-03-28T10:26:00.463Z</time></trkpt><trkpt lat="43.8981524" lon="11.2268788"><ele>351.0</ele><time>2026-03-28T10:26:03.462Z</time></trkpt><trkpt lat="43.8982295" lon="11.2268453"><ele>351.0</ele><time>2026-03-28T10:26:06.482Z</time></trkpt><trkpt lat="43.8983047" lon="11.2268034"><ele>351.0</ele><time>2026-03-28T10:26:09.461Z</time></trkpt><trkpt lat="43.8983817" lon="11.2267632"><ele>351.0</ele><time>2026-03-28T10:26:12.472Z</time></trkpt><trkpt lat="43.8984717" lon="11.2267381"><ele>351.0</ele><time>2026-03-28T10:26:15.467Z</time></trkpt><trkpt lat="43.8985371" lon="11.2267147"><ele>351.0</ele><time>2026-03-28T10:26:17.464Z</time></trkpt><trkpt lat="43.8985994" lon="11.2266831"><ele>351.0</ele><time>2026-03-28T10:26:19.468Z</time></trkpt><trkpt lat="43.8986486" lon="11.2266194"><ele>347.6666666666667</ele><time>2026-03-28T10:26:22.461Z</time></trkpt><trkpt lat="43.898716" lon="11.2265685"><ele>344.3333333333333</ele><time>2026-03-28T10:26:25.466Z</time></trkpt><trkpt lat="43.8987786" lon="11.2264947"><ele>341.0</ele><time>2026-03-28T10:26:28.462Z</time></trkpt><trkpt lat="43.8988253" lon="11.2263869"><ele>337.66666666666663</ele><time>2026-03-28T10:26:31.464Z</time></trkpt><trkpt lat="43.8988721" lon="11.2262763"><ele>334.3333333333333</ele><time>2026-03-28T10:26:33.46Z</time></trkpt><trkpt lat="43.8989237" lon="11.2261734"><ele>331.0</ele><time>2026-03-28T10:26:35.461Z</time></trkpt><trkpt lat="43.8989859" lon="11.2261098"><ele>331.0</ele><time>2026-03-28T10:26:37.469Z</time></trkpt><trkpt lat="43.8990458" lon="11.2260662"><ele>331.0</ele><time>2026-03-28T10:26:39.464Z</time></trkpt><trkpt lat="43.8991113" lon="11.2260363"><ele>331.0</ele><time>2026-03-28T10:26:41.472Z</time></trkpt><trkpt lat="43.8991771" lon="11.2260144"><ele>331.0</ele><time>2026-03-28T10:26:43.461Z</time></trkpt><trkpt lat="43.8992581" lon="11.2260014"><ele>331.0</ele><time>2026-03-28T10:26:46.449Z</time></trkpt><trkpt lat="43.8993303" lon="11.2259818"><ele>331.0</ele><time>2026-03-28T10:26:49.457Z</time></trkpt><trkpt lat="43.8993991" lon="11.2259565"><ele>331.0</ele><time>2026-03-28T10:26:52.467Z</time></trkpt><trkpt lat="43.8994493" lon="11.2258693"><ele>326.8333333333333</ele><time>2026-03-28T10:26:55.46Z</time></trkpt><trkpt lat="43.8994966" lon="11.2257653"><ele>322.66666666666663</ele><time>2026-03-28T10:26:58.481Z</time></trkpt><trkpt lat="43.8995543" lon="11.2256895"><ele>318.5</ele><time>2026-03-28T10:27:02.451Z</time></trkpt><trkpt lat="43.8996041" lon="11.2256124"><ele>314.3333333333333</ele><time>2026-03-28T10:27:05.473Z</time></trkpt><trkpt lat="43.8995826" lon="11.2254948"><ele>310.1666666666667</ele><time>2026-03-28T10:27:08.479Z</time></trkpt><trkpt lat="43.8995371" lon="11.2254177"><ele>306.0</ele><time>2026-03-28T10:27:10.47Z</time></trkpt><trkpt lat="43.8994685" lon="11.2253233"><ele>305.5</ele><time>2026-03-28T10:27:13.462Z</time></trkpt><trkpt lat="43.89942" lon="11.2252389"><ele>305.0</ele><time>2026-03-28T10:27:15.459Z</time></trkpt><trkpt lat="43.8994337" lon="11.2251294"><ele>304.5</ele><time>2026-03-28T10:27:17.478Z</time></trkpt><trkpt lat="43.8994518" lon="11.2250247"><ele>304.0</ele><time>2026-03-28T10:27:19.449Z</time></trkpt><trkpt lat="43.8994697" lon="11.224917"><ele>303.5</ele><time>2026-03-28T10:27:21.467Z</time></trkpt><trkpt lat="43.8994984" lon="11.2248098"><ele>303.0</ele><time>2026-03-28T10:27:23.466Z</time></trkpt><trkpt lat="43.8995332" lon="11.2247198"><ele>301.57142857142856</ele><time>2026-03-28T10:27:25.47Z</time></trkpt><trkpt lat="43.8995729" lon="11.2246142"><ele>300.1428571428571</ele><time>2026-03-28T10:27:27.451Z</time></trkpt><trkpt lat="43.8995922" lon="11.2245157"><ele>298.71428571428567</ele><time>2026-03-28T10:27:29.475Z</time></trkpt><trkpt lat="43.8995987" lon="11.2244173"><ele>297.2857142857143</ele><time>2026-03-28T10:27:31.464Z</time></trkpt><trkpt lat="43.8995974" lon="11.2243225"><ele>295.85714285714283</ele><time>2026-03-28T10:27:33.467Z</time></trkpt><trkpt lat="43.8995846" lon="11.2242331"><ele>294.4285714285714</ele><time>2026-03-28T10:27:35.471Z</time></trkpt><trkpt lat="43.8995654" lon="11.2241465"><ele>293.0</ele><time>2026-03-28T10:27:37.462Z</time></trkpt><trkpt lat="43.8995517" lon="11.2240281"><ele>293.1666666666667</ele><time>2026-03-28T10:27:40.463Z</time></trkpt><trkpt lat="43.8995309" lon="11.2239329"><ele>293.33333333333337</ele><time>2026-03-28T10:27:43.467Z</time></trkpt><trkpt lat="43.8995375" lon="11.2238065"><ele>293.5</ele><time>2026-03-28T10:27:46.467Z</time></trkpt><trkpt lat="43.8995564" lon="11.2237138"><ele>293.6666666666667</ele><time>2026-03-28T10:27:48.46Z</time></trkpt><trkpt lat="43.8995952" lon="11.2236071"><ele>293.8333333333333</ele><time>2026-03-28T10:27:51.463Z</time></trkpt><trkpt lat="43.8996346" lon="11.2235355"><ele>294.0</ele><time>2026-03-28T10:27:53.463Z</time></trkpt><trkpt lat="43.8996809" lon="11.223436"><ele>294.0</ele><time>2026-03-28T10:27:56.466Z</time></trkpt><trkpt lat="43.8997245" lon="11.2233425"><ele>294.0</ele><time>2026-03-28T10:28:00.468Z</time></trkpt><trkpt lat="43.8997997" lon="11.2233005"><ele>294.0</ele><time>2026-03-28T10:28:03.468Z</time></trkpt><trkpt lat="43.8998744" lon="11.2232719"><ele>294.0</ele><time>2026-03-28T10:28:06.479Z</time></trkpt><trkpt lat="43.8999344" lon="11.2232383"><ele>294.0</ele><time>2026-03-28T10:28:09.458Z</time></trkpt><trkpt lat="43.8999984" lon="11.2232164"><ele>294.0</ele><time>2026-03-28T10:28:13.463Z</time></trkpt><trkpt lat="43.9000624" lon="11.2231988"><ele>294.0</ele><time>2026-03-28T10:28:16.465Z</time></trkpt><trkpt lat="43.9001236" lon="11.2231511"><ele>290.8333333333333</ele><time>2026-03-28T10:28:19.46Z</time></trkpt><trkpt lat="43.9001735" lon="11.2230838"><ele>287.6666666666667</ele><time>2026-03-28T10:28:21.468Z</time></trkpt><trkpt lat="43.9002164" lon="11.2230146"><ele>284.5</ele><time>2026-03-28T10:28:23.46Z</time></trkpt><trkpt lat="43.900296" lon="11.2229052"><ele>281.33333333333337</ele><time>2026-03-28T10:30:02.471Z</time></trkpt><trkpt lat="43.9003397" lon="11.2228362"><ele>278.1666666666667</ele><time>2026-03-28T10:30:06.471Z</time></trkpt><trkpt lat="43.9003758" lon="11.2227638"><ele>275.0</ele><time>2026-03-28T10:30:08.469Z</time></trkpt><trkpt lat="43.9004332" lon="11.2226399"><ele>275.0</ele><time>2026-03-28T10:30:10.469Z</time></trkpt><trkpt lat="43.9004825" lon="11.2225141"><ele>275.0</ele><time>2026-03-28T10:30:12.467Z</time></trkpt><trkpt lat="43.9005288" lon="11.222393"><ele>275.0</ele><time>2026-03-28T10:30:14.462Z</time></trkpt><trkpt lat="43.9006012" lon="11.2223392"><ele>275.0</ele><time>2026-03-28T10:30:16.463Z</time></trkpt><trkpt lat="43.9006991" lon="11.2223462"><ele>275.0</ele><time>2026-03-28T10:30:18.461Z</time></trkpt><trkpt lat="43.9008011" lon="11.2223686"><ele>275.0</ele><time>2026-03-28T10:30:20.466Z</time></trkpt><trkpt lat="43.9008987" lon="11.2223161"><ele>275.0</ele><time>2026-03-28T10:30:22.467Z</time></trkpt><trkpt lat="43.9009635" lon="11.2222252"><ele>275.0</ele><time>2026-03-28T10:30:24.465Z</time></trkpt><trkpt lat="43.9010045" lon="11.2221319"><ele>275.0</ele><time>2026-03-28T10:30:26.477Z</time></trkpt><trkpt lat="43.9010536" lon="11.2220319"><ele>275.0</ele><time>2026-03-28T10:30:29.464Z</time></trkpt><trkpt lat="43.9011104" lon="11.2219578"><ele>275.0</ele><time>2026-03-28T10:30:32.472Z</time></trkpt><trkpt lat="43.901163" lon="11.2218799"><ele>276.0</ele><time>2026-03-28T10:30:35.465Z</time></trkpt><trkpt lat="43.9012257" lon="11.2218083"><ele>277.0</ele><time>2026-03-28T10:30:38.465Z</time></trkpt><trkpt lat="43.901283" lon="11.2217537"><ele>278.0</ele><time>2026-03-28T10:30:41.466Z</time></trkpt><trkpt lat="43.9013467" lon="11.221731"><ele>279.0</ele><time>2026-03-28T10:30:44.464Z</time></trkpt><trkpt lat="43.901415" lon="11.2217357"><ele>280.0</ele><time>2026-03-28T10:30:47.466Z</time></trkpt><trkpt lat="43.9015022" lon="11.2217463"><ele>281.0</ele><time>2026-03-28T10:30:51.467Z</time></trkpt><trkpt lat="43.9015901" lon="11.2217682"><ele>281.0</ele><time>2026-03-28T10:30:54.465Z</time></trkpt><trkpt lat="43.901659" lon="11.2217873"><ele>281.0</ele><time>2026-03-28T10:30:56.467Z</time></trkpt><trkpt lat="43.9017335" lon="11.2218009"><ele>281.0</ele><time>2026-03-28T10:30:58.461Z</time></trkpt><trkpt lat="43.9018262" lon="11.2218399"><ele>281.0</ele><time>2026-03-28T10:31:00.47Z</time></trkpt><trkpt lat="43.9019173" lon="11.2218947"><ele>281.0</ele><time>2026-03-28T10:31:02.458Z</time></trkpt><trkpt lat="43.9020009" lon="11.2219451"><ele>281.0</ele><time>2026-03-28T10:31:04.468Z</time></trkpt><trkpt lat="43.9020746" lon="11.2220009"><ele>280.33333333333337</ele><time>2026-03-28T10:31:06.467Z</time></trkpt><trkpt lat="43.9021452" lon="11.2220435"><ele>279.6666666666667</ele><time>2026-03-28T10:31:08.464Z</time></trkpt><trkpt lat="43.9022335" lon="11.2220583"><ele>279.0</ele><time>2026-03-28T10:31:10.462Z</time></trkpt><trkpt lat="43.9023201" lon="11.2220541"><ele>278.3333333333333</ele><time>2026-03-28T10:31:12.477Z</time></trkpt><trkpt lat="43.9024109" lon="11.2220359"><ele>277.66666666666663</ele><time>2026-03-28T10:31:14.46Z</time></trkpt><trkpt lat="43.9025038" lon="11.22202"><ele>277.0</ele><time>2026-03-28T10:31:16.464Z</time></trkpt><trkpt lat="43.9025955" lon="11.2220093"><ele>274.5</ele><time>2026-03-28T10:31:18.468Z</time></trkpt><trkpt lat="43.9026897" lon="11.2220031"><ele>272.0</ele><time>2026-03-28T10:31:20.466Z</time></trkpt><trkpt lat="43.9027633" lon="11.2219926"><ele>269.5</ele><time>2026-03-28T10:31:22.461Z</time></trkpt><trkpt lat="43.9028345" lon="11.2219937"><ele>267.0</ele><time>2026-03-28T10:31:24.464Z</time></trkpt><trkpt lat="43.9029175" lon="11.2220052"><ele>264.5</ele><time>2026-03-28T10:31:26.468Z</time></trkpt><trkpt lat="43.9030179" lon="11.222023"><ele>262.0</ele><time>2026-03-28T10:31:28.461Z</time></trkpt><trkpt lat="43.9031256" lon="11.2220668"><ele>262.0</ele><time>2026-03-28T10:31:30.464Z</time></trkpt><trkpt lat="43.903233" lon="11.2221044"><ele>262.0</ele><time>2026-03-28T10:31:32.464Z</time></trkpt><trkpt lat="43.9033357" lon="11.2221491"><ele>262.0</ele><time>2026-03-28T10:31:34.484Z</time></trkpt><trkpt lat="43.9034378" lon="11.2221907"><ele>262.0</ele><time>2026-03-28T10:31:36.466Z</time></trkpt><trkpt lat="43.9035448" lon="11.2222247"><ele>262.0</ele><time>2026-03-28T10:31:38.468Z</time></trkpt><trkpt lat="43.9036346" lon="11.2222527"><ele>261.16666666666663</ele><time>2026-03-28T10:31:40.471Z</time></trkpt><trkpt lat="43.9037322" lon="11.2222762"><ele>260.3333333333333</ele><time>2026-03-28T10:31:42.464Z</time></trkpt><trkpt lat="43.9038269" lon="11.2223099"><ele>259.5</ele><time>2026-03-28T10:31:44.464Z</time></trkpt><trkpt lat="43.9039118" lon="11.2223606"><ele>258.6666666666667</ele><time>2026-03-28T10:31:46.467Z</time></trkpt><trkpt lat="43.903985" lon="11.2224069"><ele>257.83333333333337</ele><time>2026-03-28T10:31:48.466Z</time></trkpt><trkpt lat="43.904046" lon="11.2224496"><ele>257.0</ele><time>2026-03-28T10:31:50.466Z</time></trkpt><trkpt lat="43.9041361" lon="11.2224547"><ele>257.0</ele><time>2026-03-28T10:31:53.466Z</time></trkpt><trkpt lat="43.9042113" lon="11.2223934"><ele>257.0</ele><time>2026-03-28T10:31:56.456Z</time></trkpt><trkpt lat="43.9042653" lon="11.2222981"><ele>257.0</ele><time>2026-03-28T10:31:58.474Z</time></trkpt><trkpt lat="43.9043238" lon="11.2222058"><ele>257.0</ele><time>2026-03-28T10:32:00.471Z</time></trkpt><trkpt lat="43.904397" lon="11.2221358"><ele>257.0</ele><time>2026-03-28T10:32:02.472Z</time></trkpt><trkpt lat="43.9044876" lon="11.2220882"><ele>257.0</ele><time>2026-03-28T10:32:04.459Z</time></trkpt><trkpt lat="43.9045837" lon="11.2220448"><ele>256.4</ele><time>2026-03-28T10:32:06.471Z</time></trkpt><trkpt lat="43.9046737" lon="11.2220055"><ele>255.79999999999998</ele><time>2026-03-28T10:32:08.455Z</time></trkpt><trkpt lat="43.9047608" lon="11.2219689"><ele>255.2</ele><time>2026-03-28T10:32:10.464Z</time></trkpt><trkpt lat="43.9048466" lon="11.2219374"><ele>254.6</ele><time>2026-03-28T10:32:12.462Z</time></trkpt><trkpt lat="43.9049262" lon="11.2218993"><ele>254.0</ele><time>2026-03-28T10:32:14.459Z</time></trkpt><trkpt lat="43.9050199" lon="11.2218868"><ele>252.33333333333334</ele><time>2026-03-28T10:32:16.467Z</time></trkpt><trkpt lat="43.9051052" lon="11.2218729"><ele>250.66666666666669</ele><time>2026-03-28T10:32:18.46Z</time></trkpt><trkpt lat="43.9051683" lon="11.2218328"><ele>249.0</ele><time>2026-03-28T10:32:20.465Z</time></trkpt><trkpt lat="43.905239" lon="11.2217919"><ele>247.33333333333331</ele><time>2026-03-28T10:32:22.458Z</time></trkpt><trkpt lat="43.9053245" lon="11.221757"><ele>245.66666666666666</ele><time>2026-03-28T10:32:24.447Z</time></trkpt><trkpt lat="43.9054088" lon="11.2217361"><ele>244.0</ele><time>2026-03-28T10:32:26.465Z</time></trkpt><trkpt lat="43.905502" lon="11.2217057"><ele>243.99999999999997</ele><time>2026-03-28T10:32:28.462Z</time></trkpt><trkpt lat="43.9055619" lon="11.2216589"><ele>244.0</ele><time>2026-03-28T10:32:30.464Z</time></trkpt><trkpt lat="43.9056286" lon="11.2216184"><ele>243.99999999999997</ele><time>2026-03-28T10:32:32.458Z</time></trkpt><trkpt lat="43.905715" lon="11.2215956"><ele>243.99999999999997</ele><time>2026-03-28T10:32:35.463Z</time></trkpt><trkpt lat="43.9057898" lon="11.2215959"><ele>244.0</ele><time>2026-03-28T10:32:38.47Z</time></trkpt><trkpt lat="43.9058557" lon="11.2216025"><ele>243.99999999999997</ele><time>2026-03-28T10:32:40.464Z</time></trkpt><trkpt lat="43.9059208" lon="11.2216283"><ele>243.99999999999997</ele><time>2026-03-28T10:32:42.461Z</time></trkpt><trkpt lat="43.9059839" lon="11.2216676"><ele>240.99999999999997</ele><time>2026-03-28T10:32:45.464Z</time></trkpt><trkpt lat="43.906053" lon="11.2216408"><ele>238.0</ele><time>2026-03-28T10:32:48.459Z</time></trkpt><trkpt lat="43.9060851" lon="11.2215648"><ele>235.0</ele><time>2026-03-28T10:32:50.476Z</time></trkpt><trkpt lat="43.9061416" lon="11.2214699"><ele>232.0</ele><time>2026-03-28T10:32:52.467Z</time></trkpt><trkpt lat="43.9061508" lon="11.2213818"><ele>229.0</ele><time>2026-03-28T10:32:54.473Z</time></trkpt><trkpt lat="43.906121" lon="11.2212971"><ele>226.0</ele><time>2026-03-28T10:32:56.48Z</time></trkpt><trkpt lat="43.9060818" lon="11.2212213"><ele>223.0</ele><time>2026-03-28T10:32:58.474Z</time></trkpt><trkpt lat="43.9060226" lon="11.221156"><ele>222.4</ele><time>2026-03-28T10:33:00.469Z</time></trkpt><trkpt lat="43.9059546" lon="11.2210932"><ele>221.8</ele><time>2026-03-28T10:33:02.47Z</time></trkpt><trkpt lat="43.9058668" lon="11.2210284"><ele>221.2</ele><time>2026-03-28T10:33:04.472Z</time></trkpt><trkpt lat="43.9057847" lon="11.2209431"><ele>220.6</ele><time>2026-03-28T10:33:06.467Z</time></trkpt><trkpt lat="43.9057153" lon="11.2208684"><ele>220.0</ele><time>2026-03-28T10:33:08.476Z</time></trkpt><trkpt lat="43.9056462" lon="11.2207933"><ele>219.85714285714283</ele><time>2026-03-28T10:33:10.471Z</time></trkpt><trkpt lat="43.9055806" lon="11.2207253"><ele>219.71428571428572</ele><time>2026-03-28T10:33:12.46Z</time></trkpt><trkpt lat="43.9055246" lon="11.2206562"><ele>219.57142857142856</ele><time>2026-03-28T10:33:14.48Z</time></trkpt><trkpt lat="43.905484" lon="11.2205864"><ele>219.42857142857142</ele><time>2026-03-28T10:33:16.477Z</time></trkpt><trkpt lat="43.9054334" lon="11.2205211"><ele>219.28571428571428</ele><time>2026-03-28T10:33:18.468Z</time></trkpt><trkpt lat="43.905383" lon="11.2204484"><ele>219.14285714285714</ele><time>2026-03-28T10:33:20.467Z</time></trkpt><trkpt lat="43.9053341" lon="11.2203925"><ele>219.0</ele><time>2026-03-28T10:33:22.469Z</time></trkpt><trkpt lat="43.9052843" lon="11.2203374"><ele>219.0</ele><time>2026-03-28T10:33:24.468Z</time></trkpt><trkpt lat="43.9052242" lon="11.2202818"><ele>219.0</ele><time>2026-03-28T10:33:26.442Z</time></trkpt><trkpt lat="43.9051825" lon="11.2202158"><ele>219.0</ele><time>2026-03-28T10:33:28.46Z</time></trkpt><trkpt lat="43.90521" lon="11.2201271"><ele>219.0</ele><time>2026-03-28T10:33:31.465Z</time></trkpt><trkpt lat="43.9052743" lon="11.2201343"><ele>219.0</ele><time>2026-03-28T10:33:33.473Z</time></trkpt><trkpt lat="43.905361" lon="11.220153"><ele>219.0</ele><time>2026-03-28T10:33:35.462Z</time></trkpt><trkpt lat="43.9054516" lon="11.2201532"><ele>219.0</ele><time>2026-03-28T10:33:38.456Z</time></trkpt><trkpt lat="43.9055369" lon="11.2201582"><ele>219.0</ele><time>2026-03-28T10:33:41.457Z</time></trkpt><trkpt lat="43.9056205" lon="11.2201416"><ele>219.0</ele><time>2026-03-28T10:33:44.457Z</time></trkpt><trkpt lat="43.905692" lon="11.2201244"><ele>219.0</ele><time>2026-03-28T10:33:46.458Z</time></trkpt><trkpt lat="43.9057576" lon="11.2201099"><ele>219.0</ele><time>2026-03-28T10:33:48.463Z</time></trkpt><trkpt lat="43.9058322" lon="11.2200798"><ele>219.0</ele><time>2026-03-28T10:33:50.459Z</time></trkpt><trkpt lat="43.9059188" lon="11.2200251"><ele>219.0</ele><time>2026-03-28T10:33:52.457Z</time></trkpt><trkpt lat="43.906019" lon="11.2199671"><ele>216.79999999999998</ele><time>2026-03-28T10:33:54.465Z</time></trkpt><trkpt lat="43.9061142" lon="11.2198974"><ele>214.59999999999997</ele><time>2026-03-28T10:33:56.466Z</time></trkpt><trkpt lat="43.906206" lon="11.2198114"><ele>212.4</ele><time>2026-03-28T10:33:58.458Z</time></trkpt><trkpt lat="43.9063073" lon="11.2197433"><ele>210.2</ele><time>2026-03-28T10:34:00.459Z</time></trkpt><trkpt lat="43.9064043" lon="11.219677"><ele>208.0</ele><time>2026-03-28T10:34:02.459Z</time></trkpt><trkpt lat="43.9065008" lon="11.2196086"><ele>206.8</ele><time>2026-03-28T10:34:04.463Z</time></trkpt><trkpt lat="43.9066042" lon="11.2195636"><ele>205.60000000000002</ele><time>2026-03-28T10:34:06.463Z</time></trkpt><trkpt lat="43.9067075" lon="11.219534"><ele>204.39999999999998</ele><time>2026-03-28T10:34:08.465Z</time></trkpt><trkpt lat="43.906803" lon="11.2195309"><ele>203.2</ele><time>2026-03-28T10:34:10.46Z</time></trkpt><trkpt lat="43.9069045" lon="11.2195542"><ele>202.0</ele><time>2026-03-28T10:34:12.465Z</time></trkpt><trkpt lat="43.9069999" lon="11.2195611"><ele>199.16666666666666</ele><time>2026-03-28T10:34:14.465Z</time></trkpt><trkpt lat="43.9070881" lon="11.2195742"><ele>196.33333333333331</ele><time>2026-03-28T10:34:16.465Z</time></trkpt><trkpt lat="43.9071597" lon="11.21958"><ele>193.5</ele><time>2026-03-28T10:34:18.46Z</time></trkpt><trkpt lat="43.9072389" lon="11.2195889"><ele>190.66666666666666</ele><time>2026-03-28T10:34:20.474Z</time></trkpt><trkpt lat="43.9073378" lon="11.2196002"><ele>187.83333333333331</ele><time>2026-03-28T10:34:22.466Z</time></trkpt><trkpt lat="43.9074174" lon="11.2196076"><ele>185.0</ele><time>2026-03-28T10:34:24.467Z</time></trkpt><trkpt lat="43.9074912" lon="11.2195919"><ele>185.0</ele><time>2026-03-28T10:34:26.456Z</time></trkpt><trkpt lat="43.907567" lon="11.2195827"><ele>185.0</ele><time>2026-03-28T10:34:28.465Z</time></trkpt><trkpt lat="43.9076345" lon="11.2195363"><ele>185.0</ele><time>2026-03-28T10:34:30.463Z</time></trkpt><trkpt lat="43.9077111" lon="11.2194624"><ele>185.0</ele><time>2026-03-28T10:34:32.469Z</time></trkpt><trkpt lat="43.9077577" lon="11.2193878"><ele>185.0</ele><time>2026-03-28T10:34:34.474Z</time></trkpt><trkpt lat="43.9078109" lon="11.2193081"><ele>185.0</ele><time>2026-03-28T10:34:36.461Z</time></trkpt><trkpt lat="43.9078801" lon="11.2192073"><ele>183.66666666666666</ele><time>2026-03-28T10:34:38.474Z</time></trkpt><trkpt lat="43.9079566" lon="11.2191217"><ele>182.33333333333331</ele><time>2026-03-28T10:34:40.47Z</time></trkpt><trkpt lat="43.9080435" lon="11.219051"><ele>181.0</ele><time>2026-03-28T10:34:42.463Z</time></trkpt><trkpt lat="43.9081171" lon="11.2189838"><ele>179.66666666666666</ele><time>2026-03-28T10:34:44.467Z</time></trkpt><trkpt lat="43.9081823" lon="11.2189228"><ele>178.33333333333334</ele><time>2026-03-28T10:34:46.453Z</time></trkpt><trkpt lat="43.9082348" lon="11.2188644"><ele>177.0</ele><time>2026-03-28T10:34:48.458Z</time></trkpt><trkpt lat="43.9082863" lon="11.2188084"><ele>177.0</ele><time>2026-03-28T10:34:50.463Z</time></trkpt><trkpt lat="43.9083591" lon="11.2187358"><ele>177.0</ele><time>2026-03-28T10:34:53.451Z</time></trkpt><trkpt lat="43.9084139" lon="11.2186833"><ele>177.0</ele><time>2026-03-28T10:34:55.451Z</time></trkpt><trkpt lat="43.908475" lon="11.2186125"><ele>177.0</ele><time>2026-03-28T10:34:58.451Z</time></trkpt><trkpt lat="43.9085523" lon="11.2185402"><ele>177.0</ele><time>2026-03-28T10:35:01.466Z</time></trkpt><trkpt lat="43.9086278" lon="11.218464"><ele>177.0</ele><time>2026-03-28T10:35:04.468Z</time></trkpt><trkpt lat="43.9087007" lon="11.2183949"><ele>177.0</ele><time>2026-03-28T10:35:07.468Z</time></trkpt><trkpt lat="43.908775" lon="11.2183246"><ele>177.0</ele><time>2026-03-28T10:35:10.466Z</time></trkpt><trkpt lat="43.9088437" lon="11.2182612"><ele>177.0</ele><time>2026-03-28T10:35:13.471Z</time></trkpt><trkpt lat="43.908908" lon="11.2182103"><ele>177.0</ele><time>2026-03-28T10:35:17.459Z</time></trkpt><trkpt lat="43.9089742" lon="11.2181986"><ele>177.0</ele><time>2026-03-28T10:40:54.451Z</time></trkpt><trkpt lat="43.9090165" lon="11.2181187"><ele>177.0</ele><time>2026-03-28T10:50:12.545Z</time></trkpt><trkpt lat="43.9090822" lon="11.2180552"><ele>176.83333333333334</ele><time>2026-03-28T10:50:15.558Z</time></trkpt><trkpt lat="43.9091422" lon="11.2180103"><ele>176.66666666666666</ele><time>2026-03-28T10:50:18.575Z</time></trkpt><trkpt lat="43.9091982" lon="11.2179532"><ele>176.5</ele><time>2026-03-28T10:50:22.564Z</time></trkpt><trkpt lat="43.9092524" lon="11.2178898"><ele>176.33333333333331</ele><time>2026-03-28T10:50:26.573Z</time></trkpt><trkpt lat="43.9093403" lon="11.2178281"><ele>176.16666666666666</ele><time>2026-03-28T10:50:31.566Z</time></trkpt><trkpt lat="43.909392" lon="11.217764"><ele>176.0</ele><time>2026-03-28T10:50:34.574Z</time></trkpt><trkpt lat="43.9094316" lon="11.2176705"><ele>176.33333333333331</ele><time>2026-03-28T10:50:37.571Z</time></trkpt><trkpt lat="43.9094258" lon="11.2175819"><ele>176.66666666666666</ele><time>2026-03-28T10:50:39.563Z</time></trkpt><trkpt lat="43.9094017" lon="11.2174951"><ele>177.0</ele><time>2026-03-28T10:50:41.571Z</time></trkpt><trkpt lat="43.90935" lon="11.217405"><ele>177.33333333333334</ele><time>2026-03-28T10:50:43.569Z</time></trkpt><trkpt lat="43.9092536" lon="11.2172841"><ele>177.66666666666669</ele><time>2026-03-28T10:50:46.569Z</time></trkpt><trkpt lat="43.9091867" lon="11.2172032"><ele>178.0</ele><time>2026-03-28T10:50:48.57Z</time></trkpt><trkpt lat="43.9091122" lon="11.2171265"><ele>178.0</ele><time>2026-03-28T10:50:50.58Z</time></trkpt><trkpt lat="43.9090425" lon="11.2170481"><ele>178.0</ele><time>2026-03-28T10:50:52.578Z</time></trkpt><trkpt lat="43.9089745" lon="11.2169668"><ele>178.0</ele><time>2026-03-28T10:50:54.574Z</time></trkpt><trkpt lat="43.9089042" lon="11.2168818"><ele>178.0</ele><time>2026-03-28T10:50:56.575Z</time></trkpt><trkpt lat="43.9088294" lon="11.2168057"><ele>178.0</ele><time>2026-03-28T10:50:58.569Z</time></trkpt><trkpt lat="43.9087569" lon="11.2167276"><ele>178.0</ele><time>2026-03-28T10:51:00.572Z</time></trkpt><trkpt lat="43.9086863" lon="11.2166508"><ele>178.0</ele><time>2026-03-28T10:51:02.578Z</time></trkpt><trkpt lat="43.9086143" lon="11.216571"><ele>178.0</ele><time>2026-03-28T10:51:04.574Z</time></trkpt><trkpt lat="43.9085322" lon="11.2164719"><ele>178.0</ele><time>2026-03-28T10:51:06.572Z</time></trkpt><trkpt lat="43.9084385" lon="11.21636"><ele>178.0</ele><time>2026-03-28T10:51:08.581Z</time></trkpt><trkpt lat="43.9083353" lon="11.216256"><ele>178.16666666666669</ele><time>2026-03-28T10:51:10.574Z</time></trkpt><trkpt lat="43.9082824" lon="11.2162014"><ele>178.33333333333334</ele><time>2026-03-28T10:51:11.579Z</time></trkpt><trkpt lat="43.9082303" lon="11.2161493"><ele>178.5</ele><time>2026-03-28T10:51:12.58Z</time></trkpt><trkpt lat="43.9081764" lon="11.2160992"><ele>178.66666666666666</ele><time>2026-03-28T10:51:13.553Z</time></trkpt><trkpt lat="43.9081205" lon="11.2160528"><ele>178.83333333333331</ele><time>2026-03-28T10:51:14.657Z</time></trkpt><trkpt lat="43.9079643" lon="11.2159182"><ele>179.0</ele><time>2026-03-28T10:51:17.574Z</time></trkpt><trkpt lat="43.9078648" lon="11.2158303"><ele>179.0</ele><time>2026-03-28T10:51:19.58Z</time></trkpt><trkpt lat="43.907768" lon="11.2157488"><ele>179.0</ele><time>2026-03-28T10:51:21.559Z</time></trkpt><trkpt lat="43.9076731" lon="11.2156677"><ele>179.0</ele><time>2026-03-28T10:51:23.571Z</time></trkpt><trkpt lat="43.9075453" lon="11.2155483"><ele>179.0</ele><time>2026-03-28T10:51:26.566Z</time></trkpt><trkpt lat="43.9074626" lon="11.215478"><ele>178.66666666666666</ele><time>2026-03-28T10:51:28.572Z</time></trkpt><trkpt lat="43.9073769" lon="11.2153919"><ele>178.33333333333331</ele><time>2026-03-28T10:51:30.57Z</time></trkpt><trkpt lat="43.9072866" lon="11.2152859"><ele>178.0</ele><time>2026-03-28T10:51:32.58Z</time></trkpt><trkpt lat="43.9072345" lon="11.2152261"><ele>177.66666666666666</ele><time>2026-03-28T10:51:33.561Z</time></trkpt><trkpt lat="43.9071838" lon="11.2151563"><ele>177.33333333333334</ele><time>2026-03-28T10:51:34.567Z</time></trkpt><trkpt lat="43.9071376" lon="11.2150723"><ele>177.0</ele><time>2026-03-28T10:51:35.57Z</time></trkpt><trkpt lat="43.9070942" lon="11.2149783"><ele>177.0</ele><time>2026-03-28T10:51:36.572Z</time></trkpt><trkpt lat="43.9070556" lon="11.2148771"><ele>177.0</ele><time>2026-03-28T10:51:37.572Z</time></trkpt><trkpt lat="43.9070227" lon="11.2147778"><ele>177.0</ele><time>2026-03-28T10:51:38.573Z</time></trkpt><trkpt lat="43.9069906" lon="11.2146787"><ele>177.0</ele><time>2026-03-28T10:51:39.585Z</time></trkpt><trkpt lat="43.9069613" lon="11.2145855"><ele>177.0</ele><time>2026-03-28T10:51:40.678Z</time></trkpt><trkpt lat="43.9069346" lon="11.2144858"><ele>177.0</ele><time>2026-03-28T10:51:41.578Z</time></trkpt><trkpt lat="43.9069091" lon="11.2143875"><ele>176.16666666666666</ele><time>2026-03-28T10:51:42.583Z</time></trkpt><trkpt lat="43.9068802" lon="11.2142865"><ele>175.33333333333334</ele><time>2026-03-28T10:51:43.576Z</time></trkpt><trkpt lat="43.9068546" lon="11.2141845"><ele>174.5</ele><time>2026-03-28T10:51:44.571Z</time></trkpt><trkpt lat="43.9068238" lon="11.2140822"><ele>173.66666666666669</ele><time>2026-03-28T10:51:45.578Z</time></trkpt><trkpt lat="43.9067923" lon="11.2139822"><ele>172.83333333333334</ele><time>2026-03-28T10:51:46.549Z</time></trkpt><trkpt lat="43.9067608" lon="11.2138843"><ele>172.0</ele><time>2026-03-28T10:51:47.58Z</time></trkpt><trkpt lat="43.9067226" lon="11.2137913"><ele>172.0</ele><time>2026-03-28T10:51:48.557Z</time></trkpt><trkpt lat="43.9066892" lon="11.2136955"><ele>172.0</ele><time>2026-03-28T10:51:49.549Z</time></trkpt><trkpt lat="43.906655" lon="11.2136037"><ele>172.0</ele><time>2026-03-28T10:51:50.652Z</time></trkpt><trkpt lat="43.9066201" lon="11.2135107"><ele>172.0</ele><time>2026-03-28T10:51:51.559Z</time></trkpt><trkpt lat="43.906583" lon="11.2134208"><ele>172.0</ele><time>2026-03-28T10:51:52.561Z</time></trkpt><trkpt lat="43.9065488" lon="11.2133288"><ele>172.0</ele><time>2026-03-28T10:51:53.564Z</time></trkpt><trkpt lat="43.9065138" lon="11.2132384"><ele>173.0</ele><time>2026-03-28T10:51:54.685Z</time></trkpt><trkpt lat="43.906444" lon="11.21307"><ele>174.0</ele><time>2026-03-28T10:51:56.573Z</time></trkpt><trkpt lat="43.9064077" lon="11.2129895"><ele>175.0</ele><time>2026-03-28T10:51:57.572Z</time></trkpt><trkpt lat="43.9063732" lon="11.2129145"><ele>176.0</ele><time>2026-03-28T10:51:58.573Z</time></trkpt><trkpt lat="43.9062989" lon="11.2127892"><ele>177.0</ele><time>2026-03-28T10:52:00.677Z</time></trkpt><trkpt lat="43.9062217" lon="11.2126792"><ele>177.0</ele><time>2026-03-28T10:52:02.564Z</time></trkpt><trkpt lat="43.9061223" lon="11.2125876"><ele>177.0</ele><time>2026-03-28T10:52:04.574Z</time></trkpt><trkpt lat="43.9060078" lon="11.2125157"><ele>177.0</ele><time>2026-03-28T10:52:06.577Z</time></trkpt><trkpt lat="43.9059429" lon="11.2124886"><ele>177.0</ele><time>2026-03-28T10:52:07.553Z</time></trkpt><trkpt lat="43.9058779" lon="11.2124582"><ele>177.0</ele><time>2026-03-28T10:52:08.573Z</time></trkpt><trkpt lat="43.9058101" lon="11.2124297"><ele>175.33333333333334</ele><time>2026-03-28T10:52:09.549Z</time></trkpt><trkpt lat="43.9057428" lon="11.2124001"><ele>173.66666666666666</ele><time>2026-03-28T10:52:10.657Z</time></trkpt><trkpt lat="43.9056724" lon="11.2123749"><ele>172.0</ele><time>2026-03-28T10:52:11.56Z</time></trkpt><trkpt lat="43.9055985" lon="11.2123451"><ele>170.33333333333331</ele><time>2026-03-28T10:52:12.583Z</time></trkpt><trkpt lat="43.9055261" lon="11.2123192"><ele>168.66666666666666</ele><time>2026-03-28T10:52:13.579Z</time></trkpt><trkpt lat="43.9054495" lon="11.2122924"><ele>167.0</ele><time>2026-03-28T10:52:14.572Z</time></trkpt><trkpt lat="43.9053759" lon="11.2122618"><ele>167.0</ele><time>2026-03-28T10:52:15.57Z</time></trkpt><trkpt lat="43.9053096" lon="11.2122137"><ele>167.0</ele><time>2026-03-28T10:52:16.557Z</time></trkpt><trkpt lat="43.9052599" lon="11.2121365"><ele>167.0</ele><time>2026-03-28T10:52:17.575Z</time></trkpt><trkpt lat="43.9052265" lon="11.2120509"><ele>167.0</ele><time>2026-03-28T10:52:18.633Z</time></trkpt><trkpt lat="43.9051995" lon="11.2119527"><ele>167.0</ele><time>2026-03-28T10:52:19.577Z</time></trkpt><trkpt lat="43.9051765" lon="11.2118529"><ele>167.0</ele><time>2026-03-28T10:52:20.575Z</time></trkpt><trkpt lat="43.9051593" lon="11.2117492"><ele>167.0</ele><time>2026-03-28T10:52:21.577Z</time></trkpt><trkpt lat="43.9051489" lon="11.2116446"><ele>167.0</ele><time>2026-03-28T10:52:22.564Z</time></trkpt><trkpt lat="43.905146" lon="11.211541"><ele>167.0</ele><time>2026-03-28T10:52:23.571Z</time></trkpt><trkpt lat="43.9051489" lon="11.2114387"><ele>167.0</ele><time>2026-03-28T10:52:24.556Z</time></trkpt><trkpt lat="43.9051514" lon="11.2113443"><ele>167.0</ele><time>2026-03-28T10:52:25.579Z</time></trkpt><trkpt lat="43.9051538" lon="11.2112426"><ele>167.0</ele><time>2026-03-28T10:52:26.569Z</time></trkpt><trkpt lat="43.9051588" lon="11.2111445"><ele>167.0</ele><time>2026-03-28T10:52:27.572Z</time></trkpt><trkpt lat="43.90516" lon="11.2110537"><ele>167.0</ele><time>2026-03-28T10:52:28.673Z</time></trkpt><trkpt lat="43.905162" lon="11.2109647"><ele>168.39999999999998</ele><time>2026-03-28T10:52:29.676Z</time></trkpt><trkpt lat="43.9051689" lon="11.2107916"><ele>169.79999999999998</ele><time>2026-03-28T10:52:31.565Z</time></trkpt><trkpt lat="43.9051722" lon="11.2107018"><ele>171.2</ele><time>2026-03-28T10:52:32.574Z</time></trkpt><trkpt lat="43.9051766" lon="11.2105268"><ele>172.6</ele><time>2026-03-28T10:52:34.673Z</time></trkpt><trkpt lat="43.9051805" lon="11.2103639"><ele>174.0</ele><time>2026-03-28T10:52:36.574Z</time></trkpt><trkpt lat="43.9051736" lon="11.2101984"><ele>172.75</ele><time>2026-03-28T10:52:38.556Z</time></trkpt><trkpt lat="43.9051225" lon="11.2099773"><ele>171.5</ele><time>2026-03-28T10:52:41.565Z</time></trkpt><trkpt lat="43.9050603" lon="11.2098785"><ele>170.25</ele><time>2026-03-28T10:52:43.575Z</time></trkpt><trkpt lat="43.9049682" lon="11.2098141"><ele>169.0</ele><time>2026-03-28T10:52:45.57Z</time></trkpt><trkpt lat="43.9048562" lon="11.2097581"><ele>174.33333333333334</ele><time>2026-03-28T10:52:47.579Z</time></trkpt><trkpt lat="43.9047415" lon="11.2097177"><ele>179.66666666666669</ele><time>2026-03-28T10:52:49.589Z</time></trkpt><trkpt lat="43.9046254" lon="11.2096762"><ele>185.0</ele><time>2026-03-28T10:52:51.579Z</time></trkpt><trkpt lat="43.9045627" lon="11.2096544"><ele>190.33333333333334</ele><time>2026-03-28T10:52:52.574Z</time></trkpt><trkpt lat="43.9044903" lon="11.2096334"><ele>195.66666666666666</ele><time>2026-03-28T10:52:53.576Z</time></trkpt><trkpt lat="43.9044192" lon="11.2096154"><ele>201.0</ele><time>2026-03-28T10:52:54.573Z</time></trkpt><trkpt lat="43.9043456" lon="11.2095983"><ele>201.0</ele><time>2026-03-28T10:52:55.572Z</time></trkpt><trkpt lat="43.904264" lon="11.2095788"><ele>201.0</ele><time>2026-03-28T10:52:56.577Z</time></trkpt><trkpt lat="43.9041852" lon="11.2095555"><ele>201.0</ele><time>2026-03-28T10:52:57.578Z</time></trkpt><trkpt lat="43.9041049" lon="11.2095302"><ele>201.0</ele><time>2026-03-28T10:52:58.574Z</time></trkpt><trkpt lat="43.9040285" lon="11.2095023"><ele>201.0</ele><time>2026-03-28T10:52:59.569Z</time></trkpt><trkpt lat="43.9039477" lon="11.2094758"><ele>201.0</ele><time>2026-03-28T10:53:00.573Z</time></trkpt><trkpt lat="43.9038649" lon="11.2094377"><ele>195.60000000000002</ele><time>2026-03-28T10:53:01.578Z</time></trkpt><trkpt lat="43.9037841" lon="11.2094024"><ele>190.2</ele><time>2026-03-28T10:53:02.574Z</time></trkpt><trkpt lat="43.9037056" lon="11.2093671"><ele>184.8</ele><time>2026-03-28T10:53:03.571Z</time></trkpt><trkpt lat="43.903629" lon="11.2093327"><ele>179.39999999999998</ele><time>2026-03-28T10:53:04.693Z</time></trkpt><trkpt lat="43.9034743" lon="11.2092661"><ele>174.0</ele><time>2026-03-28T10:53:06.585Z</time></trkpt><trkpt lat="43.9034013" lon="11.2092313"><ele>172.66666666666666</ele><time>2026-03-28T10:53:07.58Z</time></trkpt><trkpt lat="43.903328" lon="11.2091914"><ele>171.33333333333334</ele><time>2026-03-28T10:53:08.58Z</time></trkpt><trkpt lat="43.9032603" lon="11.2091354"><ele>170.0</ele><time>2026-03-28T10:53:09.574Z</time></trkpt><trkpt lat="43.9031983" lon="11.2090711"><ele>168.66666666666669</ele><time>2026-03-28T10:53:10.561Z</time></trkpt><trkpt lat="43.9031474" lon="11.2089971"><ele>167.33333333333334</ele><time>2026-03-28T10:53:11.58Z</time></trkpt><trkpt lat="43.9031182" lon="11.2089044"><ele>166.0</ele><time>2026-03-28T10:53:12.575Z</time></trkpt><trkpt lat="43.9030997" lon="11.2088077"><ele>166.0</ele><time>2026-03-28T10:53:13.693Z</time></trkpt><trkpt lat="43.9030848" lon="11.2087197"><ele>166.0</ele><time>2026-03-28T10:53:14.697Z</time></trkpt><trkpt lat="43.9030719" lon="11.2086267"><ele>166.0</ele><time>2026-03-28T10:53:15.69Z</time></trkpt><trkpt lat="43.903045" lon="11.208443"><ele>166.0</ele><time>2026-03-28T10:53:17.574Z</time></trkpt><trkpt lat="43.9030307" lon="11.2083539"><ele>166.0</ele><time>2026-03-28T10:53:18.577Z</time></trkpt><trkpt lat="43.903014" lon="11.2082663"><ele>166.0</ele><time>2026-03-28T10:53:19.577Z</time></trkpt><trkpt lat="43.9029949" lon="11.2081737"><ele>169.28571428571428</ele><time>2026-03-28T10:53:20.567Z</time></trkpt><trkpt lat="43.9029723" lon="11.2080834"><ele>172.57142857142858</ele><time>2026-03-28T10:53:21.569Z</time></trkpt><trkpt lat="43.9029424" lon="11.2079922"><ele>175.85714285714286</ele><time>2026-03-28T10:53:22.577Z</time></trkpt><trkpt lat="43.9029041" lon="11.2079005"><ele>179.14285714285714</ele><time>2026-03-28T10:53:23.574Z</time></trkpt><trkpt lat="43.9028677" lon="11.2078102"><ele>182.42857142857144</ele><time>2026-03-28T10:53:24.576Z</time></trkpt><trkpt lat="43.9028256" lon="11.2077206"><ele>185.71428571428572</ele><time>2026-03-28T10:53:25.589Z</time></trkpt><trkpt lat="43.9027801" lon="11.2076333"><ele>189.0</ele><time>2026-03-28T10:53:26.557Z</time></trkpt><trkpt lat="43.9027365" lon="11.2075545"><ele>189.0</ele><time>2026-03-28T10:53:27.575Z</time></trkpt><trkpt lat="43.902693" lon="11.2074803"><ele>189.0</ele><time>2026-03-28T10:53:28.571Z</time></trkpt><trkpt lat="43.9026453" lon="11.2074106"><ele>189.0</ele><time>2026-03-28T10:53:29.571Z</time></trkpt><trkpt lat="43.9025963" lon="11.2073463"><ele>189.0</ele><time>2026-03-28T10:53:30.664Z</time></trkpt><trkpt lat="43.9025449" lon="11.2072883"><ele>189.0</ele><time>2026-03-28T10:53:31.577Z</time></trkpt><trkpt lat="43.9024921" lon="11.207239"><ele>189.0</ele><time>2026-03-28T10:53:32.567Z</time></trkpt><trkpt lat="43.9023932" lon="11.2071436"><ele>186.39999999999998</ele><time>2026-03-28T10:53:34.572Z</time></trkpt><trkpt lat="43.9022942" lon="11.2070576"><ele>183.8</ele><time>2026-03-28T10:53:36.572Z</time></trkpt><trkpt lat="43.9021996" lon="11.2069688"><ele>181.2</ele><time>2026-03-28T10:53:38.57Z</time></trkpt><trkpt lat="43.9021215" lon="11.2068712"><ele>178.60000000000002</ele><time>2026-03-28T10:53:40.569Z</time></trkpt><trkpt lat="43.9020638" lon="11.2067646"><ele>176.0</ele><time>2026-03-28T10:53:42.571Z</time></trkpt><trkpt lat="43.9020001" lon="11.2066579"><ele>176.0</ele><time>2026-03-28T10:53:44.567Z</time></trkpt><trkpt lat="43.9019533" lon="11.2065422"><ele>176.0</ele><time>2026-03-28T10:53:46.561Z</time></trkpt><trkpt lat="43.9019037" lon="11.2064294"><ele>176.0</ele><time>2026-03-28T10:53:48.549Z</time></trkpt><trkpt lat="43.9018442" lon="11.2063047"><ele>176.0</ele><time>2026-03-28T10:53:50.551Z</time></trkpt><trkpt lat="43.9017759" lon="11.2061857"><ele>176.0</ele><time>2026-03-28T10:53:52.566Z</time></trkpt><trkpt lat="43.9016948" lon="11.2060673"><ele>175.20000000000002</ele><time>2026-03-28T10:53:54.554Z</time></trkpt><trkpt lat="43.9016268" lon="11.2059301"><ele>174.4</ele><time>2026-03-28T10:53:56.569Z</time></trkpt><trkpt lat="43.9015712" lon="11.2057803"><ele>173.6</ele><time>2026-03-28T10:53:58.547Z</time></trkpt><trkpt lat="43.9015088" lon="11.20563"><ele>172.8</ele><time>2026-03-28T10:54:00.552Z</time></trkpt><trkpt lat="43.9014746" lon="11.2055541"><ele>172.0</ele><time>2026-03-28T10:54:01.547Z</time></trkpt><trkpt lat="43.9014434" lon="11.2054753"><ele>172.00000000000003</ele><time>2026-03-28T10:54:02.557Z</time></trkpt><trkpt lat="43.9014079" lon="11.2053908"><ele>172.0</ele><time>2026-03-28T10:54:03.552Z</time></trkpt><trkpt lat="43.9013744" lon="11.2052953"><ele>172.0</ele><time>2026-03-28T10:54:04.559Z</time></trkpt><trkpt lat="43.9013406" lon="11.2052006"><ele>172.0</ele><time>2026-03-28T10:54:05.549Z</time></trkpt><trkpt lat="43.9013087" lon="11.2051118"><ele>172.0</ele><time>2026-03-28T10:54:06.568Z</time></trkpt><trkpt lat="43.9012775" lon="11.2050255"><ele>172.00000000000003</ele><time>2026-03-28T10:54:07.572Z</time></trkpt><trkpt lat="43.9012433" lon="11.2049285"><ele>172.0</ele><time>2026-03-28T10:54:08.573Z</time></trkpt><trkpt lat="43.90121" lon="11.2048299"><ele>173.71428571428572</ele><time>2026-03-28T10:54:09.572Z</time></trkpt><trkpt lat="43.9011762" lon="11.2047303"><ele>175.42857142857144</ele><time>2026-03-28T10:54:10.57Z</time></trkpt><trkpt lat="43.9011411" lon="11.2046352"><ele>177.14285714285717</ele><time>2026-03-28T10:54:11.575Z</time></trkpt><trkpt lat="43.9011034" lon="11.2045429"><ele>178.85714285714286</ele><time>2026-03-28T10:54:12.582Z</time></trkpt><trkpt lat="43.9010734" lon="11.2044535"><ele>180.57142857142856</ele><time>2026-03-28T10:54:13.577Z</time></trkpt><trkpt lat="43.901042" lon="11.2043707"><ele>182.2857142857143</ele><time>2026-03-28T10:54:14.579Z</time></trkpt><trkpt lat="43.9010103" lon="11.2042824"><ele>184.0</ele><time>2026-03-28T10:54:15.575Z</time></trkpt><trkpt lat="43.9009835" lon="11.2041989"><ele>184.0</ele><time>2026-03-28T10:54:16.578Z</time></trkpt><trkpt lat="43.9009395" lon="11.2040494"><ele>184.0</ele><time>2026-03-28T10:54:18.575Z</time></trkpt><trkpt lat="43.9008998" lon="11.2039254"><ele>184.0</ele><time>2026-03-28T10:54:20.574Z</time></trkpt><trkpt lat="43.9008566" lon="11.2038143"><ele>184.0</ele><time>2026-03-28T10:54:22.574Z</time></trkpt><trkpt lat="43.9008081" lon="11.2036996"><ele>184.0</ele><time>2026-03-28T10:54:24.576Z</time></trkpt><trkpt lat="43.9007568" lon="11.2035854"><ele>187.0</ele><time>2026-03-28T10:54:26.58Z</time></trkpt><trkpt lat="43.9006976" lon="11.203471"><ele>190.0</ele><time>2026-03-28T10:54:28.572Z</time></trkpt><trkpt lat="43.9006308" lon="11.2033541"><ele>193.0</ele><time>2026-03-28T10:54:30.576Z</time></trkpt><trkpt lat="43.9005871" lon="11.20329"><ele>196.0</ele><time>2026-03-28T10:54:31.578Z</time></trkpt><trkpt lat="43.9004966" lon="11.2031704"><ele>199.0</ele><time>2026-03-28T10:54:33.57Z</time></trkpt><trkpt lat="43.9003999" lon="11.2030685"><ele>198.99999999999997</ele><time>2026-03-28T10:54:35.573Z</time></trkpt><trkpt lat="43.900298" lon="11.202973"><ele>199.0</ele><time>2026-03-28T10:54:37.556Z</time></trkpt><trkpt lat="43.900243" lon="11.2029302"><ele>199.0</ele><time>2026-03-28T10:54:38.571Z</time></trkpt><trkpt lat="43.9001804" lon="11.2028964"><ele>199.0</ele><time>2026-03-28T10:54:39.567Z</time></trkpt><trkpt lat="43.9001144" lon="11.2028721"><ele>198.99999999999997</ele><time>2026-03-28T10:54:40.579Z</time></trkpt><trkpt lat="43.9000418" lon="11.2028552"><ele>199.0</ele><time>2026-03-28T10:54:41.575Z</time></trkpt><trkpt lat="43.8999682" lon="11.2028463"><ele>194.66666666666666</ele><time>2026-03-28T10:54:42.566Z</time></trkpt><trkpt lat="43.8998933" lon="11.2028411"><ele>190.33333333333331</ele><time>2026-03-28T10:54:43.573Z</time></trkpt><trkpt lat="43.8998166" lon="11.2028275"><ele>186.0</ele><time>2026-03-28T10:54:44.58Z</time></trkpt><trkpt lat="43.8997377" lon="11.2028108"><ele>181.66666666666666</ele><time>2026-03-28T10:54:45.576Z</time></trkpt><trkpt lat="43.8996564" lon="11.2028002"><ele>177.33333333333331</ele><time>2026-03-28T10:54:46.574Z</time></trkpt><trkpt lat="43.8995761" lon="11.2027963"><ele>173.0</ele><time>2026-03-28T10:54:47.576Z</time></trkpt><trkpt lat="43.8994921" lon="11.2027916"><ele>173.0</ele><time>2026-03-28T10:54:48.581Z</time></trkpt><trkpt lat="43.8994104" lon="11.2027867"><ele>173.0</ele><time>2026-03-28T10:54:49.572Z</time></trkpt><trkpt lat="43.899326" lon="11.2027788"><ele>173.0</ele><time>2026-03-28T10:54:50.573Z</time></trkpt><trkpt lat="43.8992443" lon="11.2027718"><ele>173.0</ele><time>2026-03-28T10:54:51.581Z</time></trkpt><trkpt lat="43.8991679" lon="11.2027638"><ele>173.0</ele><time>2026-03-28T10:54:52.582Z</time></trkpt><trkpt lat="43.8990939" lon="11.2027616"><ele>173.0</ele><time>2026-03-28T10:54:53.573Z</time></trkpt><trkpt lat="43.8990252" lon="11.2027492"><ele>170.33333333333331</ele><time>2026-03-28T10:54:54.573Z</time></trkpt><trkpt lat="43.8989575" lon="11.2027485"><ele>167.66666666666666</ele><time>2026-03-28T10:54:55.574Z</time></trkpt><trkpt lat="43.8988914" lon="11.2027387"><ele>165.0</ele><time>2026-03-28T10:54:56.577Z</time></trkpt><trkpt lat="43.8988289" lon="11.2027231"><ele>162.33333333333334</ele><time>2026-03-28T10:54:57.573Z</time></trkpt><trkpt lat="43.8987067" lon="11.202701"><ele>159.66666666666669</ele><time>2026-03-28T10:54:59.573Z</time></trkpt><trkpt lat="43.898588" lon="11.2026956"><ele>157.0</ele><time>2026-03-28T10:55:01.571Z</time></trkpt><trkpt lat="43.8984746" lon="11.2026848"><ele>155.79999999999998</ele><time>2026-03-28T10:55:03.579Z</time></trkpt><trkpt lat="43.8983728" lon="11.2026845"><ele>154.6</ele><time>2026-03-28T10:55:05.561Z</time></trkpt><trkpt lat="43.8982731" lon="11.2026725"><ele>153.39999999999998</ele><time>2026-03-28T10:55:07.576Z</time></trkpt><trkpt lat="43.8981772" lon="11.2026556"><ele>152.2</ele><time>2026-03-28T10:55:09.69Z</time></trkpt><trkpt lat="43.8980446" lon="11.2026007"><ele>151.0</ele><time>2026-03-28T10:55:12.566Z</time></trkpt><trkpt lat="43.8979576" lon="11.2025607"><ele>151.0</ele><time>2026-03-28T10:55:14.571Z</time></trkpt><trkpt lat="43.897878" lon="11.2025167"><ele>151.0</ele><time>2026-03-28T10:55:16.58Z</time></trkpt><trkpt lat="43.8978146" lon="11.2024794"><ele>151.0</ele><time>2026-03-28T10:55:18.566Z</time></trkpt><trkpt lat="43.8977165" lon="11.2024303"><ele>151.0</ele><time>2026-03-28T10:55:21.566Z</time></trkpt><trkpt lat="43.897639" lon="11.2023973"><ele>151.0</ele><time>2026-03-28T10:55:23.573Z</time></trkpt><trkpt lat="43.8975456" lon="11.202363"><ele>151.0</ele><time>2026-03-28T10:55:25.576Z</time></trkpt><trkpt lat="43.8974392" lon="11.2023219"><ele>154.0</ele><time>2026-03-28T10:55:27.579Z</time></trkpt><trkpt lat="43.8973236" lon="11.2022787"><ele>157.0</ele><time>2026-03-28T10:55:29.572Z</time></trkpt><trkpt lat="43.8972622" lon="11.2022436"><ele>160.0</ele><time>2026-03-28T10:55:30.583Z</time></trkpt><trkpt lat="43.8972024" lon="11.2021929"><ele>163.0</ele><time>2026-03-28T10:55:31.569Z</time></trkpt><trkpt lat="43.8971442" lon="11.2021401"><ele>166.0</ele><time>2026-03-28T10:55:32.574Z</time></trkpt><trkpt lat="43.8970895" lon="11.2020877"><ele>169.0</ele><time>2026-03-28T10:55:33.568Z</time></trkpt><trkpt lat="43.8970342" lon="11.2020329"><ele>169.0</ele><time>2026-03-28T10:55:34.57Z</time></trkpt><trkpt lat="43.8969752" lon="11.2019825"><ele>169.0</ele><time>2026-03-28T10:55:35.571Z</time></trkpt><trkpt lat="43.8969131" lon="11.2019368"><ele>169.0</ele><time>2026-03-28T10:55:36.581Z</time></trkpt><trkpt lat="43.8968532" lon="11.2018892"><ele>169.0</ele><time>2026-03-28T10:55:37.574Z</time></trkpt><trkpt lat="43.8967907" lon="11.2018407"><ele>169.0</ele><time>2026-03-28T10:55:38.585Z</time></trkpt><trkpt lat="43.896728" lon="11.2017949"><ele>169.0</ele><time>2026-03-28T10:55:39.681Z</time></trkpt><trkpt lat="43.8966652" lon="11.2017533"><ele>169.0</ele><time>2026-03-28T10:55:40.693Z</time></trkpt><trkpt lat="43.8965444" lon="11.2016632"><ele>171.66666666666669</ele><time>2026-03-28T10:55:42.58Z</time></trkpt><trkpt lat="43.8964868" lon="11.2016102"><ele>174.33333333333334</ele><time>2026-03-28T10:55:43.56Z</time></trkpt><trkpt lat="43.8964277" lon="11.2015622"><ele>177.0</ele><time>2026-03-28T10:55:44.695Z</time></trkpt><trkpt lat="43.896367" lon="11.201511"><ele>179.66666666666666</ele><time>2026-03-28T10:55:45.677Z</time></trkpt><trkpt lat="43.8962496" lon="11.2014082"><ele>182.33333333333331</ele><time>2026-03-28T10:55:47.569Z</time></trkpt><trkpt lat="43.896192" lon="11.201355"><ele>185.0</ele><time>2026-03-28T10:55:48.56Z</time></trkpt><trkpt lat="43.896129" lon="11.2013012"><ele>185.0</ele><time>2026-03-28T10:55:49.547Z</time></trkpt><trkpt lat="43.8960661" lon="11.2012507"><ele>185.0</ele><time>2026-03-28T10:55:50.563Z</time></trkpt><trkpt lat="43.8960044" lon="11.2012043"><ele>185.0</ele><time>2026-03-28T10:55:51.561Z</time></trkpt><trkpt lat="43.8959427" lon="11.2011607"><ele>185.0</ele><time>2026-03-28T10:55:52.572Z</time></trkpt><trkpt lat="43.8958811" lon="11.201135"><ele>185.0</ele><time>2026-03-28T10:55:53.568Z</time></trkpt><trkpt lat="43.8957692" lon="11.2011395"><ele>185.0</ele><time>2026-03-28T10:55:55.695Z</time></trkpt><trkpt lat="43.8956744" lon="11.2011502"><ele>180.5</ele><time>2026-03-28T10:55:57.569Z</time></trkpt><trkpt lat="43.8955866" lon="11.2011612"><ele>176.0</ele><time>2026-03-28T10:55:59.556Z</time></trkpt><trkpt lat="43.8955094" lon="11.2011538"><ele>171.5</ele><time>2026-03-28T10:56:01.569Z</time></trkpt><trkpt lat="43.8954363" lon="11.2011234"><ele>167.0</ele><time>2026-03-28T10:56:03.577Z</time></trkpt><trkpt lat="43.895365" lon="11.2010664"><ele>162.5</ele><time>2026-03-28T10:56:05.678Z</time></trkpt><trkpt lat="43.8953012" lon="11.2009846"><ele>158.0</ele><time>2026-03-28T10:56:07.577Z</time></trkpt><trkpt lat="43.8952432" lon="11.2008939"><ele>158.0</ele><time>2026-03-28T10:56:09.581Z</time></trkpt><trkpt lat="43.895184" lon="11.2007876"><ele>158.0</ele><time>2026-03-28T10:56:11.586Z</time></trkpt><trkpt lat="43.8951255" lon="11.2006683"><ele>158.0</ele><time>2026-03-28T10:56:13.574Z</time></trkpt><trkpt lat="43.8950284" lon="11.2005201"><ele>158.0</ele><time>2026-03-28T10:56:16.576Z</time></trkpt><trkpt lat="43.8949534" lon="11.2004365"><ele>158.0</ele><time>2026-03-28T10:56:18.582Z</time></trkpt><trkpt lat="43.8948528" lon="11.2003638"><ele>160.8</ele><time>2026-03-28T10:56:20.677Z</time></trkpt><trkpt lat="43.8947345" lon="11.200293"><ele>163.60000000000002</ele><time>2026-03-28T10:56:22.563Z</time></trkpt><trkpt lat="43.8946667" lon="11.200258"><ele>166.39999999999998</ele><time>2026-03-28T10:56:23.561Z</time></trkpt><trkpt lat="43.8945914" lon="11.2002305"><ele>169.2</ele><time>2026-03-28T10:56:24.572Z</time></trkpt><trkpt lat="43.8945093" lon="11.2002086"><ele>172.0</ele><time>2026-03-28T10:56:25.687Z</time></trkpt><trkpt lat="43.8943359" lon="11.2001656"><ele>166.0</ele><time>2026-03-28T10:56:27.588Z</time></trkpt><trkpt lat="43.8942442" lon="11.2001373"><ele>160.0</ele><time>2026-03-28T10:56:28.57Z</time></trkpt><trkpt lat="43.8941525" lon="11.2001082"><ele>154.0</ele><time>2026-03-28T10:56:29.688Z</time></trkpt><trkpt lat="43.8939754" lon="11.2000728"><ele>148.0</ele><time>2026-03-28T10:56:31.575Z</time></trkpt><trkpt lat="43.8938851" lon="11.2000765"><ele>148.0</ele><time>2026-03-28T10:56:32.578Z</time></trkpt><trkpt lat="43.8937941" lon="11.2000956"><ele>148.0</ele><time>2026-03-28T10:56:33.577Z</time></trkpt><trkpt lat="43.8937083" lon="11.200126"><ele>148.0</ele><time>2026-03-28T10:56:34.576Z</time></trkpt><trkpt lat="43.8936257" lon="11.2001519"><ele>148.0</ele><time>2026-03-28T10:56:35.576Z</time></trkpt><trkpt lat="43.8935447" lon="11.2001622"><ele>148.0</ele><time>2026-03-28T10:56:36.583Z</time></trkpt><trkpt lat="43.893465" lon="11.2001539"><ele>148.0</ele><time>2026-03-28T10:56:37.574Z</time></trkpt><trkpt lat="43.8933851" lon="11.2001326"><ele>145.28571428571428</ele><time>2026-03-28T10:56:38.588Z</time></trkpt><trkpt lat="43.89331" lon="11.2001056"><ele>142.57142857142856</ele><time>2026-03-28T10:56:39.579Z</time></trkpt><trkpt lat="43.8932403" lon="11.200076"><ele>139.85714285714283</ele><time>2026-03-28T10:56:40.559Z</time></trkpt><trkpt lat="43.8931707" lon="11.2000439"><ele>137.14285714285714</ele><time>2026-03-28T10:56:41.569Z</time></trkpt><trkpt lat="43.8931006" lon="11.2000109"><ele>134.42857142857142</ele><time>2026-03-28T10:56:42.584Z</time></trkpt><trkpt lat="43.8930384" lon="11.1999848"><ele>131.7142857142857</ele><time>2026-03-28T10:56:43.577Z</time></trkpt><trkpt lat="43.8929808" lon="11.1999482"><ele>129.0</ele><time>2026-03-28T10:56:44.583Z</time></trkpt><trkpt lat="43.8928718" lon="11.1998698"><ele>127.75</ele><time>2026-03-28T10:56:46.574Z</time></trkpt><trkpt lat="43.8927699" lon="11.1997847"><ele>126.5</ele><time>2026-03-28T10:56:48.577Z</time></trkpt><trkpt lat="43.8926729" lon="11.1997039"><ele>125.25</ele><time>2026-03-28T10:56:50.625Z</time></trkpt><trkpt lat="43.8925784" lon="11.1996093"><ele>124.0</ele><time>2026-03-28T10:56:52.574Z</time></trkpt><trkpt lat="43.8924822" lon="11.1995205"><ele>124.0</ele><time>2026-03-28T10:56:54.574Z</time></trkpt><trkpt lat="43.8923876" lon="11.1994222"><ele>124.0</ele><time>2026-03-28T10:56:56.577Z</time></trkpt><trkpt lat="43.8922911" lon="11.1993233"><ele>124.0</ele><time>2026-03-28T10:56:58.588Z</time></trkpt><trkpt lat="43.8921915" lon="11.1992222"><ele>124.0</ele><time>2026-03-28T10:57:00.578Z</time></trkpt><trkpt lat="43.8921397" lon="11.1991696"><ele>124.0</ele><time>2026-03-28T10:57:01.579Z</time></trkpt><trkpt lat="43.8920872" lon="11.199119"><ele>124.0</ele><time>2026-03-28T10:57:02.581Z</time></trkpt><trkpt lat="43.8920341" lon="11.1990672"><ele>124.00000000000001</ele><time>2026-03-28T10:57:03.581Z</time></trkpt><trkpt lat="43.8919848" lon="11.199008"><ele>124.0</ele><time>2026-03-28T10:57:04.581Z</time></trkpt><trkpt lat="43.891941" lon="11.1989379"><ele>124.0</ele><time>2026-03-28T10:57:05.575Z</time></trkpt><trkpt lat="43.8919021" lon="11.198869"><ele>124.00000000000001</ele><time>2026-03-28T10:57:06.572Z</time></trkpt><trkpt lat="43.8918609" lon="11.1987936"><ele>124.0</ele><time>2026-03-28T10:57:07.577Z</time></trkpt><trkpt lat="43.8918202" lon="11.1987178"><ele>124.0</ele><time>2026-03-28T10:57:08.568Z</time></trkpt><trkpt lat="43.8917801" lon="11.1986491"><ele>124.16666666666667</ele><time>2026-03-28T10:57:09.574Z</time></trkpt><trkpt lat="43.8917385" lon="11.1985797"><ele>124.33333333333334</ele><time>2026-03-28T10:57:10.58Z</time></trkpt><trkpt lat="43.8916575" lon="11.1984406"><ele>124.5</ele><time>2026-03-28T10:57:12.58Z</time></trkpt><trkpt lat="43.8916177" lon="11.1983683"><ele>124.66666666666666</ele><time>2026-03-28T10:57:13.578Z</time></trkpt><trkpt lat="43.8915788" lon="11.1982956"><ele>124.83333333333333</ele><time>2026-03-28T10:57:14.573Z</time></trkpt><trkpt lat="43.8915401" lon="11.1982254"><ele>125.0</ele><time>2026-03-28T10:57:15.574Z</time></trkpt><trkpt lat="43.8914566" lon="11.1980958"><ele>130.75</ele><time>2026-03-28T10:57:17.587Z</time></trkpt><trkpt lat="43.891369" lon="11.1979807"><ele>136.5</ele><time>2026-03-28T10:57:19.582Z</time></trkpt><trkpt lat="43.8912784" lon="11.1978825"><ele>142.25</ele><time>2026-03-28T10:57:21.58Z</time></trkpt><trkpt lat="43.8911784" lon="11.197813"><ele>148.0</ele><time>2026-03-28T10:57:23.577Z</time></trkpt><trkpt lat="43.8910726" lon="11.197774"><ele>148.0</ele><time>2026-03-28T10:57:25.555Z</time></trkpt><trkpt lat="43.8909725" lon="11.1977527"><ele>148.0</ele><time>2026-03-28T10:57:27.578Z</time></trkpt><trkpt lat="43.8908709" lon="11.1977303"><ele>148.0</ele><time>2026-03-28T10:57:29.577Z</time></trkpt><trkpt lat="43.8907727" lon="11.1976943"><ele>148.0</ele><time>2026-03-28T10:57:31.586Z</time></trkpt><trkpt lat="43.8906628" lon="11.1976353"><ele>148.0</ele><time>2026-03-28T10:57:33.584Z</time></trkpt><trkpt lat="43.890602" lon="11.1975961"><ele>147.66666666666669</ele><time>2026-03-28T10:57:34.571Z</time></trkpt><trkpt lat="43.8905431" lon="11.1975404"><ele>147.33333333333334</ele><time>2026-03-28T10:57:35.582Z</time></trkpt><trkpt lat="43.8904955" lon="11.1974637"><ele>147.0</ele><time>2026-03-28T10:57:36.588Z</time></trkpt><trkpt lat="43.8904602" lon="11.1973611"><ele>146.66666666666666</ele><time>2026-03-28T10:57:37.572Z</time></trkpt><trkpt lat="43.8904316" lon="11.1972585"><ele>146.33333333333331</ele><time>2026-03-28T10:57:38.58Z</time></trkpt><trkpt lat="43.8904063" lon="11.1971618"><ele>146.0</ele><time>2026-03-28T10:57:39.571Z</time></trkpt><trkpt lat="43.8903829" lon="11.1970645"><ele>146.0</ele><time>2026-03-28T10:57:40.573Z</time></trkpt><trkpt lat="43.890359" lon="11.1969685"><ele>146.0</ele><time>2026-03-28T10:57:41.572Z</time></trkpt><trkpt lat="43.8903372" lon="11.19688"><ele>146.0</ele><time>2026-03-28T10:57:42.59Z</time></trkpt><trkpt lat="43.8903131" lon="11.1967943"><ele>146.0</ele><time>2026-03-28T10:57:43.564Z</time></trkpt><trkpt lat="43.8902965" lon="11.1967069"><ele>146.0</ele><time>2026-03-28T10:57:44.583Z</time></trkpt><trkpt lat="43.8902767" lon="11.1966179"><ele>146.0</ele><time>2026-03-28T10:57:45.577Z</time></trkpt><trkpt lat="43.8902584" lon="11.1965281"><ele>146.0</ele><time>2026-03-28T10:57:46.573Z</time></trkpt><trkpt lat="43.8902425" lon="11.1964424"><ele>149.0</ele><time>2026-03-28T10:57:47.584Z</time></trkpt><trkpt lat="43.8902291" lon="11.1963469"><ele>152.0</ele><time>2026-03-28T10:57:48.588Z</time></trkpt><trkpt lat="43.8902126" lon="11.1962547"><ele>155.0</ele><time>2026-03-28T10:57:49.569Z</time></trkpt><trkpt lat="43.8901946" lon="11.1961698"><ele>158.0</ele><time>2026-03-28T10:57:50.573Z</time></trkpt><trkpt lat="43.8901732" lon="11.1960858"><ele>161.0</ele><time>2026-03-28T10:57:51.583Z</time></trkpt><trkpt lat="43.8901213" lon="11.1959309"><ele>164.0</ele><time>2026-03-28T10:57:53.583Z</time></trkpt><trkpt lat="43.8900484" lon="11.1958014"><ele>156.75</ele><time>2026-03-28T10:57:55.594Z</time></trkpt><trkpt lat="43.8899704" lon="11.1956761"><ele>149.5</ele><time>2026-03-28T10:57:57.57Z</time></trkpt><trkpt lat="43.8898955" lon="11.1955496"><ele>142.25</ele><time>2026-03-28T10:57:59.574Z</time></trkpt><trkpt lat="43.8898166" lon="11.1954259"><ele>135.0</ele><time>2026-03-28T10:58:01.588Z</time></trkpt><trkpt lat="43.8897253" lon="11.1953018"><ele>135.0</ele><time>2026-03-28T10:58:03.591Z</time></trkpt><trkpt lat="43.8896311" lon="11.1951797"><ele>135.0</ele><time>2026-03-28T10:58:05.573Z</time></trkpt><trkpt lat="43.8895806" lon="11.1951135"><ele>135.0</ele><time>2026-03-28T10:58:06.576Z</time></trkpt><trkpt lat="43.8895281" lon="11.1950522"><ele>135.0</ele><time>2026-03-28T10:58:07.578Z</time></trkpt><trkpt lat="43.8894795" lon="11.1949883"><ele>135.0</ele><time>2026-03-28T10:58:08.58Z</time></trkpt><trkpt lat="43.8894288" lon="11.1949263"><ele>135.0</ele><time>2026-03-28T10:58:09.571Z</time></trkpt><trkpt lat="43.889341" lon="11.1948038"><ele>132.8</ele><time>2026-03-28T10:58:11.575Z</time></trkpt><trkpt lat="43.889256" lon="11.1946742"><ele>130.6</ele><time>2026-03-28T10:58:13.574Z</time></trkpt><trkpt lat="43.8892174" lon="11.1946015"><ele>128.4</ele><time>2026-03-28T10:58:14.573Z</time></trkpt><trkpt lat="43.8891778" lon="11.1945323"><ele>126.2</ele><time>2026-03-28T10:58:15.578Z</time></trkpt><trkpt lat="43.889104" lon="11.1943928"><ele>124.0</ele><time>2026-03-28T10:58:17.581Z</time></trkpt><trkpt lat="43.8890378" lon="11.1942473"><ele>124.0</ele><time>2026-03-28T10:58:19.572Z</time></trkpt><trkpt lat="43.8889833" lon="11.1941094"><ele>124.0</ele><time>2026-03-28T10:58:21.579Z</time></trkpt><trkpt lat="43.8889381" lon="11.1939725"><ele>124.0</ele><time>2026-03-28T10:58:23.581Z</time></trkpt><trkpt lat="43.8888903" lon="11.1938505"><ele>124.0</ele><time>2026-03-28T10:58:25.579Z</time></trkpt><trkpt lat="43.8888357" lon="11.1937279"><ele>124.0</ele><time>2026-03-28T10:58:27.578Z</time></trkpt><trkpt lat="43.8887854" lon="11.1936015"><ele>126.6</ele><time>2026-03-28T10:58:29.575Z</time></trkpt><trkpt lat="43.8887328" lon="11.1934849"><ele>129.2</ele><time>2026-03-28T10:58:31.577Z</time></trkpt><trkpt lat="43.8886705" lon="11.1933637"><ele>131.79999999999998</ele><time>2026-03-28T10:58:33.577Z</time></trkpt><trkpt lat="43.8886008" lon="11.1932555"><ele>134.4</ele><time>2026-03-28T10:58:35.587Z</time></trkpt><trkpt lat="43.8885395" lon="11.1931469"><ele>137.0</ele><time>2026-03-28T10:58:37.575Z</time></trkpt><trkpt lat="43.8884827" lon="11.1930555"><ele>131.5</ele><time>2026-03-28T10:58:39.576Z</time></trkpt><trkpt lat="43.888419" lon="11.1929454"><ele>126.0</ele><time>2026-03-28T10:58:41.577Z</time></trkpt><trkpt lat="43.8883534" lon="11.1928129"><ele>120.5</ele><time>2026-03-28T10:58:43.582Z</time></trkpt><trkpt lat="43.8882852" lon="11.1926752"><ele>115.0</ele><time>2026-03-28T10:58:45.688Z</time></trkpt><trkpt lat="43.888219" lon="11.1925408"><ele>115.0</ele><time>2026-03-28T10:58:47.589Z</time></trkpt><trkpt lat="43.8881536" lon="11.1924052"><ele>115.0</ele><time>2026-03-28T10:58:49.586Z</time></trkpt><trkpt lat="43.8880583" lon="11.1921963"><ele>115.0</ele><time>2026-03-28T10:58:52.575Z</time></trkpt><trkpt lat="43.8879962" lon="11.1920614"><ele>115.0</ele><time>2026-03-28T10:58:54.557Z</time></trkpt><trkpt lat="43.887934" lon="11.1919445"><ele>114.83333333333334</ele><time>2026-03-28T10:58:56.58Z</time></trkpt><trkpt lat="43.8878713" lon="11.1918459"><ele>114.66666666666667</ele><time>2026-03-28T10:58:58.586Z</time></trkpt><trkpt lat="43.8877845" lon="11.191714"><ele>114.5</ele><time>2026-03-28T10:59:01.585Z</time></trkpt><trkpt lat="43.8877203" lon="11.1916553"><ele>114.33333333333334</ele><time>2026-03-28T10:59:03.579Z</time></trkpt><trkpt lat="43.8876513" lon="11.1916301"><ele>114.16666666666667</ele><time>2026-03-28T10:59:05.576Z</time></trkpt><trkpt lat="43.8875811" lon="11.1916618"><ele>114.0</ele><time>2026-03-28T10:59:07.591Z</time></trkpt><trkpt lat="43.8875288" lon="11.1917724"><ele>113.33333333333333</ele><time>2026-03-28T10:59:11.574Z</time></trkpt><trkpt lat="43.8875468" lon="11.1918934"><ele>112.66666666666666</ele><time>2026-03-28T10:59:15.692Z</time></trkpt><trkpt lat="43.8875458" lon="11.1920022"><ele>112.0</ele><time>2026-03-28T10:59:18.563Z</time></trkpt><trkpt lat="43.8875132" lon="11.1920882"><ele>111.33333333333333</ele><time>2026-03-28T10:59:20.697Z</time></trkpt><trkpt lat="43.8874758" lon="11.1921676"><ele>110.66666666666666</ele><time>2026-03-28T10:59:22.581Z</time></trkpt><trkpt lat="43.8874237" lon="11.1922542"><ele>110.0</ele><time>2026-03-28T10:59:24.698Z</time></trkpt><trkpt lat="43.8873567" lon="11.1923768"><ele>109.99999999999999</ele><time>2026-03-28T10:59:27.583Z</time></trkpt><trkpt lat="43.8872966" lon="11.1924628"><ele>110.0</ele><time>2026-03-28T10:59:30.688Z</time></trkpt><trkpt lat="43.8872508" lon="11.1925323"><ele>110.0</ele><time>2026-03-28T10:59:33.578Z</time></trkpt><trkpt lat="43.8872222" lon="11.1926217"><ele>110.0</ele><time>2026-03-28T10:59:37.576Z</time></trkpt><trkpt lat="43.8872403" lon="11.1927182"><ele>110.0</ele><time>2026-03-28T10:59:42.588Z</time></trkpt><trkpt lat="43.8872819" lon="11.1928068"><ele>109.99999999999999</ele><time>2026-03-28T10:59:47.583Z</time></trkpt><trkpt lat="43.8873348" lon="11.1928808"><ele>110.0</ele><time>2026-03-28T10:59:53.685Z</time></trkpt><trkpt lat="43.8873789" lon="11.1929656"><ele>109.99999999999999</ele><time>2026-03-28T10:59:58.576Z</time></trkpt><trkpt lat="43.8874116" lon="11.193051"><ele>110.0</ele><time>2026-03-28T11:00:02.586Z</time></trkpt><trkpt lat="43.887444" lon="11.1931432"><ele>110.0</ele><time>2026-03-28T11:00:09.685Z</time></trkpt><trkpt lat="43.8874911" lon="11.1932386"><ele>110.0</ele><time>2026-03-28T11:00:14.685Z</time></trkpt><trkpt lat="43.8875364" lon="11.1933282"><ele>109.99999999999999</ele><time>2026-03-28T11:00:17.594Z</time></trkpt><trkpt lat="43.8875783" lon="11.1934401"><ele>110.0</ele><time>2026-03-28T11:00:20.689Z</time></trkpt><trkpt lat="43.8876308" lon="11.1935382"><ele>110.28571428571428</ele><time>2026-03-28T11:00:23.56Z</time></trkpt><trkpt lat="43.887676" lon="11.1936511"><ele>110.57142857142857</ele><time>2026-03-28T11:00:26.57Z</time></trkpt><trkpt lat="43.8877105" lon="11.1937263"><ele>110.85714285714286</ele><time>2026-03-28T11:00:28.584Z</time></trkpt><trkpt lat="43.8877427" lon="11.1938128"><ele>111.14285714285714</ele><time>2026-03-28T11:00:30.694Z</time></trkpt><trkpt lat="43.8877773" lon="11.1938985"><ele>111.42857142857143</ele><time>2026-03-28T11:00:32.581Z</time></trkpt><trkpt lat="43.8878122" lon="11.1939738"><ele>111.71428571428571</ele><time>2026-03-28T11:00:34.553Z</time></trkpt><trkpt lat="43.8878476" lon="11.1940464"><ele>112.0</ele><time>2026-03-28T11:00:36.571Z</time></trkpt><trkpt lat="43.8878883" lon="11.1941558"><ele>112.28571428571428</ele><time>2026-03-28T11:00:39.685Z</time></trkpt><trkpt lat="43.887925" lon="11.1942747"><ele>112.57142857142857</ele><time>2026-03-28T11:00:42.59Z</time></trkpt><trkpt lat="43.887957" lon="11.1943517"><ele>112.85714285714286</ele><time>2026-03-28T11:00:44.58Z</time></trkpt><trkpt lat="43.88799" lon="11.1944307"><ele>113.14285714285714</ele><time>2026-03-28T11:00:46.575Z</time></trkpt><trkpt lat="43.8880162" lon="11.1945121"><ele>113.42857142857142</ele><time>2026-03-28T11:00:48.59Z</time></trkpt><trkpt lat="43.8880431" lon="11.1946008"><ele>113.71428571428571</ele><time>2026-03-28T11:00:50.694Z</time></trkpt><trkpt lat="43.888076" lon="11.1946875"><ele>114.0</ele><time>2026-03-28T11:00:52.588Z</time></trkpt><trkpt lat="43.8880994" lon="11.194782"><ele>114.2</ele><time>2026-03-28T11:00:54.692Z</time></trkpt><trkpt lat="43.8881479" lon="11.194908"><ele>114.4</ele><time>2026-03-28T11:00:57.575Z</time></trkpt><trkpt lat="43.8882045" lon="11.194965"><ele>114.6</ele><time>2026-03-28T11:00:59.694Z</time></trkpt><trkpt lat="43.8883179" lon="11.1950252"><ele>114.8</ele><time>2026-03-28T11:01:02.572Z</time></trkpt><trkpt lat="43.8883822" lon="11.1950538"><ele>115.0</ele><time>2026-03-28T11:01:04.683Z</time></trkpt><trkpt lat="43.8884785" lon="11.1951143"><ele>115.00000000000001</ele><time>2026-03-28T11:01:07.583Z</time></trkpt><trkpt lat="43.8885542" lon="11.1951971"><ele>115.0</ele><time>2026-03-28T11:01:09.7Z</time></trkpt><trkpt lat="43.8886183" lon="11.1952817"><ele>115.0</ele><time>2026-03-28T11:01:11.581Z</time></trkpt><trkpt lat="43.8886347" lon="11.1953747"><ele>115.0</ele><time>2026-03-28T11:01:13.575Z</time></trkpt><trkpt lat="43.888638" lon="11.1954693"><ele>115.00000000000001</ele><time>2026-03-28T11:01:15.583Z</time></trkpt><trkpt lat="43.8886662" lon="11.195552"><ele>115.0</ele><time>2026-03-28T11:01:17.576Z</time></trkpt><trkpt lat="43.888745" lon="11.1956178"><ele>115.00000000000001</ele><time>2026-03-28T11:01:20.577Z</time></trkpt><trkpt lat="43.8888044" lon="11.1956608"><ele>115.0</ele><time>2026-03-28T11:01:22.587Z</time></trkpt><trkpt lat="43.8888507" lon="11.1957251"><ele>115.0</ele><time>2026-03-28T11:01:24.616Z</time></trkpt><trkpt lat="43.8888895" lon="11.1958382"><ele>115.0</ele><time>2026-03-28T11:01:27.577Z</time></trkpt><trkpt lat="43.8888953" lon="11.1959537"><ele>115.00000000000001</ele><time>2026-03-28T11:01:30.58Z</time></trkpt><trkpt lat="43.8888779" lon="11.1960589"><ele>115.0</ele><time>2026-03-28T11:01:33.587Z</time></trkpt><trkpt lat="43.8888219" lon="11.1961846"><ele>115.28571428571428</ele><time>2026-03-28T11:01:37.596Z</time></trkpt><trkpt lat="43.8887809" lon="11.1962647"><ele>115.57142857142857</ele><time>2026-03-28T11:01:40.69Z</time></trkpt><trkpt lat="43.8887565" lon="11.1963602"><ele>115.85714285714286</ele><time>2026-03-28T11:01:43.576Z</time></trkpt><trkpt lat="43.8887608" lon="11.1964494"><ele>116.14285714285714</ele><time>2026-03-28T11:01:47.587Z</time></trkpt><trkpt lat="43.8888223" lon="11.1965105"><ele>116.42857142857144</ele><time>2026-03-28T11:01:52.582Z</time></trkpt><trkpt lat="43.8889016" lon="11.1965686"><ele>116.71428571428572</ele><time>2026-03-28T11:01:57.579Z</time></trkpt><trkpt lat="43.8889566" lon="11.1966112"><ele>117.0</ele><time>2026-03-28T11:02:00.583Z</time></trkpt><trkpt lat="43.8890098" lon="11.1966827"><ele>118.0</ele><time>2026-03-28T11:02:04.689Z</time></trkpt><trkpt lat="43.8890475" lon="11.1967648"><ele>119.00000000000001</ele><time>2026-03-28T11:02:08.596Z</time></trkpt><trkpt lat="43.8890921" lon="11.1968464"><ele>120.0</ele><time>2026-03-28T11:02:12.58Z</time></trkpt><trkpt lat="43.8891398" lon="11.1969092"><ele>121.0</ele><time>2026-03-28T11:02:16.575Z</time></trkpt><trkpt lat="43.8891868" lon="11.1969695"><ele>122.00000000000001</ele><time>2026-03-28T11:02:20.578Z</time></trkpt><trkpt lat="43.8892439" lon="11.1970383"><ele>123.0</ele><time>2026-03-28T11:02:24.574Z</time></trkpt><trkpt lat="43.8892914" lon="11.1971097"><ele>124.0</ele><time>2026-03-28T11:02:28.564Z</time></trkpt><trkpt lat="43.8893344" lon="11.1971858"><ele>124.0</ele><time>2026-03-28T11:02:32.589Z</time></trkpt><trkpt lat="43.8893625" lon="11.197287"><ele>124.00000000000001</ele><time>2026-03-28T11:02:37.575Z</time></trkpt><trkpt lat="43.8893947" lon="11.1973876"><ele>124.0</ele><time>2026-03-28T11:02:42.577Z</time></trkpt><trkpt lat="43.8894037" lon="11.1974844"><ele>124.0</ele><time>2026-03-28T11:02:47.562Z</time></trkpt><trkpt lat="43.8894076" lon="11.1975739"><ele>124.00000000000001</ele><time>2026-03-28T11:02:52.581Z</time></trkpt><trkpt lat="43.8894089" lon="11.1976715"><ele>124.0</ele><time>2026-03-28T11:02:57.574Z</time></trkpt><trkpt lat="43.8894239" lon="11.1977726"><ele>124.0</ele><time>2026-03-28T11:03:03.577Z</time></trkpt><trkpt lat="43.8894703" lon="11.1978359"><ele>124.0</ele><time>2026-03-28T11:03:09.684Z</time></trkpt><trkpt lat="43.8894223" lon="11.1977595"><ele>124.0</ele><time>2026-03-28T11:07:17.583Z</time></trkpt><trkpt lat="43.8894106" lon="11.1976068"><ele>124.0</ele><time>2026-03-28T11:07:20.694Z</time></trkpt><trkpt lat="43.8894157" lon="11.1974103"><ele>124.0</ele><time>2026-03-28T11:07:22.585Z</time></trkpt><trkpt lat="43.8893863" lon="11.1973006"><ele>124.0</ele><time>2026-03-28T11:07:23.572Z</time></trkpt><trkpt lat="43.8893397" lon="11.1971928"><ele>124.00000000000001</ele><time>2026-03-28T11:07:24.583Z</time></trkpt><trkpt lat="43.8892853" lon="11.1970982"><ele>124.0</ele><time>2026-03-28T11:07:25.586Z</time></trkpt><trkpt lat="43.8892257" lon="11.1970142"><ele>124.0</ele><time>2026-03-28T11:07:26.582Z</time></trkpt><trkpt lat="43.8891618" lon="11.1969399"><ele>124.0</ele><time>2026-03-28T11:07:27.578Z</time></trkpt><trkpt lat="43.8891079" lon="11.1968649"><ele>124.00000000000001</ele><time>2026-03-28T11:07:28.69Z</time></trkpt><trkpt lat="43.8890636" lon="11.1967851"><ele>124.0</ele><time>2026-03-28T11:07:29.69Z</time></trkpt><trkpt lat="43.8890212" lon="11.1967045"><ele>125.0</ele><time>2026-03-28T11:07:30.686Z</time></trkpt><trkpt lat="43.8889267" lon="11.1965743"><ele>126.0</ele><time>2026-03-28T11:07:32.583Z</time></trkpt><trkpt lat="43.8888268" lon="11.1964941"><ele>127.0</ele><time>2026-03-28T11:07:34.577Z</time></trkpt><trkpt lat="43.8887818" lon="11.1963716"><ele>128.0</ele><time>2026-03-28T11:07:36.583Z</time></trkpt><trkpt lat="43.8887979" lon="11.1962793"><ele>129.0</ele><time>2026-03-28T11:07:37.564Z</time></trkpt><trkpt lat="43.8888326" lon="11.1961798"><ele>126.6</ele><time>2026-03-28T11:07:38.58Z</time></trkpt><trkpt lat="43.8888652" lon="11.1960866"><ele>124.2</ele><time>2026-03-28T11:07:39.691Z</time></trkpt><trkpt lat="43.8889066" lon="11.195908"><ele>121.79999999999998</ele><time>2026-03-28T11:07:41.579Z</time></trkpt><trkpt lat="43.8888815" lon="11.1957475"><ele>119.39999999999999</ele><time>2026-03-28T11:07:43.581Z</time></trkpt><trkpt lat="43.8887971" lon="11.1956377"><ele>117.0</ele><time>2026-03-28T11:07:45.693Z</time></trkpt><trkpt lat="43.8886931" lon="11.1955517"><ele>116.6</ele><time>2026-03-28T11:07:47.586Z</time></trkpt><trkpt lat="43.8886472" lon="11.1954244"><ele>116.19999999999999</ele><time>2026-03-28T11:07:49.693Z</time></trkpt><trkpt lat="43.8886461" lon="11.1952367"><ele>115.8</ele><time>2026-03-28T11:07:52.58Z</time></trkpt><trkpt lat="43.8885952" lon="11.1951448"><ele>115.4</ele><time>2026-03-28T11:07:54.689Z</time></trkpt><trkpt lat="43.8885161" lon="11.1950529"><ele>115.0</ele><time>2026-03-28T11:07:57.578Z</time></trkpt><trkpt lat="43.8884532" lon="11.1950231"><ele>114.83333333333334</ele><time>2026-03-28T11:07:59.709Z</time></trkpt><trkpt lat="43.8883581" lon="11.194998"><ele>114.66666666666667</ele><time>2026-03-28T11:08:02.582Z</time></trkpt><trkpt lat="43.8882759" lon="11.194963"><ele>114.5</ele><time>2026-03-28T11:08:05.698Z</time></trkpt><trkpt lat="43.8882126" lon="11.1948888"><ele>114.33333333333334</ele><time>2026-03-28T11:08:09.565Z</time></trkpt><trkpt lat="43.8881967" lon="11.1948008"><ele>114.16666666666667</ele><time>2026-03-28T11:08:11.553Z</time></trkpt><trkpt lat="43.8881717" lon="11.1947049"><ele>114.0</ele><time>2026-03-28T11:08:13.581Z</time></trkpt><trkpt lat="43.8881397" lon="11.1946046"><ele>114.0</ele><time>2026-03-28T11:08:15.576Z</time></trkpt><trkpt lat="43.888103" lon="11.1945048"><ele>114.0</ele><time>2026-03-28T11:08:17.58Z</time></trkpt><trkpt lat="43.8880733" lon="11.1944123"><ele>114.0</ele><time>2026-03-28T11:08:19.583Z</time></trkpt><trkpt lat="43.8880407" lon="11.1943197"><ele>114.0</ele><time>2026-03-28T11:08:21.581Z</time></trkpt><trkpt lat="43.8880053" lon="11.1942206"><ele>114.0</ele><time>2026-03-28T11:08:23.581Z</time></trkpt><trkpt lat="43.8879688" lon="11.1941229"><ele>114.0</ele><time>2026-03-28T11:08:25.564Z</time></trkpt><trkpt lat="43.8879174" lon="11.1940331"><ele>113.66666666666667</ele><time>2026-03-28T11:08:27.584Z</time></trkpt><trkpt lat="43.8878723" lon="11.1939474"><ele>113.33333333333334</ele><time>2026-03-28T11:08:29.578Z</time></trkpt><trkpt lat="43.8878335" lon="11.1938592"><ele>113.0</ele><time>2026-03-28T11:08:31.578Z</time></trkpt><trkpt lat="43.8878002" lon="11.1937658"><ele>112.66666666666667</ele><time>2026-03-28T11:08:33.585Z</time></trkpt><trkpt lat="43.8877688" lon="11.1936834"><ele>112.33333333333334</ele><time>2026-03-28T11:08:35.595Z</time></trkpt><trkpt lat="43.8877269" lon="11.193582"><ele>112.0</ele><time>2026-03-28T11:08:38.58Z</time></trkpt><trkpt lat="43.8876788" lon="11.1934935"><ele>112.00000000000001</ele><time>2026-03-28T11:08:41.589Z</time></trkpt><trkpt lat="43.8876212" lon="11.1933845"><ele>112.0</ele><time>2026-03-28T11:08:44.587Z</time></trkpt><trkpt lat="43.8875758" lon="11.1933082"><ele>112.0</ele><time>2026-03-28T11:08:46.587Z</time></trkpt><trkpt lat="43.8875419" lon="11.1932321"><ele>112.0</ele><time>2026-03-28T11:08:48.565Z</time></trkpt><trkpt lat="43.8874907" lon="11.1931122"><ele>112.00000000000001</ele><time>2026-03-28T11:08:52.582Z</time></trkpt><trkpt lat="43.8874389" lon="11.1930434"><ele>112.0</ele><time>2026-03-28T11:08:56.563Z</time></trkpt><trkpt lat="43.8874913" lon="11.1931197"><ele>114.00000000000001</ele><time>2026-03-28T11:09:55.564Z</time></trkpt><trkpt lat="43.8875121" lon="11.1932223"><ele>116.0</ele><time>2026-03-28T11:09:59.562Z</time></trkpt><trkpt lat="43.8875163" lon="11.1933352"><ele>118.0</ele><time>2026-03-28T11:10:03.565Z</time></trkpt><trkpt lat="43.8875205" lon="11.1934344"><ele>120.0</ele><time>2026-03-28T11:10:06.571Z</time></trkpt><trkpt lat="43.8875293" lon="11.1935452"><ele>122.00000000000001</ele><time>2026-03-28T11:10:10.579Z</time></trkpt><trkpt lat="43.8875396" lon="11.193648"><ele>124.0</ele><time>2026-03-28T11:10:14.558Z</time></trkpt><trkpt lat="43.887566" lon="11.1937604"><ele>124.0</ele><time>2026-03-28T11:10:18.562Z</time></trkpt><trkpt lat="43.8875683" lon="11.1938575"><ele>124.00000000000001</ele><time>2026-03-28T11:10:21.565Z</time></trkpt><trkpt lat="43.8875906" lon="11.1939443"><ele>124.0</ele><time>2026-03-28T11:10:24.558Z</time></trkpt><trkpt lat="43.8876156" lon="11.1940356"><ele>124.0</ele><time>2026-03-28T11:10:27.56Z</time></trkpt><trkpt lat="43.8876268" lon="11.1941406"><ele>124.00000000000001</ele><time>2026-03-28T11:10:30.571Z</time></trkpt><trkpt lat="43.8876384" lon="11.1942335"><ele>124.0</ele><time>2026-03-28T11:10:33.558Z</time></trkpt><trkpt lat="43.8876389" lon="11.1943467"><ele>124.0</ele><time>2026-03-28T11:10:37.569Z</time></trkpt><trkpt lat="43.8876484" lon="11.1944349"><ele>123.57142857142858</ele><time>2026-03-28T11:10:40.566Z</time></trkpt><trkpt lat="43.8876401" lon="11.1945276"><ele>123.14285714285715</ele><time>2026-03-28T11:10:43.563Z</time></trkpt><trkpt lat="43.8876506" lon="11.1946143"><ele>122.71428571428572</ele><time>2026-03-28T11:10:46.585Z</time></trkpt><trkpt lat="43.8876708" lon="11.1947332"><ele>122.28571428571428</ele><time>2026-03-28T11:10:51.587Z</time></trkpt><trkpt lat="43.8876756" lon="11.1948351"><ele>121.85714285714285</ele><time>2026-03-28T11:10:54.694Z</time></trkpt><trkpt lat="43.8876721" lon="11.1949283"><ele>121.42857142857142</ele><time>2026-03-28T11:10:57.59Z</time></trkpt><trkpt lat="43.8876625" lon="11.1950218"><ele>121.0</ele><time>2026-03-28T11:11:00.585Z</time></trkpt><trkpt lat="43.8876522" lon="11.1951137"><ele>121.0</ele><time>2026-03-28T11:11:03.583Z</time></trkpt><trkpt lat="43.8876686" lon="11.1952169"><ele>120.99999999999999</ele><time>2026-03-28T11:11:07.58Z</time></trkpt><trkpt lat="43.8876735" lon="11.1953249"><ele>121.0</ele><time>2026-03-28T11:11:11.592Z</time></trkpt><trkpt lat="43.8876699" lon="11.1954315"><ele>121.0</ele><time>2026-03-28T11:11:15.582Z</time></trkpt><trkpt lat="43.8876631" lon="11.1955384"><ele>120.99999999999999</ele><time>2026-03-28T11:11:19.586Z</time></trkpt><trkpt lat="43.8876539" lon="11.1956377"><ele>121.0</ele><time>2026-03-28T11:11:23.586Z</time></trkpt><trkpt lat="43.8876468" lon="11.1957265"><ele>121.0</ele><time>2026-03-28T11:11:27.583Z</time></trkpt><trkpt lat="43.887636" lon="11.1958288"><ele>121.85714285714285</ele><time>2026-03-28T11:11:31.582Z</time></trkpt><trkpt lat="43.887614" lon="11.1959251"><ele>122.7142857142857</ele><time>2026-03-28T11:11:36.72Z</time></trkpt><trkpt lat="43.8875649" lon="11.196009"><ele>123.57142857142857</ele><time>2026-03-28T11:11:41.601Z</time></trkpt><trkpt lat="43.8875035" lon="11.1960341"><ele>124.42857142857142</ele><time>2026-03-28T11:11:47.582Z</time></trkpt><trkpt lat="43.8874888" lon="11.1959229"><ele>125.28571428571428</ele><time>2026-03-28T11:11:53.579Z</time></trkpt><trkpt lat="43.8874796" lon="11.1958263"><ele>126.14285714285714</ele><time>2026-03-28T11:11:58.577Z</time></trkpt><trkpt lat="43.8874738" lon="11.1957257"><ele>127.0</ele><time>2026-03-28T11:12:04.593Z</time></trkpt><trkpt lat="43.8874488" lon="11.1956278"><ele>131.0</ele><time>2026-03-28T11:12:09.583Z</time></trkpt><trkpt lat="43.8874237" lon="11.1955469"><ele>135.0</ele><time>2026-03-28T11:12:14.684Z</time></trkpt><trkpt lat="43.8873861" lon="11.1954486"><ele>139.0</ele><time>2026-03-28T11:12:19.696Z</time></trkpt><trkpt lat="43.8873575" lon="11.1953558"><ele>143.0</ele><time>2026-03-28T11:12:24.709Z</time></trkpt><trkpt lat="43.8873337" lon="11.1952624"><ele>147.0</ele><time>2026-03-28T11:12:29.697Z</time></trkpt><trkpt lat="43.8872954" lon="11.1951855"><ele>151.0</ele><time>2026-03-28T11:12:34.589Z</time></trkpt><trkpt lat="43.8872594" lon="11.1950939"><ele>155.0</ele><time>2026-03-28T11:12:39.701Z</time></trkpt><trkpt lat="43.8872262" lon="11.1950057"><ele>155.0</ele><time>2026-03-28T11:12:44.586Z</time></trkpt><trkpt lat="43.8872068" lon="11.1949162"><ele>155.0</ele><time>2026-03-28T11:12:49.567Z</time></trkpt><trkpt lat="43.8871654" lon="11.1948437"><ele>155.0</ele><time>2026-03-28T11:12:53.566Z</time></trkpt><trkpt lat="43.8871125" lon="11.1947667"><ele>155.0</ele><time>2026-03-28T11:12:58.564Z</time></trkpt><trkpt lat="43.8870689" lon="11.1946784"><ele>155.0</ele><time>2026-03-28T11:13:03.567Z</time></trkpt><trkpt lat="43.8870216" lon="11.1946012"><ele>155.0</ele><time>2026-03-28T11:13:08.578Z</time></trkpt><trkpt lat="43.8869684" lon="11.1945497"><ele>155.0</ele><time>2026-03-28T11:13:12.598Z</time></trkpt><trkpt lat="43.886916" lon="11.1944665"><ele>153.0</ele><time>2026-03-28T11:13:17.591Z</time></trkpt><trkpt lat="43.8868501" lon="11.1944098"><ele>151.0</ele><time>2026-03-28T11:13:22.587Z</time></trkpt><trkpt lat="43.8867799" lon="11.1943572"><ele>149.0</ele><time>2026-03-28T11:13:27.59Z</time></trkpt><trkpt lat="43.8866989" lon="11.1942867"><ele>147.0</ele><time>2026-03-28T11:13:33.586Z</time></trkpt><trkpt lat="43.8866411" lon="11.194248"><ele>145.0</ele><time>2026-03-28T11:13:37.593Z</time></trkpt><trkpt lat="43.8865699" lon="11.1942168"><ele>143.0</ele><time>2026-03-28T11:13:42.591Z</time></trkpt><trkpt lat="43.8864953" lon="11.1941921"><ele>148.0</ele><time>2026-03-28T11:13:47.587Z</time></trkpt><trkpt lat="43.8864172" lon="11.1941835"><ele>153.0</ele><time>2026-03-28T11:13:52.589Z</time></trkpt><trkpt lat="43.8863348" lon="11.1941838"><ele>158.0</ele><time>2026-03-28T11:13:57.59Z</time></trkpt><trkpt lat="43.8862611" lon="11.1941769"><ele>163.0</ele><time>2026-03-28T11:14:02.594Z</time></trkpt><trkpt lat="43.8861857" lon="11.1941862"><ele>168.0</ele><time>2026-03-28T11:14:06.585Z</time></trkpt><trkpt lat="43.8861107" lon="11.194194"><ele>173.0</ele><time>2026-03-28T11:14:10.698Z</time></trkpt><trkpt lat="43.8860415" lon="11.1942117"><ele>173.0</ele><time>2026-03-28T11:14:14.584Z</time></trkpt><trkpt lat="43.8859812" lon="11.1942459"><ele>173.0</ele><time>2026-03-28T11:14:18.584Z</time></trkpt><trkpt lat="43.8859758" lon="11.1943365"><ele>173.0</ele><time>2026-03-28T11:14:23.584Z</time></trkpt><trkpt lat="43.8860467" lon="11.1944083"><ele>173.0</ele><time>2026-03-28T11:14:28.585Z</time></trkpt><trkpt lat="43.8861055" lon="11.1944639"><ele>173.0</ele><time>2026-03-28T11:14:32.583Z</time></trkpt><trkpt lat="43.8861747" lon="11.1945292"><ele>173.0</ele><time>2026-03-28T11:14:37.592Z</time></trkpt><trkpt lat="43.8862254" lon="11.1946276"><ele>173.0</ele><time>2026-03-28T11:14:42.584Z</time></trkpt><trkpt lat="43.8862596" lon="11.1947228"><ele>173.0</ele><time>2026-03-28T11:14:47.574Z</time></trkpt><trkpt lat="43.8862864" lon="11.1948157"><ele>173.0</ele><time>2026-03-28T11:14:52.564Z</time></trkpt><trkpt lat="43.8863088" lon="11.1948976"><ele>173.0</ele><time>2026-03-28T11:14:56.578Z</time></trkpt><trkpt lat="43.8863394" lon="11.1949871"><ele>173.0</ele><time>2026-03-28T11:15:00.586Z</time></trkpt><trkpt lat="43.8863757" lon="11.1950815"><ele>173.0</ele><time>2026-03-28T11:15:04.575Z</time></trkpt><trkpt lat="43.8864067" lon="11.1951713"><ele>173.0</ele><time>2026-03-28T11:15:08.57Z</time></trkpt><trkpt lat="43.8864267" lon="11.1952623"><ele>175.85714285714286</ele><time>2026-03-28T11:15:12.585Z</time></trkpt><trkpt lat="43.8864583" lon="11.1953401"><ele>178.71428571428572</ele><time>2026-03-28T11:15:15.697Z</time></trkpt><trkpt lat="43.886491" lon="11.195431"><ele>181.57142857142858</ele><time>2026-03-28T11:15:19.704Z</time></trkpt><trkpt lat="43.8865212" lon="11.1955402"><ele>184.42857142857144</ele><time>2026-03-28T11:15:23.57Z</time></trkpt><trkpt lat="43.8865544" lon="11.1956292"><ele>187.28571428571428</ele><time>2026-03-28T11:15:27.594Z</time></trkpt><trkpt lat="43.8865561" lon="11.195717"><ele>190.14285714285717</ele><time>2026-03-28T11:15:33.576Z</time></trkpt><trkpt lat="43.886617" lon="11.1957762"><ele>193.0</ele><time>2026-03-28T11:16:09.574Z</time></trkpt><trkpt lat="43.8865575" lon="11.1958174"><ele>194.42857142857144</ele><time>2026-03-28T11:17:29.567Z</time></trkpt><trkpt lat="43.8864901" lon="11.195842"><ele>195.85714285714286</ele><time>2026-03-28T11:17:33.576Z</time></trkpt><trkpt lat="43.8864319" lon="11.1958806"><ele>197.28571428571428</ele><time>2026-03-28T11:17:38.574Z</time></trkpt><trkpt lat="43.8863636" lon="11.1958736"><ele>198.71428571428572</ele><time>2026-03-28T11:17:43.572Z</time></trkpt><trkpt lat="43.8862866" lon="11.1958608"><ele>200.14285714285714</ele><time>2026-03-28T11:17:48.563Z</time></trkpt><trkpt lat="43.8862217" lon="11.1958629"><ele>201.57142857142858</ele><time>2026-03-28T11:17:53.569Z</time></trkpt><trkpt lat="43.8861492" lon="11.1958359"><ele>203.0</ele><time>2026-03-28T11:17:57.58Z</time></trkpt><trkpt lat="43.8860773" lon="11.1958085"><ele>203.0</ele><time>2026-03-28T11:18:02.563Z</time></trkpt><trkpt lat="43.8860029" lon="11.195769"><ele>203.0</ele><time>2026-03-28T11:18:06.566Z</time></trkpt><trkpt lat="43.8859279" lon="11.19574"><ele>203.0</ele><time>2026-03-28T11:18:10.562Z</time></trkpt><trkpt lat="43.8858661" lon="11.195705"><ele>203.0</ele><time>2026-03-28T11:18:14.568Z</time></trkpt><trkpt lat="43.8857851" lon="11.1956999"><ele>203.0</ele><time>2026-03-28T11:18:18.573Z</time></trkpt><trkpt lat="43.8857186" lon="11.1957118"><ele>203.0</ele><time>2026-03-28T11:18:22.566Z</time></trkpt><trkpt lat="43.8856613" lon="11.1957691"><ele>203.0</ele><time>2026-03-28T11:18:27.57Z</time></trkpt><trkpt lat="43.8855903" lon="11.1958216"><ele>207.00000000000003</ele><time>2026-03-28T11:18:31.585Z</time></trkpt><trkpt lat="43.8855215" lon="11.1958677"><ele>211.0</ele><time>2026-03-28T11:18:35.572Z</time></trkpt><trkpt lat="43.8854466" lon="11.1958972"><ele>215.0</ele><time>2026-03-28T11:18:39.571Z</time></trkpt><trkpt lat="43.8853809" lon="11.1959619"><ele>219.0</ele><time>2026-03-28T11:18:43.576Z</time></trkpt><trkpt lat="43.885322" lon="11.1960252"><ele>223.00000000000003</ele><time>2026-03-28T11:18:47.583Z</time></trkpt><trkpt lat="43.8852527" lon="11.1960739"><ele>227.0</ele><time>2026-03-28T11:18:51.569Z</time></trkpt><trkpt lat="43.8851881" lon="11.1960915"><ele>227.0</ele><time>2026-03-28T11:18:56.574Z</time></trkpt><trkpt lat="43.8851275" lon="11.1961397"><ele>227.00000000000003</ele><time>2026-03-28T11:19:00.57Z</time></trkpt><trkpt lat="43.8850595" lon="11.1961814"><ele>227.0</ele><time>2026-03-28T11:19:04.568Z</time></trkpt><trkpt lat="43.8849942" lon="11.1961841"><ele>227.0</ele><time>2026-03-28T11:19:08.571Z</time></trkpt><trkpt lat="43.8849166" lon="11.1961681"><ele>227.00000000000003</ele><time>2026-03-28T11:19:12.571Z</time></trkpt><trkpt lat="43.8848475" lon="11.1961654"><ele>227.0</ele><time>2026-03-28T11:19:15.582Z</time></trkpt><trkpt lat="43.8847748" lon="11.1961562"><ele>227.0</ele><time>2026-03-28T11:19:19.593Z</time></trkpt><trkpt lat="43.8847092" lon="11.1961703"><ele>229.71428571428572</ele><time>2026-03-28T11:19:23.57Z</time></trkpt><trkpt lat="43.8846367" lon="11.1961919"><ele>232.42857142857144</ele><time>2026-03-28T11:19:28.564Z</time></trkpt><trkpt lat="43.8845802" lon="11.1962433"><ele>235.14285714285717</ele><time>2026-03-28T11:19:33.583Z</time></trkpt><trkpt lat="43.884524" lon="11.1962972"><ele>237.8571428571429</ele><time>2026-03-28T11:19:37.565Z</time></trkpt><trkpt lat="43.8844584" lon="11.1963526"><ele>240.57142857142858</ele><time>2026-03-28T11:19:42.581Z</time></trkpt><trkpt lat="43.8844033" lon="11.1963951"><ele>243.28571428571433</ele><time>2026-03-28T11:19:46.564Z</time></trkpt><trkpt lat="43.8843474" lon="11.1964448"><ele>246.00000000000003</ele><time>2026-03-28T11:19:50.565Z</time></trkpt><trkpt lat="43.8842879" lon="11.1964868"><ele>249.66666666666666</ele><time>2026-03-28T11:19:54.586Z</time></trkpt><trkpt lat="43.8842263" lon="11.1965364"><ele>253.33333333333331</ele><time>2026-03-28T11:19:57.576Z</time></trkpt><trkpt lat="43.8841575" lon="11.1965784"><ele>257.0</ele><time>2026-03-28T11:20:01.566Z</time></trkpt><trkpt lat="43.8840835" lon="11.1966294"><ele>260.66666666666663</ele><time>2026-03-28T11:20:05.57Z</time></trkpt><trkpt lat="43.8840314" lon="11.1966942"><ele>264.3333333333333</ele><time>2026-03-28T11:20:08.565Z</time></trkpt><trkpt lat="43.8839705" lon="11.1967582"><ele>268.0</ele><time>2026-03-28T11:20:12.568Z</time></trkpt><trkpt lat="43.88391" lon="11.1968194"><ele>268.0</ele><time>2026-03-28T11:20:16.572Z</time></trkpt><trkpt lat="43.8838613" lon="11.1968792"><ele>268.0</ele><time>2026-03-28T11:20:19.563Z</time></trkpt><trkpt lat="43.8838221" lon="11.1969616"><ele>268.0</ele><time>2026-03-28T11:20:23.57Z</time></trkpt><trkpt lat="43.8838254" lon="11.1970661"><ele>268.0</ele><time>2026-03-28T11:20:27.567Z</time></trkpt><trkpt lat="43.8838394" lon="11.1971538"><ele>268.0</ele><time>2026-03-28T11:20:31.581Z</time></trkpt><trkpt lat="43.8837866" lon="11.197233"><ele>268.0</ele><time>2026-03-28T11:20:35.586Z</time></trkpt><trkpt lat="43.8837427" lon="11.1973303"><ele>268.0</ele><time>2026-03-28T11:20:39.587Z</time></trkpt><trkpt lat="43.883774" lon="11.1974342"><ele>269.66666666666663</ele><time>2026-03-28T11:20:43.564Z</time></trkpt><trkpt lat="43.8838344" lon="11.1975029"><ele>271.3333333333333</ele><time>2026-03-28T11:20:47.579Z</time></trkpt><trkpt lat="43.883879" lon="11.1975687"><ele>273.0</ele><time>2026-03-28T11:20:50.562Z</time></trkpt><trkpt lat="43.8839328" lon="11.1976496"><ele>274.6666666666667</ele><time>2026-03-28T11:20:54.57Z</time></trkpt><trkpt lat="43.8839499" lon="11.1977606"><ele>276.33333333333337</ele><time>2026-03-28T11:20:58.566Z</time></trkpt><trkpt lat="43.8839475" lon="11.1978642"><ele>278.0</ele><time>2026-03-28T11:21:02.572Z</time></trkpt><trkpt lat="43.8839725" lon="11.1979645"><ele>278.0</ele><time>2026-03-28T11:21:06.565Z</time></trkpt><trkpt lat="43.8839761" lon="11.1980707"><ele>278.0</ele><time>2026-03-28T11:21:10.575Z</time></trkpt><trkpt lat="43.8839361" lon="11.1981689"><ele>278.0</ele><time>2026-03-28T11:22:22.571Z</time></trkpt><trkpt lat="43.8838808" lon="11.1982407"><ele>278.0</ele><time>2026-03-28T11:22:27.585Z</time></trkpt><trkpt lat="43.8838209" lon="11.1983101"><ele>278.0</ele><time>2026-03-28T11:22:31.593Z</time></trkpt><trkpt lat="43.8837667" lon="11.1983938"><ele>278.0</ele><time>2026-03-28T11:22:35.716Z</time></trkpt><trkpt lat="43.8837181" lon="11.1984633"><ele>279.0</ele><time>2026-03-28T11:22:38.604Z</time></trkpt><trkpt lat="43.8836722" lon="11.1985342"><ele>280.0</ele><time>2026-03-28T11:22:41.71Z</time></trkpt><trkpt lat="43.8836156" lon="11.1985738"><ele>281.0</ele><time>2026-03-28T11:22:44.58Z</time></trkpt><trkpt lat="43.8835639" lon="11.1986602"><ele>282.0</ele><time>2026-03-28T11:22:48.6Z</time></trkpt><trkpt lat="43.8835421" lon="11.1987744"><ele>283.0</ele><time>2026-03-28T11:22:52.591Z</time></trkpt><trkpt lat="43.8835197" lon="11.1989133"><ele>284.0</ele><time>2026-03-28T11:22:57.596Z</time></trkpt><trkpt lat="43.8834955" lon="11.1990237"><ele>284.33333333333337</ele><time>2026-03-28T11:23:01.7Z</time></trkpt><trkpt lat="43.8834425" lon="11.1991018"><ele>284.6666666666667</ele><time>2026-03-28T11:23:05.597Z</time></trkpt><trkpt lat="43.8833905" lon="11.1991659"><ele>285.0</ele><time>2026-03-28T11:23:08.612Z</time></trkpt><trkpt lat="43.8833512" lon="11.1992925"><ele>285.3333333333333</ele><time>2026-03-28T11:23:12.595Z</time></trkpt><trkpt lat="43.8833659" lon="11.199394"><ele>285.66666666666663</ele><time>2026-03-28T11:23:15.607Z</time></trkpt><trkpt lat="43.8833935" lon="11.1994837"><ele>286.0</ele><time>2026-03-28T11:23:18.589Z</time></trkpt><trkpt lat="43.8834017" lon="11.1995837"><ele>287.66666666666663</ele><time>2026-03-28T11:23:21.603Z</time></trkpt><trkpt lat="43.8833792" lon="11.1996735"><ele>289.3333333333333</ele><time>2026-03-28T11:23:24.585Z</time></trkpt><trkpt lat="43.8833344" lon="11.1997452"><ele>291.0</ele><time>2026-03-28T11:23:27.597Z</time></trkpt><trkpt lat="43.8832396" lon="11.1998196"><ele>292.6666666666667</ele><time>2026-03-28T11:23:32.599Z</time></trkpt><trkpt lat="43.8831901" lon="11.199886"><ele>294.33333333333337</ele><time>2026-03-28T11:23:35.706Z</time></trkpt><trkpt lat="43.8831576" lon="11.1999729"><ele>296.0</ele><time>2026-03-28T11:23:40.706Z</time></trkpt><trkpt lat="43.8831271" lon="11.2000639"><ele>297.0</ele><time>2026-03-28T11:23:44.702Z</time></trkpt><trkpt lat="43.8830746" lon="11.2001459"><ele>298.0</ele><time>2026-03-28T11:23:48.577Z</time></trkpt><trkpt lat="43.8830101" lon="11.2002205"><ele>299.0</ele><time>2026-03-28T11:23:52.608Z</time></trkpt><trkpt lat="43.8829817" lon="11.2003039"><ele>300.0</ele><time>2026-03-28T11:23:55.601Z</time></trkpt><trkpt lat="43.8829359" lon="11.2003921"><ele>301.0</ele><time>2026-03-28T11:23:59.584Z</time></trkpt><trkpt lat="43.8828777" lon="11.2004314"><ele>302.0</ele><time>2026-03-28T11:24:02.601Z</time></trkpt><trkpt lat="43.8827895" lon="11.2004613"><ele>302.0</ele><time>2026-03-28T11:24:07.588Z</time></trkpt><trkpt lat="43.8827239" lon="11.2004895"><ele>302.0</ele><time>2026-03-28T11:24:10.693Z</time></trkpt><trkpt lat="43.8826547" lon="11.200503"><ele>302.0</ele><time>2026-03-28T11:24:13.599Z</time></trkpt><trkpt lat="43.8825671" lon="11.2005152"><ele>302.0</ele><time>2026-03-28T11:24:17.595Z</time></trkpt><trkpt lat="43.882466" lon="11.200547"><ele>302.0</ele><time>2026-03-28T11:24:22.594Z</time></trkpt><trkpt lat="43.8823854" lon="11.200619"><ele>302.0</ele><time>2026-03-28T11:24:27.598Z</time></trkpt><trkpt lat="43.8823246" lon="11.2006652"><ele>304.5714285714286</ele><time>2026-03-28T11:24:30.59Z</time></trkpt><trkpt lat="43.8822578" lon="11.2006947"><ele>307.14285714285717</ele><time>2026-03-28T11:24:33.601Z</time></trkpt><trkpt lat="43.8821842" lon="11.200749"><ele>309.7142857142857</ele><time>2026-03-28T11:24:37.593Z</time></trkpt><trkpt lat="43.88212" lon="11.2007629"><ele>312.28571428571433</ele><time>2026-03-28T11:24:40.59Z</time></trkpt><trkpt lat="43.8820419" lon="11.2007605"><ele>314.8571428571429</ele><time>2026-03-28T11:24:44.699Z</time></trkpt><trkpt lat="43.8819771" lon="11.2007926"><ele>317.42857142857144</ele><time>2026-03-28T11:24:48.576Z</time></trkpt><trkpt lat="43.8819918" lon="11.2008789"><ele>320.0</ele><time>2026-03-28T11:24:53.578Z</time></trkpt><trkpt lat="43.8819949" lon="11.2009845"><ele>320.0</ele><time>2026-03-28T11:24:56.606Z</time></trkpt><trkpt lat="43.8819548" lon="11.2010828"><ele>320.0</ele><time>2026-03-28T11:25:00.586Z</time></trkpt><trkpt lat="43.8819103" lon="11.2011513"><ele>320.0</ele><time>2026-03-28T11:25:03.59Z</time></trkpt><trkpt lat="43.8818708" lon="11.2012202"><ele>320.0</ele><time>2026-03-28T11:25:06.589Z</time></trkpt><trkpt lat="43.8818172" lon="11.2013084"><ele>320.0</ele><time>2026-03-28T11:25:10.592Z</time></trkpt><trkpt lat="43.8817778" lon="11.2014112"><ele>320.0</ele><time>2026-03-28T11:25:14.575Z</time></trkpt><trkpt lat="43.8817501" lon="11.2014942"><ele>320.0</ele><time>2026-03-28T11:25:17.605Z</time></trkpt><trkpt lat="43.881715" lon="11.2015922"><ele>321.6666666666667</ele><time>2026-03-28T11:25:20.714Z</time></trkpt><trkpt lat="43.881687" lon="11.2016906"><ele>323.33333333333337</ele><time>2026-03-28T11:25:23.599Z</time></trkpt><trkpt lat="43.8816645" lon="11.2018054"><ele>325.0</ele><time>2026-03-28T11:25:26.587Z</time></trkpt><trkpt lat="43.8816496" lon="11.2019069"><ele>326.6666666666667</ele><time>2026-03-28T11:25:29.599Z</time></trkpt><trkpt lat="43.8815973" lon="11.2020095"><ele>328.3333333333333</ele><time>2026-03-28T11:25:33.598Z</time></trkpt><trkpt lat="43.8815464" lon="11.202075"><ele>330.0</ele><time>2026-03-28T11:25:36.701Z</time></trkpt><trkpt lat="43.8814999" lon="11.2021377"><ele>330.0</ele><time>2026-03-28T11:25:39.573Z</time></trkpt><trkpt lat="43.8814518" lon="11.2022017"><ele>330.0</ele><time>2026-03-28T11:25:42.595Z</time></trkpt><trkpt lat="43.8813928" lon="11.2022558"><ele>330.0</ele><time>2026-03-28T11:25:45.702Z</time></trkpt><trkpt lat="43.8813302" lon="11.2022895"><ele>330.0</ele><time>2026-03-28T11:25:48.604Z</time></trkpt><trkpt lat="43.881265" lon="11.2023596"><ele>330.0</ele><time>2026-03-28T11:25:52.603Z</time></trkpt><trkpt lat="43.8812492" lon="11.2024719"><ele>330.0</ele><time>2026-03-28T11:25:56.597Z</time></trkpt><trkpt lat="43.881209" lon="11.2025739"><ele>329.7142857142857</ele><time>2026-03-28T11:26:00.609Z</time></trkpt><trkpt lat="43.8811317" lon="11.202596"><ele>329.42857142857144</ele><time>2026-03-28T11:26:04.607Z</time></trkpt><trkpt lat="43.8810685" lon="11.2025917"><ele>329.1428571428571</ele><time>2026-03-28T11:26:07.602Z</time></trkpt><trkpt lat="43.8810031" lon="11.2025961"><ele>328.8571428571429</ele><time>2026-03-28T11:26:10.595Z</time></trkpt><trkpt lat="43.880919" lon="11.2026107"><ele>328.57142857142856</ele><time>2026-03-28T11:26:14.592Z</time></trkpt><trkpt lat="43.8808452" lon="11.2026333"><ele>328.2857142857143</ele><time>2026-03-28T11:26:18.593Z</time></trkpt><trkpt lat="43.880768" lon="11.202656"><ele>328.0</ele><time>2026-03-28T11:26:22.593Z</time></trkpt><trkpt lat="43.8806954" lon="11.2026614"><ele>328.2857142857143</ele><time>2026-03-28T11:26:28.594Z</time></trkpt><trkpt lat="43.8806577" lon="11.2025744"><ele>328.57142857142856</ele><time>2026-03-28T11:30:50.673Z</time></trkpt><trkpt lat="43.8805965" lon="11.2025283"><ele>328.8571428571429</ele><time>2026-03-28T11:30:54.594Z</time></trkpt><trkpt lat="43.8805357" lon="11.2024956"><ele>329.1428571428571</ele><time>2026-03-28T11:31:01.618Z</time></trkpt><trkpt lat="43.8804738" lon="11.2024503"><ele>329.42857142857144</ele><time>2026-03-28T11:31:34.597Z</time></trkpt><trkpt lat="43.880432" lon="11.2023845"><ele>329.7142857142857</ele><time>2026-03-28T11:31:41.717Z</time></trkpt><trkpt lat="43.8803788" lon="11.2023343"><ele>330.0</ele><time>2026-03-28T11:32:00.602Z</time></trkpt><trkpt lat="43.8803425" lon="11.2022518"><ele>330.0</ele><time>2026-03-28T11:32:08.6Z</time></trkpt><trkpt lat="43.8803087" lon="11.2021593"><ele>330.0</ele><time>2026-03-28T11:32:12.6Z</time></trkpt><trkpt lat="43.8802383" lon="11.2020499"><ele>330.0</ele><time>2026-03-28T11:32:16.601Z</time></trkpt><trkpt lat="43.8801964" lon="11.2019762"><ele>330.0</ele><time>2026-03-28T11:32:18.593Z</time></trkpt><trkpt lat="43.880159" lon="11.2018702"><ele>330.0</ele><time>2026-03-28T11:32:21.712Z</time></trkpt><trkpt lat="43.8801165" lon="11.2017663"><ele>330.0</ele><time>2026-03-28T11:32:24.64Z</time></trkpt><trkpt lat="43.8800464" lon="11.2018066"><ele>331.28571428571433</ele><time>2026-03-28T11:32:28.596Z</time></trkpt><trkpt lat="43.8800183" lon="11.2018852"><ele>332.57142857142856</ele><time>2026-03-28T11:32:33.596Z</time></trkpt><trkpt lat="43.8799726" lon="11.201946"><ele>333.8571428571429</ele><time>2026-03-28T11:33:28.6Z</time></trkpt><trkpt lat="43.8799174" lon="11.2020042"><ele>335.14285714285717</ele><time>2026-03-28T11:33:32.597Z</time></trkpt><trkpt lat="43.8798737" lon="11.202074"><ele>336.42857142857144</ele><time>2026-03-28T11:33:35.598Z</time></trkpt><trkpt lat="43.8798236" lon="11.2021397"><ele>337.7142857142857</ele><time>2026-03-28T11:33:38.601Z</time></trkpt><trkpt lat="43.879774" lon="11.2022053"><ele>339.0</ele><time>2026-03-28T11:33:41.601Z</time></trkpt><trkpt lat="43.8797238" lon="11.2022629"><ele>339.0</ele><time>2026-03-28T11:33:44.708Z</time></trkpt><trkpt lat="43.8796637" lon="11.2023279"><ele>339.0</ele><time>2026-03-28T11:33:47.595Z</time></trkpt><trkpt lat="43.8796098" lon="11.2023944"><ele>339.0</ele><time>2026-03-28T11:33:50.707Z</time></trkpt><trkpt lat="43.8795508" lon="11.2024314"><ele>339.0</ele><time>2026-03-28T11:33:53.604Z</time></trkpt><trkpt lat="43.879496" lon="11.2024827"><ele>339.0</ele><time>2026-03-28T11:33:56.707Z</time></trkpt><trkpt lat="43.8794761" lon="11.2025711"><ele>339.0</ele><time>2026-03-28T11:34:00.714Z</time></trkpt><trkpt lat="43.8794574" lon="11.2026655"><ele>339.0</ele><time>2026-03-28T11:34:03.596Z</time></trkpt><trkpt lat="43.8794356" lon="11.2027616"><ele>340.1666666666667</ele><time>2026-03-28T11:34:06.709Z</time></trkpt><trkpt lat="43.8794211" lon="11.202862"><ele>341.3333333333333</ele><time>2026-03-28T11:34:09.606Z</time></trkpt><trkpt lat="43.8794276" lon="11.2029671"><ele>342.5</ele><time>2026-03-28T11:34:12.599Z</time></trkpt><trkpt lat="43.8794444" lon="11.2031038"><ele>343.66666666666663</ele><time>2026-03-28T11:34:17.589Z</time></trkpt><trkpt lat="43.879455" lon="11.2032027"><ele>344.8333333333333</ele><time>2026-03-28T11:34:21.715Z</time></trkpt><trkpt lat="43.8794421" lon="11.2033054"><ele>346.0</ele><time>2026-03-28T11:34:24.595Z</time></trkpt><trkpt lat="43.8794433" lon="11.2034014"><ele>346.5</ele><time>2026-03-28T11:34:27.581Z</time></trkpt><trkpt lat="43.8794908" lon="11.20349"><ele>347.0</ele><time>2026-03-28T11:34:30.704Z</time></trkpt><trkpt lat="43.879532" lon="11.2035876"><ele>347.5</ele><time>2026-03-28T11:34:34.644Z</time></trkpt><trkpt lat="43.879577" lon="11.2036854"><ele>348.0</ele><time>2026-03-28T11:34:38.606Z</time></trkpt><trkpt lat="43.8796187" lon="11.2038108"><ele>348.5</ele><time>2026-03-28T11:34:43.602Z</time></trkpt><trkpt lat="43.8796496" lon="11.2038966"><ele>349.0</ele><time>2026-03-28T11:34:46.707Z</time></trkpt><trkpt lat="43.8796754" lon="11.2039923"><ele>350.16666666666663</ele><time>2026-03-28T11:34:50.706Z</time></trkpt><trkpt lat="43.8796956" lon="11.2040895"><ele>351.3333333333333</ele><time>2026-03-28T11:34:54.647Z</time></trkpt><trkpt lat="43.8797166" lon="11.2041906"><ele>352.5</ele><time>2026-03-28T11:34:58.611Z</time></trkpt><trkpt lat="43.8797286" lon="11.2042983"><ele>353.6666666666667</ele><time>2026-03-28T11:35:02.599Z</time></trkpt><trkpt lat="43.8797449" lon="11.2044084"><ele>354.83333333333337</ele><time>2026-03-28T11:35:06.594Z</time></trkpt><trkpt lat="43.8797578" lon="11.204533"><ele>356.0</ele><time>2026-03-28T11:35:11.604Z</time></trkpt><trkpt lat="43.87978" lon="11.2046343"><ele>355.99999999999994</ele><time>2026-03-28T11:35:15.597Z</time></trkpt><trkpt lat="43.8797864" lon="11.2047401"><ele>356.0</ele><time>2026-03-28T11:35:19.647Z</time></trkpt><trkpt lat="43.8797886" lon="11.2048581"><ele>356.0</ele><time>2026-03-28T11:35:24.653Z</time></trkpt><trkpt lat="43.8797919" lon="11.2049468"><ele>356.0</ele><time>2026-03-28T11:35:28.594Z</time></trkpt><trkpt lat="43.8798074" lon="11.2050563"><ele>356.0</ele><time>2026-03-28T11:35:33.592Z</time></trkpt><trkpt lat="43.8798355" lon="11.205135"><ele>355.99999999999994</ele><time>2026-03-28T11:35:39.643Z</time></trkpt><trkpt lat="43.879862" lon="11.2052291"><ele>356.0</ele><time>2026-03-28T11:35:44.604Z</time></trkpt><trkpt lat="43.879888" lon="11.2053141"><ele>358.2857142857143</ele><time>2026-03-28T11:35:48.595Z</time></trkpt><trkpt lat="43.8799142" lon="11.2053969"><ele>360.57142857142856</ele><time>2026-03-28T11:35:53.598Z</time></trkpt><trkpt lat="43.8798537" lon="11.2053649"><ele>362.8571428571429</ele><time>2026-03-28T11:36:59.652Z</time></trkpt><trkpt lat="43.8798186" lon="11.2052819"><ele>365.1428571428571</ele><time>2026-03-28T11:37:03.603Z</time></trkpt><trkpt lat="43.8797673" lon="11.2052232"><ele>367.42857142857144</ele><time>2026-03-28T11:37:06.707Z</time></trkpt><trkpt lat="43.8797233" lon="11.2051494"><ele>369.7142857142857</ele><time>2026-03-28T11:37:09.658Z</time></trkpt><trkpt lat="43.8796711" lon="11.2050669"><ele>372.0</ele><time>2026-03-28T11:37:13.596Z</time></trkpt><trkpt lat="43.8796386" lon="11.2049893"><ele>372.0</ele><time>2026-03-28T11:37:16.708Z</time></trkpt><trkpt lat="43.879601" lon="11.2049119"><ele>372.0</ele><time>2026-03-28T11:37:19.653Z</time></trkpt><trkpt lat="43.8795587" lon="11.2048254"><ele>372.0</ele><time>2026-03-28T11:37:23.607Z</time></trkpt><trkpt lat="43.8795076" lon="11.2047444"><ele>372.0</ele><time>2026-03-28T11:37:28.595Z</time></trkpt><trkpt lat="43.8794563" lon="11.2046495"><ele>372.0</ele><time>2026-03-28T11:37:32.596Z</time></trkpt><trkpt lat="43.8794007" lon="11.2045759"><ele>372.0</ele><time>2026-03-28T11:37:36.712Z</time></trkpt><trkpt lat="43.879359" lon="11.2044954"><ele>369.7142857142857</ele><time>2026-03-28T11:37:40.712Z</time></trkpt><trkpt lat="43.8793128" lon="11.2044236"><ele>367.42857142857144</ele><time>2026-03-28T11:37:44.589Z</time></trkpt><trkpt lat="43.8792584" lon="11.2043756"><ele>365.1428571428571</ele><time>2026-03-28T11:37:49.588Z</time></trkpt><trkpt lat="43.8791922" lon="11.2043447"><ele>362.8571428571429</ele><time>2026-03-28T11:37:54.64Z</time></trkpt><trkpt lat="43.879129" lon="11.2043096"><ele>360.57142857142856</ele><time>2026-03-28T11:37:58.602Z</time></trkpt><trkpt lat="43.8790612" lon="11.2042692"><ele>358.2857142857143</ele><time>2026-03-28T11:38:02.582Z</time></trkpt><trkpt lat="43.8789917" lon="11.2042481"><ele>356.0</ele><time>2026-03-28T11:38:07.609Z</time></trkpt><trkpt lat="43.8789161" lon="11.2042248"><ele>361.33333333333337</ele><time>2026-03-28T11:38:13.602Z</time></trkpt><trkpt lat="43.8788406" lon="11.2042239"><ele>366.6666666666667</ele><time>2026-03-28T11:38:18.61Z</time></trkpt><trkpt lat="43.8787583" lon="11.2042257"><ele>372.0</ele><time>2026-03-28T11:38:23.602Z</time></trkpt><trkpt lat="43.8786757" lon="11.2042144"><ele>377.33333333333337</ele><time>2026-03-28T11:38:28.604Z</time></trkpt><trkpt lat="43.8785782" lon="11.2041805"><ele>382.6666666666667</ele><time>2026-03-28T11:38:33.606Z</time></trkpt><trkpt lat="43.8785114" lon="11.2041535"><ele>388.0</ele><time>2026-03-28T11:38:36.596Z</time></trkpt><trkpt lat="43.8784368" lon="11.2041161"><ele>389.7142857142857</ele><time>2026-03-28T11:38:39.71Z</time></trkpt><trkpt lat="43.8783722" lon="11.2041092"><ele>391.42857142857144</ele><time>2026-03-28T11:38:45.599Z</time></trkpt><trkpt lat="43.8783027" lon="11.2041185"><ele>393.14285714285717</ele><time>2026-03-28T11:39:57.593Z</time></trkpt><trkpt lat="43.8782388" lon="11.2041283"><ele>394.8571428571429</ele><time>2026-03-28T11:40:00.587Z</time></trkpt><trkpt lat="43.8781796" lon="11.2041684"><ele>396.57142857142856</ele><time>2026-03-28T11:40:03.578Z</time></trkpt><trkpt lat="43.8781229" lon="11.2042092"><ele>398.28571428571433</ele><time>2026-03-28T11:40:06.6Z</time></trkpt><trkpt lat="43.8780612" lon="11.2042299"><ele>400.0</ele><time>2026-03-28T11:40:09.59Z</time></trkpt><trkpt lat="43.8779995" lon="11.2042517"><ele>400.00000000000006</ele><time>2026-03-28T11:40:12.593Z</time></trkpt><trkpt lat="43.8779143" lon="11.2042611"><ele>400.0</ele><time>2026-03-28T11:40:16.581Z</time></trkpt><trkpt lat="43.8778512" lon="11.2042679"><ele>400.0</ele><time>2026-03-28T11:40:18.596Z</time></trkpt><trkpt lat="43.8777636" lon="11.2042661"><ele>400.0</ele><time>2026-03-28T11:40:21.578Z</time></trkpt><trkpt lat="43.8776857" lon="11.204295"><ele>400.00000000000006</ele><time>2026-03-28T11:40:25.521Z</time></trkpt><trkpt lat="43.8776052" lon="11.204322"><ele>400.0</ele><time>2026-03-28T11:40:26.576Z</time></trkpt><trkpt lat="43.8775306" lon="11.2043795"><ele>398.1666666666667</ele><time>2026-03-28T11:40:28.575Z</time></trkpt><trkpt lat="43.8774668" lon="11.2044327"><ele>396.33333333333337</ele><time>2026-03-28T11:40:30.573Z</time></trkpt><trkpt lat="43.8773884" lon="11.204493"><ele>394.5</ele><time>2026-03-28T11:40:33.584Z</time></trkpt><trkpt lat="43.8773216" lon="11.2045388"><ele>392.66666666666663</ele><time>2026-03-28T11:40:37.596Z</time></trkpt><trkpt lat="43.8772579" lon="11.2045911"><ele>390.8333333333333</ele><time>2026-03-28T11:40:55.578Z</time></trkpt><trkpt lat="43.8771844" lon="11.2046455"><ele>389.0</ele><time>2026-03-28T11:41:00.597Z</time></trkpt><trkpt lat="43.8771258" lon="11.2046911"><ele>389.0</ele><time>2026-03-28T11:41:04.58Z</time></trkpt><trkpt lat="43.8770792" lon="11.2047672"><ele>389.0</ele><time>2026-03-28T11:41:08.589Z</time></trkpt><trkpt lat="43.8770202" lon="11.2048494"><ele>389.0</ele><time>2026-03-28T11:41:11.581Z</time></trkpt><trkpt lat="43.8769683" lon="11.2048992"><ele>389.0</ele><time>2026-03-28T11:41:13.578Z</time></trkpt><trkpt lat="43.8768941" lon="11.2049207"><ele>389.0</ele><time>2026-03-28T11:41:15.592Z</time></trkpt><trkpt lat="43.8768275" lon="11.2048743"><ele>389.0</ele><time>2026-03-28T11:41:59.582Z</time></trkpt><trkpt lat="43.8767836" lon="11.2049602"><ele>389.0</ele><time>2026-03-28T11:43:25.615Z</time></trkpt><trkpt lat="43.8767409" lon="11.2050306"><ele>386.99999999999994</ele><time>2026-03-28T11:43:28.598Z</time></trkpt><trkpt lat="43.8767056" lon="11.2051105"><ele>385.0</ele><time>2026-03-28T11:43:31.706Z</time></trkpt><trkpt lat="43.876664" lon="11.2051986"><ele>383.0</ele><time>2026-03-28T11:43:34.647Z</time></trkpt><trkpt lat="43.8766324" lon="11.2052879"><ele>381.0</ele><time>2026-03-28T11:43:37.604Z</time></trkpt><trkpt lat="43.8766583" lon="11.2054192"><ele>379.0</ele><time>2026-03-28T11:43:42.605Z</time></trkpt><trkpt lat="43.8767032" lon="11.2055138"><ele>377.0</ele><time>2026-03-28T11:43:46.725Z</time></trkpt><trkpt lat="43.8767405" lon="11.2055919"><ele>382.57142857142856</ele><time>2026-03-28T11:43:49.599Z</time></trkpt><trkpt lat="43.8767815" lon="11.2056638"><ele>388.1428571428571</ele><time>2026-03-28T11:43:52.587Z</time></trkpt><trkpt lat="43.8768214" lon="11.205732"><ele>393.71428571428567</ele><time>2026-03-28T11:43:55.686Z</time></trkpt><trkpt lat="43.8768696" lon="11.2057991"><ele>399.2857142857143</ele><time>2026-03-28T11:43:59.609Z</time></trkpt><trkpt lat="43.8769076" lon="11.2058921"><ele>404.8571428571429</ele><time>2026-03-28T11:44:03.588Z</time></trkpt><trkpt lat="43.8769296" lon="11.2060003"><ele>410.4285714285714</ele><time>2026-03-28T11:44:07.58Z</time></trkpt><trkpt lat="43.8769426" lon="11.2061181"><ele>416.0</ele><time>2026-03-28T11:44:11.589Z</time></trkpt><trkpt lat="43.8769398" lon="11.2062293"><ele>415.99999999999994</ele><time>2026-03-28T11:44:15.573Z</time></trkpt><trkpt lat="43.8769542" lon="11.2063374"><ele>416.0</ele><time>2026-03-28T11:44:19.592Z</time></trkpt><trkpt lat="43.8769832" lon="11.2064502"><ele>416.0</ele><time>2026-03-28T11:44:23.605Z</time></trkpt><trkpt lat="43.8770388" lon="11.2065582"><ele>416.0</ele><time>2026-03-28T11:44:28.595Z</time></trkpt><trkpt lat="43.8771118" lon="11.2066795"><ele>415.99999999999994</ele><time>2026-03-28T11:44:33.604Z</time></trkpt><trkpt lat="43.8771579" lon="11.2067416"><ele>416.0</ele><time>2026-03-28T11:44:36.719Z</time></trkpt><trkpt lat="43.877212" lon="11.2068163"><ele>415.66666666666663</ele><time>2026-03-28T11:44:40.612Z</time></trkpt><trkpt lat="43.8772556" lon="11.2069059"><ele>415.3333333333333</ele><time>2026-03-28T11:44:44.591Z</time></trkpt><trkpt lat="43.8773098" lon="11.2070002"><ele>415.0</ele><time>2026-03-28T11:44:48.597Z</time></trkpt><trkpt lat="43.8773523" lon="11.2070721"><ele>414.66666666666663</ele><time>2026-03-28T11:44:51.599Z</time></trkpt><trkpt lat="43.8774016" lon="11.2071676"><ele>414.3333333333333</ele><time>2026-03-28T11:44:55.705Z</time></trkpt><trkpt lat="43.8774496" lon="11.2072592"><ele>414.0</ele><time>2026-03-28T11:44:59.592Z</time></trkpt><trkpt lat="43.8775031" lon="11.2073468"><ele>411.8333333333333</ele><time>2026-03-28T11:45:03.594Z</time></trkpt><trkpt lat="43.8775422" lon="11.2074181"><ele>409.66666666666663</ele><time>2026-03-28T11:45:06.684Z</time></trkpt><trkpt lat="43.8775918" lon="11.207506"><ele>407.5</ele><time>2026-03-28T11:45:10.689Z</time></trkpt><trkpt lat="43.8776343" lon="11.2075858"><ele>405.3333333333333</ele><time>2026-03-28T11:45:14.601Z</time></trkpt><trkpt lat="43.8776908" lon="11.2076869"><ele>403.16666666666663</ele><time>2026-03-28T11:45:18.597Z</time></trkpt><trkpt lat="43.8777312" lon="11.2077577"><ele>401.0</ele><time>2026-03-28T11:45:21.603Z</time></trkpt><trkpt lat="43.8777705" lon="11.207855"><ele>402.14285714285717</ele><time>2026-03-28T11:45:25.641Z</time></trkpt><trkpt lat="43.8777839" lon="11.2079435"><ele>403.28571428571433</ele><time>2026-03-28T11:45:28.605Z</time></trkpt><trkpt lat="43.8777814" lon="11.2080408"><ele>404.42857142857144</ele><time>2026-03-28T11:45:31.595Z</time></trkpt><trkpt lat="43.8777519" lon="11.2081265"><ele>405.57142857142856</ele><time>2026-03-28T11:45:34.6Z</time></trkpt><trkpt lat="43.8777205" lon="11.2082091"><ele>406.7142857142857</ele><time>2026-03-28T11:45:37.606Z</time></trkpt><trkpt lat="43.8776854" lon="11.2082867"><ele>407.85714285714283</ele><time>2026-03-28T11:45:40.604Z</time></trkpt><trkpt lat="43.8776333" lon="11.2083716"><ele>409.0</ele><time>2026-03-28T11:45:44.609Z</time></trkpt><trkpt lat="43.8775916" lon="11.2084382"><ele>409.00000000000006</ele><time>2026-03-28T11:45:47.607Z</time></trkpt><trkpt lat="43.8775465" lon="11.2085108"><ele>409.0</ele><time>2026-03-28T11:45:50.703Z</time></trkpt><trkpt lat="43.8775054" lon="11.2085973"><ele>409.0</ele><time>2026-03-28T11:45:53.597Z</time></trkpt><trkpt lat="43.8774333" lon="11.2086955"><ele>409.0</ele><time>2026-03-28T11:45:58.607Z</time></trkpt><trkpt lat="43.8773545" lon="11.2087923"><ele>409.00000000000006</ele><time>2026-03-28T11:46:03.604Z</time></trkpt><trkpt lat="43.8772962" lon="11.2088744"><ele>409.0</ele><time>2026-03-28T11:46:07.596Z</time></trkpt><trkpt lat="43.8772483" lon="11.2089326"><ele>412.50000000000006</ele><time>2026-03-28T11:46:10.704Z</time></trkpt><trkpt lat="43.8771996" lon="11.209027"><ele>416.0</ele><time>2026-03-28T11:46:14.591Z</time></trkpt><trkpt lat="43.877146" lon="11.2091168"><ele>419.5</ele><time>2026-03-28T11:46:18.608Z</time></trkpt><trkpt lat="43.8770786" lon="11.2092195"><ele>423.0</ele><time>2026-03-28T11:46:23.608Z</time></trkpt><trkpt lat="43.8770352" lon="11.2092927"><ele>426.50000000000006</ele><time>2026-03-28T11:46:26.7Z</time></trkpt><trkpt lat="43.8769777" lon="11.2093704"><ele>430.0</ele><time>2026-03-28T11:46:30.734Z</time></trkpt><trkpt lat="43.8769405" lon="11.2094427"><ele>430.00000000000006</ele><time>2026-03-28T11:46:33.598Z</time></trkpt><trkpt lat="43.8768737" lon="11.2095423"><ele>430.0</ele><time>2026-03-28T11:46:38.608Z</time></trkpt><trkpt lat="43.8768143" lon="11.209617"><ele>430.0</ele><time>2026-03-28T11:46:42.615Z</time></trkpt><trkpt lat="43.8767601" lon="11.209692"><ele>430.0</ele><time>2026-03-28T11:46:46.704Z</time></trkpt><trkpt lat="43.87672" lon="11.2097659"><ele>430.00000000000006</ele><time>2026-03-28T11:46:49.656Z</time></trkpt><trkpt lat="43.8766777" lon="11.2098462"><ele>430.0</ele><time>2026-03-28T11:46:53.583Z</time></trkpt><trkpt lat="43.876626" lon="11.2099324"><ele>430.33333333333337</ele><time>2026-03-28T11:46:57.59Z</time></trkpt><trkpt lat="43.8765848" lon="11.2100011"><ele>430.6666666666667</ele><time>2026-03-28T11:47:00.601Z</time></trkpt><trkpt lat="43.8765379" lon="11.2100645"><ele>431.0</ele><time>2026-03-28T11:47:03.614Z</time></trkpt><trkpt lat="43.8764594" lon="11.2101606"><ele>431.33333333333337</ele><time>2026-03-28T11:47:08.598Z</time></trkpt><trkpt lat="43.8764039" lon="11.2102246"><ele>431.6666666666667</ele><time>2026-03-28T11:47:11.709Z</time></trkpt><trkpt lat="43.8763562" lon="11.210289"><ele>432.0</ele><time>2026-03-28T11:47:14.648Z</time></trkpt><trkpt lat="43.8762936" lon="11.2103723"><ele>432.0</ele><time>2026-03-28T11:47:18.605Z</time></trkpt><trkpt lat="43.8762462" lon="11.2104386"><ele>432.0</ele><time>2026-03-28T11:47:21.706Z</time></trkpt><trkpt lat="43.8761986" lon="11.2105067"><ele>432.0</ele><time>2026-03-28T11:47:24.652Z</time></trkpt><trkpt lat="43.8761536" lon="11.2105787"><ele>432.0</ele><time>2026-03-28T11:47:27.606Z</time></trkpt><trkpt lat="43.8761055" lon="11.2106426"><ele>432.0</ele><time>2026-03-28T11:47:30.599Z</time></trkpt><trkpt lat="43.8760491" lon="11.2107066"><ele>432.0</ele><time>2026-03-28T11:47:33.601Z</time></trkpt><trkpt lat="43.8759937" lon="11.2107561"><ele>432.0</ele><time>2026-03-28T11:47:36.603Z</time></trkpt><trkpt lat="43.8759354" lon="11.2107984"><ele>432.5</ele><time>2026-03-28T11:47:39.604Z</time></trkpt><trkpt lat="43.8758489" lon="11.2108532"><ele>433.0</ele><time>2026-03-28T11:47:43.598Z</time></trkpt><trkpt lat="43.8757795" lon="11.2109185"><ele>433.5</ele><time>2026-03-28T11:47:47.599Z</time></trkpt><trkpt lat="43.8757312" lon="11.2109839"><ele>434.0</ele><time>2026-03-28T11:47:50.714Z</time></trkpt><trkpt lat="43.8756847" lon="11.2110515"><ele>434.5</ele><time>2026-03-28T11:47:53.616Z</time></trkpt><trkpt lat="43.8756392" lon="11.2111238"><ele>435.0</ele><time>2026-03-28T11:47:56.718Z</time></trkpt><trkpt lat="43.8755932" lon="11.2112001"><ele>435.00000000000006</ele><time>2026-03-28T11:47:59.645Z</time></trkpt><trkpt lat="43.8755375" lon="11.2113005"><ele>435.0</ele><time>2026-03-28T11:48:03.603Z</time></trkpt><trkpt lat="43.8755101" lon="11.2113797"><ele>435.0</ele><time>2026-03-28T11:48:06.706Z</time></trkpt><trkpt lat="43.8754661" lon="11.2114657"><ele>435.0</ele><time>2026-03-28T11:48:09.646Z</time></trkpt><trkpt lat="43.875437" lon="11.2115508"><ele>435.0</ele><time>2026-03-28T11:48:12.601Z</time></trkpt><trkpt lat="43.8754019" lon="11.2116389"><ele>435.00000000000006</ele><time>2026-03-28T11:48:15.605Z</time></trkpt><trkpt lat="43.875363" lon="11.211731"><ele>435.0</ele><time>2026-03-28T11:48:18.621Z</time></trkpt><trkpt lat="43.8753014" lon="11.2118067"><ele>434.5</ele><time>2026-03-28T11:48:21.611Z</time></trkpt><trkpt lat="43.8752326" lon="11.2118609"><ele>434.0</ele><time>2026-03-28T11:48:24.607Z</time></trkpt><trkpt lat="43.8751527" lon="11.2119338"><ele>433.5</ele><time>2026-03-28T11:48:28.602Z</time></trkpt><trkpt lat="43.8750924" lon="11.2119931"><ele>433.0</ele><time>2026-03-28T11:48:31.727Z</time></trkpt><trkpt lat="43.8750515" lon="11.2120661"><ele>432.5</ele><time>2026-03-28T11:48:34.66Z</time></trkpt><trkpt lat="43.875001" lon="11.2121692"><ele>432.0</ele><time>2026-03-28T11:48:38.606Z</time></trkpt><trkpt lat="43.8749715" lon="11.2122586"><ele>434.5</ele><time>2026-03-28T11:48:41.719Z</time></trkpt><trkpt lat="43.8749676" lon="11.2123602"><ele>437.0</ele><time>2026-03-28T11:48:44.656Z</time></trkpt><trkpt lat="43.8749675" lon="11.2124961"><ele>439.5</ele><time>2026-03-28T11:48:48.606Z</time></trkpt><trkpt lat="43.8749729" lon="11.2125884"><ele>442.0</ele><time>2026-03-28T11:48:51.606Z</time></trkpt><trkpt lat="43.8749921" lon="11.2126787"><ele>444.5</ele><time>2026-03-28T11:48:54.586Z</time></trkpt><trkpt lat="43.8750203" lon="11.2128011"><ele>447.0</ele><time>2026-03-28T11:48:58.609Z</time></trkpt><trkpt lat="43.8750404" lon="11.2128963"><ele>447.0</ele><time>2026-03-28T11:49:01.607Z</time></trkpt><trkpt lat="43.8750726" lon="11.2129929"><ele>447.0</ele><time>2026-03-28T11:49:04.613Z</time></trkpt><trkpt lat="43.8750982" lon="11.2130941"><ele>447.0</ele><time>2026-03-28T11:49:07.607Z</time></trkpt><trkpt lat="43.8751434" lon="11.2131962"><ele>447.0</ele><time>2026-03-28T11:49:10.607Z</time></trkpt><trkpt lat="43.8751903" lon="11.213278"><ele>447.0</ele><time>2026-03-28T11:49:13.617Z</time></trkpt><trkpt lat="43.8752346" lon="11.2133555"><ele>447.0</ele><time>2026-03-28T11:49:16.721Z</time></trkpt><trkpt lat="43.8752683" lon="11.2134506"><ele>452.5</ele><time>2026-03-28T11:49:19.656Z</time></trkpt><trkpt lat="43.8753238" lon="11.2135703"><ele>458.0</ele><time>2026-03-28T11:49:23.6Z</time></trkpt><trkpt lat="43.8753645" lon="11.2136535"><ele>463.5</ele><time>2026-03-28T11:49:26.726Z</time></trkpt><trkpt lat="43.8754152" lon="11.2137404"><ele>469.0</ele><time>2026-03-28T11:49:29.664Z</time></trkpt><trkpt lat="43.8754604" lon="11.2138542"><ele>474.5</ele><time>2026-03-28T11:49:33.603Z</time></trkpt><trkpt lat="43.8754866" lon="11.2139339"><ele>480.0</ele><time>2026-03-28T11:49:36.616Z</time></trkpt><trkpt lat="43.8755213" lon="11.2140236"><ele>480.0</ele><time>2026-03-28T11:49:39.599Z</time></trkpt><trkpt lat="43.8755656" lon="11.2141089"><ele>480.0</ele><time>2026-03-28T11:49:42.601Z</time></trkpt><trkpt lat="43.8755968" lon="11.2142019"><ele>480.0</ele><time>2026-03-28T11:49:45.605Z</time></trkpt><trkpt lat="43.8756334" lon="11.2143104"><ele>480.0</ele><time>2026-03-28T11:49:48.605Z</time></trkpt><trkpt lat="43.875658" lon="11.2144281"><ele>480.0</ele><time>2026-03-28T11:49:51.597Z</time></trkpt><trkpt lat="43.8756702" lon="11.2145435"><ele>480.0</ele><time>2026-03-28T11:49:54.599Z</time></trkpt><trkpt lat="43.8756573" lon="11.2146471"><ele>480.0</ele><time>2026-03-28T11:49:57.606Z</time></trkpt><trkpt lat="43.8756592" lon="11.2147554"><ele>480.0</ele><time>2026-03-28T11:50:00.722Z</time></trkpt><trkpt lat="43.8756642" lon="11.214856"><ele>480.0</ele><time>2026-03-28T11:50:03.6Z</time></trkpt><trkpt lat="43.8756664" lon="11.2149619"><ele>480.0</ele><time>2026-03-28T11:50:06.729Z</time></trkpt><trkpt lat="43.8756757" lon="11.2150587"><ele>480.0</ele><time>2026-03-28T11:50:09.653Z</time></trkpt><trkpt lat="43.8757028" lon="11.2151776"><ele>480.0</ele><time>2026-03-28T11:50:13.601Z</time></trkpt><trkpt lat="43.8757288" lon="11.2152919"><ele>479.8571428571429</ele><time>2026-03-28T11:50:17.598Z</time></trkpt><trkpt lat="43.8757393" lon="11.2153783"><ele>479.71428571428567</ele><time>2026-03-28T11:50:20.725Z</time></trkpt><trkpt lat="43.8757513" lon="11.2154882"><ele>479.57142857142856</ele><time>2026-03-28T11:50:24.605Z</time></trkpt><trkpt lat="43.8757567" lon="11.2155814"><ele>479.42857142857144</ele><time>2026-03-28T11:50:27.6Z</time></trkpt><trkpt lat="43.875754" lon="11.2156825"><ele>479.28571428571433</ele><time>2026-03-28T11:50:30.709Z</time></trkpt><trkpt lat="43.8757406" lon="11.2157772"><ele>479.1428571428571</ele><time>2026-03-28T11:50:33.604Z</time></trkpt><trkpt lat="43.8757247" lon="11.2158927"><ele>479.0</ele><time>2026-03-28T11:50:36.712Z</time></trkpt><trkpt lat="43.8756962" lon="11.2159897"><ele>479.8333333333333</ele><time>2026-03-28T11:50:39.654Z</time></trkpt><trkpt lat="43.8756591" lon="11.2161164"><ele>480.66666666666663</ele><time>2026-03-28T11:50:43.603Z</time></trkpt><trkpt lat="43.8756229" lon="11.2162152"><ele>481.5</ele><time>2026-03-28T11:50:46.715Z</time></trkpt><trkpt lat="43.8755813" lon="11.2163131"><ele>482.33333333333337</ele><time>2026-03-28T11:50:49.662Z</time></trkpt><trkpt lat="43.8755317" lon="11.216402"><ele>483.1666666666667</ele><time>2026-03-28T11:50:52.603Z</time></trkpt><trkpt lat="43.8754785" lon="11.2164744"><ele>484.0</ele><time>2026-03-28T11:50:55.588Z</time></trkpt><trkpt lat="43.8754168" lon="11.216541"><ele>481.83333333333337</ele><time>2026-03-28T11:50:58.607Z</time></trkpt><trkpt lat="43.8753631" lon="11.2166038"><ele>479.6666666666667</ele><time>2026-03-28T11:51:01.65Z</time></trkpt><trkpt lat="43.8753125" lon="11.2166672"><ele>477.5</ele><time>2026-03-28T11:51:04.712Z</time></trkpt><trkpt lat="43.875224" lon="11.2167513"><ele>475.33333333333337</ele><time>2026-03-28T11:51:08.608Z</time></trkpt><trkpt lat="43.8751499" lon="11.2168109"><ele>473.1666666666667</ele><time>2026-03-28T11:51:11.715Z</time></trkpt><trkpt lat="43.8750743" lon="11.21687"><ele>471.0</ele><time>2026-03-28T11:51:14.603Z</time></trkpt><trkpt lat="43.8749827" lon="11.2169543"><ele>471.0</ele><time>2026-03-28T11:51:18.605Z</time></trkpt><trkpt lat="43.8749147" lon="11.2170414"><ele>471.0</ele><time>2026-03-28T11:51:21.693Z</time></trkpt><trkpt lat="43.8748688" lon="11.2171367"><ele>471.0</ele><time>2026-03-28T11:51:24.651Z</time></trkpt><trkpt lat="43.8748222" lon="11.2172409"><ele>471.0</ele><time>2026-03-28T11:51:27.606Z</time></trkpt><trkpt lat="43.8747765" lon="11.2173311"><ele>471.0</ele><time>2026-03-28T11:51:30.605Z</time></trkpt><trkpt lat="43.8747244" lon="11.217425"><ele>471.0</ele><time>2026-03-28T11:51:33.613Z</time></trkpt><trkpt lat="43.8746607" lon="11.2175089"><ele>472.3333333333333</ele><time>2026-03-28T11:51:36.603Z</time></trkpt><trkpt lat="43.8745863" lon="11.2175739"><ele>473.66666666666663</ele><time>2026-03-28T11:51:39.608Z</time></trkpt><trkpt lat="43.8745077" lon="11.2176055"><ele>475.0</ele><time>2026-03-28T11:51:42.609Z</time></trkpt><trkpt lat="43.874431" lon="11.2176068"><ele>476.3333333333333</ele><time>2026-03-28T11:51:45.608Z</time></trkpt><trkpt lat="43.8743558" lon="11.2176061"><ele>477.66666666666663</ele><time>2026-03-28T11:51:48.601Z</time></trkpt><trkpt lat="43.87427" lon="11.2176082"><ele>479.0</ele><time>2026-03-28T11:51:51.724Z</time></trkpt><trkpt lat="43.874184" lon="11.2176094"><ele>479.0</ele><time>2026-03-28T11:51:54.653Z</time></trkpt><trkpt lat="43.874079" lon="11.2176424"><ele>479.0</ele><time>2026-03-28T11:51:58.607Z</time></trkpt><trkpt lat="43.8740053" lon="11.2176815"><ele>479.0</ele><time>2026-03-28T11:52:01.727Z</time></trkpt><trkpt lat="43.8739355" lon="11.2177403"><ele>479.0</ele><time>2026-03-28T11:52:04.65Z</time></trkpt><trkpt lat="43.8738598" lon="11.2178256"><ele>479.0</ele><time>2026-03-28T11:52:08.607Z</time></trkpt><trkpt lat="43.873791" lon="11.2179132"><ele>478.99999999999994</ele><time>2026-03-28T11:52:12.607Z</time></trkpt><trkpt lat="43.87375" lon="11.2179896"><ele>479.0</ele><time>2026-03-28T11:52:15.607Z</time></trkpt><trkpt lat="43.8737031" lon="11.2180604"><ele>479.0</ele><time>2026-03-28T11:52:18.615Z</time></trkpt><trkpt lat="43.8736474" lon="11.2181522"><ele>479.0</ele><time>2026-03-28T11:52:22.611Z</time></trkpt><trkpt lat="43.8736094" lon="11.218242"><ele>478.99999999999994</ele><time>2026-03-28T11:52:25.719Z</time></trkpt><trkpt lat="43.8735725" lon="11.2183326"><ele>479.0</ele><time>2026-03-28T11:52:28.604Z</time></trkpt><trkpt lat="43.873544" lon="11.2184291"><ele>482.99999999999994</ele><time>2026-03-28T11:52:31.604Z</time></trkpt><trkpt lat="43.8735207" lon="11.2185218"><ele>487.0</ele><time>2026-03-28T11:52:34.708Z</time></trkpt><trkpt lat="43.8735091" lon="11.2186259"><ele>491.0</ele><time>2026-03-28T11:52:37.615Z</time></trkpt><trkpt lat="43.8735096" lon="11.2187382"><ele>495.0</ele><time>2026-03-28T11:52:40.716Z</time></trkpt><trkpt lat="43.8735368" lon="11.2188443"><ele>498.99999999999994</ele><time>2026-03-28T11:52:43.602Z</time></trkpt><trkpt lat="43.8735678" lon="11.2189404"><ele>503.0</ele><time>2026-03-28T11:52:46.722Z</time></trkpt><trkpt lat="43.8735898" lon="11.2190386"><ele>505.3333333333333</ele><time>2026-03-28T11:52:49.651Z</time></trkpt><trkpt lat="43.8736274" lon="11.219173"><ele>507.66666666666663</ele><time>2026-03-28T11:52:53.6Z</time></trkpt><trkpt lat="43.8736674" lon="11.2193113"><ele>510.0</ele><time>2026-03-28T11:52:57.615Z</time></trkpt><trkpt lat="43.8736955" lon="11.219418"><ele>512.3333333333334</ele><time>2026-03-28T11:53:01.615Z</time></trkpt><trkpt lat="43.873723" lon="11.2195052"><ele>514.6666666666667</ele><time>2026-03-28T11:53:04.723Z</time></trkpt><trkpt lat="43.8737502" lon="11.2196014"><ele>517.0</ele><time>2026-03-28T11:53:07.603Z</time></trkpt><trkpt lat="43.8737833" lon="11.2196966"><ele>517.0</ele><time>2026-03-28T11:53:10.599Z</time></trkpt><trkpt lat="43.8738163" lon="11.2197949"><ele>517.0</ele><time>2026-03-28T11:53:13.61Z</time></trkpt><trkpt lat="43.8738456" lon="11.2198919"><ele>517.0</ele><time>2026-03-28T11:53:16.608Z</time></trkpt><trkpt lat="43.873878" lon="11.2199887"><ele>517.0</ele><time>2026-03-28T11:53:19.722Z</time></trkpt><trkpt lat="43.8739191" lon="11.2200881"><ele>517.0</ele><time>2026-03-28T11:53:22.603Z</time></trkpt><trkpt lat="43.873943" lon="11.2201982"><ele>517.0</ele><time>2026-03-28T11:53:25.723Z</time></trkpt><trkpt lat="43.8739529" lon="11.2203176"><ele>516.4</ele><time>2026-03-28T11:53:28.613Z</time></trkpt><trkpt lat="43.873966" lon="11.2204355"><ele>515.8000000000001</ele><time>2026-03-28T11:53:31.725Z</time></trkpt><trkpt lat="43.8739742" lon="11.2205517"><ele>515.2</ele><time>2026-03-28T11:53:34.647Z</time></trkpt><trkpt lat="43.8739916" lon="11.220701"><ele>514.6</ele><time>2026-03-28T11:53:38.619Z</time></trkpt><trkpt lat="43.874002" lon="11.2208497"><ele>514.0</ele><time>2026-03-28T11:53:42.606Z</time></trkpt><trkpt lat="43.8740087" lon="11.2209648"><ele>514.0</ele><time>2026-03-28T11:53:45.609Z</time></trkpt><trkpt lat="43.8740297" lon="11.2210804"><ele>514.0</ele><time>2026-03-28T11:53:48.617Z</time></trkpt><trkpt lat="43.8740464" lon="11.2211699"><ele>514.0</ele><time>2026-03-28T11:53:50.713Z</time></trkpt><trkpt lat="43.8740675" lon="11.2212566"><ele>514.0</ele><time>2026-03-28T11:53:52.606Z</time></trkpt><trkpt lat="43.8741063" lon="11.2213749"><ele>514.0</ele><time>2026-03-28T11:53:55.61Z</time></trkpt><trkpt lat="43.8741296" lon="11.2215001"><ele>514.0</ele><time>2026-03-28T11:53:58.609Z</time></trkpt><trkpt lat="43.8741635" lon="11.2216132"><ele>512.2</ele><time>2026-03-28T11:54:01.62Z</time></trkpt><trkpt lat="43.8742032" lon="11.221732"><ele>510.4</ele><time>2026-03-28T11:54:04.615Z</time></trkpt><trkpt lat="43.8742613" lon="11.2218737"><ele>508.6</ele><time>2026-03-28T11:54:08.615Z</time></trkpt><trkpt lat="43.8743068" lon="11.221978"><ele>506.8</ele><time>2026-03-28T11:54:11.724Z</time></trkpt><trkpt lat="43.8743497" lon="11.222078"><ele>505.0</ele><time>2026-03-28T11:54:14.659Z</time></trkpt><trkpt lat="43.8744025" lon="11.2222126"><ele>513.8</ele><time>2026-03-28T11:54:18.607Z</time></trkpt><trkpt lat="43.8744386" lon="11.2223143"><ele>522.6</ele><time>2026-03-28T11:54:21.714Z</time></trkpt><trkpt lat="43.8744778" lon="11.2224311"><ele>531.4</ele><time>2026-03-28T11:54:24.646Z</time></trkpt><trkpt lat="43.874524" lon="11.2225873"><ele>540.2</ele><time>2026-03-28T11:54:28.603Z</time></trkpt><trkpt lat="43.8745613" lon="11.2227001"><ele>549.0</ele><time>2026-03-28T11:54:31.608Z</time></trkpt><trkpt lat="43.8746045" lon="11.2228027"><ele>549.0</ele><time>2026-03-28T11:54:34.614Z</time></trkpt><trkpt lat="43.8746445" lon="11.222914"><ele>549.0</ele><time>2026-03-28T11:54:37.604Z</time></trkpt><trkpt lat="43.8746905" lon="11.2230323"><ele>549.0</ele><time>2026-03-28T11:54:40.605Z</time></trkpt><trkpt lat="43.8747443" lon="11.2231385"><ele>549.0</ele><time>2026-03-28T11:54:43.604Z</time></trkpt><trkpt lat="43.8748009" lon="11.2232414"><ele>549.0</ele><time>2026-03-28T11:54:46.715Z</time></trkpt><trkpt lat="43.8748439" lon="11.2233415"><ele>544.6</ele><time>2026-03-28T11:54:49.657Z</time></trkpt><trkpt lat="43.8748865" lon="11.2234931"><ele>540.2</ele><time>2026-03-28T11:54:53.609Z</time></trkpt><trkpt lat="43.8749284" lon="11.2235993"><ele>535.8000000000001</ele><time>2026-03-28T11:54:56.715Z</time></trkpt><trkpt lat="43.8749805" lon="11.2236975"><ele>531.4</ele><time>2026-03-28T11:54:59.649Z</time></trkpt><trkpt lat="43.8750799" lon="11.2238136"><ele>527.0</ele><time>2026-03-28T11:55:03.61Z</time></trkpt><trkpt lat="43.875136" lon="11.2238614"><ele>529.0000000000001</ele><time>2026-03-28T11:55:05.715Z</time></trkpt><trkpt lat="43.8752015" lon="11.2238986"><ele>531.0</ele><time>2026-03-28T11:55:07.608Z</time></trkpt><trkpt lat="43.8752677" lon="11.2239418"><ele>533.0</ele><time>2026-03-28T11:55:09.623Z</time></trkpt><trkpt lat="43.875333" lon="11.2239911"><ele>535.0</ele><time>2026-03-28T11:55:11.724Z</time></trkpt><trkpt lat="43.8753868" lon="11.2240433"><ele>537.0</ele><time>2026-03-28T11:55:13.602Z</time></trkpt><trkpt lat="43.8754339" lon="11.2241062"><ele>539.0000000000001</ele><time>2026-03-28T11:55:15.621Z</time></trkpt><trkpt lat="43.8754797" lon="11.2241695"><ele>541.0</ele><time>2026-03-28T11:55:17.609Z</time></trkpt><trkpt lat="43.8755258" lon="11.224237"><ele>541.0</ele><time>2026-03-28T11:55:19.608Z</time></trkpt><trkpt lat="43.8755773" lon="11.2242963"><ele>541.0</ele><time>2026-03-28T11:55:21.599Z</time></trkpt><trkpt lat="43.8756359" lon="11.2243597"><ele>541.0</ele><time>2026-03-28T11:55:23.605Z</time></trkpt><trkpt lat="43.8756971" lon="11.2244225"><ele>541.0</ele><time>2026-03-28T11:55:25.602Z</time></trkpt><trkpt lat="43.8757644" lon="11.2244641"><ele>541.0</ele><time>2026-03-28T11:55:27.601Z</time></trkpt><trkpt lat="43.8758541" lon="11.2245171"><ele>541.0</ele><time>2026-03-28T11:55:30.597Z</time></trkpt><trkpt lat="43.8759383" lon="11.2246017"><ele>539.3333333333334</ele><time>2026-03-28T11:55:33.606Z</time></trkpt><trkpt lat="43.8759914" lon="11.2246555"><ele>537.6666666666667</ele><time>2026-03-28T11:55:35.715Z</time></trkpt><trkpt lat="43.8760691" lon="11.2247447"><ele>536.0</ele><time>2026-03-28T11:55:38.606Z</time></trkpt><trkpt lat="43.8760583" lon="11.2248695"><ele>534.3333333333334</ele><time>2026-03-28T11:55:41.716Z</time></trkpt><trkpt lat="43.8759972" lon="11.2249573"><ele>532.6666666666666</ele><time>2026-03-28T11:55:43.612Z</time></trkpt><trkpt lat="43.8759061" lon="11.2250165"><ele>531.0</ele><time>2026-03-28T11:55:45.713Z</time></trkpt><trkpt lat="43.8757748" lon="11.2250884"><ele>531.0</ele><time>2026-03-28T11:55:48.602Z</time></trkpt><trkpt lat="43.8757063" lon="11.2251305"><ele>531.0</ele><time>2026-03-28T11:55:50.722Z</time></trkpt><trkpt lat="43.8756052" lon="11.2251834"><ele>531.0</ele><time>2026-03-28T11:55:53.609Z</time></trkpt><trkpt lat="43.8755377" lon="11.2252244"><ele>531.0</ele><time>2026-03-28T11:55:55.601Z</time></trkpt><trkpt lat="43.8754655" lon="11.2252715"><ele>531.0</ele><time>2026-03-28T11:55:57.598Z</time></trkpt><trkpt lat="43.8753866" lon="11.2253147"><ele>531.0</ele><time>2026-03-28T11:55:59.72Z</time></trkpt><trkpt lat="43.8752981" lon="11.2253542"><ele>531.0</ele><time>2026-03-28T11:56:01.603Z</time></trkpt><trkpt lat="43.8752101" lon="11.2253818"><ele>531.0</ele><time>2026-03-28T11:56:03.603Z</time></trkpt><trkpt lat="43.8751247" lon="11.2254118"><ele>531.0</ele><time>2026-03-28T11:56:05.605Z</time></trkpt><trkpt lat="43.8749964" lon="11.2254789"><ele>531.0</ele><time>2026-03-28T11:56:08.597Z</time></trkpt><trkpt lat="43.8749238" lon="11.2255469"><ele>531.0</ele><time>2026-03-28T11:56:10.618Z</time></trkpt><trkpt lat="43.8748763" lon="11.2256369"><ele>529.8333333333334</ele><time>2026-03-28T11:56:12.607Z</time></trkpt><trkpt lat="43.8748551" lon="11.2257377"><ele>528.6666666666666</ele><time>2026-03-28T11:56:14.615Z</time></trkpt><trkpt lat="43.8748471" lon="11.2258333"><ele>527.5</ele><time>2026-03-28T11:56:16.714Z</time></trkpt><trkpt lat="43.8748463" lon="11.225937"><ele>526.3333333333333</ele><time>2026-03-28T11:56:18.616Z</time></trkpt><trkpt lat="43.8748376" lon="11.2260467"><ele>525.1666666666666</ele><time>2026-03-28T11:56:20.725Z</time></trkpt><trkpt lat="43.8748049" lon="11.226205"><ele>524.0</ele><time>2026-03-28T11:56:23.601Z</time></trkpt><trkpt lat="43.8747898" lon="11.2263007"><ele>524.0</ele><time>2026-03-28T11:56:25.717Z</time></trkpt><trkpt lat="43.8747683" lon="11.2264283"><ele>524.0</ele><time>2026-03-28T11:56:28.601Z</time></trkpt><trkpt lat="43.8747706" lon="11.2265163"><ele>524.0</ele><time>2026-03-28T11:56:30.716Z</time></trkpt><trkpt lat="43.874794" lon="11.2266215"><ele>524.0</ele><time>2026-03-28T11:56:33.607Z</time></trkpt><trkpt lat="43.8747662" lon="11.2267388"><ele>524.0</ele><time>2026-03-28T11:56:38.603Z</time></trkpt><trkpt lat="43.8746826" lon="11.2267924"><ele>524.0</ele><time>2026-03-28T11:56:41.616Z</time></trkpt><trkpt lat="43.8746204" lon="11.2268102"><ele>523.2857142857143</ele><time>2026-03-28T11:56:43.587Z</time></trkpt><trkpt lat="43.874543" lon="11.2268157"><ele>522.5714285714287</ele><time>2026-03-28T11:56:45.728Z</time></trkpt><trkpt lat="43.8744641" lon="11.22682"><ele>521.8571428571429</ele><time>2026-03-28T11:56:47.59Z</time></trkpt><trkpt lat="43.8743962" lon="11.2268106"><ele>521.1428571428571</ele><time>2026-03-28T11:56:49.61Z</time></trkpt><trkpt lat="43.8743298" lon="11.2268002"><ele>520.4285714285713</ele><time>2026-03-28T11:56:51.662Z</time></trkpt><trkpt lat="43.8742609" lon="11.2267924"><ele>519.7142857142857</ele><time>2026-03-28T11:56:53.621Z</time></trkpt><trkpt lat="43.8741879" lon="11.2267762"><ele>519.0</ele><time>2026-03-28T11:56:55.609Z</time></trkpt><trkpt lat="43.8741149" lon="11.2267636"><ele>519.0</ele><time>2026-03-28T11:56:57.61Z</time></trkpt><trkpt lat="43.8740339" lon="11.2267644"><ele>519.0</ele><time>2026-03-28T11:57:00.612Z</time></trkpt><trkpt lat="43.8739632" lon="11.2267789"><ele>519.0</ele><time>2026-03-28T11:57:03.606Z</time></trkpt><trkpt lat="43.8738696" lon="11.2268108"><ele>519.0</ele><time>2026-03-28T11:57:06.621Z</time></trkpt><trkpt lat="43.8737965" lon="11.2268135"><ele>519.0</ele><time>2026-03-28T11:57:08.612Z</time></trkpt><trkpt lat="43.8737337" lon="11.2268034"><ele>519.0</ele><time>2026-03-28T11:57:10.62Z</time></trkpt><trkpt lat="43.8736687" lon="11.2267793"><ele>519.0</ele><time>2026-03-28T11:57:12.618Z</time></trkpt><trkpt lat="43.8736075" lon="11.2267531"><ele>519.0</ele><time>2026-03-28T11:57:14.609Z</time></trkpt><trkpt lat="43.8735368" lon="11.2267146"><ele>519.0</ele><time>2026-03-28T11:57:16.605Z</time></trkpt><trkpt lat="43.8734503" lon="11.2266773"><ele>519.0</ele><time>2026-03-28T11:57:18.614Z</time></trkpt><trkpt lat="43.8733735" lon="11.2266489"><ele>519.0</ele><time>2026-03-28T11:57:20.721Z</time></trkpt><trkpt lat="43.873264" lon="11.226575"><ele>519.0</ele><time>2026-03-28T11:57:23.609Z</time></trkpt><trkpt lat="43.873203" lon="11.2265333"><ele>519.5714285714286</ele><time>2026-03-28T11:57:25.613Z</time></trkpt><trkpt lat="43.8731423" lon="11.2264886"><ele>520.1428571428571</ele><time>2026-03-28T11:57:27.604Z</time></trkpt><trkpt lat="43.8730803" lon="11.2264393"><ele>520.7142857142857</ele><time>2026-03-28T11:57:29.621Z</time></trkpt><trkpt lat="43.8730198" lon="11.2264094"><ele>521.2857142857142</ele><time>2026-03-28T11:57:31.715Z</time></trkpt><trkpt lat="43.8729553" lon="11.2263686"><ele>521.8571428571429</ele><time>2026-03-28T11:57:33.607Z</time></trkpt><trkpt lat="43.8728882" lon="11.2263185"><ele>522.4285714285713</ele><time>2026-03-28T11:57:35.603Z</time></trkpt><trkpt lat="43.8728284" lon="11.2262666"><ele>523.0</ele><time>2026-03-28T11:57:37.587Z</time></trkpt><trkpt lat="43.8727725" lon="11.2262179"><ele>518.1999999999999</ele><time>2026-03-28T11:57:39.61Z</time></trkpt><trkpt lat="43.8726745" lon="11.2261482"><ele>513.4</ele><time>2026-03-28T11:57:42.617Z</time></trkpt><trkpt lat="43.8725875" lon="11.2261024"><ele>508.59999999999997</ele><time>2026-03-28T11:57:45.617Z</time></trkpt><trkpt lat="43.8724951" lon="11.2260567"><ele>503.79999999999995</ele><time>2026-03-28T11:57:48.624Z</time></trkpt><trkpt lat="43.8724362" lon="11.226022"><ele>499.0</ele><time>2026-03-28T11:57:50.714Z</time></trkpt><trkpt lat="43.8723454" lon="11.2259599"><ele>499.0</ele><time>2026-03-28T11:57:53.615Z</time></trkpt><trkpt lat="43.8722705" lon="11.2259197"><ele>499.0</ele><time>2026-03-28T11:57:55.727Z</time></trkpt><trkpt lat="43.8721565" lon="11.2259008"><ele>499.0</ele><time>2026-03-28T11:57:58.611Z</time></trkpt><trkpt lat="43.8720788" lon="11.2259195"><ele>499.0</ele><time>2026-03-28T11:58:00.722Z</time></trkpt><trkpt lat="43.8719751" lon="11.2259723"><ele>499.0</ele><time>2026-03-28T11:58:03.609Z</time></trkpt><trkpt lat="43.8719083" lon="11.2260216"><ele>499.00000000000006</ele><time>2026-03-28T11:58:05.723Z</time></trkpt><trkpt lat="43.8718002" lon="11.2260941"><ele>499.0</ele><time>2026-03-28T11:58:08.608Z</time></trkpt><trkpt lat="43.8717273" lon="11.2260974"><ele>499.0</ele><time>2026-03-28T11:58:10.603Z</time></trkpt><trkpt lat="43.8716595" lon="11.2260858"><ele>499.0</ele><time>2026-03-28T11:58:12.609Z</time></trkpt><trkpt lat="43.8715895" lon="11.226077"><ele>499.00000000000006</ele><time>2026-03-28T11:58:14.619Z</time></trkpt><trkpt lat="43.871522" lon="11.2260663"><ele>499.0</ele><time>2026-03-28T11:58:16.726Z</time></trkpt><trkpt lat="43.8714656" lon="11.2260159"><ele>499.6666666666667</ele><time>2026-03-28T11:58:18.603Z</time></trkpt><trkpt lat="43.8713945" lon="11.2259454"><ele>500.33333333333337</ele><time>2026-03-28T11:58:21.615Z</time></trkpt><trkpt lat="43.8713302" lon="11.2258552"><ele>501.0</ele><time>2026-03-28T11:58:24.603Z</time></trkpt><trkpt lat="43.871282" lon="11.2257854"><ele>501.66666666666663</ele><time>2026-03-28T11:58:26.712Z</time></trkpt><trkpt lat="43.8712383" lon="11.225703"><ele>502.3333333333333</ele><time>2026-03-28T11:58:28.607Z</time></trkpt><trkpt lat="43.8711951" lon="11.2256127"><ele>503.0</ele><time>2026-03-28T11:58:30.713Z</time></trkpt><trkpt lat="43.8710871" lon="11.2254797"><ele>501.25</ele><time>2026-03-28T11:58:33.608Z</time></trkpt><trkpt lat="43.8710138" lon="11.2253818"><ele>499.5</ele><time>2026-03-28T11:58:35.727Z</time></trkpt><trkpt lat="43.8709043" lon="11.2252573"><ele>497.75</ele><time>2026-03-28T11:58:38.605Z</time></trkpt><trkpt lat="43.8708272" lon="11.2251809"><ele>496.0</ele><time>2026-03-28T11:58:40.724Z</time></trkpt><trkpt lat="43.8707197" lon="11.2250597"><ele>496.00000000000006</ele><time>2026-03-28T11:58:43.613Z</time></trkpt><trkpt lat="43.8706561" lon="11.2249825"><ele>496.0</ele><time>2026-03-28T11:58:45.722Z</time></trkpt><trkpt lat="43.8705594" lon="11.2248737"><ele>496.0</ele><time>2026-03-28T11:58:48.622Z</time></trkpt><trkpt lat="43.8704893" lon="11.224811"><ele>496.0</ele><time>2026-03-28T11:58:50.611Z</time></trkpt><trkpt lat="43.8704215" lon="11.2247614"><ele>496.00000000000006</ele><time>2026-03-28T11:58:52.607Z</time></trkpt><trkpt lat="43.8703486" lon="11.2247199"><ele>496.0</ele><time>2026-03-28T11:58:54.611Z</time></trkpt><trkpt lat="43.8702426" lon="11.2246593"><ele>492.20000000000005</ele><time>2026-03-28T11:58:57.613Z</time></trkpt><trkpt lat="43.8701664" lon="11.2246147"><ele>488.40000000000003</ele><time>2026-03-28T11:58:59.606Z</time></trkpt><trkpt lat="43.8700947" lon="11.2245655"><ele>484.6</ele><time>2026-03-28T11:59:01.727Z</time></trkpt><trkpt lat="43.8700137" lon="11.2245167"><ele>480.8</ele><time>2026-03-28T11:59:03.616Z</time></trkpt><trkpt lat="43.869929" lon="11.2244576"><ele>477.0</ele><time>2026-03-28T11:59:05.722Z</time></trkpt><trkpt lat="43.8698099" lon="11.2244058"><ele>477.0</ele><time>2026-03-28T11:59:08.611Z</time></trkpt><trkpt lat="43.8697381" lon="11.2243843"><ele>477.00000000000006</ele><time>2026-03-28T11:59:10.716Z</time></trkpt><trkpt lat="43.869633" lon="11.2243442"><ele>477.00000000000006</ele><time>2026-03-28T11:59:13.61Z</time></trkpt><trkpt lat="43.8695536" lon="11.2243127"><ele>477.0</ele><time>2026-03-28T11:59:15.729Z</time></trkpt><trkpt lat="43.869438" lon="11.2242666"><ele>477.0</ele><time>2026-03-28T11:59:18.605Z</time></trkpt><trkpt lat="43.8693598" lon="11.224236"><ele>479.20000000000005</ele><time>2026-03-28T11:59:20.713Z</time></trkpt><trkpt lat="43.8692363" lon="11.2241818"><ele>481.40000000000003</ele><time>2026-03-28T11:59:23.61Z</time></trkpt><trkpt lat="43.869152" lon="11.2241573"><ele>483.59999999999997</ele><time>2026-03-28T11:59:25.603Z</time></trkpt><trkpt lat="43.8690661" lon="11.2241416"><ele>485.79999999999995</ele><time>2026-03-28T11:59:27.603Z</time></trkpt><trkpt lat="43.8689901" lon="11.224136"><ele>488.0</ele><time>2026-03-28T11:59:29.62Z</time></trkpt><trkpt lat="43.8689186" lon="11.2241261"><ele>487.99999999999994</ele><time>2026-03-28T11:59:31.716Z</time></trkpt><trkpt lat="43.8688484" lon="11.2241153"><ele>488.0</ele><time>2026-03-28T11:59:33.624Z</time></trkpt><trkpt lat="43.8687761" lon="11.2241174"><ele>488.0</ele><time>2026-03-28T11:59:35.607Z</time></trkpt><trkpt lat="43.8687017" lon="11.2241251"><ele>488.0</ele><time>2026-03-28T11:59:37.611Z</time></trkpt><trkpt lat="43.8686298" lon="11.2241391"><ele>487.99999999999994</ele><time>2026-03-28T11:59:39.616Z</time></trkpt><trkpt lat="43.8685144" lon="11.2241645"><ele>488.0</ele><time>2026-03-28T11:59:42.611Z</time></trkpt><trkpt lat="43.8684344" lon="11.22417"><ele>487.79999999999995</ele><time>2026-03-28T11:59:44.618Z</time></trkpt><trkpt lat="43.8683584" lon="11.2241889"><ele>487.59999999999997</ele><time>2026-03-28T11:59:46.609Z</time></trkpt><trkpt lat="43.8682881" lon="11.2242151"><ele>487.40000000000003</ele><time>2026-03-28T11:59:48.617Z</time></trkpt><trkpt lat="43.8682062" lon="11.2242234"><ele>487.20000000000005</ele><time>2026-03-28T11:59:50.716Z</time></trkpt><trkpt lat="43.8680676" lon="11.2242662"><ele>487.0</ele><time>2026-03-28T11:59:53.611Z</time></trkpt><trkpt lat="43.8679726" lon="11.224289"><ele>487.0</ele><time>2026-03-28T11:59:55.72Z</time></trkpt><trkpt lat="43.8678382" lon="11.2243206"><ele>487.00000000000006</ele><time>2026-03-28T11:59:58.617Z</time></trkpt><trkpt lat="43.8677589" lon="11.2243448"><ele>487.00000000000006</ele><time>2026-03-28T12:00:00.728Z</time></trkpt><trkpt lat="43.867644" lon="11.2243943"><ele>487.0</ele><time>2026-03-28T12:00:03.608Z</time></trkpt><trkpt lat="43.8675654" lon="11.2244432"><ele>487.0</ele><time>2026-03-28T12:00:05.727Z</time></trkpt><trkpt lat="43.8674922" lon="11.2245017"><ele>484.33333333333337</ele><time>2026-03-28T12:00:07.616Z</time></trkpt><trkpt lat="43.8674157" lon="11.2245545"><ele>481.6666666666667</ele><time>2026-03-28T12:00:09.651Z</time></trkpt><trkpt lat="43.8673455" lon="11.2246107"><ele>479.0</ele><time>2026-03-28T12:00:11.611Z</time></trkpt><trkpt lat="43.8672713" lon="11.2246753"><ele>476.33333333333337</ele><time>2026-03-28T12:00:13.612Z</time></trkpt><trkpt lat="43.8672022" lon="11.2247326"><ele>473.6666666666667</ele><time>2026-03-28T12:00:15.611Z</time></trkpt><trkpt lat="43.8671405" lon="11.2247874"><ele>471.0</ele><time>2026-03-28T12:00:17.592Z</time></trkpt><trkpt lat="43.8670747" lon="11.2248263"><ele>471.6666666666667</ele><time>2026-03-28T12:00:19.614Z</time></trkpt><trkpt lat="43.8670003" lon="11.224868"><ele>472.33333333333337</ele><time>2026-03-28T12:00:21.611Z</time></trkpt><trkpt lat="43.8669278" lon="11.2249143"><ele>473.0</ele><time>2026-03-28T12:00:23.616Z</time></trkpt><trkpt lat="43.8668625" lon="11.2249483"><ele>473.6666666666667</ele><time>2026-03-28T12:00:25.614Z</time></trkpt><trkpt lat="43.8667859" lon="11.2249672"><ele>474.33333333333337</ele><time>2026-03-28T12:00:27.607Z</time></trkpt><trkpt lat="43.8667163" lon="11.2249988"><ele>475.0</ele><time>2026-03-28T12:00:29.598Z</time></trkpt><trkpt lat="43.8666504" lon="11.2250515"><ele>475.00000000000006</ele><time>2026-03-28T12:00:31.611Z</time></trkpt><trkpt lat="43.8665908" lon="11.2251121"><ele>475.0</ele><time>2026-03-28T12:00:33.612Z</time></trkpt><trkpt lat="43.8665306" lon="11.2251679"><ele>475.0</ele><time>2026-03-28T12:00:35.601Z</time></trkpt><trkpt lat="43.8664648" lon="11.2252194"><ele>475.0</ele><time>2026-03-28T12:00:37.608Z</time></trkpt><trkpt lat="43.8663863" lon="11.225285"><ele>475.00000000000006</ele><time>2026-03-28T12:00:39.612Z</time></trkpt><trkpt lat="43.8663063" lon="11.2253422"><ele>475.0</ele><time>2026-03-28T12:00:41.728Z</time></trkpt><trkpt lat="43.8662341" lon="11.225398"><ele>475.0</ele><time>2026-03-28T12:00:43.61Z</time></trkpt><trkpt lat="43.866159" lon="11.2254527"><ele>475.0</ele><time>2026-03-28T12:00:45.72Z</time></trkpt><trkpt lat="43.866055" lon="11.2255279"><ele>475.0</ele><time>2026-03-28T12:00:48.605Z</time></trkpt><trkpt lat="43.865981" lon="11.2255765"><ele>475.0</ele><time>2026-03-28T12:00:50.715Z</time></trkpt><trkpt lat="43.8659022" lon="11.2256299"><ele>475.0</ele><time>2026-03-28T12:00:52.615Z</time></trkpt><trkpt lat="43.8658275" lon="11.2256769"><ele>474.6666666666667</ele><time>2026-03-28T12:00:54.657Z</time></trkpt><trkpt lat="43.8657571" lon="11.2257224"><ele>474.33333333333337</ele><time>2026-03-28T12:00:56.621Z</time></trkpt><trkpt lat="43.8656932" lon="11.2257979"><ele>474.0</ele><time>2026-03-28T12:00:59.613Z</time></trkpt><trkpt lat="43.8656628" lon="11.2258797"><ele>473.66666666666663</ele><time>2026-03-28T12:01:02.624Z</time></trkpt><trkpt lat="43.8656375" lon="11.2259732"><ele>473.3333333333333</ele><time>2026-03-28T12:01:06.614Z</time></trkpt><trkpt lat="43.8656882" lon="11.2260351"><ele>473.0</ele><time>2026-03-28T12:02:15.605Z</time></trkpt><trkpt lat="43.8656042" lon="11.2259901"><ele>472.99999999999994</ele><time>2026-03-28T12:03:18.613Z</time></trkpt><trkpt lat="43.8655239" lon="11.2259152"><ele>473.0</ele><time>2026-03-28T12:03:23.613Z</time></trkpt><trkpt lat="43.8654809" lon="11.2258389"><ele>473.0</ele><time>2026-03-28T12:03:26.718Z</time></trkpt><trkpt lat="43.8654418" lon="11.2257606"><ele>473.0</ele><time>2026-03-28T12:03:29.666Z</time></trkpt><trkpt lat="43.8654289" lon="11.2256173"><ele>472.99999999999994</ele><time>2026-03-28T12:03:33.61Z</time></trkpt><trkpt lat="43.8654517" lon="11.2255283"><ele>473.0</ele><time>2026-03-28T12:03:36.719Z</time></trkpt><trkpt lat="43.8654788" lon="11.2254231"><ele>470.42857142857144</ele><time>2026-03-28T12:03:40.603Z</time></trkpt><trkpt lat="43.8654906" lon="11.225328"><ele>467.85714285714283</ele><time>2026-03-28T12:03:44.602Z</time></trkpt><trkpt lat="43.8655" lon="11.2252259"><ele>465.2857142857143</ele><time>2026-03-28T12:03:53.616Z</time></trkpt><trkpt lat="43.8655149" lon="11.2251176"><ele>462.7142857142857</ele><time>2026-03-28T12:03:58.613Z</time></trkpt><trkpt lat="43.8654712" lon="11.2250489"><ele>460.1428571428571</ele><time>2026-03-28T12:04:27.609Z</time></trkpt><trkpt lat="43.8654018" lon="11.2250829"><ele>457.57142857142856</ele><time>2026-03-28T12:04:30.616Z</time></trkpt><trkpt lat="43.865395" lon="11.2249836"><ele>455.0</ele><time>2026-03-28T12:04:35.63Z</time></trkpt><trkpt lat="43.8654487" lon="11.2249124"><ele>454.99999999999994</ele><time>2026-03-28T12:04:38.624Z</time></trkpt><trkpt lat="43.8654649" lon="11.2248136"><ele>455.0</ele><time>2026-03-28T12:04:42.599Z</time></trkpt><trkpt lat="43.8653846" lon="11.2247824"><ele>455.0</ele><time>2026-03-28T12:04:45.617Z</time></trkpt><trkpt lat="43.8653206" lon="11.2248245"><ele>455.0</ele><time>2026-03-28T12:04:47.616Z</time></trkpt><trkpt lat="43.865257" lon="11.2248814"><ele>454.99999999999994</ele><time>2026-03-28T12:04:49.623Z</time></trkpt><trkpt lat="43.8651827" lon="11.2249371"><ele>455.0</ele><time>2026-03-28T12:04:51.617Z</time></trkpt><trkpt lat="43.8651305" lon="11.2249922"><ele>452.42857142857144</ele><time>2026-03-28T12:04:53.622Z</time></trkpt><trkpt lat="43.8650869" lon="11.2250657"><ele>449.8571428571429</ele><time>2026-03-28T12:04:55.613Z</time></trkpt><trkpt lat="43.8650442" lon="11.2251538"><ele>447.2857142857143</ele><time>2026-03-28T12:04:57.624Z</time></trkpt><trkpt lat="43.8650128" lon="11.2252455"><ele>444.7142857142857</ele><time>2026-03-28T12:04:59.625Z</time></trkpt><trkpt lat="43.8649847" lon="11.2253255"><ele>442.14285714285717</ele><time>2026-03-28T12:05:01.617Z</time></trkpt><trkpt lat="43.8649619" lon="11.2254228"><ele>439.57142857142856</ele><time>2026-03-28T12:13:32.622Z</time></trkpt><trkpt lat="43.8649795" lon="11.2255209"><ele>437.0</ele><time>2026-03-28T12:13:35.617Z</time></trkpt><trkpt lat="43.8649927" lon="11.2256098"><ele>436.3333333333333</ele><time>2026-03-28T12:13:37.631Z</time></trkpt><trkpt lat="43.8650249" lon="11.2256999"><ele>435.66666666666663</ele><time>2026-03-28T12:13:42.744Z</time></trkpt><trkpt lat="43.8650608" lon="11.2257749"><ele>435.0</ele><time>2026-03-28T12:13:45.66Z</time></trkpt><trkpt lat="43.8651224" lon="11.2258783"><ele>434.33333333333337</ele><time>2026-03-28T12:13:49.627Z</time></trkpt><trkpt lat="43.8651973" lon="11.2259629"><ele>433.6666666666667</ele><time>2026-03-28T12:13:54.62Z</time></trkpt><trkpt lat="43.8652306" lon="11.2260473"><ele>433.0</ele><time>2026-03-28T12:13:57.613Z</time></trkpt><trkpt lat="43.8652678" lon="11.2261217"><ele>439.50000000000006</ele><time>2026-03-28T12:14:00.738Z</time></trkpt><trkpt lat="43.8653242" lon="11.226246"><ele>446.0</ele><time>2026-03-28T12:14:04.619Z</time></trkpt><trkpt lat="43.8653665" lon="11.2263563"><ele>452.5</ele><time>2026-03-28T12:14:07.624Z</time></trkpt><trkpt lat="43.8653969" lon="11.2264672"><ele>459.0</ele><time>2026-03-28T12:14:10.738Z</time></trkpt><trkpt lat="43.8654297" lon="11.2265811"><ele>465.50000000000006</ele><time>2026-03-28T12:14:13.633Z</time></trkpt><trkpt lat="43.8654681" lon="11.2266755"><ele>472.0</ele><time>2026-03-28T12:14:16.615Z</time></trkpt><trkpt lat="43.8655005" lon="11.2267758"><ele>472.00000000000006</ele><time>2026-03-28T12:14:19.61Z</time></trkpt><trkpt lat="43.8655384" lon="11.2268891"><ele>472.0</ele><time>2026-03-28T12:14:22.611Z</time></trkpt><trkpt lat="43.8655658" lon="11.2269918"><ele>472.0</ele><time>2026-03-28T12:14:25.626Z</time></trkpt><trkpt lat="43.8655902" lon="11.2270971"><ele>472.0</ele><time>2026-03-28T12:14:28.627Z</time></trkpt><trkpt lat="43.8656085" lon="11.2271969"><ele>472.00000000000006</ele><time>2026-03-28T12:14:31.627Z</time></trkpt><trkpt lat="43.8655962" lon="11.2272955"><ele>472.0</ele><time>2026-03-28T12:14:35.622Z</time></trkpt><trkpt lat="43.8656176" lon="11.2274653"><ele>470.00000000000006</ele><time>2026-03-28T12:14:39.635Z</time></trkpt><trkpt lat="43.8656536" lon="11.227555"><ele>468.0</ele><time>2026-03-28T12:14:42.742Z</time></trkpt><trkpt lat="43.8656944" lon="11.2276649"><ele>466.0</ele><time>2026-03-28T12:14:45.67Z</time></trkpt><trkpt lat="43.8657304" lon="11.2278102"><ele>464.0</ele><time>2026-03-28T12:14:49.618Z</time></trkpt><trkpt lat="43.8657639" lon="11.2279294"><ele>462.00000000000006</ele><time>2026-03-28T12:14:52.634Z</time></trkpt><trkpt lat="43.8657971" lon="11.2280289"><ele>460.0</ele><time>2026-03-28T12:14:55.614Z</time></trkpt><trkpt lat="43.8658507" lon="11.2281666"><ele>458.33333333333337</ele><time>2026-03-28T12:14:59.613Z</time></trkpt><trkpt lat="43.8658792" lon="11.2282776"><ele>456.6666666666667</ele><time>2026-03-28T12:15:02.629Z</time></trkpt><trkpt lat="43.8659116" lon="11.2283803"><ele>455.0</ele><time>2026-03-28T12:15:05.722Z</time></trkpt><trkpt lat="43.8659412" lon="11.228498"><ele>453.33333333333337</ele><time>2026-03-28T12:15:08.625Z</time></trkpt><trkpt lat="43.865966" lon="11.2286131"><ele>451.6666666666667</ele><time>2026-03-28T12:15:11.63Z</time></trkpt><trkpt lat="43.8659769" lon="11.2287257"><ele>450.0</ele><time>2026-03-28T12:15:14.621Z</time></trkpt><trkpt lat="43.8659865" lon="11.2288453"><ele>459.0</ele><time>2026-03-28T12:15:17.735Z</time></trkpt><trkpt lat="43.8660016" lon="11.2289561"><ele>468.0</ele><time>2026-03-28T12:15:20.651Z</time></trkpt><trkpt lat="43.8660207" lon="11.2290816"><ele>477.0</ele><time>2026-03-28T12:15:24.624Z</time></trkpt><trkpt lat="43.8660295" lon="11.2291882"><ele>486.0</ele><time>2026-03-28T12:15:27.735Z</time></trkpt><trkpt lat="43.8660478" lon="11.2292976"><ele>495.0</ele><time>2026-03-28T12:15:30.696Z</time></trkpt><trkpt lat="43.8660691" lon="11.2294359"><ele>504.0</ele><time>2026-03-28T12:15:34.626Z</time></trkpt><trkpt lat="43.8660871" lon="11.2295345"><ele>504.0</ele><time>2026-03-28T12:15:37.635Z</time></trkpt><trkpt lat="43.8661111" lon="11.2296375"><ele>504.0</ele><time>2026-03-28T12:15:40.622Z</time></trkpt><trkpt lat="43.8661354" lon="11.229792"><ele>504.0</ele><time>2026-03-28T12:15:44.624Z</time></trkpt><trkpt lat="43.866151" lon="11.2299086"><ele>504.0</ele><time>2026-03-28T12:15:47.624Z</time></trkpt><trkpt lat="43.866173" lon="11.2300276"><ele>504.0</ele><time>2026-03-28T12:15:50.619Z</time></trkpt><trkpt lat="43.8662039" lon="11.2301882"><ele>502.8333333333333</ele><time>2026-03-28T12:15:54.622Z</time></trkpt><trkpt lat="43.8662214" lon="11.2302748"><ele>501.66666666666663</ele><time>2026-03-28T12:15:56.626Z</time></trkpt><trkpt lat="43.8662337" lon="11.2303648"><ele>500.5</ele><time>2026-03-28T12:15:58.623Z</time></trkpt><trkpt lat="43.8662495" lon="11.2304898"><ele>499.3333333333333</ele><time>2026-03-28T12:16:01.725Z</time></trkpt><trkpt lat="43.8662518" lon="11.2306189"><ele>498.16666666666663</ele><time>2026-03-28T12:16:04.633Z</time></trkpt><trkpt lat="43.8662527" lon="11.2307118"><ele>497.0</ele><time>2026-03-28T12:16:06.74Z</time></trkpt><trkpt lat="43.8662391" lon="11.2308405"><ele>496.99999999999994</ele><time>2026-03-28T12:16:09.613Z</time></trkpt><trkpt lat="43.8662318" lon="11.2309287"><ele>497.0</ele><time>2026-03-28T12:16:11.724Z</time></trkpt><trkpt lat="43.8662259" lon="11.2310574"><ele>497.0</ele><time>2026-03-28T12:16:14.628Z</time></trkpt><trkpt lat="43.8662297" lon="11.2311543"><ele>497.0</ele><time>2026-03-28T12:16:16.722Z</time></trkpt><trkpt lat="43.8662189" lon="11.2312778"><ele>496.99999999999994</ele><time>2026-03-28T12:16:19.617Z</time></trkpt><trkpt lat="43.8662214" lon="11.2314389"><ele>497.0</ele><time>2026-03-28T12:16:23.623Z</time></trkpt><trkpt lat="43.8662339" lon="11.23156"><ele>496.99999999999994</ele><time>2026-03-28T12:16:26.63Z</time></trkpt><trkpt lat="43.8662509" lon="11.2316748"><ele>497.0</ele><time>2026-03-28T12:16:29.622Z</time></trkpt><trkpt lat="43.8662837" lon="11.2317935"><ele>497.0</ele><time>2026-03-28T12:16:32.622Z</time></trkpt><trkpt lat="43.8663058" lon="11.2318761"><ele>497.0</ele><time>2026-03-28T12:16:34.631Z</time></trkpt><trkpt lat="43.8663326" lon="11.2319596"><ele>496.99999999999994</ele><time>2026-03-28T12:16:36.712Z</time></trkpt><trkpt lat="43.8663618" lon="11.2320776"><ele>497.0</ele><time>2026-03-28T12:16:39.619Z</time></trkpt><trkpt lat="43.8663893" lon="11.2321921"><ele>497.16666666666663</ele><time>2026-03-28T12:16:42.621Z</time></trkpt><trkpt lat="43.8664128" lon="11.2323127"><ele>497.3333333333333</ele><time>2026-03-28T12:16:45.625Z</time></trkpt><trkpt lat="43.866425" lon="11.2324014"><ele>497.5</ele><time>2026-03-28T12:16:47.727Z</time></trkpt><trkpt lat="43.8664627" lon="11.2325055"><ele>497.66666666666663</ele><time>2026-03-28T12:16:50.73Z</time></trkpt><trkpt lat="43.8664232" lon="11.2326612"><ele>497.8333333333333</ele><time>2026-03-28T12:16:54.622Z</time></trkpt><trkpt lat="43.8663953" lon="11.232745"><ele>498.0</ele><time>2026-03-28T12:16:56.63Z</time></trkpt><trkpt lat="43.8663603" lon="11.2328233"><ele>498.0</ele><time>2026-03-28T12:16:58.626Z</time></trkpt><trkpt lat="43.8663212" lon="11.2328935"><ele>497.99999999999994</ele><time>2026-03-28T12:17:00.744Z</time></trkpt><trkpt lat="43.8662817" lon="11.2329661"><ele>498.0</ele><time>2026-03-28T12:17:02.642Z</time></trkpt><trkpt lat="43.8662269" lon="11.2330182"><ele>498.0</ele><time>2026-03-28T12:17:04.618Z</time></trkpt><trkpt lat="43.8661614" lon="11.233037"><ele>497.99999999999994</ele><time>2026-03-28T12:17:06.606Z</time></trkpt><trkpt lat="43.8661002" lon="11.2330718"><ele>498.0</ele><time>2026-03-28T12:17:08.625Z</time></trkpt><trkpt lat="43.8660246" lon="11.2331299"><ele>498.0</ele><time>2026-03-28T12:17:11.614Z</time></trkpt><trkpt lat="43.8659621" lon="11.2331641"><ele>495.6666666666667</ele><time>2026-03-28T12:17:13.617Z</time></trkpt><trkpt lat="43.8659013" lon="11.2331985"><ele>493.33333333333337</ele><time>2026-03-28T12:17:15.615Z</time></trkpt><trkpt lat="43.8658388" lon="11.2332274"><ele>491.0</ele><time>2026-03-28T12:17:17.63Z</time></trkpt><trkpt lat="43.8657502" lon="11.2332561"><ele>488.6666666666667</ele><time>2026-03-28T12:17:20.632Z</time></trkpt><trkpt lat="43.8656867" lon="11.233266"><ele>486.33333333333337</ele><time>2026-03-28T12:17:22.625Z</time></trkpt><trkpt lat="43.865597" lon="11.2332759"><ele>484.0</ele><time>2026-03-28T12:17:25.62Z</time></trkpt><trkpt lat="43.865511" lon="11.2332903"><ele>484.0</ele><time>2026-03-28T12:17:28.622Z</time></trkpt><trkpt lat="43.8654225" lon="11.2333017"><ele>484.0</ele><time>2026-03-28T12:17:31.623Z</time></trkpt><trkpt lat="43.8653294" lon="11.2333232"><ele>484.0</ele><time>2026-03-28T12:17:34.624Z</time></trkpt><trkpt lat="43.8652383" lon="11.2333396"><ele>484.0</ele><time>2026-03-28T12:17:37.634Z</time></trkpt><trkpt lat="43.8651494" lon="11.233357"><ele>484.0</ele><time>2026-03-28T12:17:40.631Z</time></trkpt><trkpt lat="43.8650584" lon="11.233369"><ele>484.00000000000006</ele><time>2026-03-28T12:17:43.626Z</time></trkpt><trkpt lat="43.8649671" lon="11.2333771"><ele>484.0</ele><time>2026-03-28T12:17:46.626Z</time></trkpt><trkpt lat="43.8648844" lon="11.2333843"><ele>484.0</ele><time>2026-03-28T12:17:49.626Z</time></trkpt><trkpt lat="43.8647955" lon="11.2334046"><ele>484.0</ele><time>2026-03-28T12:17:52.726Z</time></trkpt><trkpt lat="43.8647128" lon="11.2334208"><ele>484.00000000000006</ele><time>2026-03-28T12:17:55.652Z</time></trkpt><trkpt lat="43.8646259" lon="11.2334343"><ele>484.0</ele><time>2026-03-28T12:17:58.612Z</time></trkpt><trkpt lat="43.8645381" lon="11.2334447"><ele>484.00000000000006</ele><time>2026-03-28T12:18:01.725Z</time></trkpt><trkpt lat="43.8644505" lon="11.2334558"><ele>484.0</ele><time>2026-03-28T12:18:04.618Z</time></trkpt><trkpt lat="43.8643882" lon="11.2334707"><ele>484.0</ele><time>2026-03-28T12:18:06.618Z</time></trkpt><trkpt lat="43.8642999" lon="11.2334931"><ele>484.0</ele><time>2026-03-28T12:18:09.624Z</time></trkpt><trkpt lat="43.8642153" lon="11.2335258"><ele>484.00000000000006</ele><time>2026-03-28T12:18:12.622Z</time></trkpt><trkpt lat="43.8641334" lon="11.2335556"><ele>484.0</ele><time>2026-03-28T12:18:15.622Z</time></trkpt><trkpt lat="43.8640233" lon="11.2336213"><ele>484.00000000000006</ele><time>2026-03-28T12:18:19.621Z</time></trkpt><trkpt lat="43.863943" lon="11.2336787"><ele>484.0</ele><time>2026-03-28T12:18:22.741Z</time></trkpt><trkpt lat="43.8638697" lon="11.2337437"><ele>484.0</ele><time>2026-03-28T12:18:25.656Z</time></trkpt><trkpt lat="43.8637943" lon="11.233807"><ele>484.0</ele><time>2026-03-28T12:18:28.631Z</time></trkpt><trkpt lat="43.8637174" lon="11.233872"><ele>484.00000000000006</ele><time>2026-03-28T12:18:31.728Z</time></trkpt><trkpt lat="43.8636453" lon="11.2339425"><ele>484.0</ele><time>2026-03-28T12:18:34.631Z</time></trkpt><trkpt lat="43.8635708" lon="11.2340114"><ele>485.71428571428567</ele><time>2026-03-28T12:18:37.736Z</time></trkpt><trkpt lat="43.8634944" lon="11.2340768"><ele>487.4285714285714</ele><time>2026-03-28T12:18:40.653Z</time></trkpt><trkpt lat="43.8634193" lon="11.2341388"><ele>489.1428571428571</ele><time>2026-03-28T12:18:43.638Z</time></trkpt><trkpt lat="43.8633663" lon="11.2341875"><ele>490.8571428571429</ele><time>2026-03-28T12:18:45.604Z</time></trkpt><trkpt lat="43.8633073" lon="11.2342316"><ele>492.5714285714286</ele><time>2026-03-28T12:18:47.731Z</time></trkpt><trkpt lat="43.8632485" lon="11.2342724"><ele>494.28571428571433</ele><time>2026-03-28T12:18:49.632Z</time></trkpt><trkpt lat="43.8631913" lon="11.2343155"><ele>496.0</ele><time>2026-03-28T12:18:51.635Z</time></trkpt><trkpt lat="43.8631131" lon="11.2343757"><ele>496.00000000000006</ele><time>2026-03-28T12:18:54.667Z</time></trkpt><trkpt lat="43.8630419" lon="11.2344286"><ele>496.0</ele><time>2026-03-28T12:18:57.629Z</time></trkpt><trkpt lat="43.8629631" lon="11.2344773"><ele>496.0</ele><time>2026-03-28T12:19:00.646Z</time></trkpt><trkpt lat="43.8628748" lon="11.2345288"><ele>496.0</ele><time>2026-03-28T12:19:03.622Z</time></trkpt><trkpt lat="43.8627889" lon="11.2345748"><ele>496.00000000000006</ele><time>2026-03-28T12:19:06.736Z</time></trkpt><trkpt lat="43.8627045" lon="11.2346158"><ele>496.0</ele><time>2026-03-28T12:19:09.606Z</time></trkpt><trkpt lat="43.8626246" lon="11.2346639"><ele>496.6</ele><time>2026-03-28T12:19:12.757Z</time></trkpt><trkpt lat="43.8625398" lon="11.2347111"><ele>497.20000000000005</ele><time>2026-03-28T12:19:15.664Z</time></trkpt><trkpt lat="43.8624242" lon="11.2347733"><ele>497.79999999999995</ele><time>2026-03-28T12:19:19.623Z</time></trkpt><trkpt lat="43.8623401" lon="11.2348208"><ele>498.4</ele><time>2026-03-28T12:19:22.742Z</time></trkpt><trkpt lat="43.862254" lon="11.234867"><ele>499.0</ele><time>2026-03-28T12:19:25.666Z</time></trkpt><trkpt lat="43.8621883" lon="11.234886"><ele>501.7142857142858</ele><time>2026-03-28T12:19:27.628Z</time></trkpt><trkpt lat="43.862126" lon="11.2349091"><ele>504.42857142857144</ele><time>2026-03-28T12:19:29.623Z</time></trkpt><trkpt lat="43.8620368" lon="11.2349064"><ele>507.14285714285717</ele><time>2026-03-28T12:19:32.741Z</time></trkpt><trkpt lat="43.8619474" lon="11.2349034"><ele>509.8571428571429</ele><time>2026-03-28T12:19:35.654Z</time></trkpt><trkpt lat="43.8618837" lon="11.2348885"><ele>512.5714285714286</ele><time>2026-03-28T12:19:37.63Z</time></trkpt><trkpt lat="43.8618155" lon="11.2348707"><ele>515.2857142857143</ele><time>2026-03-28T12:19:39.622Z</time></trkpt><trkpt lat="43.8617533" lon="11.2348462"><ele>518.0</ele><time>2026-03-28T12:19:41.666Z</time></trkpt><trkpt lat="43.8616696" lon="11.2348073"><ele>517.0</ele><time>2026-03-28T12:19:44.637Z</time></trkpt><trkpt lat="43.8616104" lon="11.234764"><ele>516.0</ele><time>2026-03-28T12:19:46.632Z</time></trkpt><trkpt lat="43.8615256" lon="11.234707"><ele>515.0</ele><time>2026-03-28T12:19:49.625Z</time></trkpt><trkpt lat="43.8614715" lon="11.2346532"><ele>514.0</ele><time>2026-03-28T12:19:51.625Z</time></trkpt><trkpt lat="43.861393" lon="11.2345614"><ele>513.0</ele><time>2026-03-28T12:19:54.629Z</time></trkpt><trkpt lat="43.8613409" lon="11.2344812"><ele>512.0</ele><time>2026-03-28T12:19:56.74Z</time></trkpt><trkpt lat="43.861269" lon="11.2343698"><ele>511.99999999999994</ele><time>2026-03-28T12:19:59.62Z</time></trkpt><trkpt lat="43.8612104" lon="11.2342746"><ele>512.0</ele><time>2026-03-28T12:20:02.733Z</time></trkpt><trkpt lat="43.8611485" lon="11.2341833"><ele>512.0</ele><time>2026-03-28T12:20:05.665Z</time></trkpt><trkpt lat="43.8611077" lon="11.2341132"><ele>512.0</ele><time>2026-03-28T12:20:07.736Z</time></trkpt><trkpt lat="43.86106" lon="11.2340448"><ele>511.99999999999994</ele><time>2026-03-28T12:20:09.622Z</time></trkpt><trkpt lat="43.8610038" lon="11.2339844"><ele>512.0</ele><time>2026-03-28T12:20:11.73Z</time></trkpt><trkpt lat="43.8609458" lon="11.2339358"><ele>512.1428571428571</ele><time>2026-03-28T12:20:13.625Z</time></trkpt><trkpt lat="43.8608871" lon="11.2338775"><ele>512.2857142857142</ele><time>2026-03-28T12:20:15.62Z</time></trkpt><trkpt lat="43.8608295" lon="11.2338311"><ele>512.4285714285714</ele><time>2026-03-28T12:20:17.619Z</time></trkpt><trkpt lat="43.8607649" lon="11.2337921"><ele>512.5714285714286</ele><time>2026-03-28T12:20:19.621Z</time></trkpt><trkpt lat="43.8606924" lon="11.2337609"><ele>512.7142857142858</ele><time>2026-03-28T12:20:21.628Z</time></trkpt><trkpt lat="43.8606192" lon="11.2337237"><ele>512.8571428571429</ele><time>2026-03-28T12:20:23.623Z</time></trkpt><trkpt lat="43.8605441" lon="11.2337095"><ele>513.0</ele><time>2026-03-28T12:20:25.741Z</time></trkpt><trkpt lat="43.8604681" lon="11.2336974"><ele>513.0</ele><time>2026-03-28T12:20:27.626Z</time></trkpt><trkpt lat="43.8603955" lon="11.2336751"><ele>513.0</ele><time>2026-03-28T12:20:29.629Z</time></trkpt><trkpt lat="43.860313" lon="11.2336617"><ele>513.0</ele><time>2026-03-28T12:20:31.739Z</time></trkpt><trkpt lat="43.8601851" lon="11.2336475"><ele>513.0</ele><time>2026-03-28T12:20:34.627Z</time></trkpt><trkpt lat="43.8601081" lon="11.2336435"><ele>513.0</ele><time>2026-03-28T12:20:36.734Z</time></trkpt><trkpt lat="43.8599892" lon="11.2336363"><ele>514.8</ele><time>2026-03-28T12:20:39.631Z</time></trkpt><trkpt lat="43.8599063" lon="11.2336326"><ele>516.5999999999999</ele><time>2026-03-28T12:20:41.743Z</time></trkpt><trkpt lat="43.8597984" lon="11.2336262"><ele>518.4000000000001</ele><time>2026-03-28T12:20:44.635Z</time></trkpt><trkpt lat="43.8597146" lon="11.2336147"><ele>520.2</ele><time>2026-03-28T12:20:47.735Z</time></trkpt><trkpt lat="43.8596388" lon="11.2335926"><ele>522.0</ele><time>2026-03-28T12:20:50.665Z</time></trkpt><trkpt lat="43.8595244" lon="11.2335591"><ele>522.0</ele><time>2026-03-28T12:20:54.62Z</time></trkpt><trkpt lat="43.859435" lon="11.2335381"><ele>522.0</ele><time>2026-03-28T12:20:57.633Z</time></trkpt><trkpt lat="43.8593446" lon="11.233534"><ele>522.0</ele><time>2026-03-28T12:21:00.723Z</time></trkpt><trkpt lat="43.8592769" lon="11.2335353"><ele>522.0</ele><time>2026-03-28T12:21:02.628Z</time></trkpt><trkpt lat="43.8592083" lon="11.2335439"><ele>522.0</ele><time>2026-03-28T12:21:04.632Z</time></trkpt><trkpt lat="43.8591407" lon="11.2335457"><ele>522.0</ele><time>2026-03-28T12:21:06.644Z</time></trkpt><trkpt lat="43.859073" lon="11.2335528"><ele>522.8571428571429</ele><time>2026-03-28T12:21:08.626Z</time></trkpt><trkpt lat="43.8590058" lon="11.2335705"><ele>523.7142857142857</ele><time>2026-03-28T12:21:10.633Z</time></trkpt><trkpt lat="43.8589387" lon="11.2335834"><ele>524.5714285714286</ele><time>2026-03-28T12:21:12.626Z</time></trkpt><trkpt lat="43.8588714" lon="11.2336088"><ele>525.4285714285714</ele><time>2026-03-28T12:21:14.645Z</time></trkpt><trkpt lat="43.858802" lon="11.2336254"><ele>526.2857142857143</ele><time>2026-03-28T12:21:16.635Z</time></trkpt><trkpt lat="43.8587142" lon="11.23366"><ele>527.1428571428571</ele><time>2026-03-28T12:21:19.629Z</time></trkpt><trkpt lat="43.8586571" lon="11.2337006"><ele>528.0</ele><time>2026-03-28T12:21:21.629Z</time></trkpt><trkpt lat="43.8585979" lon="11.2337451"><ele>528.0</ele><time>2026-03-28T12:21:23.632Z</time></trkpt><trkpt lat="43.8585397" lon="11.2337897"><ele>528.0</ele><time>2026-03-28T12:21:25.628Z</time></trkpt><trkpt lat="43.858484" lon="11.2338334"><ele>528.0</ele><time>2026-03-28T12:21:27.628Z</time></trkpt><trkpt lat="43.8584278" lon="11.2338798"><ele>528.0</ele><time>2026-03-28T12:21:29.611Z</time></trkpt><trkpt lat="43.8583751" lon="11.2339307"><ele>528.0</ele><time>2026-03-28T12:21:31.633Z</time></trkpt><trkpt lat="43.8582917" lon="11.2340248"><ele>528.0</ele><time>2026-03-28T12:21:34.625Z</time></trkpt><trkpt lat="43.8582372" lon="11.2340826"><ele>528.0</ele><time>2026-03-28T12:21:36.746Z</time></trkpt><trkpt lat="43.8581612" lon="11.2341766"><ele>530.0</ele><time>2026-03-28T12:21:39.629Z</time></trkpt><trkpt lat="43.8581112" lon="11.234233"><ele>532.0</ele><time>2026-03-28T12:21:41.626Z</time></trkpt><trkpt lat="43.8580573" lon="11.2342935"><ele>534.0</ele><time>2026-03-28T12:21:43.632Z</time></trkpt><trkpt lat="43.8580095" lon="11.2343584"><ele>536.0</ele><time>2026-03-28T12:21:45.624Z</time></trkpt><trkpt lat="43.8579562" lon="11.2344226"><ele>538.0</ele><time>2026-03-28T12:21:47.735Z</time></trkpt><trkpt lat="43.8578968" lon="11.2344811"><ele>540.0</ele><time>2026-03-28T12:21:49.63Z</time></trkpt><trkpt lat="43.8578392" lon="11.2345405"><ele>542.0</ele><time>2026-03-28T12:21:51.628Z</time></trkpt><trkpt lat="43.8577757" lon="11.2345993"><ele>542.0</ele><time>2026-03-28T12:21:53.63Z</time></trkpt><trkpt lat="43.8577105" lon="11.234668"><ele>542.0</ele><time>2026-03-28T12:21:55.744Z</time></trkpt><trkpt lat="43.8576411" lon="11.234736"><ele>542.0</ele><time>2026-03-28T12:21:57.737Z</time></trkpt><trkpt lat="43.8575663" lon="11.2348055"><ele>542.0</ele><time>2026-03-28T12:21:59.625Z</time></trkpt><trkpt lat="43.8574897" lon="11.2348656"><ele>542.0</ele><time>2026-03-28T12:22:01.626Z</time></trkpt><trkpt lat="43.8574083" lon="11.2349149"><ele>542.0</ele><time>2026-03-28T12:22:03.632Z</time></trkpt><trkpt lat="43.8573288" lon="11.2349633"><ele>542.2</ele><time>2026-03-28T12:22:05.747Z</time></trkpt><trkpt lat="43.8572479" lon="11.235008"><ele>542.4000000000001</ele><time>2026-03-28T12:22:07.737Z</time></trkpt><trkpt lat="43.8571613" lon="11.2350495"><ele>542.5999999999999</ele><time>2026-03-28T12:22:09.623Z</time></trkpt><trkpt lat="43.857081" lon="11.2350944"><ele>542.8</ele><time>2026-03-28T12:22:11.733Z</time></trkpt><trkpt lat="43.8569561" lon="11.2351702"><ele>543.0</ele><time>2026-03-28T12:22:14.629Z</time></trkpt><trkpt lat="43.8568768" lon="11.2352178"><ele>540.0</ele><time>2026-03-28T12:22:16.741Z</time></trkpt><trkpt lat="43.8567596" lon="11.2352907"><ele>537.0</ele><time>2026-03-28T12:22:19.628Z</time></trkpt><trkpt lat="43.8566795" lon="11.2353421"><ele>534.0</ele><time>2026-03-28T12:22:21.737Z</time></trkpt><trkpt lat="43.8565568" lon="11.2354167"><ele>531.0</ele><time>2026-03-28T12:22:24.629Z</time></trkpt><trkpt lat="43.85648" lon="11.2354653"><ele>528.0</ele><time>2026-03-28T12:22:26.736Z</time></trkpt><trkpt lat="43.8564001" lon="11.2355079"><ele>528.0</ele><time>2026-03-28T12:22:28.628Z</time></trkpt><trkpt lat="43.8563216" lon="11.2355491"><ele>528.0</ele><time>2026-03-28T12:22:30.636Z</time></trkpt><trkpt lat="43.8562392" lon="11.2355795"><ele>528.0</ele><time>2026-03-28T12:22:32.741Z</time></trkpt><trkpt lat="43.8561566" lon="11.2356203"><ele>528.0</ele><time>2026-03-28T12:22:34.63Z</time></trkpt><trkpt lat="43.8560716" lon="11.2356503"><ele>528.0</ele><time>2026-03-28T12:22:36.627Z</time></trkpt><trkpt lat="43.8559926" lon="11.2356749"><ele>528.0</ele><time>2026-03-28T12:22:38.629Z</time></trkpt><trkpt lat="43.8559084" lon="11.2356939"><ele>530.6666666666666</ele><time>2026-03-28T12:22:40.628Z</time></trkpt><trkpt lat="43.8558274" lon="11.2357156"><ele>533.3333333333334</ele><time>2026-03-28T12:22:42.743Z</time></trkpt><trkpt lat="43.8557426" lon="11.2357338"><ele>536.0</ele><time>2026-03-28T12:22:44.632Z</time></trkpt><trkpt lat="43.8556517" lon="11.2357591"><ele>538.6666666666667</ele><time>2026-03-28T12:22:46.623Z</time></trkpt><trkpt lat="43.8555662" lon="11.2357826"><ele>541.3333333333334</ele><time>2026-03-28T12:22:48.628Z</time></trkpt><trkpt lat="43.8554854" lon="11.235798"><ele>544.0</ele><time>2026-03-28T12:22:50.629Z</time></trkpt><trkpt lat="43.855405" lon="11.2358139"><ele>544.0</ele><time>2026-03-28T12:22:52.623Z</time></trkpt><trkpt lat="43.8553258" lon="11.2358274"><ele>544.0</ele><time>2026-03-28T12:22:54.621Z</time></trkpt><trkpt lat="43.8552377" lon="11.2358376"><ele>544.0</ele><time>2026-03-28T12:22:56.627Z</time></trkpt><trkpt lat="43.8551041" lon="11.2358625"><ele>544.0</ele><time>2026-03-28T12:22:59.624Z</time></trkpt><trkpt lat="43.8550118" lon="11.2358828"><ele>544.0</ele><time>2026-03-28T12:23:01.744Z</time></trkpt><trkpt lat="43.854879" lon="11.235912"><ele>544.0</ele><time>2026-03-28T12:23:04.63Z</time></trkpt><trkpt lat="43.8547921" lon="11.2359217"><ele>544.0</ele><time>2026-03-28T12:23:06.732Z</time></trkpt><trkpt lat="43.8546578" lon="11.2359038"><ele>544.0</ele><time>2026-03-28T12:23:09.624Z</time></trkpt><trkpt lat="43.8545731" lon="11.2358621"><ele>544.0</ele><time>2026-03-28T12:23:11.75Z</time></trkpt><trkpt lat="43.854488" lon="11.2358196"><ele>544.0</ele><time>2026-03-28T12:23:13.629Z</time></trkpt><trkpt lat="43.8544164" lon="11.2357828"><ele>544.0</ele><time>2026-03-28T12:23:15.639Z</time></trkpt><trkpt lat="43.8543455" lon="11.2357591"><ele>544.0</ele><time>2026-03-28T12:23:17.631Z</time></trkpt><trkpt lat="43.8542778" lon="11.2357348"><ele>544.0</ele><time>2026-03-28T12:23:19.618Z</time></trkpt><trkpt lat="43.8541751" lon="11.2357184"><ele>544.0</ele><time>2026-03-28T12:23:22.626Z</time></trkpt><trkpt lat="43.8541079" lon="11.235723"><ele>544.0</ele><time>2026-03-28T12:23:24.622Z</time></trkpt><trkpt lat="43.854041" lon="11.2357358"><ele>544.0</ele><time>2026-03-28T12:23:26.624Z</time></trkpt><trkpt lat="43.853937" lon="11.2357657"><ele>544.3333333333334</ele><time>2026-03-28T12:23:29.627Z</time></trkpt><trkpt lat="43.8538676" lon="11.2357944"><ele>544.6666666666667</ele><time>2026-03-28T12:23:31.634Z</time></trkpt><trkpt lat="43.853793" lon="11.2358232"><ele>545.0</ele><time>2026-03-28T12:23:33.627Z</time></trkpt><trkpt lat="43.8537102" lon="11.2358522"><ele>545.3333333333334</ele><time>2026-03-28T12:23:35.749Z</time></trkpt><trkpt lat="43.8536174" lon="11.2358788"><ele>545.6666666666666</ele><time>2026-03-28T12:23:37.739Z</time></trkpt><trkpt lat="43.8535271" lon="11.2359024"><ele>546.0</ele><time>2026-03-28T12:23:39.637Z</time></trkpt><trkpt lat="43.8534295" lon="11.2359264"><ele>546.0</ele><time>2026-03-28T12:23:41.741Z</time></trkpt><trkpt lat="43.8532943" lon="11.2359734"><ele>546.0</ele><time>2026-03-28T12:23:44.621Z</time></trkpt><trkpt lat="43.853209" lon="11.2360019"><ele>546.0</ele><time>2026-03-28T12:23:46.736Z</time></trkpt><trkpt lat="43.8530957" lon="11.2360459"><ele>546.0</ele><time>2026-03-28T12:23:49.624Z</time></trkpt><trkpt lat="43.8530085" lon="11.2360816"><ele>546.0</ele><time>2026-03-28T12:23:52.733Z</time></trkpt><trkpt lat="43.8529253" lon="11.2361111"><ele>546.0</ele><time>2026-03-28T12:23:55.679Z</time></trkpt><trkpt lat="43.8528132" lon="11.2361478"><ele>546.0</ele><time>2026-03-28T12:23:59.626Z</time></trkpt><trkpt lat="43.8527373" lon="11.2361718"><ele>546.0</ele><time>2026-03-28T12:24:02.605Z</time></trkpt><trkpt lat="43.8526602" lon="11.2362016"><ele>546.0</ele><time>2026-03-28T12:24:05.634Z</time></trkpt><trkpt lat="43.8525817" lon="11.2362501"><ele>546.0</ele><time>2026-03-28T12:24:08.621Z</time></trkpt><trkpt lat="43.852498" lon="11.236295"><ele>546.0</ele><time>2026-03-28T12:24:11.635Z</time></trkpt><trkpt lat="43.8524173" lon="11.2363414"><ele>544.6</ele><time>2026-03-28T12:24:14.631Z</time></trkpt><trkpt lat="43.8523349" lon="11.2364138"><ele>543.2</ele><time>2026-03-28T12:24:17.633Z</time></trkpt><trkpt lat="43.8522559" lon="11.2364786"><ele>541.8</ele><time>2026-03-28T12:24:20.626Z</time></trkpt><trkpt lat="43.8521804" lon="11.2365511"><ele>540.4</ele><time>2026-03-28T12:24:23.611Z</time></trkpt><trkpt lat="43.8521089" lon="11.2366247"><ele>539.0</ele><time>2026-03-28T12:24:26.735Z</time></trkpt><trkpt lat="43.8520332" lon="11.2366957"><ele>542.8333333333333</ele><time>2026-03-28T12:24:29.631Z</time></trkpt><trkpt lat="43.8519584" lon="11.2367718"><ele>546.6666666666666</ele><time>2026-03-28T12:24:32.736Z</time></trkpt><trkpt lat="43.8518821" lon="11.2368392"><ele>550.5</ele><time>2026-03-28T12:24:35.745Z</time></trkpt><trkpt lat="43.8518288" lon="11.2368928"><ele>554.3333333333334</ele><time>2026-03-28T12:24:37.744Z</time></trkpt><trkpt lat="43.8517495" lon="11.2369682"><ele>558.1666666666667</ele><time>2026-03-28T12:24:40.738Z</time></trkpt><trkpt lat="43.8516882" lon="11.2370199"><ele>562.0</ele><time>2026-03-28T12:24:42.742Z</time></trkpt><trkpt lat="43.8516289" lon="11.2370624"><ele>562.0</ele><time>2026-03-28T12:24:44.626Z</time></trkpt><trkpt lat="43.8515668" lon="11.237086"><ele>562.0</ele><time>2026-03-28T12:24:46.637Z</time></trkpt><trkpt lat="43.8515032" lon="11.2370956"><ele>562.0</ele><time>2026-03-28T12:24:48.629Z</time></trkpt><trkpt lat="43.851423" lon="11.2370643"><ele>562.0</ele><time>2026-03-28T12:24:51.742Z</time></trkpt><trkpt lat="43.8513615" lon="11.237007"><ele>562.0</ele><time>2026-03-28T12:24:54.631Z</time></trkpt><trkpt lat="43.8513052" lon="11.236911"><ele>562.0</ele><time>2026-03-28T12:24:57.624Z</time></trkpt><trkpt lat="43.8512572" lon="11.236814"><ele>562.0</ele><time>2026-03-28T12:25:00.634Z</time></trkpt><trkpt lat="43.8512087" lon="11.2367214"><ele>562.0</ele><time>2026-03-28T12:25:03.628Z</time></trkpt><trkpt lat="43.8511702" lon="11.2366203"><ele>562.0</ele><time>2026-03-28T12:25:06.637Z</time></trkpt><trkpt lat="43.8511378" lon="11.2365108"><ele>562.0</ele><time>2026-03-28T12:25:09.636Z</time></trkpt><trkpt lat="43.8511147" lon="11.2363947"><ele>562.0</ele><time>2026-03-28T12:25:12.736Z</time></trkpt><trkpt lat="43.8511004" lon="11.2362673"><ele>562.0</ele><time>2026-03-28T12:25:15.696Z</time></trkpt><trkpt lat="43.851086" lon="11.2361808"><ele>559.4</ele><time>2026-03-28T12:25:17.741Z</time></trkpt><trkpt lat="43.851065" lon="11.2360618"><ele>556.8000000000001</ele><time>2026-03-28T12:25:20.733Z</time></trkpt><trkpt lat="43.8510282" lon="11.2358979"><ele>554.2</ele><time>2026-03-28T12:25:24.628Z</time></trkpt><trkpt lat="43.8510068" lon="11.2357788"><ele>551.6</ele><time>2026-03-28T12:25:27.738Z</time></trkpt><trkpt lat="43.8509863" lon="11.2356861"><ele>549.0</ele><time>2026-03-28T12:25:29.632Z</time></trkpt><trkpt lat="43.8509609" lon="11.235566"><ele>553.3333333333334</ele><time>2026-03-28T12:25:32.635Z</time></trkpt><trkpt lat="43.8509432" lon="11.2354764"><ele>557.6666666666666</ele><time>2026-03-28T12:25:34.626Z</time></trkpt><trkpt lat="43.8509233" lon="11.2353822"><ele>562.0</ele><time>2026-03-28T12:25:36.739Z</time></trkpt><trkpt lat="43.8508994" lon="11.2352166"><ele>566.3333333333333</ele><time>2026-03-28T12:25:39.625Z</time></trkpt><trkpt lat="43.8508824" lon="11.2351095"><ele>570.6666666666666</ele><time>2026-03-28T12:25:41.628Z</time></trkpt><trkpt lat="43.8508619" lon="11.2349955"><ele>575.0</ele><time>2026-03-28T12:25:43.624Z</time></trkpt><trkpt lat="43.8508408" lon="11.2348935"><ele>573.8333333333333</ele><time>2026-03-28T12:25:45.74Z</time></trkpt><trkpt lat="43.850812" lon="11.2347623"><ele>572.6666666666666</ele><time>2026-03-28T12:25:48.633Z</time></trkpt><trkpt lat="43.8507908" lon="11.2346612"><ele>571.5</ele><time>2026-03-28T12:25:50.637Z</time></trkpt><trkpt lat="43.8507779" lon="11.2345526"><ele>570.3333333333334</ele><time>2026-03-28T12:25:52.638Z</time></trkpt><trkpt lat="43.850756" lon="11.2344422"><ele>569.1666666666667</ele><time>2026-03-28T12:25:54.64Z</time></trkpt><trkpt lat="43.8507309" lon="11.2343325"><ele>568.0</ele><time>2026-03-28T12:25:56.74Z</time></trkpt><trkpt lat="43.8506979" lon="11.2341693"><ele>568.0</ele><time>2026-03-28T12:25:59.639Z</time></trkpt><trkpt lat="43.8506796" lon="11.2340637"><ele>568.0</ele><time>2026-03-28T12:26:01.738Z</time></trkpt><trkpt lat="43.8506491" lon="11.2339113"><ele>568.0</ele><time>2026-03-28T12:26:04.633Z</time></trkpt><trkpt lat="43.8506288" lon="11.2338129"><ele>568.0</ele><time>2026-03-28T12:26:06.734Z</time></trkpt><trkpt lat="43.8505911" lon="11.2336615"><ele>568.0</ele><time>2026-03-28T12:26:09.642Z</time></trkpt><trkpt lat="43.8505628" lon="11.2335705"><ele>566.1666666666667</ele><time>2026-03-28T12:26:11.739Z</time></trkpt><trkpt lat="43.8505132" lon="11.2334322"><ele>564.3333333333334</ele><time>2026-03-28T12:26:14.628Z</time></trkpt><trkpt lat="43.8504817" lon="11.233338"><ele>562.5</ele><time>2026-03-28T12:26:16.613Z</time></trkpt><trkpt lat="43.8504416" lon="11.2332507"><ele>560.6666666666666</ele><time>2026-03-28T12:26:18.629Z</time></trkpt><trkpt lat="43.8504028" lon="11.2331613"><ele>558.8333333333333</ele><time>2026-03-28T12:26:20.637Z</time></trkpt><trkpt lat="43.8503649" lon="11.2330775"><ele>557.0</ele><time>2026-03-28T12:26:22.745Z</time></trkpt><trkpt lat="43.8503287" lon="11.2329955"><ele>555.8333333333333</ele><time>2026-03-28T12:26:24.635Z</time></trkpt><trkpt lat="43.8502877" lon="11.2329133"><ele>554.6666666666666</ele><time>2026-03-28T12:26:26.633Z</time></trkpt><trkpt lat="43.8502465" lon="11.2328243"><ele>553.5</ele><time>2026-03-28T12:26:28.634Z</time></trkpt><trkpt lat="43.8502004" lon="11.2327314"><ele>552.3333333333334</ele><time>2026-03-28T12:26:30.628Z</time></trkpt><trkpt lat="43.8501512" lon="11.2326455"><ele>551.1666666666667</ele><time>2026-03-28T12:26:32.746Z</time></trkpt><trkpt lat="43.8501024" lon="11.2325548"><ele>550.0</ele><time>2026-03-28T12:26:34.641Z</time></trkpt><trkpt lat="43.8500556" lon="11.2324694"><ele>553.3333333333334</ele><time>2026-03-28T12:26:36.639Z</time></trkpt><trkpt lat="43.8500116" lon="11.2323801"><ele>556.6666666666667</ele><time>2026-03-28T12:26:38.634Z</time></trkpt><trkpt lat="43.8499662" lon="11.232292"><ele>560.0</ele><time>2026-03-28T12:26:40.641Z</time></trkpt><trkpt lat="43.8499158" lon="11.2321985"><ele>563.3333333333334</ele><time>2026-03-28T12:26:42.741Z</time></trkpt><trkpt lat="43.8498697" lon="11.2321113"><ele>566.6666666666666</ele><time>2026-03-28T12:26:44.644Z</time></trkpt><trkpt lat="43.8498184" lon="11.2320204"><ele>570.0</ele><time>2026-03-28T12:26:46.743Z</time></trkpt><trkpt lat="43.8497525" lon="11.2318879"><ele>570.0</ele><time>2026-03-28T12:26:49.63Z</time></trkpt><trkpt lat="43.8497096" lon="11.2318052"><ele>570.0</ele><time>2026-03-28T12:26:51.75Z</time></trkpt><trkpt lat="43.849639" lon="11.2316649"><ele>570.0</ele><time>2026-03-28T12:26:54.628Z</time></trkpt><trkpt lat="43.8495881" lon="11.2315679"><ele>570.0</ele><time>2026-03-28T12:26:56.736Z</time></trkpt><trkpt lat="43.8495107" lon="11.2314331"><ele>570.0</ele><time>2026-03-28T12:26:59.635Z</time></trkpt><trkpt lat="43.8494549" lon="11.2313539"><ele>570.5</ele><time>2026-03-28T12:27:01.742Z</time></trkpt><trkpt lat="43.8493883" lon="11.2312838"><ele>571.0</ele><time>2026-03-28T12:27:03.628Z</time></trkpt><trkpt lat="43.8493321" lon="11.2312189"><ele>571.5</ele><time>2026-03-28T12:27:05.635Z</time></trkpt><trkpt lat="43.8492626" lon="11.2311601"><ele>572.0</ele><time>2026-03-28T12:27:07.62Z</time></trkpt><trkpt lat="43.8491854" lon="11.2311178"><ele>572.5</ele><time>2026-03-28T12:27:09.651Z</time></trkpt><trkpt lat="43.8490656" lon="11.231078"><ele>573.0</ele><time>2026-03-28T12:27:12.642Z</time></trkpt><trkpt lat="43.8489872" lon="11.2310643"><ele>573.0</ele><time>2026-03-28T12:27:14.634Z</time></trkpt><trkpt lat="43.8489045" lon="11.2310579"><ele>573.0</ele><time>2026-03-28T12:27:16.734Z</time></trkpt><trkpt lat="43.8488241" lon="11.2310615"><ele>573.0</ele><time>2026-03-28T12:27:18.628Z</time></trkpt><trkpt lat="43.8487403" lon="11.2310665"><ele>573.0</ele><time>2026-03-28T12:27:20.658Z</time></trkpt><trkpt lat="43.8486662" lon="11.2310715"><ele>573.0</ele><time>2026-03-28T12:27:22.631Z</time></trkpt><trkpt lat="43.8485894" lon="11.2310804"><ele>573.0</ele><time>2026-03-28T12:27:24.643Z</time></trkpt><trkpt lat="43.8485174" lon="11.2310939"><ele>573.1999999999999</ele><time>2026-03-28T12:27:26.737Z</time></trkpt><trkpt lat="43.8484066" lon="11.2311116"><ele>573.4</ele><time>2026-03-28T12:27:29.628Z</time></trkpt><trkpt lat="43.8483329" lon="11.2311475"><ele>573.5999999999999</ele><time>2026-03-28T12:27:31.743Z</time></trkpt><trkpt lat="43.8482231" lon="11.2312153"><ele>573.8</ele><time>2026-03-28T12:27:34.626Z</time></trkpt><trkpt lat="43.8481529" lon="11.2312653"><ele>574.0</ele><time>2026-03-28T12:27:36.741Z</time></trkpt><trkpt lat="43.8480598" lon="11.2313494"><ele>574.0</ele><time>2026-03-28T12:27:39.644Z</time></trkpt><trkpt lat="43.8479969" lon="11.2314189"><ele>574.0</ele><time>2026-03-28T12:27:41.738Z</time></trkpt><trkpt lat="43.8479154" lon="11.2315348"><ele>574.0</ele><time>2026-03-28T12:27:44.637Z</time></trkpt><trkpt lat="43.8478719" lon="11.231628"><ele>574.0</ele><time>2026-03-28T12:27:46.738Z</time></trkpt><trkpt lat="43.8478282" lon="11.231789"><ele>574.0</ele><time>2026-03-28T12:27:49.634Z</time></trkpt><trkpt lat="43.8478149" lon="11.2318968"><ele>577.0</ele><time>2026-03-28T12:27:51.633Z</time></trkpt><trkpt lat="43.8478143" lon="11.2320034"><ele>580.0</ele><time>2026-03-28T12:27:53.629Z</time></trkpt><trkpt lat="43.8478298" lon="11.2321187"><ele>583.0</ele><time>2026-03-28T12:27:55.637Z</time></trkpt><trkpt lat="43.8478639" lon="11.2322871"><ele>586.0</ele><time>2026-03-28T12:27:58.631Z</time></trkpt><trkpt lat="43.8478923" lon="11.2323962"><ele>589.0</ele><time>2026-03-28T12:28:00.628Z</time></trkpt><trkpt lat="43.8479292" lon="11.2324998"><ele>589.5</ele><time>2026-03-28T12:28:02.738Z</time></trkpt><trkpt lat="43.8479729" lon="11.2326024"><ele>590.0</ele><time>2026-03-28T12:28:04.643Z</time></trkpt><trkpt lat="43.8480204" lon="11.2327116"><ele>590.5</ele><time>2026-03-28T12:28:06.64Z</time></trkpt><trkpt lat="43.8480717" lon="11.2328165"><ele>591.0</ele><time>2026-03-28T12:28:08.649Z</time></trkpt><trkpt lat="43.8481229" lon="11.232922"><ele>591.5</ele><time>2026-03-28T12:28:10.634Z</time></trkpt><trkpt lat="43.8481717" lon="11.2330208"><ele>592.0</ele><time>2026-03-28T12:28:12.724Z</time></trkpt><trkpt lat="43.8482214" lon="11.2331221"><ele>590.4</ele><time>2026-03-28T12:28:14.628Z</time></trkpt><trkpt lat="43.8482985" lon="11.2332905"><ele>588.8000000000001</ele><time>2026-03-28T12:28:17.628Z</time></trkpt><trkpt lat="43.848355" lon="11.2334019"><ele>587.2</ele><time>2026-03-28T12:28:19.642Z</time></trkpt><trkpt lat="43.8484124" lon="11.233513"><ele>585.6</ele><time>2026-03-28T12:28:21.628Z</time></trkpt><trkpt lat="43.848463" lon="11.2336261"><ele>584.0</ele><time>2026-03-28T12:28:23.635Z</time></trkpt><trkpt lat="43.8485164" lon="11.2337362"><ele>586.8</ele><time>2026-03-28T12:28:25.637Z</time></trkpt><trkpt lat="43.8485707" lon="11.2338448"><ele>589.5999999999999</ele><time>2026-03-28T12:28:27.704Z</time></trkpt><trkpt lat="43.8486234" lon="11.2339546"><ele>592.4</ele><time>2026-03-28T12:28:29.631Z</time></trkpt><trkpt lat="43.8486683" lon="11.2340668"><ele>595.1999999999999</ele><time>2026-03-28T12:28:31.687Z</time></trkpt><trkpt lat="43.8487172" lon="11.2341802"><ele>598.0</ele><time>2026-03-28T12:28:33.633Z</time></trkpt><trkpt lat="43.8487652" lon="11.2342889"><ele>598.0</ele><time>2026-03-28T12:28:35.635Z</time></trkpt><trkpt lat="43.8488115" lon="11.234402"><ele>598.0</ele><time>2026-03-28T12:28:37.636Z</time></trkpt><trkpt lat="43.8488573" lon="11.2345165"><ele>598.0</ele><time>2026-03-28T12:28:39.613Z</time></trkpt><trkpt lat="43.8489013" lon="11.2346361"><ele>598.0</ele><time>2026-03-28T12:28:41.634Z</time></trkpt><trkpt lat="43.8489473" lon="11.2347564"><ele>598.0</ele><time>2026-03-28T12:28:43.623Z</time></trkpt><trkpt lat="43.8489961" lon="11.2348773"><ele>596.4</ele><time>2026-03-28T12:28:45.647Z</time></trkpt><trkpt lat="43.8490472" lon="11.2349966"><ele>594.8</ele><time>2026-03-28T12:28:47.63Z</time></trkpt><trkpt lat="43.8490976" lon="11.2351122"><ele>593.2</ele><time>2026-03-28T12:28:49.635Z</time></trkpt><trkpt lat="43.849174" lon="11.2352862"><ele>591.6</ele><time>2026-03-28T12:28:52.634Z</time></trkpt><trkpt lat="43.8492183" lon="11.2353978"><ele>590.0</ele><time>2026-03-28T12:28:54.626Z</time></trkpt><trkpt lat="43.849265" lon="11.2355077"><ele>592.5</ele><time>2026-03-28T12:28:56.624Z</time></trkpt><trkpt lat="43.8493286" lon="11.2356785"><ele>595.0</ele><time>2026-03-28T12:28:59.644Z</time></trkpt><trkpt lat="43.8493792" lon="11.2357836"><ele>597.5</ele><time>2026-03-28T12:29:01.742Z</time></trkpt><trkpt lat="43.8494472" lon="11.2359518"><ele>600.0</ele><time>2026-03-28T12:29:04.637Z</time></trkpt><trkpt lat="43.8494921" lon="11.2360642"><ele>600.0</ele><time>2026-03-28T12:29:06.737Z</time></trkpt><trkpt lat="43.8495604" lon="11.2362359"><ele>600.0</ele><time>2026-03-28T12:29:09.637Z</time></trkpt><trkpt lat="43.8496092" lon="11.2363516"><ele>600.0</ele><time>2026-03-28T12:29:11.751Z</time></trkpt><trkpt lat="43.8496785" lon="11.2365138"><ele>600.0</ele><time>2026-03-28T12:29:14.624Z</time></trkpt><trkpt lat="43.8497253" lon="11.2366258"><ele>598.6</ele><time>2026-03-28T12:29:16.742Z</time></trkpt><trkpt lat="43.8497883" lon="11.2367801"><ele>597.2</ele><time>2026-03-28T12:29:19.63Z</time></trkpt><trkpt lat="43.8498294" lon="11.236882"><ele>595.8</ele><time>2026-03-28T12:29:21.627Z</time></trkpt><trkpt lat="43.8498766" lon="11.2369856"><ele>594.4</ele><time>2026-03-28T12:29:23.63Z</time></trkpt><trkpt lat="43.8499279" lon="11.2370951"><ele>593.0</ele><time>2026-03-28T12:29:25.617Z</time></trkpt><trkpt lat="43.8499926" lon="11.2372102"><ele>592.0</ele><time>2026-03-28T12:29:27.716Z</time></trkpt><trkpt lat="43.8500637" lon="11.2373211"><ele>591.0</ele><time>2026-03-28T12:29:29.63Z</time></trkpt><trkpt lat="43.8501512" lon="11.2374127"><ele>590.0</ele><time>2026-03-28T12:29:31.632Z</time></trkpt><trkpt lat="43.8502473" lon="11.2375048"><ele>589.0</ele><time>2026-03-28T12:29:33.632Z</time></trkpt><trkpt lat="43.8503508" lon="11.237592"><ele>589.0</ele><time>2026-03-28T12:29:35.741Z</time></trkpt><trkpt lat="43.8505078" lon="11.2377061"><ele>589.0</ele><time>2026-03-28T12:29:38.636Z</time></trkpt><trkpt lat="43.8506063" lon="11.2377803"><ele>589.0</ele><time>2026-03-28T12:29:40.643Z</time></trkpt><trkpt lat="43.850705" lon="11.2378529"><ele>589.0</ele><time>2026-03-28T12:29:42.617Z</time></trkpt><trkpt lat="43.8508012" lon="11.2379273"><ele>589.0</ele><time>2026-03-28T12:29:44.642Z</time></trkpt><trkpt lat="43.8508918" lon="11.2380034"><ele>589.0</ele><time>2026-03-28T12:29:46.749Z</time></trkpt><trkpt lat="43.8509977" lon="11.2381473"><ele>589.0</ele><time>2026-03-28T12:29:49.628Z</time></trkpt><trkpt lat="43.8510444" lon="11.2382538"><ele>589.0</ele><time>2026-03-28T12:29:51.737Z</time></trkpt><trkpt lat="43.8510812" lon="11.238358"><ele>589.0</ele><time>2026-03-28T12:29:53.64Z</time></trkpt><trkpt lat="43.8511042" lon="11.238457"><ele>589.5714285714286</ele><time>2026-03-28T12:29:55.734Z</time></trkpt><trkpt lat="43.851117" lon="11.2385528"><ele>590.1428571428571</ele><time>2026-03-28T12:29:57.742Z</time></trkpt><trkpt lat="43.8511246" lon="11.2386466"><ele>590.7142857142857</ele><time>2026-03-28T12:29:59.638Z</time></trkpt><trkpt lat="43.8511199" lon="11.2387702"><ele>591.2857142857142</ele><time>2026-03-28T12:30:02.737Z</time></trkpt><trkpt lat="43.8510926" lon="11.2388903"><ele>591.8571428571429</ele><time>2026-03-28T12:30:05.751Z</time></trkpt><trkpt lat="43.8510647" lon="11.2389734"><ele>592.4285714285713</ele><time>2026-03-28T12:30:07.639Z</time></trkpt><trkpt lat="43.85104" lon="11.2390564"><ele>593.0</ele><time>2026-03-28T12:30:09.648Z</time></trkpt><trkpt lat="43.8510119" lon="11.239176"><ele>592.8333333333333</ele><time>2026-03-28T12:30:12.747Z</time></trkpt><trkpt lat="43.8509816" lon="11.2392974"><ele>592.6666666666666</ele><time>2026-03-28T12:30:15.653Z</time></trkpt><trkpt lat="43.8509545" lon="11.2394206"><ele>592.5</ele><time>2026-03-28T12:30:18.633Z</time></trkpt><trkpt lat="43.8509303" lon="11.2395406"><ele>592.3333333333334</ele><time>2026-03-28T12:30:21.745Z</time></trkpt><trkpt lat="43.8509063" lon="11.2396546"><ele>592.1666666666667</ele><time>2026-03-28T12:30:24.628Z</time></trkpt><trkpt lat="43.8508872" lon="11.2397504"><ele>592.0</ele><time>2026-03-28T12:30:27.63Z</time></trkpt><trkpt lat="43.8508686" lon="11.239861"><ele>593.0</ele><time>2026-03-28T12:30:30.627Z</time></trkpt><trkpt lat="43.8508476" lon="11.2400291"><ele>594.0</ele><time>2026-03-28T12:30:34.639Z</time></trkpt><trkpt lat="43.8508337" lon="11.2401293"><ele>595.0</ele><time>2026-03-28T12:30:37.736Z</time></trkpt><trkpt lat="43.8508254" lon="11.2402324"><ele>596.0</ele><time>2026-03-28T12:30:40.734Z</time></trkpt><trkpt lat="43.8508128" lon="11.2403337"><ele>597.0</ele><time>2026-03-28T12:30:43.636Z</time></trkpt><trkpt lat="43.8508108" lon="11.2404278"><ele>598.0</ele><time>2026-03-28T12:30:46.747Z</time></trkpt><trkpt lat="43.8508117" lon="11.2405351"><ele>598.6</ele><time>2026-03-28T12:30:49.639Z</time></trkpt><trkpt lat="43.8508172" lon="11.2406877"><ele>599.1999999999999</ele><time>2026-03-28T12:30:53.631Z</time></trkpt><trkpt lat="43.8508227" lon="11.2408102"><ele>599.8</ele><time>2026-03-28T12:30:56.631Z</time></trkpt><trkpt lat="43.8508391" lon="11.2409316"><ele>600.4</ele><time>2026-03-28T12:30:59.629Z</time></trkpt><trkpt lat="43.8508505" lon="11.2410515"><ele>601.0</ele><time>2026-03-28T12:31:02.623Z</time></trkpt><trkpt lat="43.8508544" lon="11.2411663"><ele>601.0</ele><time>2026-03-28T12:31:05.641Z</time></trkpt><trkpt lat="43.8508637" lon="11.2413246"><ele>601.0</ele><time>2026-03-28T12:31:09.635Z</time></trkpt><trkpt lat="43.8508645" lon="11.2414324"><ele>601.0</ele><time>2026-03-28T12:31:12.625Z</time></trkpt><trkpt lat="43.8508578" lon="11.241549"><ele>601.0</ele><time>2026-03-28T12:31:15.744Z</time></trkpt><trkpt lat="43.8508373" lon="11.2417028"><ele>601.0</ele><time>2026-03-28T12:31:19.639Z</time></trkpt><trkpt lat="43.8508222" lon="11.2418112"><ele>601.6</ele><time>2026-03-28T12:31:22.738Z</time></trkpt><trkpt lat="43.8508103" lon="11.2419286"><ele>602.2</ele><time>2026-03-28T12:31:25.642Z</time></trkpt><trkpt lat="43.8508008" lon="11.2420447"><ele>602.8</ele><time>2026-03-28T12:31:28.635Z</time></trkpt><trkpt lat="43.8507865" lon="11.2421965"><ele>603.4</ele><time>2026-03-28T12:31:32.629Z</time></trkpt><trkpt lat="43.8507757" lon="11.2423146"><ele>604.0</ele><time>2026-03-28T12:31:35.637Z</time></trkpt><trkpt lat="43.8507577" lon="11.2424372"><ele>605.3333333333334</ele><time>2026-03-28T12:31:38.633Z</time></trkpt><trkpt lat="43.8507402" lon="11.2425526"><ele>606.6666666666667</ele><time>2026-03-28T12:31:41.637Z</time></trkpt><trkpt lat="43.8507278" lon="11.2426751"><ele>608.0</ele><time>2026-03-28T12:31:44.634Z</time></trkpt><trkpt lat="43.850713" lon="11.2427958"><ele>609.3333333333334</ele><time>2026-03-28T12:31:47.631Z</time></trkpt><trkpt lat="43.8507032" lon="11.2428827"><ele>610.6666666666666</ele><time>2026-03-28T12:31:49.645Z</time></trkpt><trkpt lat="43.8506851" lon="11.2430045"><ele>612.0</ele><time>2026-03-28T12:31:52.644Z</time></trkpt><trkpt lat="43.8506754" lon="11.2431251"><ele>612.6666666666666</ele><time>2026-03-28T12:31:55.634Z</time></trkpt><trkpt lat="43.8506634" lon="11.2432316"><ele>613.3333333333334</ele><time>2026-03-28T12:31:58.643Z</time></trkpt><trkpt lat="43.8506543" lon="11.2433447"><ele>614.0</ele><time>2026-03-28T12:32:01.639Z</time></trkpt><trkpt lat="43.850635" lon="11.2434704"><ele>614.6666666666667</ele><time>2026-03-28T12:32:04.644Z</time></trkpt><trkpt lat="43.8506237" lon="11.2435577"><ele>615.3333333333334</ele><time>2026-03-28T12:32:06.632Z</time></trkpt><trkpt lat="43.8506026" lon="11.2436897"><ele>616.0</ele><time>2026-03-28T12:32:09.632Z</time></trkpt><trkpt lat="43.8505747" lon="11.2438139"><ele>616.0</ele><time>2026-03-28T12:32:12.747Z</time></trkpt><trkpt lat="43.8505521" lon="11.2439371"><ele>616.0</ele><time>2026-03-28T12:32:15.742Z</time></trkpt><trkpt lat="43.8505187" lon="11.2441035"><ele>616.0</ele><time>2026-03-28T12:32:19.63Z</time></trkpt><trkpt lat="43.85049" lon="11.244231"><ele>616.0</ele><time>2026-03-28T12:32:22.734Z</time></trkpt><trkpt lat="43.8504714" lon="11.2443172"><ele>616.0</ele><time>2026-03-28T12:32:24.632Z</time></trkpt><trkpt lat="43.8504374" lon="11.2444414"><ele>616.6666666666667</ele><time>2026-03-28T12:32:27.641Z</time></trkpt><trkpt lat="43.8504214" lon="11.2445282"><ele>617.3333333333334</ele><time>2026-03-28T12:32:29.634Z</time></trkpt><trkpt lat="43.8504153" lon="11.2446186"><ele>618.0</ele><time>2026-03-28T12:32:31.67Z</time></trkpt><trkpt lat="43.8504261" lon="11.2447463"><ele>618.6666666666666</ele><time>2026-03-28T12:32:34.65Z</time></trkpt><trkpt lat="43.8504352" lon="11.2448631"><ele>619.3333333333333</ele><time>2026-03-28T12:32:37.64Z</time></trkpt><trkpt lat="43.8504189" lon="11.2449741"><ele>620.0</ele><time>2026-03-28T12:32:40.636Z</time></trkpt><trkpt lat="43.8504004" lon="11.2450899"><ele>621.1666666666666</ele><time>2026-03-28T12:32:43.636Z</time></trkpt><trkpt lat="43.8503765" lon="11.2452118"><ele>622.3333333333333</ele><time>2026-03-28T12:32:46.643Z</time></trkpt><trkpt lat="43.8503438" lon="11.2453313"><ele>623.5</ele><time>2026-03-28T12:32:49.638Z</time></trkpt><trkpt lat="43.8503048" lon="11.2454224"><ele>624.6666666666666</ele><time>2026-03-28T12:32:51.647Z</time></trkpt><trkpt lat="43.8502452" lon="11.2455271"><ele>625.8333333333334</ele><time>2026-03-28T12:32:53.641Z</time></trkpt><trkpt lat="43.8501956" lon="11.2456371"><ele>627.0</ele><time>2026-03-28T12:32:55.642Z</time></trkpt><trkpt lat="43.8501613" lon="11.2457524"><ele>623.0</ele><time>2026-03-28T12:32:57.635Z</time></trkpt><trkpt lat="43.8501162" lon="11.245865"><ele>619.0</ele><time>2026-03-28T12:32:59.651Z</time></trkpt><trkpt lat="43.8500652" lon="11.2459808"><ele>615.0</ele><time>2026-03-28T12:33:01.77Z</time></trkpt><trkpt lat="43.8499743" lon="11.2461312"><ele>611.0</ele><time>2026-03-28T12:33:04.633Z</time></trkpt><trkpt lat="43.8499087" lon="11.2462199"><ele>607.0</ele><time>2026-03-28T12:33:06.632Z</time></trkpt><trkpt lat="43.8498138" lon="11.2463467"><ele>607.0</ele><time>2026-03-28T12:33:09.64Z</time></trkpt><trkpt lat="43.8497479" lon="11.2464217"><ele>607.0</ele><time>2026-03-28T12:33:11.641Z</time></trkpt><trkpt lat="43.8496847" lon="11.2464982"><ele>607.0</ele><time>2026-03-28T12:33:13.643Z</time></trkpt><trkpt lat="43.8496151" lon="11.2465719"><ele>607.0</ele><time>2026-03-28T12:33:15.737Z</time></trkpt><trkpt lat="43.8495406" lon="11.2466582"><ele>607.0</ele><time>2026-03-28T12:33:17.638Z</time></trkpt><trkpt lat="43.8494632" lon="11.2467456"><ele>607.0</ele><time>2026-03-28T12:33:19.656Z</time></trkpt><trkpt lat="43.8493682" lon="11.2468348"><ele>607.0</ele><time>2026-03-28T12:33:21.649Z</time></trkpt><trkpt lat="43.8493097" lon="11.2468684"><ele>607.0</ele><time>2026-03-28T12:33:22.633Z</time></trkpt><trkpt lat="43.8492455" lon="11.2468875"><ele>607.0</ele><time>2026-03-28T12:33:23.634Z</time></trkpt><trkpt lat="43.8491279" lon="11.246908"><ele>607.0</ele><time>2026-03-28T12:33:25.637Z</time></trkpt><trkpt lat="43.8490092" lon="11.2469042"><ele>607.0</ele><time>2026-03-28T12:33:27.636Z</time></trkpt><trkpt lat="43.8488918" lon="11.2468856"><ele>607.0</ele><time>2026-03-28T12:33:29.637Z</time></trkpt><trkpt lat="43.8487841" lon="11.2468653"><ele>607.0</ele><time>2026-03-28T12:33:31.643Z</time></trkpt><trkpt lat="43.8486809" lon="11.2468344"><ele>607.0</ele><time>2026-03-28T12:33:33.643Z</time></trkpt><trkpt lat="43.8485717" lon="11.2468056"><ele>607.0</ele><time>2026-03-28T12:33:35.641Z</time></trkpt><trkpt lat="43.8484695" lon="11.2467812"><ele>606.2</ele><time>2026-03-28T12:33:37.637Z</time></trkpt><trkpt lat="43.8483691" lon="11.2467611"><ele>605.4000000000001</ele><time>2026-03-28T12:33:39.636Z</time></trkpt><trkpt lat="43.8482659" lon="11.2467536"><ele>604.5999999999999</ele><time>2026-03-28T12:33:41.646Z</time></trkpt><trkpt lat="43.8481698" lon="11.2467792"><ele>603.8</ele><time>2026-03-28T12:33:43.644Z</time></trkpt><trkpt lat="43.8480692" lon="11.2468475"><ele>603.0</ele><time>2026-03-28T12:33:45.635Z</time></trkpt><trkpt lat="43.8479696" lon="11.2469243"><ele>603.0</ele><time>2026-03-28T12:33:47.744Z</time></trkpt><trkpt lat="43.8478676" lon="11.2469923"><ele>603.0</ele><time>2026-03-28T12:33:49.636Z</time></trkpt><trkpt lat="43.8477575" lon="11.2470553"><ele>603.0</ele><time>2026-03-28T12:33:51.749Z</time></trkpt><trkpt lat="43.8475853" lon="11.2470984"><ele>603.0</ele><time>2026-03-28T12:33:54.639Z</time></trkpt><trkpt lat="43.8474653" lon="11.2470884"><ele>602.0</ele><time>2026-03-28T12:33:56.643Z</time></trkpt><trkpt lat="43.8473521" lon="11.2470551"><ele>601.0</ele><time>2026-03-28T12:33:58.641Z</time></trkpt><trkpt lat="43.8472431" lon="11.2469881"><ele>600.0</ele><time>2026-03-28T12:34:00.632Z</time></trkpt><trkpt lat="43.8471405" lon="11.2469249"><ele>599.0</ele><time>2026-03-28T12:34:02.756Z</time></trkpt><trkpt lat="43.8470366" lon="11.2468608"><ele>599.0</ele><time>2026-03-28T12:34:04.63Z</time></trkpt><trkpt lat="43.8469362" lon="11.2467966"><ele>599.0</ele><time>2026-03-28T12:34:06.645Z</time></trkpt><trkpt lat="43.8468279" lon="11.2467316"><ele>599.0</ele><time>2026-03-28T12:34:08.633Z</time></trkpt><trkpt lat="43.8467309" lon="11.2466499"><ele>599.0</ele><time>2026-03-28T12:34:10.749Z</time></trkpt><trkpt lat="43.8466296" lon="11.2465717"><ele>601.2</ele><time>2026-03-28T12:34:12.742Z</time></trkpt><trkpt lat="43.8465406" lon="11.2464836"><ele>603.4</ele><time>2026-03-28T12:34:14.657Z</time></trkpt><trkpt lat="43.8464646" lon="11.2463903"><ele>605.6</ele><time>2026-03-28T12:34:16.64Z</time></trkpt><trkpt lat="43.8463967" lon="11.2463077"><ele>607.8</ele><time>2026-03-28T12:34:18.627Z</time></trkpt><trkpt lat="43.8463308" lon="11.2462237"><ele>610.0</ele><time>2026-03-28T12:34:20.635Z</time></trkpt><trkpt lat="43.8462537" lon="11.2461545"><ele>605.0</ele><time>2026-03-28T12:34:22.747Z</time></trkpt><trkpt lat="43.8461683" lon="11.2460906"><ele>600.0</ele><time>2026-03-28T12:34:24.633Z</time></trkpt><trkpt lat="43.8460772" lon="11.2460332"><ele>595.0</ele><time>2026-03-28T12:34:26.745Z</time></trkpt><trkpt lat="43.8459186" lon="11.2459928"><ele>590.0</ele><time>2026-03-28T12:34:29.649Z</time></trkpt><trkpt lat="43.8458008" lon="11.2459929"><ele>590.0</ele><time>2026-03-28T12:34:31.755Z</time></trkpt><trkpt lat="43.8456798" lon="11.2460187"><ele>590.0</ele><time>2026-03-28T12:34:33.658Z</time></trkpt><trkpt lat="43.8455575" lon="11.2460587"><ele>590.0</ele><time>2026-03-28T12:34:35.747Z</time></trkpt><trkpt lat="43.8454383" lon="11.246106"><ele>590.0</ele><time>2026-03-28T12:34:37.752Z</time></trkpt><trkpt lat="43.8453177" lon="11.2461493"><ele>590.0</ele><time>2026-03-28T12:34:39.638Z</time></trkpt><trkpt lat="43.845198" lon="11.2461932"><ele>590.0</ele><time>2026-03-28T12:34:41.754Z</time></trkpt><trkpt lat="43.8450795" lon="11.2462235"><ele>590.0</ele><time>2026-03-28T12:34:43.622Z</time></trkpt><trkpt lat="43.8449633" lon="11.2462504"><ele>590.0</ele><time>2026-03-28T12:34:45.64Z</time></trkpt><trkpt lat="43.8448395" lon="11.2462636"><ele>590.5</ele><time>2026-03-28T12:34:47.748Z</time></trkpt><trkpt lat="43.8447166" lon="11.2462704"><ele>591.0</ele><time>2026-03-28T12:34:49.642Z</time></trkpt><trkpt lat="43.8445964" lon="11.24627"><ele>591.5</ele><time>2026-03-28T12:34:51.637Z</time></trkpt><trkpt lat="43.8444844" lon="11.2462557"><ele>592.0</ele><time>2026-03-28T12:34:53.636Z</time></trkpt><trkpt lat="43.8443722" lon="11.246251"><ele>590.75</ele><time>2026-03-28T12:34:55.653Z</time></trkpt><trkpt lat="43.8442595" lon="11.2462421"><ele>589.5</ele><time>2026-03-28T12:34:57.751Z</time></trkpt><trkpt lat="43.8441439" lon="11.2462361"><ele>588.25</ele><time>2026-03-28T12:34:59.63Z</time></trkpt><trkpt lat="43.8440279" lon="11.2462309"><ele>587.0</ele><time>2026-03-28T12:35:01.656Z</time></trkpt><trkpt lat="43.8439113" lon="11.2462256"><ele>587.0</ele><time>2026-03-28T12:35:03.637Z</time></trkpt><trkpt lat="43.8437982" lon="11.246221"><ele>587.0</ele><time>2026-03-28T12:35:05.63Z</time></trkpt><trkpt lat="43.8436785" lon="11.2462172"><ele>587.0</ele><time>2026-03-28T12:35:07.649Z</time></trkpt><trkpt lat="43.8435588" lon="11.2462059"><ele>587.0</ele><time>2026-03-28T12:35:09.646Z</time></trkpt><trkpt lat="43.8434429" lon="11.2462002"><ele>586.25</ele><time>2026-03-28T12:35:11.633Z</time></trkpt><trkpt lat="43.8432767" lon="11.2461922"><ele>585.5</ele><time>2026-03-28T12:35:14.64Z</time></trkpt><trkpt lat="43.8431666" lon="11.2461978"><ele>584.75</ele><time>2026-03-28T12:35:16.755Z</time></trkpt><trkpt lat="43.8430063" lon="11.246234"><ele>584.0</ele><time>2026-03-28T12:35:19.646Z</time></trkpt><trkpt lat="43.8429075" lon="11.2462815"><ele>584.0</ele><time>2026-03-28T12:35:21.743Z</time></trkpt><trkpt lat="43.8428108" lon="11.246355"><ele>584.0</ele><time>2026-03-28T12:35:23.653Z</time></trkpt><trkpt lat="43.8427285" lon="11.2464471"><ele>584.0</ele><time>2026-03-28T12:35:25.741Z</time></trkpt><trkpt lat="43.8426296" lon="11.246585"><ele>584.0</ele><time>2026-03-28T12:35:28.644Z</time></trkpt><trkpt lat="43.8425796" lon="11.2466862"><ele>584.0</ele><time>2026-03-28T12:35:30.649Z</time></trkpt><trkpt lat="43.8425354" lon="11.2468022"><ele>585.5</ele><time>2026-03-28T12:35:32.638Z</time></trkpt><trkpt lat="43.8424884" lon="11.2469334"><ele>587.0</ele><time>2026-03-28T12:35:34.643Z</time></trkpt><trkpt lat="43.8424455" lon="11.2471539"><ele>588.5</ele><time>2026-03-28T12:35:37.637Z</time></trkpt><trkpt lat="43.8424393" lon="11.2473083"><ele>590.0</ele><time>2026-03-28T12:35:39.644Z</time></trkpt><trkpt lat="43.8424577" lon="11.2474593"><ele>590.0</ele><time>2026-03-28T12:35:41.636Z</time></trkpt><trkpt lat="43.8425047" lon="11.2476856"><ele>590.0</ele><time>2026-03-28T12:35:44.651Z</time></trkpt><trkpt lat="43.8425404" lon="11.247838"><ele>590.0</ele><time>2026-03-28T12:35:46.646Z</time></trkpt><trkpt lat="43.842584" lon="11.2479871"><ele>590.0</ele><time>2026-03-28T12:35:48.639Z</time></trkpt><trkpt lat="43.8426271" lon="11.2481372"><ele>598.5</ele><time>2026-03-28T12:35:50.75Z</time></trkpt><trkpt lat="43.8426764" lon="11.2482859"><ele>607.0</ele><time>2026-03-28T12:35:52.752Z</time></trkpt><trkpt lat="43.8427413" lon="11.2484271"><ele>615.5</ele><time>2026-03-28T12:35:54.64Z</time></trkpt><trkpt lat="43.8428449" lon="11.2486192"><ele>624.0</ele><time>2026-03-28T12:35:57.629Z</time></trkpt><trkpt lat="43.8429115" lon="11.2487491"><ele>624.0</ele><time>2026-03-28T12:35:59.645Z</time></trkpt><trkpt lat="43.8429795" lon="11.2488716"><ele>624.0</ele><time>2026-03-28T12:36:01.757Z</time></trkpt><trkpt lat="43.8430503" lon="11.248989"><ele>624.0</ele><time>2026-03-28T12:36:03.625Z</time></trkpt><trkpt lat="43.8431204" lon="11.249107"><ele>624.0</ele><time>2026-03-28T12:36:05.739Z</time></trkpt><trkpt lat="43.8431894" lon="11.2492238"><ele>624.0</ele><time>2026-03-28T12:36:07.75Z</time></trkpt><trkpt lat="43.8432663" lon="11.2493334"><ele>621.8</ele><time>2026-03-28T12:36:09.633Z</time></trkpt><trkpt lat="43.8433501" lon="11.2494455"><ele>619.5999999999999</ele><time>2026-03-28T12:36:11.757Z</time></trkpt><trkpt lat="43.8434233" lon="11.2495511"><ele>617.4</ele><time>2026-03-28T12:36:13.65Z</time></trkpt><trkpt lat="43.8435057" lon="11.2496526"><ele>615.1999999999999</ele><time>2026-03-28T12:36:15.636Z</time></trkpt><trkpt lat="43.8435851" lon="11.249758"><ele>613.0</ele><time>2026-03-28T12:36:17.64Z</time></trkpt><trkpt lat="43.8436686" lon="11.2498604"><ele>613.0</ele><time>2026-03-28T12:36:19.631Z</time></trkpt><trkpt lat="43.8437497" lon="11.2499624"><ele>613.0</ele><time>2026-03-28T12:36:21.766Z</time></trkpt><trkpt lat="43.8438305" lon="11.2500627"><ele>613.0</ele><time>2026-03-28T12:36:23.642Z</time></trkpt><trkpt lat="43.8439226" lon="11.2501497"><ele>613.0</ele><time>2026-03-28T12:36:25.645Z</time></trkpt><trkpt lat="43.8440169" lon="11.2502297"><ele>613.0</ele><time>2026-03-28T12:36:27.716Z</time></trkpt><trkpt lat="43.8441073" lon="11.250319"><ele>613.0</ele><time>2026-03-28T12:36:29.639Z</time></trkpt><trkpt lat="43.8441927" lon="11.250396"><ele>613.0</ele><time>2026-03-28T12:36:31.639Z</time></trkpt><trkpt lat="43.844289" lon="11.2504691"><ele>613.0</ele><time>2026-03-28T12:36:33.639Z</time></trkpt><trkpt lat="43.8444042" lon="11.2505154"><ele>613.0</ele><time>2026-03-28T12:36:35.649Z</time></trkpt><trkpt lat="43.8445151" lon="11.2505278"><ele>613.0</ele><time>2026-03-28T12:36:37.752Z</time></trkpt><trkpt lat="43.8446309" lon="11.2505104"><ele>614.25</ele><time>2026-03-28T12:36:39.646Z</time></trkpt><trkpt lat="43.844744" lon="11.2504534"><ele>615.5</ele><time>2026-03-28T12:36:41.747Z</time></trkpt><trkpt lat="43.8448964" lon="11.25033"><ele>616.75</ele><time>2026-03-28T12:36:44.639Z</time></trkpt><trkpt lat="43.8449975" lon="11.250226"><ele>618.0</ele><time>2026-03-28T12:36:46.744Z</time></trkpt><trkpt lat="43.8450516" lon="11.2501799"><ele>618.3333333333334</ele><time>2026-03-28T12:36:47.747Z</time></trkpt><trkpt lat="43.8451664" lon="11.2501206"><ele>618.6666666666666</ele><time>2026-03-28T12:36:49.639Z</time></trkpt><trkpt lat="43.8452332" lon="11.2501213"><ele>619.0</ele><time>2026-03-28T12:36:50.745Z</time></trkpt><trkpt lat="43.8453011" lon="11.2501272"><ele>619.3333333333333</ele><time>2026-03-28T12:36:51.749Z</time></trkpt><trkpt lat="43.8453656" lon="11.2501352"><ele>619.6666666666666</ele><time>2026-03-28T12:36:52.746Z</time></trkpt><trkpt lat="43.8454283" lon="11.2501441"><ele>620.0</ele><time>2026-03-28T12:36:53.62Z</time></trkpt><trkpt lat="43.8455471" lon="11.2501737"><ele>620.0</ele><time>2026-03-28T12:36:55.736Z</time></trkpt><trkpt lat="43.8456608" lon="11.2502106"><ele>620.0</ele><time>2026-03-28T12:36:57.757Z</time></trkpt><trkpt lat="43.8457698" lon="11.2502615"><ele>620.0</ele><time>2026-03-28T12:36:59.636Z</time></trkpt><trkpt lat="43.8458754" lon="11.2503349"><ele>620.0</ele><time>2026-03-28T12:37:01.639Z</time></trkpt><trkpt lat="43.8459685" lon="11.250422"><ele>618.75</ele><time>2026-03-28T12:37:03.644Z</time></trkpt><trkpt lat="43.8460588" lon="11.2505157"><ele>617.5</ele><time>2026-03-28T12:37:05.746Z</time></trkpt><trkpt lat="43.8461429" lon="11.2506297"><ele>616.25</ele><time>2026-03-28T12:37:07.768Z</time></trkpt><trkpt lat="43.846211" lon="11.2507519"><ele>615.0</ele><time>2026-03-28T12:37:09.644Z</time></trkpt><trkpt lat="43.8462783" lon="11.2508789"><ele>615.0</ele><time>2026-03-28T12:37:11.641Z</time></trkpt><trkpt lat="43.8463399" lon="11.2510031"><ele>615.0</ele><time>2026-03-28T12:37:13.623Z</time></trkpt><trkpt lat="43.8464019" lon="11.2511214"><ele>615.0</ele><time>2026-03-28T12:37:15.767Z</time></trkpt><trkpt lat="43.8464804" lon="11.2512287"><ele>615.0</ele><time>2026-03-28T12:37:17.643Z</time></trkpt><trkpt lat="43.8465633" lon="11.2513288"><ele>615.0</ele><time>2026-03-28T12:37:19.647Z</time></trkpt><trkpt lat="43.8466418" lon="11.2514322"><ele>611.25</ele><time>2026-03-28T12:37:21.631Z</time></trkpt><trkpt lat="43.8467124" lon="11.2516398"><ele>607.5</ele><time>2026-03-28T12:37:24.638Z</time></trkpt><trkpt lat="43.8467259" lon="11.2517856"><ele>603.75</ele><time>2026-03-28T12:37:26.751Z</time></trkpt><trkpt lat="43.8467473" lon="11.2520074"><ele>600.0</ele><time>2026-03-28T12:37:29.636Z</time></trkpt><trkpt lat="43.8467812" lon="11.2521384"><ele>603.0</ele><time>2026-03-28T12:37:31.749Z</time></trkpt><trkpt lat="43.8468612" lon="11.2523277"><ele>606.0</ele><time>2026-03-28T12:37:34.645Z</time></trkpt><trkpt lat="43.8469336" lon="11.2524491"><ele>609.0</ele><time>2026-03-28T12:37:36.74Z</time></trkpt><trkpt lat="43.8470382" lon="11.2526126"><ele>612.0</ele><time>2026-03-28T12:37:39.642Z</time></trkpt><trkpt lat="43.8471085" lon="11.252713"><ele>612.0</ele><time>2026-03-28T12:37:41.77Z</time></trkpt><trkpt lat="43.8472229" lon="11.2528696"><ele>612.0</ele><time>2026-03-28T12:37:44.644Z</time></trkpt><trkpt lat="43.8472895" lon="11.2529716"><ele>612.0</ele><time>2026-03-28T12:37:46.642Z</time></trkpt><trkpt lat="43.8473633" lon="11.2530728"><ele>612.0</ele><time>2026-03-28T12:37:48.639Z</time></trkpt><trkpt lat="43.8474475" lon="11.2531571"><ele>610.8000000000001</ele><time>2026-03-28T12:37:50.635Z</time></trkpt><trkpt lat="43.8475251" lon="11.2532404"><ele>609.6</ele><time>2026-03-28T12:37:52.746Z</time></trkpt><trkpt lat="43.8476039" lon="11.2533226"><ele>608.4000000000001</ele><time>2026-03-28T12:37:54.638Z</time></trkpt><trkpt lat="43.8476707" lon="11.2534134"><ele>607.2</ele><time>2026-03-28T12:37:56.646Z</time></trkpt><trkpt lat="43.8477437" lon="11.2534843"><ele>606.0</ele><time>2026-03-28T12:37:58.637Z</time></trkpt><trkpt lat="43.8478325" lon="11.2535304"><ele>606.0</ele><time>2026-03-28T12:38:00.65Z</time></trkpt><trkpt lat="43.8479196" lon="11.2535592"><ele>606.0</ele><time>2026-03-28T12:38:02.644Z</time></trkpt><trkpt lat="43.8480147" lon="11.253587"><ele>606.0</ele><time>2026-03-28T12:38:04.644Z</time></trkpt><trkpt lat="43.8481141" lon="11.2536018"><ele>606.0</ele><time>2026-03-28T12:38:06.64Z</time></trkpt><trkpt lat="43.8482107" lon="11.2536163"><ele>606.0</ele><time>2026-03-28T12:38:08.653Z</time></trkpt><trkpt lat="43.8483064" lon="11.2536274"><ele>606.0</ele><time>2026-03-28T12:38:10.644Z</time></trkpt><trkpt lat="43.8484022" lon="11.2536388"><ele>606.0</ele><time>2026-03-28T12:38:12.749Z</time></trkpt><trkpt lat="43.8484997" lon="11.2536511"><ele>606.0</ele><time>2026-03-28T12:38:14.636Z</time></trkpt><trkpt lat="43.8485945" lon="11.2536564"><ele>606.0</ele><time>2026-03-28T12:38:16.744Z</time></trkpt><trkpt lat="43.8487406" lon="11.2536718"><ele>606.0</ele><time>2026-03-28T12:38:19.644Z</time></trkpt><trkpt lat="43.84884" lon="11.2536812"><ele>606.5</ele><time>2026-03-28T12:38:21.761Z</time></trkpt><trkpt lat="43.8489875" lon="11.2536874"><ele>607.0</ele><time>2026-03-28T12:38:24.639Z</time></trkpt><trkpt lat="43.8490832" lon="11.2536766"><ele>607.5</ele><time>2026-03-28T12:38:26.749Z</time></trkpt><trkpt lat="43.8492246" lon="11.2536452"><ele>608.0</ele><time>2026-03-28T12:38:29.637Z</time></trkpt><trkpt lat="43.8493278" lon="11.2536182"><ele>608.0</ele><time>2026-03-28T12:38:31.648Z</time></trkpt><trkpt lat="43.8494398" lon="11.253592"><ele>608.0</ele><time>2026-03-28T12:38:33.641Z</time></trkpt><trkpt lat="43.8495674" lon="11.2535608"><ele>608.0</ele><time>2026-03-28T12:38:35.645Z</time></trkpt><trkpt lat="43.8496346" lon="11.2535469"><ele>608.0</ele><time>2026-03-28T12:38:36.621Z</time></trkpt><trkpt lat="43.8496998" lon="11.2535385"><ele>608.0</ele><time>2026-03-28T12:38:37.752Z</time></trkpt><trkpt lat="43.849825" lon="11.2535299"><ele>608.0</ele><time>2026-03-28T12:38:39.639Z</time></trkpt><trkpt lat="43.8498892" lon="11.2535341"><ele>608.0</ele><time>2026-03-28T12:38:40.646Z</time></trkpt><trkpt lat="43.8499556" lon="11.2535457"><ele>608.0</ele><time>2026-03-28T12:38:41.645Z</time></trkpt><trkpt lat="43.8500232" lon="11.2535548"><ele>608.0</ele><time>2026-03-28T12:38:42.639Z</time></trkpt><trkpt lat="43.8500917" lon="11.2535642"><ele>608.0</ele><time>2026-03-28T12:38:43.636Z</time></trkpt><trkpt lat="43.8501585" lon="11.2535747"><ele>608.0</ele><time>2026-03-28T12:38:44.636Z</time></trkpt><trkpt lat="43.8502226" lon="11.2535913"><ele>608.0</ele><time>2026-03-28T12:38:45.718Z</time></trkpt><trkpt lat="43.8502886" lon="11.2536081"><ele>607.7142857142857</ele><time>2026-03-28T12:38:46.668Z</time></trkpt><trkpt lat="43.8503561" lon="11.2536367"><ele>607.4285714285714</ele><time>2026-03-28T12:38:47.64Z</time></trkpt><trkpt lat="43.8504176" lon="11.2536787"><ele>607.1428571428571</ele><time>2026-03-28T12:38:48.618Z</time></trkpt><trkpt lat="43.8504778" lon="11.2537226"><ele>606.8571428571429</ele><time>2026-03-28T12:38:49.649Z</time></trkpt><trkpt lat="43.8505344" lon="11.2537692"><ele>606.5714285714286</ele><time>2026-03-28T12:38:50.635Z</time></trkpt><trkpt lat="43.8505896" lon="11.25382"><ele>606.2857142857143</ele><time>2026-03-28T12:38:51.638Z</time></trkpt><trkpt lat="43.8506445" lon="11.25387"><ele>606.0</ele><time>2026-03-28T12:38:52.639Z</time></trkpt><trkpt lat="43.8506997" lon="11.2539199"><ele>602.8333333333334</ele><time>2026-03-28T12:38:53.634Z</time></trkpt><trkpt lat="43.8507576" lon="11.2539697"><ele>599.6666666666666</ele><time>2026-03-28T12:38:54.65Z</time></trkpt><trkpt lat="43.8508157" lon="11.2540225"><ele>596.5</ele><time>2026-03-28T12:38:55.643Z</time></trkpt><trkpt lat="43.8508713" lon="11.2540655"><ele>593.3333333333333</ele><time>2026-03-28T12:38:56.642Z</time></trkpt><trkpt lat="43.850927" lon="11.2541075"><ele>590.1666666666666</ele><time>2026-03-28T12:38:57.758Z</time></trkpt><trkpt lat="43.8510455" lon="11.2541801"><ele>587.0</ele><time>2026-03-28T12:38:59.637Z</time></trkpt><trkpt lat="43.8511623" lon="11.2542454"><ele>587.0</ele><time>2026-03-28T12:39:01.745Z</time></trkpt><trkpt lat="43.8513414" lon="11.2543298"><ele>587.0</ele><time>2026-03-28T12:39:04.64Z</time></trkpt><trkpt lat="43.8514032" lon="11.2543635"><ele>587.0</ele><time>2026-03-28T12:39:05.747Z</time></trkpt><trkpt lat="43.8514625" lon="11.2543933"><ele>587.0</ele><time>2026-03-28T12:39:06.747Z</time></trkpt><trkpt lat="43.8515224" lon="11.2544209"><ele>587.0</ele><time>2026-03-28T12:39:07.749Z</time></trkpt><trkpt lat="43.8516353" lon="11.2544873"><ele>587.0</ele><time>2026-03-28T12:39:09.633Z</time></trkpt><trkpt lat="43.8517366" lon="11.2545526"><ele>587.0</ele><time>2026-03-28T12:39:11.744Z</time></trkpt><trkpt lat="43.8518754" lon="11.2546492"><ele>587.0</ele><time>2026-03-28T12:39:14.64Z</time></trkpt><trkpt lat="43.8519645" lon="11.2547235"><ele>587.0</ele><time>2026-03-28T12:39:16.741Z</time></trkpt><trkpt lat="43.8520572" lon="11.2548017"><ele>587.0</ele><time>2026-03-28T12:39:18.641Z</time></trkpt><trkpt lat="43.8521542" lon="11.2548871"><ele>587.0</ele><time>2026-03-28T12:39:20.639Z</time></trkpt><trkpt lat="43.8522555" lon="11.2549667"><ele>587.0</ele><time>2026-03-28T12:39:22.629Z</time></trkpt><trkpt lat="43.8523579" lon="11.2550502"><ele>587.0</ele><time>2026-03-28T12:39:24.641Z</time></trkpt><trkpt lat="43.8525141" lon="11.2551693"><ele>587.0</ele><time>2026-03-28T12:39:27.635Z</time></trkpt><trkpt lat="43.8526162" lon="11.2552424"><ele>587.0</ele><time>2026-03-28T12:39:29.636Z</time></trkpt><trkpt lat="43.8527201" lon="11.2553196"><ele>587.0</ele><time>2026-03-28T12:39:31.75Z</time></trkpt><trkpt lat="43.8528748" lon="11.2554376"><ele>587.0</ele><time>2026-03-28T12:39:34.638Z</time></trkpt><trkpt lat="43.8529315" lon="11.2554778"><ele>586.6</ele><time>2026-03-28T12:39:35.655Z</time></trkpt><trkpt lat="43.8529882" lon="11.2555176"><ele>586.2</ele><time>2026-03-28T12:39:36.635Z</time></trkpt><trkpt lat="43.8530997" lon="11.2555998"><ele>585.8</ele><time>2026-03-28T12:39:38.648Z</time></trkpt><trkpt lat="43.8532065" lon="11.2556828"><ele>585.4</ele><time>2026-03-28T12:39:40.751Z</time></trkpt><trkpt lat="43.8533095" lon="11.2557609"><ele>585.0</ele><time>2026-03-28T12:39:42.75Z</time></trkpt><trkpt lat="43.8534156" lon="11.2558383"><ele>590.75</ele><time>2026-03-28T12:39:44.647Z</time></trkpt><trkpt lat="43.8535213" lon="11.2559232"><ele>596.5</ele><time>2026-03-28T12:39:46.748Z</time></trkpt><trkpt lat="43.8536241" lon="11.2560079"><ele>602.25</ele><time>2026-03-28T12:39:48.62Z</time></trkpt><trkpt lat="43.8537225" lon="11.2561098"><ele>608.0</ele><time>2026-03-28T12:39:50.743Z</time></trkpt><trkpt lat="43.8538078" lon="11.2562091"><ele>608.0</ele><time>2026-03-28T12:39:52.75Z</time></trkpt><trkpt lat="43.8539009" lon="11.2562986"><ele>608.0</ele><time>2026-03-28T12:39:54.636Z</time></trkpt><trkpt lat="43.8539957" lon="11.2563551"><ele>608.0</ele><time>2026-03-28T12:39:56.754Z</time></trkpt><trkpt lat="43.8541568" lon="11.2563532"><ele>608.0</ele><time>2026-03-28T12:39:59.649Z</time></trkpt><trkpt lat="43.8542799" lon="11.2563497"><ele>610.3333333333333</ele><time>2026-03-28T12:40:01.751Z</time></trkpt><trkpt lat="43.8543501" lon="11.2563645"><ele>612.6666666666666</ele><time>2026-03-28T12:40:02.748Z</time></trkpt><trkpt lat="43.8544894" lon="11.256438"><ele>615.0</ele><time>2026-03-28T12:40:04.632Z</time></trkpt><trkpt lat="43.8545575" lon="11.2564973"><ele>617.3333333333334</ele><time>2026-03-28T12:40:05.646Z</time></trkpt><trkpt lat="43.8546162" lon="11.2565653"><ele>619.6666666666667</ele><time>2026-03-28T12:40:06.644Z</time></trkpt><trkpt lat="43.8546692" lon="11.2566313"><ele>622.0</ele><time>2026-03-28T12:40:07.629Z</time></trkpt><trkpt lat="43.8547182" lon="11.2567051"><ele>617.0</ele><time>2026-03-28T12:40:08.646Z</time></trkpt><trkpt lat="43.8547672" lon="11.2567697"><ele>612.0</ele><time>2026-03-28T12:40:09.619Z</time></trkpt><trkpt lat="43.8548166" lon="11.2568277"><ele>607.0</ele><time>2026-03-28T12:40:10.644Z</time></trkpt><trkpt lat="43.8548701" lon="11.2568882"><ele>602.0</ele><time>2026-03-28T12:40:11.746Z</time></trkpt><trkpt lat="43.8549707" lon="11.2570048"><ele>597.0</ele><time>2026-03-28T12:40:13.634Z</time></trkpt><trkpt lat="43.8550248" lon="11.2570572"><ele>592.0</ele><time>2026-03-28T12:40:14.645Z</time></trkpt><trkpt lat="43.8550769" lon="11.2571084"><ele>596.2</ele><time>2026-03-28T12:40:15.649Z</time></trkpt><trkpt lat="43.8551249" lon="11.2571747"><ele>600.4000000000001</ele><time>2026-03-28T12:40:16.634Z</time></trkpt><trkpt lat="43.8551622" lon="11.257252"><ele>604.5999999999999</ele><time>2026-03-28T12:40:17.758Z</time></trkpt><trkpt lat="43.8552282" lon="11.2573982"><ele>608.8</ele><time>2026-03-28T12:40:19.636Z</time></trkpt><trkpt lat="43.855257" lon="11.2575687"><ele>613.0</ele><time>2026-03-28T12:40:21.635Z</time></trkpt><trkpt lat="43.8552613" lon="11.2577207"><ele>613.0</ele><time>2026-03-28T12:40:23.634Z</time></trkpt><trkpt lat="43.8552673" lon="11.2578743"><ele>613.0</ele><time>2026-03-28T12:40:25.62Z</time></trkpt><trkpt lat="43.8552881" lon="11.2580248"><ele>613.0</ele><time>2026-03-28T12:40:27.746Z</time></trkpt><trkpt lat="43.8553497" lon="11.2581586"><ele>613.0</ele><time>2026-03-28T12:40:29.638Z</time></trkpt><trkpt lat="43.8554235" lon="11.2582789"><ele>610.8</ele><time>2026-03-28T12:40:31.748Z</time></trkpt><trkpt lat="43.8555398" lon="11.2584973"><ele>608.5999999999999</ele><time>2026-03-28T12:40:34.644Z</time></trkpt><trkpt lat="43.8555753" lon="11.258575"><ele>606.4000000000001</ele><time>2026-03-28T12:40:35.738Z</time></trkpt><trkpt lat="43.8556094" lon="11.2586567"><ele>604.2</ele><time>2026-03-28T12:40:36.745Z</time></trkpt><trkpt lat="43.8556398" lon="11.2587366"><ele>602.0</ele><time>2026-03-28T12:40:37.754Z</time></trkpt><trkpt lat="43.8557058" lon="11.2588919"><ele>599.1666666666666</ele><time>2026-03-28T12:40:39.641Z</time></trkpt><trkpt lat="43.8557433" lon="11.2589694"><ele>596.3333333333333</ele><time>2026-03-28T12:40:40.733Z</time></trkpt><trkpt lat="43.8557767" lon="11.2590445"><ele>593.5</ele><time>2026-03-28T12:40:41.751Z</time></trkpt><trkpt lat="43.8558179" lon="11.2591133"><ele>590.6666666666666</ele><time>2026-03-28T12:40:42.764Z</time></trkpt><trkpt lat="43.8558765" lon="11.2592711"><ele>587.8333333333334</ele><time>2026-03-28T12:40:44.64Z</time></trkpt><trkpt lat="43.8558898" lon="11.2593652"><ele>585.0</ele><time>2026-03-28T12:40:45.738Z</time></trkpt><trkpt lat="43.8559004" lon="11.2594607"><ele>585.0</ele><time>2026-03-28T12:40:46.744Z</time></trkpt><trkpt lat="43.8559147" lon="11.2595488"><ele>585.0</ele><time>2026-03-28T12:40:47.756Z</time></trkpt><trkpt lat="43.8559496" lon="11.2597345"><ele>585.0</ele><time>2026-03-28T12:40:49.641Z</time></trkpt><trkpt lat="43.8559686" lon="11.259829"><ele>585.0</ele><time>2026-03-28T12:40:50.735Z</time></trkpt><trkpt lat="43.8559905" lon="11.2599247"><ele>585.0</ele><time>2026-03-28T12:40:51.754Z</time></trkpt><trkpt lat="43.8560146" lon="11.2600144"><ele>585.0</ele><time>2026-03-28T12:40:52.749Z</time></trkpt><trkpt lat="43.8560541" lon="11.2601908"><ele>586.1666666666666</ele><time>2026-03-28T12:40:54.619Z</time></trkpt><trkpt lat="43.8560749" lon="11.2602759"><ele>587.3333333333334</ele><time>2026-03-28T12:40:55.637Z</time></trkpt><trkpt lat="43.8561053" lon="11.2603534"><ele>588.5</ele><time>2026-03-28T12:40:56.631Z</time></trkpt><trkpt lat="43.856139" lon="11.2604299"><ele>589.6666666666667</ele><time>2026-03-28T12:40:57.636Z</time></trkpt><trkpt lat="43.8562072" lon="11.2605732"><ele>590.8333333333334</ele><time>2026-03-28T12:40:59.634Z</time></trkpt><trkpt lat="43.8562474" lon="11.2606431"><ele>592.0</ele><time>2026-03-28T12:41:00.75Z</time></trkpt><trkpt lat="43.8563303" lon="11.260774"><ele>592.0</ele><time>2026-03-28T12:41:02.644Z</time></trkpt><trkpt lat="43.8563792" lon="11.2608344"><ele>592.0</ele><time>2026-03-28T12:41:03.649Z</time></trkpt><trkpt lat="43.8564321" lon="11.260895"><ele>592.0</ele><time>2026-03-28T12:41:04.639Z</time></trkpt><trkpt lat="43.8564831" lon="11.260952"><ele>592.0</ele><time>2026-03-28T12:41:05.641Z</time></trkpt><trkpt lat="43.8565377" lon="11.2610144"><ele>592.0</ele><time>2026-03-28T12:41:06.642Z</time></trkpt><trkpt lat="43.8565939" lon="11.261072"><ele>592.0</ele><time>2026-03-28T12:41:07.76Z</time></trkpt><trkpt lat="43.8566953" lon="11.2611947"><ele>592.0</ele><time>2026-03-28T12:41:09.633Z</time></trkpt><trkpt lat="43.8567436" lon="11.2612577"><ele>592.0</ele><time>2026-03-28T12:41:10.669Z</time></trkpt><trkpt lat="43.8567874" lon="11.2613242"><ele>592.0</ele><time>2026-03-28T12:41:11.636Z</time></trkpt><trkpt lat="43.8568294" lon="11.2613907"><ele>592.0</ele><time>2026-03-28T12:41:12.64Z</time></trkpt><trkpt lat="43.8568996" lon="11.2615185"><ele>592.0</ele><time>2026-03-28T12:41:14.634Z</time></trkpt><trkpt lat="43.8569645" lon="11.2616402"><ele>592.0</ele><time>2026-03-28T12:41:16.75Z</time></trkpt><trkpt lat="43.8570668" lon="11.2618297"><ele>593.5</ele><time>2026-03-28T12:41:19.634Z</time></trkpt><trkpt lat="43.8571295" lon="11.261949"><ele>595.0</ele><time>2026-03-28T12:41:21.747Z</time></trkpt><trkpt lat="43.8572058" lon="11.2621388"><ele>596.5</ele><time>2026-03-28T12:41:24.637Z</time></trkpt><trkpt lat="43.8572371" lon="11.2622852"><ele>598.0</ele><time>2026-03-28T12:41:26.746Z</time></trkpt><trkpt lat="43.8572783" lon="11.2625164"><ele>593.25</ele><time>2026-03-28T12:41:29.643Z</time></trkpt><trkpt lat="43.8573296" lon="11.2626662"><ele>588.5</ele><time>2026-03-28T12:41:31.755Z</time></trkpt><trkpt lat="43.8574424" lon="11.2628252"><ele>583.75</ele><time>2026-03-28T12:41:34.638Z</time></trkpt><trkpt lat="43.8575406" lon="11.2629149"><ele>579.0</ele><time>2026-03-28T12:41:36.751Z</time></trkpt><trkpt lat="43.8577276" lon="11.2629815"><ele>578.9999999999999</ele><time>2026-03-28T12:41:39.636Z</time></trkpt><trkpt lat="43.8577976" lon="11.2629829"><ele>579.0</ele><time>2026-03-28T12:41:40.647Z</time></trkpt><trkpt lat="43.8578674" lon="11.2629903"><ele>579.0</ele><time>2026-03-28T12:41:41.637Z</time></trkpt><trkpt lat="43.857942" lon="11.2629843"><ele>579.0</ele><time>2026-03-28T12:41:42.644Z</time></trkpt><trkpt lat="43.8580171" lon="11.2629718"><ele>579.0</ele><time>2026-03-28T12:41:43.644Z</time></trkpt><trkpt lat="43.8580912" lon="11.2629469"><ele>578.9999999999999</ele><time>2026-03-28T12:41:44.64Z</time></trkpt><trkpt lat="43.8581663" lon="11.2629091"><ele>579.0</ele><time>2026-03-28T12:41:45.65Z</time></trkpt><trkpt lat="43.8582402" lon="11.2628707"><ele>579.0</ele><time>2026-03-28T12:41:46.756Z</time></trkpt><trkpt lat="43.858377" lon="11.2627544"><ele>579.0</ele><time>2026-03-28T12:41:48.64Z</time></trkpt><trkpt lat="43.8584422" lon="11.2626994"><ele>579.0</ele><time>2026-03-28T12:41:49.64Z</time></trkpt><trkpt lat="43.8585096" lon="11.2626545"><ele>579.0</ele><time>2026-03-28T12:41:50.643Z</time></trkpt><trkpt lat="43.8585799" lon="11.2626226"><ele>579.0</ele><time>2026-03-28T12:41:51.641Z</time></trkpt><trkpt lat="43.8586535" lon="11.26262"><ele>576.3333333333334</ele><time>2026-03-28T12:41:52.685Z</time></trkpt><trkpt lat="43.8587301" lon="11.2626557"><ele>573.6666666666666</ele><time>2026-03-28T12:41:53.65Z</time></trkpt><trkpt lat="43.8587984" lon="11.2627226"><ele>571.0</ele><time>2026-03-28T12:41:54.641Z</time></trkpt><trkpt lat="43.8588492" lon="11.262822"><ele>568.3333333333333</ele><time>2026-03-28T12:41:55.646Z</time></trkpt><trkpt lat="43.8588648" lon="11.2629318"><ele>565.6666666666666</ele><time>2026-03-28T12:41:56.654Z</time></trkpt><trkpt lat="43.8588459" lon="11.2630339"><ele>563.0</ele><time>2026-03-28T12:41:57.642Z</time></trkpt><trkpt lat="43.8588188" lon="11.2631199"><ele>563.0</ele><time>2026-03-28T12:41:58.64Z</time></trkpt><trkpt lat="43.8587782" lon="11.2632714"><ele>563.0</ele><time>2026-03-28T12:42:00.647Z</time></trkpt><trkpt lat="43.8587622" lon="11.2634121"><ele>563.0</ele><time>2026-03-28T12:42:02.646Z</time></trkpt><trkpt lat="43.8587529" lon="11.2635633"><ele>563.0</ele><time>2026-03-28T12:42:04.639Z</time></trkpt><trkpt lat="43.8587615" lon="11.263726"><ele>563.0</ele><time>2026-03-28T12:42:06.639Z</time></trkpt><trkpt lat="43.8587857" lon="11.2638969"><ele>563.8333333333333</ele><time>2026-03-28T12:42:08.66Z</time></trkpt><trkpt lat="43.8588064" lon="11.2639805"><ele>564.6666666666666</ele><time>2026-03-28T12:42:09.653Z</time></trkpt><trkpt lat="43.8588294" lon="11.2640668"><ele>565.5</ele><time>2026-03-28T12:42:10.653Z</time></trkpt><trkpt lat="43.8588508" lon="11.2641533"><ele>566.3333333333334</ele><time>2026-03-28T12:42:11.755Z</time></trkpt><trkpt lat="43.8588735" lon="11.2642417"><ele>567.1666666666667</ele><time>2026-03-28T12:42:12.75Z</time></trkpt><trkpt lat="43.8589237" lon="11.2644225"><ele>568.0</ele><time>2026-03-28T12:42:14.645Z</time></trkpt><trkpt lat="43.8589487" lon="11.2645092"><ele>568.0</ele><time>2026-03-28T12:42:15.733Z</time></trkpt><trkpt lat="43.8589744" lon="11.2645961"><ele>568.0</ele><time>2026-03-28T12:42:16.753Z</time></trkpt><trkpt lat="43.8590027" lon="11.2646761"><ele>568.0</ele><time>2026-03-28T12:42:17.751Z</time></trkpt><trkpt lat="43.8590548" lon="11.2648273"><ele>568.0</ele><time>2026-03-28T12:42:19.655Z</time></trkpt><trkpt lat="43.8591201" lon="11.2649578"><ele>568.0</ele><time>2026-03-28T12:42:21.753Z</time></trkpt><trkpt lat="43.8592127" lon="11.2651159"><ele>568.6</ele><time>2026-03-28T12:42:24.649Z</time></trkpt><trkpt lat="43.859284" lon="11.2652228"><ele>569.1999999999999</ele><time>2026-03-28T12:42:26.636Z</time></trkpt><trkpt lat="43.8593588" lon="11.2653293"><ele>569.8</ele><time>2026-03-28T12:42:28.646Z</time></trkpt><trkpt lat="43.8594299" lon="11.2654385"><ele>570.4</ele><time>2026-03-28T12:42:30.759Z</time></trkpt><trkpt lat="43.8595067" lon="11.2655568"><ele>571.0</ele><time>2026-03-28T12:42:32.751Z</time></trkpt><trkpt lat="43.8595829" lon="11.2656819"><ele>571.0</ele><time>2026-03-28T12:42:34.648Z</time></trkpt><trkpt lat="43.8596555" lon="11.2658029"><ele>571.0</ele><time>2026-03-28T12:42:36.637Z</time></trkpt><trkpt lat="43.8597259" lon="11.265924"><ele>571.0</ele><time>2026-03-28T12:42:38.63Z</time></trkpt><trkpt lat="43.8597968" lon="11.2660461"><ele>571.0</ele><time>2026-03-28T12:42:40.718Z</time></trkpt><trkpt lat="43.8598728" lon="11.2661664"><ele>571.0</ele><time>2026-03-28T12:42:42.648Z</time></trkpt><trkpt lat="43.8599355" lon="11.2662855"><ele>571.0</ele><time>2026-03-28T12:42:44.641Z</time></trkpt><trkpt lat="43.8599823" lon="11.26642"><ele>571.0</ele><time>2026-03-28T12:42:46.647Z</time></trkpt><trkpt lat="43.8600089" lon="11.2665745"><ele>571.0</ele><time>2026-03-28T12:42:48.637Z</time></trkpt><trkpt lat="43.8600014" lon="11.2667398"><ele>571.0</ele><time>2026-03-28T12:42:50.659Z</time></trkpt><trkpt lat="43.8599867" lon="11.2669075"><ele>569.6</ele><time>2026-03-28T12:42:52.754Z</time></trkpt><trkpt lat="43.8599721" lon="11.2670625"><ele>568.2</ele><time>2026-03-28T12:42:54.648Z</time></trkpt><trkpt lat="43.8599578" lon="11.2672069"><ele>566.8</ele><time>2026-03-28T12:42:56.645Z</time></trkpt><trkpt lat="43.8599333" lon="11.2673562"><ele>565.4</ele><time>2026-03-28T12:42:58.65Z</time></trkpt><trkpt lat="43.8599027" lon="11.2675123"><ele>564.0</ele><time>2026-03-28T12:43:00.734Z</time></trkpt><trkpt lat="43.8598655" lon="11.2676538"><ele>564.0</ele><time>2026-03-28T12:43:02.749Z</time></trkpt><trkpt lat="43.8598219" lon="11.267773"><ele>564.0</ele><time>2026-03-28T12:43:04.647Z</time></trkpt><trkpt lat="43.8597855" lon="11.2678785"><ele>564.0</ele><time>2026-03-28T12:43:09.639Z</time></trkpt><trkpt lat="43.859771" lon="11.2679636"><ele>564.0</ele><time>2026-03-28T12:45:13.643Z</time></trkpt><trkpt lat="43.8596862" lon="11.267879"><ele>564.0</ele><time>2026-03-28T12:45:16.648Z</time></trkpt><trkpt lat="43.8596616" lon="11.2677203"><ele>564.0</ele><time>2026-03-28T12:45:18.645Z</time></trkpt><trkpt lat="43.8596664" lon="11.2676301"><ele>564.0</ele><time>2026-03-28T12:45:19.643Z</time></trkpt><trkpt lat="43.859678" lon="11.2675368"><ele>564.0</ele><time>2026-03-28T12:45:20.648Z</time></trkpt><trkpt lat="43.8596857" lon="11.2674461"><ele>564.0</ele><time>2026-03-28T12:45:21.647Z</time></trkpt><trkpt lat="43.8596558" lon="11.2672823"><ele>564.0</ele><time>2026-03-28T12:45:23.649Z</time></trkpt><trkpt lat="43.8596367" lon="11.2671977"><ele>564.0</ele><time>2026-03-28T12:45:24.64Z</time></trkpt><trkpt lat="43.8595976" lon="11.2670397"><ele>563.4</ele><time>2026-03-28T12:45:26.752Z</time></trkpt><trkpt lat="43.8595331" lon="11.266853"><ele>562.8</ele><time>2026-03-28T12:45:28.655Z</time></trkpt><trkpt lat="43.8594993" lon="11.2667581"><ele>562.2</ele><time>2026-03-28T12:45:29.647Z</time></trkpt><trkpt lat="43.859458" lon="11.2666668"><ele>561.6</ele><time>2026-03-28T12:45:30.644Z</time></trkpt><trkpt lat="43.8594128" lon="11.2665739"><ele>561.0</ele><time>2026-03-28T12:45:31.643Z</time></trkpt><trkpt lat="43.8593649" lon="11.2664831"><ele>558.6</ele><time>2026-03-28T12:45:32.755Z</time></trkpt><trkpt lat="43.8592691" lon="11.2663005"><ele>556.2</ele><time>2026-03-28T12:45:34.625Z</time></trkpt><trkpt lat="43.8592112" lon="11.2662254"><ele>553.8</ele><time>2026-03-28T12:45:35.664Z</time></trkpt><trkpt lat="43.8591428" lon="11.2661576"><ele>551.4</ele><time>2026-03-28T12:45:36.64Z</time></trkpt><trkpt lat="43.8590672" lon="11.2661014"><ele>549.0</ele><time>2026-03-28T12:45:37.643Z</time></trkpt><trkpt lat="43.8589913" lon="11.2660457"><ele>549.0</ele><time>2026-03-28T12:45:38.64Z</time></trkpt><trkpt lat="43.858914" lon="11.2660073"><ele>549.0</ele><time>2026-03-28T12:45:39.642Z</time></trkpt><trkpt lat="43.858831" lon="11.265976"><ele>549.0</ele><time>2026-03-28T12:45:40.649Z</time></trkpt><trkpt lat="43.8587467" lon="11.265941"><ele>549.0</ele><time>2026-03-28T12:45:41.749Z</time></trkpt><trkpt lat="43.8586588" lon="11.2659087"><ele>549.0</ele><time>2026-03-28T12:45:42.755Z</time></trkpt><trkpt lat="43.858487" lon="11.2658662"><ele>543.2</ele><time>2026-03-28T12:45:44.645Z</time></trkpt><trkpt lat="43.8584024" lon="11.2658416"><ele>537.4</ele><time>2026-03-28T12:45:45.751Z</time></trkpt><trkpt lat="43.8583178" lon="11.2658269"><ele>531.6</ele><time>2026-03-28T12:45:46.744Z</time></trkpt><trkpt lat="43.8582421" lon="11.2658084"><ele>525.8</ele><time>2026-03-28T12:45:47.749Z</time></trkpt><trkpt lat="43.8580869" lon="11.265759"><ele>520.0</ele><time>2026-03-28T12:45:49.641Z</time></trkpt><trkpt lat="43.8580086" lon="11.2657358"><ele>520.0</ele><time>2026-03-28T12:45:50.741Z</time></trkpt><trkpt lat="43.8579266" lon="11.2657083"><ele>520.0</ele><time>2026-03-28T12:45:51.763Z</time></trkpt><trkpt lat="43.8578519" lon="11.2656785"><ele>520.0</ele><time>2026-03-28T12:45:52.745Z</time></trkpt><trkpt lat="43.8577011" lon="11.2656307"><ele>520.0</ele><time>2026-03-28T12:45:54.649Z</time></trkpt><trkpt lat="43.8576259" lon="11.2656501"><ele>520.0</ele><time>2026-03-28T12:45:55.746Z</time></trkpt><trkpt lat="43.8575654" lon="11.2657078"><ele>517.4</ele><time>2026-03-28T12:45:56.754Z</time></trkpt><trkpt lat="43.8575236" lon="11.2657782"><ele>514.8</ele><time>2026-03-28T12:45:57.775Z</time></trkpt><trkpt lat="43.8574508" lon="11.2658507"><ele>512.2</ele><time>2026-03-28T12:45:59.645Z</time></trkpt><trkpt lat="43.8573971" lon="11.2657737"><ele>509.6</ele><time>2026-03-28T12:46:01.767Z</time></trkpt><trkpt lat="43.8572353" lon="11.2655779"><ele>507.0</ele><time>2026-03-28T12:46:04.642Z</time></trkpt><trkpt lat="43.8571546" lon="11.2654916"><ele>507.0</ele><time>2026-03-28T12:46:05.67Z</time></trkpt><trkpt lat="43.8570756" lon="11.2654029"><ele>507.00000000000006</ele><time>2026-03-28T12:46:06.643Z</time></trkpt><trkpt lat="43.8569924" lon="11.2653166"><ele>507.00000000000006</ele><time>2026-03-28T12:46:07.645Z</time></trkpt><trkpt lat="43.8569117" lon="11.2652439"><ele>507.0</ele><time>2026-03-28T12:46:08.647Z</time></trkpt><trkpt lat="43.856831" lon="11.2651769"><ele>507.0</ele><time>2026-03-28T12:46:09.682Z</time></trkpt><trkpt lat="43.8567582" lon="11.2651111"><ele>503.5</ele><time>2026-03-28T12:46:10.655Z</time></trkpt><trkpt lat="43.8566841" lon="11.2650407"><ele>500.0</ele><time>2026-03-28T12:46:11.652Z</time></trkpt><trkpt lat="43.8566038" lon="11.2649842"><ele>496.5</ele><time>2026-03-28T12:46:12.76Z</time></trkpt><trkpt lat="43.8564328" lon="11.2649016"><ele>493.0</ele><time>2026-03-28T12:46:14.648Z</time></trkpt><trkpt lat="43.8563446" lon="11.2648688"><ele>493.00000000000006</ele><time>2026-03-28T12:46:15.644Z</time></trkpt><trkpt lat="43.8562516" lon="11.2648441"><ele>493.0</ele><time>2026-03-28T12:46:16.65Z</time></trkpt><trkpt lat="43.8561644" lon="11.2648292"><ele>493.0</ele><time>2026-03-28T12:46:17.641Z</time></trkpt><trkpt lat="43.8560826" lon="11.264813"><ele>493.0</ele><time>2026-03-28T12:46:18.648Z</time></trkpt><trkpt lat="43.8560012" lon="11.2647964"><ele>493.00000000000006</ele><time>2026-03-28T12:46:19.649Z</time></trkpt><trkpt lat="43.8559316" lon="11.2647549"><ele>493.0</ele><time>2026-03-28T12:46:20.743Z</time></trkpt><trkpt lat="43.8558025" lon="11.2646392"><ele>491.00000000000006</ele><time>2026-03-28T12:46:22.64Z</time></trkpt><trkpt lat="43.8557272" lon="11.2645876"><ele>489.0</ele><time>2026-03-28T12:46:23.64Z</time></trkpt><trkpt lat="43.8556457" lon="11.2645388"><ele>487.0</ele><time>2026-03-28T12:46:24.642Z</time></trkpt><trkpt lat="43.8555609" lon="11.2645026"><ele>485.0</ele><time>2026-03-28T12:46:25.64Z</time></trkpt><trkpt lat="43.8554794" lon="11.2644848"><ele>483.00000000000006</ele><time>2026-03-28T12:46:26.765Z</time></trkpt><trkpt lat="43.8554017" lon="11.2644822"><ele>481.0</ele><time>2026-03-28T12:46:27.747Z</time></trkpt><trkpt lat="43.8552514" lon="11.2645001"><ele>481.0</ele><time>2026-03-28T12:46:29.652Z</time></trkpt><trkpt lat="43.8551816" lon="11.2645229"><ele>481.0</ele><time>2026-03-28T12:46:30.749Z</time></trkpt><trkpt lat="43.8551043" lon="11.2645375"><ele>481.0</ele><time>2026-03-28T12:46:31.756Z</time></trkpt><trkpt lat="43.8550265" lon="11.2645402"><ele>481.0</ele><time>2026-03-28T12:46:32.747Z</time></trkpt><trkpt lat="43.8548849" lon="11.2645078"><ele>481.0</ele><time>2026-03-28T12:46:34.647Z</time></trkpt><trkpt lat="43.8548197" lon="11.2644403"><ele>477.75</ele><time>2026-03-28T12:46:35.743Z</time></trkpt><trkpt lat="43.854755" lon="11.2643483"><ele>474.5</ele><time>2026-03-28T12:46:36.746Z</time></trkpt><trkpt lat="43.8546954" lon="11.2642497"><ele>471.25</ele><time>2026-03-28T12:46:37.759Z</time></trkpt><trkpt lat="43.8545775" lon="11.2640539"><ele>468.0</ele><time>2026-03-28T12:46:39.648Z</time></trkpt><trkpt lat="43.8545143" lon="11.263975"><ele>469.0</ele><time>2026-03-28T12:46:40.73Z</time></trkpt><trkpt lat="43.8544471" lon="11.2639084"><ele>469.99999999999994</ele><time>2026-03-28T12:46:41.758Z</time></trkpt><trkpt lat="43.854387" lon="11.2638594"><ele>470.99999999999994</ele><time>2026-03-28T12:46:42.754Z</time></trkpt><trkpt lat="43.8542502" lon="11.2638223"><ele>472.0</ele><time>2026-03-28T12:46:44.643Z</time></trkpt><trkpt lat="43.8541693" lon="11.2638209"><ele>473.0</ele><time>2026-03-28T12:46:45.737Z</time></trkpt><trkpt lat="43.8540842" lon="11.2638177"><ele>469.0</ele><time>2026-03-28T12:46:46.748Z</time></trkpt><trkpt lat="43.8539948" lon="11.2638094"><ele>465.0</ele><time>2026-03-28T12:46:47.751Z</time></trkpt><trkpt lat="43.8538099" lon="11.2637803"><ele>461.0</ele><time>2026-03-28T12:46:49.648Z</time></trkpt><trkpt lat="43.853714" lon="11.2637695"><ele>457.0</ele><time>2026-03-28T12:46:50.651Z</time></trkpt><trkpt lat="43.8536121" lon="11.2637592"><ele>457.0</ele><time>2026-03-28T12:46:51.637Z</time></trkpt><trkpt lat="43.8535109" lon="11.2637534"><ele>457.00000000000006</ele><time>2026-03-28T12:46:52.646Z</time></trkpt><trkpt lat="43.8534113" lon="11.2637477"><ele>457.00000000000006</ele><time>2026-03-28T12:46:53.645Z</time></trkpt><trkpt lat="43.8533095" lon="11.2637361"><ele>457.0</ele><time>2026-03-28T12:46:54.644Z</time></trkpt><trkpt lat="43.8532056" lon="11.2637286"><ele>457.0</ele><time>2026-03-28T12:46:55.764Z</time></trkpt><trkpt lat="43.8531028" lon="11.2637194"><ele>452.75</ele><time>2026-03-28T12:46:56.744Z</time></trkpt><trkpt lat="43.8529981" lon="11.2637106"><ele>448.5</ele><time>2026-03-28T12:46:57.756Z</time></trkpt><trkpt lat="43.8527875" lon="11.2636889"><ele>444.25</ele><time>2026-03-28T12:46:59.637Z</time></trkpt><trkpt lat="43.8526744" lon="11.2636827"><ele>440.0</ele><time>2026-03-28T12:47:00.641Z</time></trkpt><trkpt lat="43.852561" lon="11.2636754"><ele>438.6</ele><time>2026-03-28T12:47:01.643Z</time></trkpt><trkpt lat="43.8524505" lon="11.2636731"><ele>437.2</ele><time>2026-03-28T12:47:02.645Z</time></trkpt><trkpt lat="43.8523432" lon="11.2636902"><ele>435.79999999999995</ele><time>2026-03-28T12:47:03.632Z</time></trkpt><trkpt lat="43.8522405" lon="11.2637169"><ele>434.4</ele><time>2026-03-28T12:47:04.65Z</time></trkpt><trkpt lat="43.852149" lon="11.2637369"><ele>433.0</ele><time>2026-03-28T12:47:05.649Z</time></trkpt><trkpt lat="43.8520782" lon="11.2637434"><ele>433.00000000000006</ele><time>2026-03-28T12:47:06.763Z</time></trkpt><trkpt lat="43.8519975" lon="11.2636892"><ele>433.0</ele><time>2026-03-28T12:47:08.64Z</time></trkpt><trkpt lat="43.851921" lon="11.2636229"><ele>433.0</ele><time>2026-03-28T12:47:11.648Z</time></trkpt><trkpt lat="43.8518394" lon="11.2635847"><ele>433.0</ele><time>2026-03-28T12:47:15.743Z</time></trkpt><trkpt lat="43.8517319" lon="11.2635675"><ele>433.00000000000006</ele><time>2026-03-28T12:47:19.643Z</time></trkpt><trkpt lat="43.8516584" lon="11.2635486"><ele>433.0</ele><time>2026-03-28T12:47:21.745Z</time></trkpt><trkpt lat="43.851526" lon="11.2635031"><ele>434.0</ele><time>2026-03-28T12:47:24.649Z</time></trkpt><trkpt lat="43.8514126" lon="11.2634711"><ele>434.99999999999994</ele><time>2026-03-28T12:47:26.748Z</time></trkpt><trkpt lat="43.8513488" lon="11.2634564"><ele>435.99999999999994</ele><time>2026-03-28T12:47:27.748Z</time></trkpt><trkpt lat="43.8512172" lon="11.2634184"><ele>437.0</ele><time>2026-03-28T12:47:29.648Z</time></trkpt><trkpt lat="43.8511442" lon="11.2634049"><ele>438.0</ele><time>2026-03-28T12:47:30.744Z</time></trkpt><trkpt lat="43.8510682" lon="11.2633841"><ele>438.0</ele><time>2026-03-28T12:47:31.755Z</time></trkpt><trkpt lat="43.8509895" lon="11.2633651"><ele>437.99999999999994</ele><time>2026-03-28T12:47:32.758Z</time></trkpt><trkpt lat="43.850835" lon="11.2633354"><ele>437.99999999999994</ele><time>2026-03-28T12:47:34.636Z</time></trkpt><trkpt lat="43.8507616" lon="11.2633201"><ele>438.0</ele><time>2026-03-28T12:47:35.647Z</time></trkpt><trkpt lat="43.8506884" lon="11.2633115"><ele>438.0</ele><time>2026-03-28T12:47:36.643Z</time></trkpt><trkpt lat="43.8506205" lon="11.2633017"><ele>437.5</ele><time>2026-03-28T12:47:37.64Z</time></trkpt><trkpt lat="43.850504" lon="11.2632762"><ele>437.0</ele><time>2026-03-28T12:47:39.637Z</time></trkpt><trkpt lat="43.8504324" lon="11.263179"><ele>436.5</ele><time>2026-03-28T12:47:41.767Z</time></trkpt><trkpt lat="43.8503812" lon="11.2629484"><ele>436.0</ele><time>2026-03-28T12:47:44.64Z</time></trkpt><trkpt lat="43.8503504" lon="11.262865"><ele>436.0</ele><time>2026-03-28T12:47:45.663Z</time></trkpt><trkpt lat="43.8503228" lon="11.2627848"><ele>436.0</ele><time>2026-03-28T12:47:46.64Z</time></trkpt><trkpt lat="43.8502746" lon="11.2626509"><ele>436.0</ele><time>2026-03-28T12:47:48.656Z</time></trkpt><trkpt lat="43.8502178" lon="11.2625376"><ele>436.0</ele><time>2026-03-28T12:47:50.647Z</time></trkpt><trkpt lat="43.850159" lon="11.2624283"><ele>436.0</ele><time>2026-03-28T12:47:52.752Z</time></trkpt><trkpt lat="43.8500675" lon="11.2622926"><ele>432.83333333333337</ele><time>2026-03-28T12:47:54.648Z</time></trkpt><trkpt lat="43.8500063" lon="11.2622004"><ele>429.6666666666667</ele><time>2026-03-28T12:47:55.646Z</time></trkpt><trkpt lat="43.8499496" lon="11.2621041"><ele>426.5</ele><time>2026-03-28T12:47:56.643Z</time></trkpt><trkpt lat="43.8499024" lon="11.2620102"><ele>423.33333333333337</ele><time>2026-03-28T12:47:57.649Z</time></trkpt><trkpt lat="43.8498612" lon="11.2619248"><ele>420.1666666666667</ele><time>2026-03-28T12:47:58.643Z</time></trkpt><trkpt lat="43.8498157" lon="11.2618414"><ele>417.0</ele><time>2026-03-28T12:47:59.648Z</time></trkpt><trkpt lat="43.8497715" lon="11.2617539"><ele>417.0</ele><time>2026-03-28T12:48:00.753Z</time></trkpt><trkpt lat="43.8497262" lon="11.2616603"><ele>417.0</ele><time>2026-03-28T12:48:01.754Z</time></trkpt><trkpt lat="43.8496924" lon="11.2615535"><ele>417.0</ele><time>2026-03-28T12:48:02.757Z</time></trkpt><trkpt lat="43.8496351" lon="11.2613359"><ele>417.0</ele><time>2026-03-28T12:48:04.66Z</time></trkpt><trkpt lat="43.8496159" lon="11.2612213"><ele>417.0</ele><time>2026-03-28T12:48:05.75Z</time></trkpt><trkpt lat="43.8496032" lon="11.2611111"><ele>417.25</ele><time>2026-03-28T12:48:06.765Z</time></trkpt><trkpt lat="43.8496038" lon="11.2610091"><ele>417.5</ele><time>2026-03-28T12:48:07.751Z</time></trkpt><trkpt lat="43.8496242" lon="11.2608276"><ele>417.75</ele><time>2026-03-28T12:48:09.647Z</time></trkpt><trkpt lat="43.849635" lon="11.2606818"><ele>418.0</ele><time>2026-03-28T12:48:11.77Z</time></trkpt><trkpt lat="43.8495174" lon="11.2605582"><ele>415.75</ele><time>2026-03-28T12:48:14.649Z</time></trkpt><trkpt lat="43.8494112" lon="11.2605141"><ele>413.5</ele><time>2026-03-28T12:48:16.756Z</time></trkpt><trkpt lat="43.8492814" lon="11.2604106"><ele>411.25</ele><time>2026-03-28T12:48:19.641Z</time></trkpt><trkpt lat="43.8491932" lon="11.2603425"><ele>409.0</ele><time>2026-03-28T12:48:21.647Z</time></trkpt><trkpt lat="43.849106" lon="11.2602705"><ele>409.0</ele><time>2026-03-28T12:48:23.652Z</time></trkpt><trkpt lat="43.8490098" lon="11.2602118"><ele>409.0</ele><time>2026-03-28T12:48:25.647Z</time></trkpt><trkpt lat="43.8489083" lon="11.2601602"><ele>409.0</ele><time>2026-03-28T12:48:27.653Z</time></trkpt><trkpt lat="43.8487979" lon="11.2601263"><ele>409.0</ele><time>2026-03-28T12:48:29.644Z</time></trkpt><trkpt lat="43.8486746" lon="11.2601299"><ele>409.00000000000006</ele><time>2026-03-28T12:48:31.653Z</time></trkpt><trkpt lat="43.8485444" lon="11.260141"><ele>409.0</ele><time>2026-03-28T12:48:33.651Z</time></trkpt><trkpt lat="43.8484787" lon="11.2601527"><ele>409.0</ele><time>2026-03-28T12:48:34.656Z</time></trkpt><trkpt lat="43.8484131" lon="11.2601657"><ele>409.0</ele><time>2026-03-28T12:48:35.645Z</time></trkpt><trkpt lat="43.8483485" lon="11.2601666"><ele>409.00000000000006</ele><time>2026-03-28T12:48:36.653Z</time></trkpt><trkpt lat="43.8482811" lon="11.260147"><ele>409.0</ele><time>2026-03-28T12:48:37.651Z</time></trkpt><trkpt lat="43.848214" lon="11.2601139"><ele>408.7142857142857</ele><time>2026-03-28T12:48:38.64Z</time></trkpt><trkpt lat="43.8481531" lon="11.2600719"><ele>408.42857142857144</ele><time>2026-03-28T12:48:39.648Z</time></trkpt><trkpt lat="43.848096" lon="11.2600194"><ele>408.14285714285717</ele><time>2026-03-28T12:48:40.642Z</time></trkpt><trkpt lat="43.8480417" lon="11.259955"><ele>407.8571428571429</ele><time>2026-03-28T12:48:41.663Z</time></trkpt><trkpt lat="43.8479831" lon="11.2598866"><ele>407.57142857142856</ele><time>2026-03-28T12:48:42.649Z</time></trkpt><trkpt lat="43.8479239" lon="11.2598145"><ele>407.28571428571433</ele><time>2026-03-28T12:48:43.622Z</time></trkpt><trkpt lat="43.8478699" lon="11.2597347"><ele>407.0</ele><time>2026-03-28T12:48:44.643Z</time></trkpt><trkpt lat="43.8478134" lon="11.2596546"><ele>406.99999999999994</ele><time>2026-03-28T12:48:45.644Z</time></trkpt><trkpt lat="43.8477568" lon="11.2595725"><ele>407.0</ele><time>2026-03-28T12:48:46.641Z</time></trkpt><trkpt lat="43.8476966" lon="11.2594885"><ele>407.0</ele><time>2026-03-28T12:48:47.646Z</time></trkpt><trkpt lat="43.8476339" lon="11.2594058"><ele>407.0</ele><time>2026-03-28T12:48:48.648Z</time></trkpt><trkpt lat="43.8475664" lon="11.2593384"><ele>406.99999999999994</ele><time>2026-03-28T12:48:49.639Z</time></trkpt><trkpt lat="43.8474954" lon="11.2592826"><ele>407.0</ele><time>2026-03-28T12:48:50.645Z</time></trkpt><trkpt lat="43.847426" lon="11.2592302"><ele>404.3333333333333</ele><time>2026-03-28T12:48:51.65Z</time></trkpt><trkpt lat="43.8473564" lon="11.2591842"><ele>401.66666666666663</ele><time>2026-03-28T12:48:52.65Z</time></trkpt><trkpt lat="43.8472802" lon="11.2591404"><ele>399.0</ele><time>2026-03-28T12:48:53.659Z</time></trkpt><trkpt lat="43.8472011" lon="11.2591151"><ele>396.33333333333337</ele><time>2026-03-28T12:48:54.655Z</time></trkpt><trkpt lat="43.8471247" lon="11.2590931"><ele>393.6666666666667</ele><time>2026-03-28T12:48:55.643Z</time></trkpt><trkpt lat="43.8470483" lon="11.2590655"><ele>391.0</ele><time>2026-03-28T12:48:56.654Z</time></trkpt><trkpt lat="43.8469667" lon="11.2590579"><ele>391.00000000000006</ele><time>2026-03-28T12:48:57.657Z</time></trkpt><trkpt lat="43.8468859" lon="11.2590626"><ele>391.0</ele><time>2026-03-28T12:48:58.654Z</time></trkpt><trkpt lat="43.8468064" lon="11.2590708"><ele>391.0</ele><time>2026-03-28T12:48:59.64Z</time></trkpt><trkpt lat="43.8467328" lon="11.2590836"><ele>391.0</ele><time>2026-03-28T12:49:00.643Z</time></trkpt><trkpt lat="43.8466629" lon="11.2591123"><ele>391.00000000000006</ele><time>2026-03-28T12:49:01.659Z</time></trkpt><trkpt lat="43.8466031" lon="11.2591659"><ele>391.0</ele><time>2026-03-28T12:49:02.653Z</time></trkpt><trkpt lat="43.8465466" lon="11.2592266"><ele>389.57142857142856</ele><time>2026-03-28T12:49:03.643Z</time></trkpt><trkpt lat="43.8464907" lon="11.259292"><ele>388.1428571428571</ele><time>2026-03-28T12:49:04.643Z</time></trkpt><trkpt lat="43.8464356" lon="11.2593573"><ele>386.71428571428567</ele><time>2026-03-28T12:49:05.646Z</time></trkpt><trkpt lat="43.8463805" lon="11.2594194"><ele>385.2857142857143</ele><time>2026-03-28T12:49:06.644Z</time></trkpt><trkpt lat="43.8463285" lon="11.2594723"><ele>383.8571428571429</ele><time>2026-03-28T12:49:07.646Z</time></trkpt><trkpt lat="43.8462758" lon="11.2595213"><ele>382.4285714285714</ele><time>2026-03-28T12:49:08.645Z</time></trkpt><trkpt lat="43.8462219" lon="11.2595665"><ele>381.0</ele><time>2026-03-28T12:49:09.65Z</time></trkpt><trkpt lat="43.8461015" lon="11.2596428"><ele>381.0</ele><time>2026-03-28T12:49:11.642Z</time></trkpt><trkpt lat="43.8460356" lon="11.2596776"><ele>381.0</ele><time>2026-03-28T12:49:12.652Z</time></trkpt><trkpt lat="43.8459207" lon="11.2597255"><ele>381.0</ele><time>2026-03-28T12:49:14.645Z</time></trkpt><trkpt lat="43.845882" lon="11.2598506"><ele>381.0</ele><time>2026-03-28T12:49:16.645Z</time></trkpt><trkpt lat="43.8458774" lon="11.259948"><ele>381.0</ele><time>2026-03-28T12:49:17.651Z</time></trkpt><trkpt lat="43.8458719" lon="11.2600461"><ele>381.0</ele><time>2026-03-28T12:49:18.638Z</time></trkpt><trkpt lat="43.8458634" lon="11.2601439"><ele>379.1666666666667</ele><time>2026-03-28T12:49:19.648Z</time></trkpt><trkpt lat="43.8458487" lon="11.2602447"><ele>377.3333333333333</ele><time>2026-03-28T12:49:20.646Z</time></trkpt><trkpt lat="43.8458304" lon="11.2603445"><ele>375.5</ele><time>2026-03-28T12:49:21.646Z</time></trkpt><trkpt lat="43.8458128" lon="11.260444"><ele>373.66666666666663</ele><time>2026-03-28T12:49:22.655Z</time></trkpt><trkpt lat="43.8457905" lon="11.2605498"><ele>371.8333333333333</ele><time>2026-03-28T12:49:23.639Z</time></trkpt><trkpt lat="43.8457684" lon="11.2606614"><ele>370.0</ele><time>2026-03-28T12:49:24.643Z</time></trkpt><trkpt lat="43.8457489" lon="11.260776"><ele>368.8333333333333</ele><time>2026-03-28T12:49:25.651Z</time></trkpt><trkpt lat="43.8457332" lon="11.2608998"><ele>367.66666666666663</ele><time>2026-03-28T12:49:26.643Z</time></trkpt><trkpt lat="43.8457182" lon="11.2610194"><ele>366.5</ele><time>2026-03-28T12:49:27.641Z</time></trkpt><trkpt lat="43.8457084" lon="11.2611336"><ele>365.3333333333333</ele><time>2026-03-28T12:49:28.652Z</time></trkpt><trkpt lat="43.8456956" lon="11.2612426"><ele>364.1666666666667</ele><time>2026-03-28T12:49:29.653Z</time></trkpt><trkpt lat="43.8456852" lon="11.261344"><ele>363.0</ele><time>2026-03-28T12:49:30.643Z</time></trkpt><trkpt lat="43.8456733" lon="11.2614488"><ele>361.8333333333333</ele><time>2026-03-28T12:49:31.646Z</time></trkpt><trkpt lat="43.8456586" lon="11.2615557"><ele>360.6666666666667</ele><time>2026-03-28T12:49:32.657Z</time></trkpt><trkpt lat="43.8456484" lon="11.2616687"><ele>359.5</ele><time>2026-03-28T12:49:33.645Z</time></trkpt><trkpt lat="43.845638" lon="11.2617862"><ele>358.33333333333337</ele><time>2026-03-28T12:49:34.648Z</time></trkpt><trkpt lat="43.8456285" lon="11.2619021"><ele>357.1666666666667</ele><time>2026-03-28T12:49:35.641Z</time></trkpt><trkpt lat="43.8456163" lon="11.262012"><ele>356.0</ele><time>2026-03-28T12:49:36.649Z</time></trkpt><trkpt lat="43.845608" lon="11.2621077"><ele>356.0</ele><time>2026-03-28T12:49:37.65Z</time></trkpt><trkpt lat="43.8455947" lon="11.2622279"><ele>356.0</ele><time>2026-03-28T12:49:39.652Z</time></trkpt><trkpt lat="43.8456454" lon="11.2623083"><ele>356.0</ele><time>2026-03-28T12:49:42.645Z</time></trkpt><trkpt lat="43.8457331" lon="11.2623018"><ele>356.0</ele><time>2026-03-28T12:49:44.643Z</time></trkpt><trkpt lat="43.8458329" lon="11.2622724"><ele>356.0</ele><time>2026-03-28T12:49:46.644Z</time></trkpt><trkpt lat="43.8459466" lon="11.2622499"><ele>355.99999999999994</ele><time>2026-03-28T12:49:48.648Z</time></trkpt><trkpt lat="43.8460108" lon="11.2622322"><ele>356.0</ele><time>2026-03-28T12:49:49.643Z</time></trkpt><trkpt lat="43.8460759" lon="11.262207"><ele>356.0</ele><time>2026-03-28T12:49:50.63Z</time></trkpt><trkpt lat="43.8461389" lon="11.2621806"><ele>356.0</ele><time>2026-03-28T12:49:51.64Z</time></trkpt><trkpt lat="43.8462048" lon="11.2621552"><ele>356.0</ele><time>2026-03-28T12:49:52.644Z</time></trkpt><trkpt lat="43.8462718" lon="11.2621279"><ele>355.99999999999994</ele><time>2026-03-28T12:49:53.646Z</time></trkpt><trkpt lat="43.8463386" lon="11.2620951"><ele>356.0</ele><time>2026-03-28T12:49:54.646Z</time></trkpt><trkpt lat="43.846411" lon="11.2620696"><ele>355.99999999999994</ele><time>2026-03-28T12:49:55.638Z</time></trkpt><trkpt lat="43.8464884" lon="11.2620766"><ele>356.0</ele><time>2026-03-28T12:49:56.641Z</time></trkpt><trkpt lat="43.8465601" lon="11.2621252"><ele>356.0</ele><time>2026-03-28T12:49:57.644Z</time></trkpt><trkpt lat="43.8466132" lon="11.2621989"><ele>356.0</ele><time>2026-03-28T12:49:58.631Z</time></trkpt><trkpt lat="43.8466548" lon="11.2622763"><ele>356.0</ele><time>2026-03-28T12:49:59.652Z</time></trkpt><trkpt lat="43.8466976" lon="11.2623475"><ele>355.99999999999994</ele><time>2026-03-28T12:50:00.645Z</time></trkpt><trkpt lat="43.8467363" lon="11.2624188"><ele>356.0</ele><time>2026-03-28T12:50:01.628Z</time></trkpt><trkpt lat="43.8467783" lon="11.2624843"><ele>356.0</ele><time>2026-03-28T12:50:02.654Z</time></trkpt><trkpt lat="43.8468766" lon="11.2625938"><ele>356.0</ele><time>2026-03-28T12:50:04.643Z</time></trkpt><trkpt lat="43.846936" lon="11.2626473"><ele>356.0</ele><time>2026-03-28T12:50:05.651Z</time></trkpt><trkpt lat="43.8469938" lon="11.2626962"><ele>356.0</ele><time>2026-03-28T12:50:06.65Z</time></trkpt><trkpt lat="43.8470491" lon="11.2627466"><ele>356.0</ele><time>2026-03-28T12:50:07.64Z</time></trkpt><trkpt lat="43.8470812" lon="11.2628849"><ele>356.0</ele><time>2026-03-28T12:50:09.645Z</time></trkpt><trkpt lat="43.8469966" lon="11.2630134"><ele>356.0</ele><time>2026-03-28T12:50:11.643Z</time></trkpt><trkpt lat="43.8469519" lon="11.2630848"><ele>356.0</ele><time>2026-03-28T12:50:12.664Z</time></trkpt><trkpt lat="43.8468987" lon="11.2631571"><ele>356.0</ele><time>2026-03-28T12:50:13.65Z</time></trkpt><trkpt lat="43.8468433" lon="11.2632342"><ele>356.0</ele><time>2026-03-28T12:50:14.651Z</time></trkpt><trkpt lat="43.8467904" lon="11.2633128"><ele>356.0</ele><time>2026-03-28T12:50:15.635Z</time></trkpt><trkpt lat="43.8467383" lon="11.2633985"><ele>356.0</ele><time>2026-03-28T12:50:16.654Z</time></trkpt><trkpt lat="43.846698" lon="11.2634983"><ele>353.0</ele><time>2026-03-28T12:50:17.647Z</time></trkpt><trkpt lat="43.8466759" lon="11.2636214"><ele>350.0</ele><time>2026-03-28T12:50:18.645Z</time></trkpt><trkpt lat="43.8466707" lon="11.2637467"><ele>347.0</ele><time>2026-03-28T12:50:19.641Z</time></trkpt><trkpt lat="43.8466674" lon="11.2638741"><ele>344.0</ele><time>2026-03-28T12:50:20.639Z</time></trkpt><trkpt lat="43.846664" lon="11.2639987"><ele>341.0</ele><time>2026-03-28T12:50:21.65Z</time></trkpt><trkpt lat="43.8466651" lon="11.2641169"><ele>338.0</ele><time>2026-03-28T12:50:22.655Z</time></trkpt><trkpt lat="43.8466694" lon="11.2642335"><ele>337.33333333333337</ele><time>2026-03-28T12:50:23.652Z</time></trkpt><trkpt lat="43.846682" lon="11.2643476"><ele>336.6666666666667</ele><time>2026-03-28T12:50:24.652Z</time></trkpt><trkpt lat="43.8466998" lon="11.2644565"><ele>336.0</ele><time>2026-03-28T12:50:25.657Z</time></trkpt><trkpt lat="43.8467139" lon="11.2645625"><ele>335.3333333333333</ele><time>2026-03-28T12:50:26.649Z</time></trkpt><trkpt lat="43.8467219" lon="11.2646688"><ele>334.66666666666663</ele><time>2026-03-28T12:50:27.648Z</time></trkpt><trkpt lat="43.8467242" lon="11.2647722"><ele>334.0</ele><time>2026-03-28T12:50:28.649Z</time></trkpt><trkpt lat="43.8467204" lon="11.2648721"><ele>333.66666666666663</ele><time>2026-03-28T12:50:29.647Z</time></trkpt><trkpt lat="43.8467135" lon="11.2649695"><ele>333.3333333333333</ele><time>2026-03-28T12:50:30.659Z</time></trkpt><trkpt lat="43.846707" lon="11.2650655"><ele>333.0</ele><time>2026-03-28T12:50:31.644Z</time></trkpt><trkpt lat="43.8467025" lon="11.2651557"><ele>332.6666666666667</ele><time>2026-03-28T12:50:32.649Z</time></trkpt><trkpt lat="43.846705" lon="11.2652452"><ele>332.33333333333337</ele><time>2026-03-28T12:50:33.657Z</time></trkpt><trkpt lat="43.8467733" lon="11.2653717"><ele>332.0</ele><time>2026-03-28T12:50:35.639Z</time></trkpt><trkpt lat="43.8468852" lon="11.2653869"><ele>334.40000000000003</ele><time>2026-03-28T12:50:37.657Z</time></trkpt><trkpt lat="43.8469878" lon="11.2654028"><ele>336.8</ele><time>2026-03-28T12:50:39.639Z</time></trkpt><trkpt lat="43.8470301" lon="11.2655355"><ele>339.2</ele><time>2026-03-28T12:50:41.662Z</time></trkpt><trkpt lat="43.8470294" lon="11.2656846"><ele>341.6</ele><time>2026-03-28T12:50:43.646Z</time></trkpt><trkpt lat="43.8470253" lon="11.2658156"><ele>344.0</ele><time>2026-03-28T12:50:45.647Z</time></trkpt><trkpt lat="43.8470257" lon="11.265941"><ele>344.79999999999995</ele><time>2026-03-28T12:50:47.64Z</time></trkpt><trkpt lat="43.8470414" lon="11.2660676"><ele>345.59999999999997</ele><time>2026-03-28T12:50:49.658Z</time></trkpt><trkpt lat="43.8470445" lon="11.2662101"><ele>346.4</ele><time>2026-03-28T12:50:51.652Z</time></trkpt><trkpt lat="43.8470533" lon="11.2663527"><ele>347.2</ele><time>2026-03-28T12:50:53.652Z</time></trkpt><trkpt lat="43.8470667" lon="11.2664905"><ele>348.0</ele><time>2026-03-28T12:50:55.643Z</time></trkpt><trkpt lat="43.8470806" lon="11.2666212"><ele>347.6666666666667</ele><time>2026-03-28T12:50:57.645Z</time></trkpt><trkpt lat="43.8470875" lon="11.2667369"><ele>347.3333333333333</ele><time>2026-03-28T12:50:59.66Z</time></trkpt><trkpt lat="43.8470971" lon="11.266861"><ele>347.0</ele><time>2026-03-28T12:51:01.647Z</time></trkpt><trkpt lat="43.847124" lon="11.2669737"><ele>346.66666666666663</ele><time>2026-03-28T12:51:03.645Z</time></trkpt><trkpt lat="43.8471493" lon="11.2671048"><ele>346.3333333333333</ele><time>2026-03-28T12:51:05.648Z</time></trkpt><trkpt lat="43.8471716" lon="11.267222"><ele>346.0</ele><time>2026-03-28T12:51:07.656Z</time></trkpt><trkpt lat="43.8471934" lon="11.2673449"><ele>346.0</ele><time>2026-03-28T12:51:09.65Z</time></trkpt><trkpt lat="43.8472218" lon="11.2674556"><ele>346.0</ele><time>2026-03-28T12:51:11.649Z</time></trkpt><trkpt lat="43.847253" lon="11.2675851"><ele>346.0</ele><time>2026-03-28T12:51:13.65Z</time></trkpt><trkpt lat="43.8472724" lon="11.2677238"><ele>346.0</ele><time>2026-03-28T12:51:15.645Z</time></trkpt><trkpt lat="43.8472789" lon="11.2678632"><ele>346.0</ele><time>2026-03-28T12:51:17.649Z</time></trkpt><trkpt lat="43.8472799" lon="11.2680007"><ele>345.16666666666663</ele><time>2026-03-28T12:51:19.644Z</time></trkpt><trkpt lat="43.8472738" lon="11.2681245"><ele>344.3333333333333</ele><time>2026-03-28T12:51:21.647Z</time></trkpt><trkpt lat="43.8472675" lon="11.2682168"><ele>343.5</ele><time>2026-03-28T12:51:23.758Z</time></trkpt><trkpt lat="43.8472765" lon="11.2683042"><ele>342.6666666666667</ele><time>2026-03-28T12:51:25.648Z</time></trkpt><trkpt lat="43.8472976" lon="11.2683988"><ele>341.83333333333337</ele><time>2026-03-28T12:51:27.646Z</time></trkpt><trkpt lat="43.8473141" lon="11.2684998"><ele>341.0</ele><time>2026-03-28T12:51:29.648Z</time></trkpt><trkpt lat="43.8473393" lon="11.2686263"><ele>341.0</ele><time>2026-03-28T12:51:31.759Z</time></trkpt><trkpt lat="43.8473998" lon="11.2688551"><ele>341.0</ele><time>2026-03-28T12:51:34.647Z</time></trkpt><trkpt lat="43.8474125" lon="11.2689445"><ele>341.0</ele><time>2026-03-28T12:51:35.653Z</time></trkpt><trkpt lat="43.8474255" lon="11.2690333"><ele>341.0</ele><time>2026-03-28T12:51:36.651Z</time></trkpt><trkpt lat="43.8474383" lon="11.2691288"><ele>341.0</ele><time>2026-03-28T12:51:37.648Z</time></trkpt><trkpt lat="43.8474615" lon="11.2692207"><ele>341.0</ele><time>2026-03-28T12:51:38.647Z</time></trkpt><trkpt lat="43.8474918" lon="11.2693122"><ele>340.6</ele><time>2026-03-28T12:51:39.643Z</time></trkpt><trkpt lat="43.8475308" lon="11.2694037"><ele>340.20000000000005</ele><time>2026-03-28T12:51:40.645Z</time></trkpt><trkpt lat="43.8475713" lon="11.2694969"><ele>339.79999999999995</ele><time>2026-03-28T12:51:41.761Z</time></trkpt><trkpt lat="43.8476598" lon="11.2696966"><ele>339.4</ele><time>2026-03-28T12:51:43.646Z</time></trkpt><trkpt lat="43.8477049" lon="11.2698034"><ele>339.0</ele><time>2026-03-28T12:51:44.648Z</time></trkpt><trkpt lat="43.8477499" lon="11.2699066"><ele>339.0</ele><time>2026-03-28T12:51:45.646Z</time></trkpt><trkpt lat="43.8477982" lon="11.2700106"><ele>339.0</ele><time>2026-03-28T12:51:46.651Z</time></trkpt><trkpt lat="43.8478465" lon="11.2701167"><ele>339.0</ele><time>2026-03-28T12:51:47.761Z</time></trkpt><trkpt lat="43.8479454" lon="11.2703233"><ele>339.0</ele><time>2026-03-28T12:51:49.666Z</time></trkpt><trkpt lat="43.8480065" lon="11.2704097"><ele>339.0</ele><time>2026-03-28T12:51:50.743Z</time></trkpt><trkpt lat="43.8480749" lon="11.2704839"><ele>339.0</ele><time>2026-03-28T12:51:51.645Z</time></trkpt><trkpt lat="43.8481418" lon="11.270547"><ele>339.0</ele><time>2026-03-28T12:51:52.767Z</time></trkpt><trkpt lat="43.8482769" lon="11.2706528"><ele>339.0</ele><time>2026-03-28T12:51:54.654Z</time></trkpt><trkpt lat="43.8483439" lon="11.2706793"><ele>339.0</ele><time>2026-03-28T12:51:55.748Z</time></trkpt><trkpt lat="43.8484086" lon="11.2706859"><ele>339.0</ele><time>2026-03-28T12:51:56.76Z</time></trkpt><trkpt lat="43.8484773" lon="11.2706704"><ele>339.0</ele><time>2026-03-28T12:51:57.757Z</time></trkpt><trkpt lat="43.8486095" lon="11.2705922"><ele>338.0</ele><time>2026-03-28T12:51:59.654Z</time></trkpt><trkpt lat="43.8486799" lon="11.2705571"><ele>337.0</ele><time>2026-03-28T12:52:00.744Z</time></trkpt><trkpt lat="43.8487516" lon="11.2705208"><ele>336.0</ele><time>2026-03-28T12:52:01.757Z</time></trkpt><trkpt lat="43.8488271" lon="11.2704844"><ele>335.0</ele><time>2026-03-28T12:52:02.761Z</time></trkpt><trkpt lat="43.8489875" lon="11.2704335"><ele>334.0</ele><time>2026-03-28T12:52:04.659Z</time></trkpt><trkpt lat="43.8490738" lon="11.2704244"><ele>334.0</ele><time>2026-03-28T12:52:05.74Z</time></trkpt><trkpt lat="43.8491673" lon="11.2704349"><ele>334.0</ele><time>2026-03-28T12:52:06.765Z</time></trkpt><trkpt lat="43.8492633" lon="11.2704752"><ele>334.0</ele><time>2026-03-28T12:52:07.76Z</time></trkpt><trkpt lat="43.8493554" lon="11.2705342"><ele>334.0</ele><time>2026-03-28T12:52:08.652Z</time></trkpt><trkpt lat="43.8494469" lon="11.2705996"><ele>334.0</ele><time>2026-03-28T12:52:09.656Z</time></trkpt><trkpt lat="43.8495369" lon="11.2706512"><ele>330.8333333333333</ele><time>2026-03-28T12:52:10.748Z</time></trkpt><trkpt lat="43.8496228" lon="11.270704"><ele>327.66666666666663</ele><time>2026-03-28T12:52:11.65Z</time></trkpt><trkpt lat="43.849704" lon="11.2707501"><ele>324.5</ele><time>2026-03-28T12:52:12.644Z</time></trkpt><trkpt lat="43.8497742" lon="11.2708052"><ele>321.3333333333333</ele><time>2026-03-28T12:52:13.654Z</time></trkpt><trkpt lat="43.8498427" lon="11.2708652"><ele>318.1666666666667</ele><time>2026-03-28T12:52:14.652Z</time></trkpt><trkpt lat="43.8499027" lon="11.2709284"><ele>315.0</ele><time>2026-03-28T12:52:15.643Z</time></trkpt><trkpt lat="43.8499564" lon="11.2710051"><ele>315.0</ele><time>2026-03-28T12:52:16.645Z</time></trkpt><trkpt lat="43.8499972" lon="11.2710924"><ele>315.0</ele><time>2026-03-28T12:52:17.762Z</time></trkpt><trkpt lat="43.8500645" lon="11.2712702"><ele>315.0</ele><time>2026-03-28T12:52:19.647Z</time></trkpt><trkpt lat="43.8501205" lon="11.2714272"><ele>315.0</ele><time>2026-03-28T12:52:21.651Z</time></trkpt><trkpt lat="43.8501691" lon="11.2714904"><ele>315.0</ele><time>2026-03-28T12:52:22.654Z</time></trkpt><trkpt lat="43.8502369" lon="11.2715288"><ele>314.5</ele><time>2026-03-28T12:52:23.659Z</time></trkpt><trkpt lat="43.8503103" lon="11.27156"><ele>314.0</ele><time>2026-03-28T12:52:24.655Z</time></trkpt><trkpt lat="43.8503784" lon="11.2715883"><ele>313.5</ele><time>2026-03-28T12:52:25.647Z</time></trkpt><trkpt lat="43.8504523" lon="11.2715824"><ele>313.0</ele><time>2026-03-28T12:52:26.648Z</time></trkpt><trkpt lat="43.850517" lon="11.2715437"><ele>312.5</ele><time>2026-03-28T12:52:27.745Z</time></trkpt><trkpt lat="43.8506226" lon="11.2714679"><ele>312.0</ele><time>2026-03-28T12:52:29.647Z</time></trkpt><trkpt lat="43.8507298" lon="11.2713953"><ele>312.0</ele><time>2026-03-28T12:52:31.641Z</time></trkpt><trkpt lat="43.850843" lon="11.2713853"><ele>312.0</ele><time>2026-03-28T12:52:33.649Z</time></trkpt><trkpt lat="43.8509378" lon="11.2714834"><ele>312.0</ele><time>2026-03-28T12:52:35.775Z</time></trkpt><trkpt lat="43.8509966" lon="11.2716413"><ele>312.0</ele><time>2026-03-28T12:52:37.76Z</time></trkpt><trkpt lat="43.8509791" lon="11.2717945"><ele>312.0</ele><time>2026-03-28T12:52:39.641Z</time></trkpt><trkpt lat="43.8509132" lon="11.2719273"><ele>312.0</ele><time>2026-03-28T12:52:41.654Z</time></trkpt><trkpt lat="43.8508112" lon="11.2721635"><ele>312.0</ele><time>2026-03-28T12:52:44.652Z</time></trkpt><trkpt lat="43.8507757" lon="11.2722496"><ele>312.0</ele><time>2026-03-28T12:52:45.756Z</time></trkpt><trkpt lat="43.8507423" lon="11.2723416"><ele>311.4</ele><time>2026-03-28T12:52:46.761Z</time></trkpt><trkpt lat="43.8507077" lon="11.2724342"><ele>310.79999999999995</ele><time>2026-03-28T12:52:47.763Z</time></trkpt><trkpt lat="43.8506238" lon="11.2726103"><ele>310.2</ele><time>2026-03-28T12:52:49.65Z</time></trkpt><trkpt lat="43.8505832" lon="11.2726977"><ele>309.59999999999997</ele><time>2026-03-28T12:52:50.751Z</time></trkpt><trkpt lat="43.8505413" lon="11.2727853"><ele>309.0</ele><time>2026-03-28T12:52:51.76Z</time></trkpt><trkpt lat="43.8505027" lon="11.2728797"><ele>309.0</ele><time>2026-03-28T12:52:52.763Z</time></trkpt><trkpt lat="43.8504571" lon="11.2730848"><ele>309.0</ele><time>2026-03-28T12:52:54.655Z</time></trkpt><trkpt lat="43.8504623" lon="11.2731876"><ele>309.0</ele><time>2026-03-28T12:52:55.735Z</time></trkpt><trkpt lat="43.8505052" lon="11.273275"><ele>309.0</ele><time>2026-03-28T12:52:56.762Z</time></trkpt><trkpt lat="43.8506349" lon="11.2734124"><ele>308.0</ele><time>2026-03-28T12:52:58.642Z</time></trkpt><trkpt lat="43.8507014" lon="11.2734781"><ele>307.0</ele><time>2026-03-28T12:52:59.652Z</time></trkpt><trkpt lat="43.8507637" lon="11.2735498"><ele>306.0</ele><time>2026-03-28T12:53:00.654Z</time></trkpt><trkpt lat="43.8508205" lon="11.2736153"><ele>305.0</ele><time>2026-03-28T12:53:01.672Z</time></trkpt><trkpt lat="43.8508735" lon="11.2736899"><ele>304.0</ele><time>2026-03-28T12:53:02.758Z</time></trkpt><trkpt lat="43.8509276" lon="11.2738835"><ele>304.16666666666663</ele><time>2026-03-28T12:53:04.651Z</time></trkpt><trkpt lat="43.8509005" lon="11.2739815"><ele>304.3333333333333</ele><time>2026-03-28T12:53:05.655Z</time></trkpt><trkpt lat="43.8508345" lon="11.2740385"><ele>304.5</ele><time>2026-03-28T12:53:06.665Z</time></trkpt><trkpt lat="43.8507712" lon="11.2740603"><ele>304.6666666666667</ele><time>2026-03-28T12:53:07.648Z</time></trkpt><trkpt lat="43.8506487" lon="11.2740729"><ele>304.83333333333337</ele><time>2026-03-28T12:53:09.647Z</time></trkpt><trkpt lat="43.8505661" lon="11.2740913"><ele>305.0</ele><time>2026-03-28T12:53:11.77Z</time></trkpt><trkpt lat="43.8504845" lon="11.2741485"><ele>305.0</ele><time>2026-03-28T12:53:14.659Z</time></trkpt><trkpt lat="43.8504467" lon="11.2742561"><ele>305.0</ele><time>2026-03-28T12:53:17.644Z</time></trkpt><trkpt lat="43.8504286" lon="11.2743702"><ele>305.0</ele><time>2026-03-28T12:53:20.647Z</time></trkpt><trkpt lat="43.8504412" lon="11.2744912"><ele>305.0</ele><time>2026-03-28T12:53:23.664Z</time></trkpt><trkpt lat="43.8504476" lon="11.274614"><ele>305.0</ele><time>2026-03-28T12:53:26.646Z</time></trkpt><trkpt lat="43.8504586" lon="11.2747409"><ele>305.0</ele><time>2026-03-28T12:53:29.647Z</time></trkpt><trkpt lat="43.8504805" lon="11.2748607"><ele>307.33333333333337</ele><time>2026-03-28T12:53:32.657Z</time></trkpt><trkpt lat="43.8504915" lon="11.2749768"><ele>309.6666666666667</ele><time>2026-03-28T12:53:35.648Z</time></trkpt><trkpt lat="43.8505084" lon="11.2750964"><ele>312.0</ele><time>2026-03-28T12:53:38.661Z</time></trkpt><trkpt lat="43.8505143" lon="11.2752131"><ele>314.3333333333333</ele><time>2026-03-28T12:53:41.655Z</time></trkpt><trkpt lat="43.8505125" lon="11.2753288"><ele>316.66666666666663</ele><time>2026-03-28T12:53:44.638Z</time></trkpt><trkpt lat="43.8504957" lon="11.2754514"><ele>319.0</ele><time>2026-03-28T12:53:47.652Z</time></trkpt><trkpt lat="43.850461" lon="11.2755905"><ele>320.8333333333333</ele><time>2026-03-28T12:53:50.648Z</time></trkpt><trkpt lat="43.850434" lon="11.2756734"><ele>322.66666666666663</ele><time>2026-03-28T12:53:52.659Z</time></trkpt><trkpt lat="43.8504009" lon="11.2757542"><ele>324.5</ele><time>2026-03-28T12:53:54.652Z</time></trkpt><trkpt lat="43.8503611" lon="11.2758295"><ele>326.3333333333333</ele><time>2026-03-28T12:53:56.656Z</time></trkpt><trkpt lat="43.8502634" lon="11.2759188"><ele>328.1666666666667</ele><time>2026-03-28T12:53:59.646Z</time></trkpt><trkpt lat="43.8501966" lon="11.2759075"><ele>330.0</ele><time>2026-03-28T12:54:01.646Z</time></trkpt><trkpt lat="43.8501256" lon="11.2758453"><ele>328.0</ele><time>2026-03-28T12:54:03.647Z</time></trkpt><trkpt lat="43.8500559" lon="11.2757842"><ele>326.0</ele><time>2026-03-28T12:54:05.662Z</time></trkpt><trkpt lat="43.8499856" lon="11.2757342"><ele>324.0</ele><time>2026-03-28T12:54:07.759Z</time></trkpt><trkpt lat="43.8499026" lon="11.2756988"><ele>322.0</ele><time>2026-03-28T12:54:10.749Z</time></trkpt><trkpt lat="43.8498381" lon="11.275693"><ele>320.0</ele><time>2026-03-28T12:54:12.765Z</time></trkpt><trkpt lat="43.8497623" lon="11.2756889"><ele>318.0</ele><time>2026-03-28T12:54:14.645Z</time></trkpt><trkpt lat="43.8496803" lon="11.2756821"><ele>318.0</ele><time>2026-03-28T12:54:16.765Z</time></trkpt><trkpt lat="43.8495452" lon="11.2756392"><ele>318.0</ele><time>2026-03-28T12:54:19.646Z</time></trkpt><trkpt lat="43.849468" lon="11.2756061"><ele>318.0</ele><time>2026-03-28T12:54:21.761Z</time></trkpt><trkpt lat="43.8493544" lon="11.2755503"><ele>318.0</ele><time>2026-03-28T12:54:24.651Z</time></trkpt><trkpt lat="43.8492783" lon="11.2755312"><ele>318.0</ele><time>2026-03-28T12:54:26.755Z</time></trkpt><trkpt lat="43.8491719" lon="11.2755091"><ele>315.0</ele><time>2026-03-28T12:54:29.649Z</time></trkpt><trkpt lat="43.8490924" lon="11.2755117"><ele>312.0</ele><time>2026-03-28T12:54:31.651Z</time></trkpt><trkpt lat="43.8490148" lon="11.2755107"><ele>309.0</ele><time>2026-03-28T12:54:33.658Z</time></trkpt><trkpt lat="43.8489378" lon="11.2755086"><ele>306.0</ele><time>2026-03-28T12:54:35.66Z</time></trkpt><trkpt lat="43.8488657" lon="11.275513"><ele>303.0</ele><time>2026-03-28T12:54:37.655Z</time></trkpt><trkpt lat="43.8487997" lon="11.2755377"><ele>300.0</ele><time>2026-03-28T12:54:39.648Z</time></trkpt><trkpt lat="43.8487146" lon="11.2755841"><ele>302.1666666666667</ele><time>2026-03-28T12:54:42.778Z</time></trkpt><trkpt lat="43.8486622" lon="11.2756454"><ele>304.3333333333333</ele><time>2026-03-28T12:54:44.654Z</time></trkpt><trkpt lat="43.8486178" lon="11.275722"><ele>306.5</ele><time>2026-03-28T12:54:46.653Z</time></trkpt><trkpt lat="43.8485884" lon="11.2758235"><ele>308.66666666666663</ele><time>2026-03-28T12:54:48.659Z</time></trkpt><trkpt lat="43.8485544" lon="11.2759341"><ele>310.8333333333333</ele><time>2026-03-28T12:54:50.647Z</time></trkpt><trkpt lat="43.8485238" lon="11.2760693"><ele>313.0</ele><time>2026-03-28T12:54:52.759Z</time></trkpt><trkpt lat="43.8484914" lon="11.2761894"><ele>313.0</ele><time>2026-03-28T12:54:54.656Z</time></trkpt><trkpt lat="43.848478" lon="11.2763116"><ele>313.0</ele><time>2026-03-28T12:54:56.66Z</time></trkpt><trkpt lat="43.848493" lon="11.2764489"><ele>313.0</ele><time>2026-03-28T12:54:58.655Z</time></trkpt><trkpt lat="43.8485229" lon="11.2765928"><ele>313.0</ele><time>2026-03-28T12:55:00.73Z</time></trkpt><trkpt lat="43.8485804" lon="11.276812"><ele>315.4</ele><time>2026-03-28T12:55:03.646Z</time></trkpt><trkpt lat="43.8486054" lon="11.2769523"><ele>317.8</ele><time>2026-03-28T12:55:05.658Z</time></trkpt><trkpt lat="43.8486344" lon="11.2770954"><ele>320.2</ele><time>2026-03-28T12:55:07.769Z</time></trkpt><trkpt lat="43.8486511" lon="11.2772337"><ele>322.6</ele><time>2026-03-28T12:55:09.651Z</time></trkpt><trkpt lat="43.8486692" lon="11.2773521"><ele>325.0</ele><time>2026-03-28T12:55:11.745Z</time></trkpt><trkpt lat="43.8486778" lon="11.2774756"><ele>325.8</ele><time>2026-03-28T12:55:13.667Z</time></trkpt><trkpt lat="43.848679" lon="11.2776144"><ele>326.6</ele><time>2026-03-28T12:55:15.656Z</time></trkpt><trkpt lat="43.8486714" lon="11.2777602"><ele>327.4</ele><time>2026-03-28T12:55:17.656Z</time></trkpt><trkpt lat="43.8486629" lon="11.2778992"><ele>328.2</ele><time>2026-03-28T12:55:19.654Z</time></trkpt><trkpt lat="43.8486574" lon="11.2780369"><ele>329.0</ele><time>2026-03-28T12:55:21.648Z</time></trkpt><trkpt lat="43.8486499" lon="11.2782325"><ele>329.4</ele><time>2026-03-28T12:55:24.649Z</time></trkpt><trkpt lat="43.8486443" lon="11.2783663"><ele>329.79999999999995</ele><time>2026-03-28T12:55:26.652Z</time></trkpt><trkpt lat="43.8486386" lon="11.2784967"><ele>330.20000000000005</ele><time>2026-03-28T12:55:28.635Z</time></trkpt><trkpt lat="43.8486361" lon="11.2786255"><ele>330.6</ele><time>2026-03-28T12:55:30.764Z</time></trkpt><trkpt lat="43.848601" lon="11.2787495"><ele>331.0</ele><time>2026-03-28T12:55:32.658Z</time></trkpt><trkpt lat="43.8485102" lon="11.2788006"><ele>326.2</ele><time>2026-03-28T12:55:34.661Z</time></trkpt><trkpt lat="43.8483996" lon="11.27879"><ele>321.40000000000003</ele><time>2026-03-28T12:55:36.658Z</time></trkpt><trkpt lat="43.8482521" lon="11.2787933"><ele>316.6</ele><time>2026-03-28T12:55:39.65Z</time></trkpt><trkpt lat="43.8481636" lon="11.2787888"><ele>311.8</ele><time>2026-03-28T12:55:41.769Z</time></trkpt><trkpt lat="43.8480825" lon="11.2787946"><ele>307.0</ele><time>2026-03-28T12:55:43.661Z</time></trkpt><trkpt lat="43.8480029" lon="11.2788136"><ele>307.0</ele><time>2026-03-28T12:55:45.74Z</time></trkpt><trkpt lat="43.8479246" lon="11.2788126"><ele>307.0</ele><time>2026-03-28T12:55:47.765Z</time></trkpt><trkpt lat="43.8478549" lon="11.2788159"><ele>307.0</ele><time>2026-03-28T12:55:49.653Z</time></trkpt><trkpt lat="43.847773" lon="11.2788177"><ele>307.0</ele><time>2026-03-28T12:55:52.757Z</time></trkpt><trkpt lat="43.8476984" lon="11.2788337"><ele>307.0</ele><time>2026-03-28T12:55:55.752Z</time></trkpt><trkpt lat="43.8475836" lon="11.2788437"><ele>307.0</ele><time>2026-03-28T12:55:59.656Z</time></trkpt><trkpt lat="43.8475" lon="11.2788663"><ele>306.8333333333333</ele><time>2026-03-28T12:56:02.658Z</time></trkpt><trkpt lat="43.8474218" lon="11.2788904"><ele>306.66666666666663</ele><time>2026-03-28T12:56:05.637Z</time></trkpt><trkpt lat="43.8473425" lon="11.2789156"><ele>306.5</ele><time>2026-03-28T12:56:09.654Z</time></trkpt><trkpt lat="43.8472757" lon="11.2789388"><ele>306.3333333333333</ele><time>2026-03-28T12:56:12.654Z</time></trkpt><trkpt lat="43.8471997" lon="11.2789582"><ele>306.1666666666667</ele><time>2026-03-28T12:56:15.658Z</time></trkpt><trkpt lat="43.8471246" lon="11.2789676"><ele>306.0</ele><time>2026-03-28T12:56:18.634Z</time></trkpt><trkpt lat="43.8470482" lon="11.2789847"><ele>308.3333333333333</ele><time>2026-03-28T12:56:21.654Z</time></trkpt><trkpt lat="43.8469653" lon="11.2790079"><ele>310.6666666666667</ele><time>2026-03-28T12:56:24.653Z</time></trkpt><trkpt lat="43.8468857" lon="11.2790383"><ele>313.0</ele><time>2026-03-28T12:56:27.767Z</time></trkpt><trkpt lat="43.8468076" lon="11.2790582"><ele>315.33333333333337</ele><time>2026-03-28T12:56:30.74Z</time></trkpt><trkpt lat="43.846704" lon="11.2790871"><ele>317.6666666666667</ele><time>2026-03-28T12:56:34.647Z</time></trkpt><trkpt lat="43.8466245" lon="11.2790978"><ele>320.0</ele><time>2026-03-28T12:56:37.759Z</time></trkpt><trkpt lat="43.8465479" lon="11.2790929"><ele>320.2</ele><time>2026-03-28T12:56:39.667Z</time></trkpt><trkpt lat="43.8464585" lon="11.2790804"><ele>320.4</ele><time>2026-03-28T12:56:41.759Z</time></trkpt><trkpt lat="43.8463082" lon="11.2790609"><ele>320.6</ele><time>2026-03-28T12:56:44.657Z</time></trkpt><trkpt lat="43.8461851" lon="11.2790386"><ele>320.8</ele><time>2026-03-28T12:56:46.652Z</time></trkpt><trkpt lat="43.846119" lon="11.2790203"><ele>321.0</ele><time>2026-03-28T12:56:47.659Z</time></trkpt><trkpt lat="43.8460036" lon="11.2789978"><ele>318.0</ele><time>2026-03-28T12:56:49.661Z</time></trkpt><trkpt lat="43.8459017" lon="11.2789254"><ele>315.0</ele><time>2026-03-28T12:56:51.654Z</time></trkpt><trkpt lat="43.8457711" lon="11.2787635"><ele>312.0</ele><time>2026-03-28T12:56:54.659Z</time></trkpt><trkpt lat="43.845709" lon="11.2786332"><ele>309.0</ele><time>2026-03-28T12:56:56.64Z</time></trkpt><trkpt lat="43.845638" lon="11.278494"><ele>309.0</ele><time>2026-03-28T12:56:58.639Z</time></trkpt><trkpt lat="43.8456013" lon="11.2784208"><ele>309.0</ele><time>2026-03-28T12:56:59.657Z</time></trkpt><trkpt lat="43.8455682" lon="11.2783427"><ele>309.0</ele><time>2026-03-28T12:57:00.64Z</time></trkpt><trkpt lat="43.8455288" lon="11.2782631"><ele>309.0</ele><time>2026-03-28T12:57:01.663Z</time></trkpt><trkpt lat="43.8454863" lon="11.2781873"><ele>309.0</ele><time>2026-03-28T12:57:02.757Z</time></trkpt><trkpt lat="43.8453909" lon="11.2780534"><ele>309.0</ele><time>2026-03-28T12:57:04.657Z</time></trkpt><trkpt lat="43.8453335" lon="11.2780059"><ele>308.1666666666667</ele><time>2026-03-28T12:57:05.657Z</time></trkpt><trkpt lat="43.8452677" lon="11.2779768"><ele>307.3333333333333</ele><time>2026-03-28T12:57:06.661Z</time></trkpt><trkpt lat="43.845196" lon="11.2779662"><ele>306.5</ele><time>2026-03-28T12:57:07.657Z</time></trkpt><trkpt lat="43.8451256" lon="11.2779766"><ele>305.66666666666663</ele><time>2026-03-28T12:57:08.633Z</time></trkpt><trkpt lat="43.845055" lon="11.2780113"><ele>304.8333333333333</ele><time>2026-03-28T12:57:09.649Z</time></trkpt><trkpt lat="43.8449812" lon="11.2780677"><ele>304.0</ele><time>2026-03-28T12:57:10.658Z</time></trkpt><trkpt lat="43.8449128" lon="11.2781296"><ele>306.2</ele><time>2026-03-28T12:57:11.775Z</time></trkpt><trkpt lat="43.8448467" lon="11.2781895"><ele>308.4</ele><time>2026-03-28T12:57:12.761Z</time></trkpt><trkpt lat="43.844777" lon="11.2782477"><ele>310.6</ele><time>2026-03-28T12:57:13.762Z</time></trkpt><trkpt lat="43.8446414" lon="11.2783676"><ele>312.8</ele><time>2026-03-28T12:57:15.661Z</time></trkpt><trkpt lat="43.8445677" lon="11.2784222"><ele>315.0</ele><time>2026-03-28T12:57:16.747Z</time></trkpt><trkpt lat="43.844494" lon="11.2784706"><ele>315.0</ele><time>2026-03-28T12:57:17.759Z</time></trkpt><trkpt lat="43.8444192" lon="11.2785061"><ele>315.0</ele><time>2026-03-28T12:57:18.76Z</time></trkpt><trkpt lat="43.8442622" lon="11.2785444"><ele>315.0</ele><time>2026-03-28T12:57:20.643Z</time></trkpt><trkpt lat="43.8441831" lon="11.2785478"><ele>315.0</ele><time>2026-03-28T12:57:21.744Z</time></trkpt><trkpt lat="43.8441036" lon="11.2785494"><ele>315.0</ele><time>2026-03-28T12:57:22.757Z</time></trkpt><trkpt lat="43.8440234" lon="11.2785533"><ele>312.6</ele><time>2026-03-28T12:57:23.764Z</time></trkpt><trkpt lat="43.8438709" lon="11.278563"><ele>310.2</ele><time>2026-03-28T12:57:25.666Z</time></trkpt><trkpt lat="43.8438016" lon="11.2785695"><ele>307.8</ele><time>2026-03-28T12:57:26.743Z</time></trkpt><trkpt lat="43.8437346" lon="11.2785862"><ele>305.4</ele><time>2026-03-28T12:57:27.759Z</time></trkpt><trkpt lat="43.8436675" lon="11.278606"><ele>303.0</ele><time>2026-03-28T12:57:28.763Z</time></trkpt><trkpt lat="43.8435424" lon="11.2786502"><ele>303.0</ele><time>2026-03-28T12:57:30.653Z</time></trkpt><trkpt lat="43.843479" lon="11.2786712"><ele>303.0</ele><time>2026-03-28T12:57:31.758Z</time></trkpt><trkpt lat="43.843338" lon="11.2786938"><ele>303.0</ele><time>2026-03-28T12:57:33.656Z</time></trkpt><trkpt lat="43.8432663" lon="11.278682"><ele>303.0</ele><time>2026-03-28T12:57:34.654Z</time></trkpt><trkpt lat="43.8431979" lon="11.2786493"><ele>303.0</ele><time>2026-03-28T12:57:35.666Z</time></trkpt><trkpt lat="43.8431341" lon="11.2786077"><ele>303.0</ele><time>2026-03-28T12:57:36.655Z</time></trkpt><trkpt lat="43.84307" lon="11.2785703"><ele>302.5</ele><time>2026-03-28T12:57:37.657Z</time></trkpt><trkpt lat="43.843012" lon="11.2785359"><ele>302.0</ele><time>2026-03-28T12:57:38.772Z</time></trkpt><trkpt lat="43.8428959" lon="11.2784454"><ele>301.5</ele><time>2026-03-28T12:57:40.635Z</time></trkpt><trkpt lat="43.842837" lon="11.2784013"><ele>301.0</ele><time>2026-03-28T12:57:41.662Z</time></trkpt><trkpt lat="43.842776" lon="11.2783696"><ele>300.5</ele><time>2026-03-28T12:57:42.66Z</time></trkpt><trkpt lat="43.8427093" lon="11.2783552"><ele>300.0</ele><time>2026-03-28T12:57:43.659Z</time></trkpt><trkpt lat="43.8426386" lon="11.2783586"><ele>299.4</ele><time>2026-03-28T12:57:44.652Z</time></trkpt><trkpt lat="43.8425732" lon="11.2783827"><ele>298.8</ele><time>2026-03-28T12:57:45.663Z</time></trkpt><trkpt lat="43.8425121" lon="11.2784368"><ele>298.2</ele><time>2026-03-28T12:57:46.658Z</time></trkpt><trkpt lat="43.8424469" lon="11.2785021"><ele>297.6</ele><time>2026-03-28T12:57:47.767Z</time></trkpt><trkpt lat="43.8423172" lon="11.2786348"><ele>297.0</ele><time>2026-03-28T12:57:49.654Z</time></trkpt><trkpt lat="43.8422506" lon="11.2787046"><ele>297.0</ele><time>2026-03-28T12:57:50.647Z</time></trkpt><trkpt lat="43.8421853" lon="11.2787767"><ele>297.0</ele><time>2026-03-28T12:57:51.65Z</time></trkpt><trkpt lat="43.8421228" lon="11.2788341"><ele>297.0</ele><time>2026-03-28T12:57:52.632Z</time></trkpt><trkpt lat="43.8420559" lon="11.2788802"><ele>297.0</ele><time>2026-03-28T12:57:53.756Z</time></trkpt><trkpt lat="43.8419202" lon="11.2789679"><ele>297.0</ele><time>2026-03-28T12:57:55.656Z</time></trkpt><trkpt lat="43.8418561" lon="11.2790104"><ele>297.6666666666667</ele><time>2026-03-28T12:57:56.741Z</time></trkpt><trkpt lat="43.8417974" lon="11.2790517"><ele>298.3333333333333</ele><time>2026-03-28T12:57:57.758Z</time></trkpt><trkpt lat="43.841738" lon="11.2790844"><ele>299.0</ele><time>2026-03-28T12:57:58.757Z</time></trkpt><trkpt lat="43.8416248" lon="11.2791446"><ele>299.66666666666663</ele><time>2026-03-28T12:58:00.651Z</time></trkpt><trkpt lat="43.8415126" lon="11.2792204"><ele>300.3333333333333</ele><time>2026-03-28T12:58:02.759Z</time></trkpt><trkpt lat="43.841454" lon="11.279258"><ele>301.0</ele><time>2026-03-28T12:58:03.756Z</time></trkpt><trkpt lat="43.8413302" lon="11.2793304"><ele>301.0</ele><time>2026-03-28T12:58:05.653Z</time></trkpt><trkpt lat="43.8412687" lon="11.2793622"><ele>301.0</ele><time>2026-03-28T12:58:06.734Z</time></trkpt><trkpt lat="43.8412076" lon="11.2793955"><ele>301.0</ele><time>2026-03-28T12:58:07.756Z</time></trkpt><trkpt lat="43.8410417" lon="11.2794844"><ele>301.0</ele><time>2026-03-28T12:58:10.655Z</time></trkpt><trkpt lat="43.8409418" lon="11.2795312"><ele>301.0</ele><time>2026-03-28T12:58:12.771Z</time></trkpt><trkpt lat="43.8408156" lon="11.2796013"><ele>299.8333333333333</ele><time>2026-03-28T12:58:15.645Z</time></trkpt><trkpt lat="43.8407269" lon="11.2796375"><ele>298.66666666666663</ele><time>2026-03-28T12:58:17.636Z</time></trkpt><trkpt lat="43.8406346" lon="11.2796791"><ele>297.5</ele><time>2026-03-28T12:58:19.656Z</time></trkpt><trkpt lat="43.8405475" lon="11.27972"><ele>296.3333333333333</ele><time>2026-03-28T12:58:21.651Z</time></trkpt><trkpt lat="43.8404665" lon="11.2797467"><ele>295.1666666666667</ele><time>2026-03-28T12:58:23.762Z</time></trkpt><trkpt lat="43.8403872" lon="11.2797587"><ele>294.0</ele><time>2026-03-28T12:58:25.654Z</time></trkpt><trkpt lat="43.8402992" lon="11.2797621"><ele>294.0</ele><time>2026-03-28T12:58:27.653Z</time></trkpt><trkpt lat="43.8402127" lon="11.2797665"><ele>294.0</ele><time>2026-03-28T12:58:29.663Z</time></trkpt><trkpt lat="43.8401206" lon="11.2797708"><ele>294.0</ele><time>2026-03-28T12:58:31.768Z</time></trkpt><trkpt lat="43.8400303" lon="11.2797651"><ele>294.0</ele><time>2026-03-28T12:58:33.759Z</time></trkpt><trkpt lat="43.8399352" lon="11.2797688"><ele>294.0</ele><time>2026-03-28T12:58:35.66Z</time></trkpt><trkpt lat="43.8398381" lon="11.2797778"><ele>294.0</ele><time>2026-03-28T12:58:37.762Z</time></trkpt><trkpt lat="43.8396836" lon="11.2797998"><ele>294.0</ele><time>2026-03-28T12:58:40.654Z</time></trkpt><trkpt lat="43.8396278" lon="11.2798874"><ele>294.0</ele><time>2026-03-28T12:58:42.756Z</time></trkpt><trkpt lat="43.8397571" lon="11.2800398"><ele>294.0</ele><time>2026-03-28T12:58:45.665Z</time></trkpt><trkpt lat="43.8398247" lon="11.2800852"><ele>294.0</ele><time>2026-03-28T12:58:46.749Z</time></trkpt><trkpt lat="43.8398918" lon="11.2801289"><ele>294.0</ele><time>2026-03-28T12:58:47.762Z</time></trkpt><trkpt lat="43.8399629" lon="11.2801797"><ele>294.0</ele><time>2026-03-28T12:58:48.764Z</time></trkpt><trkpt lat="43.8401161" lon="11.2802791"><ele>294.0</ele><time>2026-03-28T12:58:50.651Z</time></trkpt><trkpt lat="43.8401934" lon="11.2803301"><ele>294.0</ele><time>2026-03-28T12:58:51.741Z</time></trkpt><trkpt lat="43.8402704" lon="11.2803821"><ele>295.4</ele><time>2026-03-28T12:58:52.758Z</time></trkpt><trkpt lat="43.8403477" lon="11.2804316"><ele>296.79999999999995</ele><time>2026-03-28T12:58:53.774Z</time></trkpt><trkpt lat="43.8405123" lon="11.2805267"><ele>298.20000000000005</ele><time>2026-03-28T12:58:55.659Z</time></trkpt><trkpt lat="43.8405926" lon="11.2805753"><ele>299.6</ele><time>2026-03-28T12:58:56.651Z</time></trkpt><trkpt lat="43.8406766" lon="11.280618"><ele>301.0</ele><time>2026-03-28T12:58:57.648Z</time></trkpt><trkpt lat="43.8407612" lon="11.2806621"><ele>300.40000000000003</ele><time>2026-03-28T12:58:58.656Z</time></trkpt><trkpt lat="43.8408418" lon="11.2807083"><ele>299.8</ele><time>2026-03-28T12:58:59.647Z</time></trkpt><trkpt lat="43.8409244" lon="11.2807597"><ele>299.20000000000005</ele><time>2026-03-28T12:59:00.642Z</time></trkpt><trkpt lat="43.841013" lon="11.2808111"><ele>298.6</ele><time>2026-03-28T12:59:01.666Z</time></trkpt><trkpt lat="43.8411004" lon="11.2808691"><ele>298.0</ele><time>2026-03-28T12:59:02.767Z</time></trkpt><trkpt lat="43.841279" lon="11.2809973"><ele>298.0</ele><time>2026-03-28T12:59:04.671Z</time></trkpt><trkpt lat="43.8413543" lon="11.2810751"><ele>298.0</ele><time>2026-03-28T12:59:05.648Z</time></trkpt><trkpt lat="43.841416" lon="11.2811665"><ele>298.0</ele><time>2026-03-28T12:59:06.66Z</time></trkpt><trkpt lat="43.8414578" lon="11.2812816"><ele>298.0</ele><time>2026-03-28T12:59:07.653Z</time></trkpt><trkpt lat="43.8414554" lon="11.2814106"><ele>298.0</ele><time>2026-03-28T12:59:08.766Z</time></trkpt><trkpt lat="43.8413634" lon="11.2816105"><ele>296.1428571428571</ele><time>2026-03-28T12:59:10.65Z</time></trkpt><trkpt lat="43.8412941" lon="11.2816647"><ele>294.2857142857143</ele><time>2026-03-28T12:59:11.665Z</time></trkpt><trkpt lat="43.8412286" lon="11.2817011"><ele>292.42857142857144</ele><time>2026-03-28T12:59:12.655Z</time></trkpt><trkpt lat="43.8411607" lon="11.2817033"><ele>290.57142857142856</ele><time>2026-03-28T12:59:13.666Z</time></trkpt><trkpt lat="43.8410916" lon="11.281684"><ele>288.7142857142857</ele><time>2026-03-28T12:59:14.664Z</time></trkpt><trkpt lat="43.8410271" lon="11.281659"><ele>286.85714285714283</ele><time>2026-03-28T12:59:15.66Z</time></trkpt><trkpt lat="43.8409625" lon="11.281645"><ele>285.0</ele><time>2026-03-28T12:59:16.636Z</time></trkpt><trkpt lat="43.840897" lon="11.2816392"><ele>283.5</ele><time>2026-03-28T12:59:17.764Z</time></trkpt><trkpt lat="43.8408341" lon="11.2816277"><ele>282.0</ele><time>2026-03-28T12:59:18.762Z</time></trkpt><trkpt lat="43.8407132" lon="11.2816403"><ele>280.5</ele><time>2026-03-28T12:59:20.647Z</time></trkpt><trkpt lat="43.840586" lon="11.2816477"><ele>279.0</ele><time>2026-03-28T12:59:22.758Z</time></trkpt><trkpt lat="43.8403922" lon="11.2816876"><ele>279.0</ele><time>2026-03-28T12:59:25.646Z</time></trkpt><trkpt lat="43.8403268" lon="11.2816973"><ele>279.0</ele><time>2026-03-28T12:59:26.744Z</time></trkpt><trkpt lat="43.8402595" lon="11.2817124"><ele>279.0</ele><time>2026-03-28T12:59:27.76Z</time></trkpt><trkpt lat="43.8401948" lon="11.2817273"><ele>279.0</ele><time>2026-03-28T12:59:28.766Z</time></trkpt><trkpt lat="43.8400711" lon="11.2817546"><ele>279.0</ele><time>2026-03-28T12:59:30.648Z</time></trkpt><trkpt lat="43.8400083" lon="11.2817657"><ele>279.0</ele><time>2026-03-28T12:59:31.747Z</time></trkpt><trkpt lat="43.8399441" lon="11.281776"><ele>277.0</ele><time>2026-03-28T12:59:32.762Z</time></trkpt><trkpt lat="43.8397588" lon="11.281829"><ele>275.0</ele><time>2026-03-28T12:59:35.645Z</time></trkpt><trkpt lat="43.8396939" lon="11.2818364"><ele>273.0</ele><time>2026-03-28T12:59:36.742Z</time></trkpt><trkpt lat="43.8395727" lon="11.2818397"><ele>271.0</ele><time>2026-03-28T12:59:38.77Z</time></trkpt><trkpt lat="43.839456" lon="11.2818417"><ele>271.0</ele><time>2026-03-28T12:59:40.643Z</time></trkpt><trkpt lat="43.8393411" lon="11.2818618"><ele>271.0</ele><time>2026-03-28T12:59:42.647Z</time></trkpt><trkpt lat="43.8392287" lon="11.2818918"><ele>271.0</ele><time>2026-03-28T12:59:44.65Z</time></trkpt><trkpt lat="43.83912" lon="11.2819467"><ele>271.0</ele><time>2026-03-28T12:59:46.757Z</time></trkpt><trkpt lat="43.83896" lon="11.2820208"><ele>269.25</ele><time>2026-03-28T12:59:49.655Z</time></trkpt><trkpt lat="43.8388464" lon="11.2820698"><ele>267.5</ele><time>2026-03-28T12:59:51.653Z</time></trkpt><trkpt lat="43.8387333" lon="11.2821221"><ele>265.75</ele><time>2026-03-28T12:59:53.653Z</time></trkpt><trkpt lat="43.8386227" lon="11.2821794"><ele>264.0</ele><time>2026-03-28T12:59:55.662Z</time></trkpt><trkpt lat="43.8384732" lon="11.2822821"><ele>266.5</ele><time>2026-03-28T12:59:58.646Z</time></trkpt><trkpt lat="43.8383802" lon="11.2823481"><ele>269.0</ele><time>2026-03-28T13:00:00.646Z</time></trkpt><trkpt lat="43.8382782" lon="11.2824261"><ele>271.5</ele><time>2026-03-28T13:00:02.629Z</time></trkpt><trkpt lat="43.8381254" lon="11.2825442"><ele>274.0</ele><time>2026-03-28T13:00:05.656Z</time></trkpt><trkpt lat="43.8380201" lon="11.282614"><ele>274.0</ele><time>2026-03-28T13:00:07.764Z</time></trkpt><trkpt lat="43.8379106" lon="11.2826748"><ele>274.0</ele><time>2026-03-28T13:00:09.652Z</time></trkpt><trkpt lat="43.8377994" lon="11.2827271"><ele>274.0</ele><time>2026-03-28T13:00:11.749Z</time></trkpt><trkpt lat="43.8376861" lon="11.2827784"><ele>274.0</ele><time>2026-03-28T13:00:13.753Z</time></trkpt><trkpt lat="43.8375771" lon="11.2828308"><ele>272.5</ele><time>2026-03-28T13:00:15.651Z</time></trkpt><trkpt lat="43.8374713" lon="11.2828752"><ele>271.0</ele><time>2026-03-28T13:00:17.767Z</time></trkpt><trkpt lat="43.837323" lon="11.2829232"><ele>269.5</ele><time>2026-03-28T13:00:20.648Z</time></trkpt><trkpt lat="43.8372175" lon="11.2829206"><ele>268.0</ele><time>2026-03-28T13:00:22.767Z</time></trkpt><trkpt lat="43.8370652" lon="11.2829035"><ele>268.0</ele><time>2026-03-28T13:00:25.652Z</time></trkpt><trkpt lat="43.8369744" lon="11.2829131"><ele>268.0</ele><time>2026-03-28T13:00:27.652Z</time></trkpt><trkpt lat="43.8368945" lon="11.2829822"><ele>268.0</ele><time>2026-03-28T13:00:29.667Z</time></trkpt><trkpt lat="43.8368449" lon="11.2831015"><ele>268.0</ele><time>2026-03-28T13:00:31.66Z</time></trkpt><trkpt lat="43.8368307" lon="11.2832487"><ele>268.0</ele><time>2026-03-28T13:00:33.76Z</time></trkpt><trkpt lat="43.836818" lon="11.2833943"><ele>271.6</ele><time>2026-03-28T13:00:35.654Z</time></trkpt><trkpt lat="43.8368144" lon="11.2835335"><ele>275.20000000000005</ele><time>2026-03-28T13:00:37.661Z</time></trkpt><trkpt lat="43.8368192" lon="11.2836707"><ele>278.8</ele><time>2026-03-28T13:00:39.655Z</time></trkpt><trkpt lat="43.8368341" lon="11.2838134"><ele>282.40000000000003</ele><time>2026-03-28T13:00:41.653Z</time></trkpt><trkpt lat="43.8368533" lon="11.2839529"><ele>286.0</ele><time>2026-03-28T13:00:43.7Z</time></trkpt><trkpt lat="43.836868" lon="11.284084"><ele>287.6</ele><time>2026-03-28T13:00:45.655Z</time></trkpt><trkpt lat="43.8368885" lon="11.2842219"><ele>289.20000000000005</ele><time>2026-03-28T13:00:47.673Z</time></trkpt><trkpt lat="43.8368974" lon="11.2843593"><ele>290.79999999999995</ele><time>2026-03-28T13:00:49.648Z</time></trkpt><trkpt lat="43.8368847" lon="11.2844922"><ele>292.4</ele><time>2026-03-28T13:00:51.655Z</time></trkpt><trkpt lat="43.8368382" lon="11.2846064"><ele>294.0</ele><time>2026-03-28T13:00:53.659Z</time></trkpt><trkpt lat="43.8367746" lon="11.2847069"><ele>291.59999999999997</ele><time>2026-03-28T13:00:55.651Z</time></trkpt><trkpt lat="43.8367116" lon="11.2848032"><ele>289.2</ele><time>2026-03-28T13:00:57.663Z</time></trkpt><trkpt lat="43.8366433" lon="11.284903"><ele>286.79999999999995</ele><time>2026-03-28T13:00:59.658Z</time></trkpt><trkpt lat="43.8365668" lon="11.2849926"><ele>284.4</ele><time>2026-03-28T13:01:01.654Z</time></trkpt><trkpt lat="43.8364753" lon="11.2850395"><ele>282.0</ele><time>2026-03-28T13:01:03.654Z</time></trkpt><trkpt lat="43.8363683" lon="11.2850052"><ele>282.0</ele><time>2026-03-28T13:01:05.654Z</time></trkpt><trkpt lat="43.8362714" lon="11.2849283"><ele>282.0</ele><time>2026-03-28T13:01:07.666Z</time></trkpt><trkpt lat="43.8361821" lon="11.2848431"><ele>282.0</ele><time>2026-03-28T13:01:09.659Z</time></trkpt><trkpt lat="43.8360919" lon="11.2847474"><ele>282.0</ele><time>2026-03-28T13:01:11.663Z</time></trkpt><trkpt lat="43.8359982" lon="11.2846477"><ele>281.0</ele><time>2026-03-28T13:01:13.654Z</time></trkpt><trkpt lat="43.8358984" lon="11.2845781"><ele>280.0</ele><time>2026-03-28T13:01:15.654Z</time></trkpt><trkpt lat="43.8357891" lon="11.284593"><ele>279.0</ele><time>2026-03-28T13:01:17.638Z</time></trkpt><trkpt lat="43.8357069" lon="11.2847069"><ele>278.0</ele><time>2026-03-28T13:01:19.683Z</time></trkpt><trkpt lat="43.8356591" lon="11.2848573"><ele>278.0</ele><time>2026-03-28T13:01:21.66Z</time></trkpt><trkpt lat="43.8356426" lon="11.2850042"><ele>278.0</ele><time>2026-03-28T13:01:23.669Z</time></trkpt><trkpt lat="43.8356419" lon="11.2851509"><ele>278.0</ele><time>2026-03-28T13:01:25.64Z</time></trkpt><trkpt lat="43.8356672" lon="11.2853084"><ele>278.0</ele><time>2026-03-28T13:01:27.659Z</time></trkpt><trkpt lat="43.835707" lon="11.285456"><ele>278.0</ele><time>2026-03-28T13:01:29.653Z</time></trkpt><trkpt lat="43.8356937" lon="11.2856102"><ele>279.4</ele><time>2026-03-28T13:01:31.659Z</time></trkpt><trkpt lat="43.8356495" lon="11.285752"><ele>280.8</ele><time>2026-03-28T13:01:33.654Z</time></trkpt><trkpt lat="43.8356058" lon="11.2858843"><ele>282.2</ele><time>2026-03-28T13:01:35.659Z</time></trkpt><trkpt lat="43.8355721" lon="11.2860155"><ele>283.6</ele><time>2026-03-28T13:01:37.658Z</time></trkpt><trkpt lat="43.8355727" lon="11.2861558"><ele>285.0</ele><time>2026-03-28T13:01:39.652Z</time></trkpt><trkpt lat="43.8355778" lon="11.2863133"><ele>286.4</ele><time>2026-03-28T13:01:41.667Z</time></trkpt><trkpt lat="43.8355812" lon="11.2864621"><ele>287.8</ele><time>2026-03-28T13:01:43.655Z</time></trkpt><trkpt lat="43.8355875" lon="11.2866044"><ele>289.2</ele><time>2026-03-28T13:01:45.658Z</time></trkpt><trkpt lat="43.8355841" lon="11.2867383"><ele>290.6</ele><time>2026-03-28T13:01:47.663Z</time></trkpt><trkpt lat="43.8355176" lon="11.2868412"><ele>292.0</ele><time>2026-03-28T13:01:49.657Z</time></trkpt><trkpt lat="43.8354094" lon="11.2868203"><ele>292.0</ele><time>2026-03-28T13:01:51.664Z</time></trkpt><trkpt lat="43.8353501" lon="11.2867823"><ele>292.0</ele><time>2026-03-28T13:01:52.67Z</time></trkpt><trkpt lat="43.8352485" lon="11.2866969"><ele>292.0</ele><time>2026-03-28T13:01:54.657Z</time></trkpt><trkpt lat="43.8351559" lon="11.2866232"><ele>292.0</ele><time>2026-03-28T13:01:56.657Z</time></trkpt><trkpt lat="43.8350777" lon="11.2865511"><ele>292.0</ele><time>2026-03-28T13:01:58.657Z</time></trkpt><trkpt lat="43.8350015" lon="11.2864856"><ele>291.8333333333333</ele><time>2026-03-28T13:02:00.646Z</time></trkpt><trkpt lat="43.8349359" lon="11.2864345"><ele>291.66666666666663</ele><time>2026-03-28T13:02:02.661Z</time></trkpt><trkpt lat="43.8348641" lon="11.2863853"><ele>291.5</ele><time>2026-03-28T13:02:04.658Z</time></trkpt><trkpt lat="43.8347916" lon="11.2863398"><ele>291.3333333333333</ele><time>2026-03-28T13:02:06.664Z</time></trkpt><trkpt lat="43.8347075" lon="11.2862984"><ele>291.1666666666667</ele><time>2026-03-28T13:02:08.651Z</time></trkpt><trkpt lat="43.8346212" lon="11.2862631"><ele>291.0</ele><time>2026-03-28T13:02:10.671Z</time></trkpt><trkpt lat="43.8345412" lon="11.2862283"><ele>289.5</ele><time>2026-03-28T13:02:12.66Z</time></trkpt><trkpt lat="43.8344672" lon="11.286199"><ele>288.0</ele><time>2026-03-28T13:02:14.662Z</time></trkpt><trkpt lat="43.8343987" lon="11.2861549"><ele>286.5</ele><time>2026-03-28T13:02:16.652Z</time></trkpt><trkpt lat="43.8343303" lon="11.2861293"><ele>285.0</ele><time>2026-03-28T13:02:18.667Z</time></trkpt><trkpt lat="43.8342618" lon="11.2861151"><ele>283.5</ele><time>2026-03-28T13:02:20.661Z</time></trkpt><trkpt lat="43.834181" lon="11.2861626"><ele>282.0</ele><time>2026-03-28T13:02:22.662Z</time></trkpt><trkpt lat="43.8341029" lon="11.2862206"><ele>282.0</ele><time>2026-03-28T13:02:24.664Z</time></trkpt><trkpt lat="43.8340084" lon="11.2862798"><ele>282.0</ele><time>2026-03-28T13:02:26.655Z</time></trkpt><trkpt lat="43.833923" lon="11.2863375"><ele>282.0</ele><time>2026-03-28T13:02:28.664Z</time></trkpt><trkpt lat="43.8338402" lon="11.2863897"><ele>282.0</ele><time>2026-03-28T13:02:30.645Z</time></trkpt><trkpt lat="43.8337508" lon="11.2864438"><ele>282.0</ele><time>2026-03-28T13:02:32.66Z</time></trkpt><trkpt lat="43.8336604" lon="11.2864974"><ele>284.6</ele><time>2026-03-28T13:02:34.661Z</time></trkpt><trkpt lat="43.8335756" lon="11.2865479"><ele>287.2</ele><time>2026-03-28T13:02:36.659Z</time></trkpt><trkpt lat="43.8334943" lon="11.2866049"><ele>289.8</ele><time>2026-03-28T13:02:38.663Z</time></trkpt><trkpt lat="43.8334093" lon="11.2866609"><ele>292.4</ele><time>2026-03-28T13:02:40.649Z</time></trkpt><trkpt lat="43.8333149" lon="11.2867098"><ele>295.0</ele><time>2026-03-28T13:02:42.664Z</time></trkpt><trkpt lat="43.8332239" lon="11.2867655"><ele>295.0</ele><time>2026-03-28T13:02:44.656Z</time></trkpt><trkpt lat="43.8331307" lon="11.2868219"><ele>295.0</ele><time>2026-03-28T13:02:46.655Z</time></trkpt><trkpt lat="43.8330392" lon="11.2868737"><ele>295.0</ele><time>2026-03-28T13:02:48.655Z</time></trkpt><trkpt lat="43.8329539" lon="11.286931"><ele>295.0</ele><time>2026-03-28T13:02:50.654Z</time></trkpt><trkpt lat="43.8328738" lon="11.2869957"><ele>295.0</ele><time>2026-03-28T13:02:52.657Z</time></trkpt><trkpt lat="43.8327929" lon="11.2870535"><ele>295.0</ele><time>2026-03-28T13:02:54.663Z</time></trkpt><trkpt lat="43.8327101" lon="11.2871214"><ele>295.0</ele><time>2026-03-28T13:02:56.661Z</time></trkpt><trkpt lat="43.8326259" lon="11.2871862"><ele>295.0</ele><time>2026-03-28T13:02:58.663Z</time></trkpt><trkpt lat="43.832542" lon="11.2872436"><ele>295.0</ele><time>2026-03-28T13:03:00.653Z</time></trkpt><trkpt lat="43.832467" lon="11.2872977"><ele>295.0</ele><time>2026-03-28T13:03:02.645Z</time></trkpt><trkpt lat="43.8324043" lon="11.2873331"><ele>295.0</ele><time>2026-03-28T13:03:04.658Z</time></trkpt><trkpt lat="43.8323403" lon="11.2873659"><ele>295.0</ele><time>2026-03-28T13:03:06.657Z</time></trkpt><trkpt lat="43.8322694" lon="11.2874145"><ele>295.0</ele><time>2026-03-28T13:03:10.668Z</time></trkpt><trkpt lat="43.8321733" lon="11.2874712"><ele>295.0</ele><time>2026-03-28T13:03:13.661Z</time></trkpt><trkpt lat="43.8320714" lon="11.2875095"><ele>295.0</ele><time>2026-03-28T13:03:15.657Z</time></trkpt><trkpt lat="43.8319743" lon="11.287538"><ele>295.0</ele><time>2026-03-28T13:03:17.66Z</time></trkpt><trkpt lat="43.8318709" lon="11.2875655"><ele>294.4</ele><time>2026-03-28T13:03:19.657Z</time></trkpt><trkpt lat="43.83176" lon="11.2875974"><ele>293.8</ele><time>2026-03-28T13:03:21.657Z</time></trkpt><trkpt lat="43.8316447" lon="11.2876264"><ele>293.2</ele><time>2026-03-28T13:03:23.666Z</time></trkpt><trkpt lat="43.8315335" lon="11.2876378"><ele>292.6</ele><time>2026-03-28T13:03:25.666Z</time></trkpt><trkpt lat="43.8314376" lon="11.2876412"><ele>292.0</ele><time>2026-03-28T13:03:27.661Z</time></trkpt><trkpt lat="43.8313638" lon="11.2876494"><ele>292.0</ele><time>2026-03-28T13:03:29.654Z</time></trkpt><trkpt lat="43.8312918" lon="11.2876478"><ele>292.0</ele><time>2026-03-28T13:03:31.659Z</time></trkpt><trkpt lat="43.8312045" lon="11.2876383"><ele>292.0</ele><time>2026-03-28T13:03:34.659Z</time></trkpt><trkpt lat="43.8311269" lon="11.2876238"><ele>292.0</ele><time>2026-03-28T13:03:37.665Z</time></trkpt><trkpt lat="43.8310599" lon="11.2876155"><ele>292.0</ele><time>2026-03-28T13:03:40.662Z</time></trkpt><trkpt lat="43.8310386" lon="11.2877113"><ele>292.0</ele><time>2026-03-28T13:03:52.662Z</time></trkpt><trkpt lat="43.8310477" lon="11.2878381"><ele>292.0</ele><time>2026-03-28T13:03:55.661Z</time></trkpt><trkpt lat="43.831089" lon="11.2879651"><ele>292.0</ele><time>2026-03-28T13:03:57.662Z</time></trkpt><trkpt lat="43.8311776" lon="11.2880636"><ele>292.0</ele><time>2026-03-28T13:03:59.659Z</time></trkpt><trkpt lat="43.8312881" lon="11.2881089"><ele>292.0</ele><time>2026-03-28T13:04:01.665Z</time></trkpt><trkpt lat="43.8313945" lon="11.2881569"><ele>292.0</ele><time>2026-03-28T13:04:03.662Z</time></trkpt><trkpt lat="43.8315058" lon="11.2882293"><ele>291.3333333333333</ele><time>2026-03-28T13:04:05.665Z</time></trkpt><trkpt lat="43.8316127" lon="11.2883148"><ele>290.66666666666663</ele><time>2026-03-28T13:04:07.664Z</time></trkpt><trkpt lat="43.8316729" lon="11.2883593"><ele>290.0</ele><time>2026-03-28T13:04:08.666Z</time></trkpt><trkpt lat="43.8317396" lon="11.2883946"><ele>289.3333333333333</ele><time>2026-03-28T13:04:09.654Z</time></trkpt><trkpt lat="43.8318096" lon="11.2884242"><ele>288.6666666666667</ele><time>2026-03-28T13:04:10.666Z</time></trkpt><trkpt lat="43.8318867" lon="11.2884427"><ele>288.0</ele><time>2026-03-28T13:04:11.663Z</time></trkpt><trkpt lat="43.8319669" lon="11.2884494"><ele>288.0</ele><time>2026-03-28T13:04:12.652Z</time></trkpt><trkpt lat="43.8320493" lon="11.2884537"><ele>288.0</ele><time>2026-03-28T13:04:13.664Z</time></trkpt><trkpt lat="43.8321344" lon="11.2884553"><ele>288.0</ele><time>2026-03-28T13:04:14.666Z</time></trkpt><trkpt lat="43.8322218" lon="11.2884563"><ele>288.0</ele><time>2026-03-28T13:04:15.657Z</time></trkpt><trkpt lat="43.832304" lon="11.2884681"><ele>288.0</ele><time>2026-03-28T13:04:16.661Z</time></trkpt><trkpt lat="43.8323807" lon="11.2885087"><ele>288.0</ele><time>2026-03-28T13:04:17.666Z</time></trkpt><trkpt lat="43.8324559" lon="11.2885708"><ele>288.0</ele><time>2026-03-28T13:04:18.653Z</time></trkpt><trkpt lat="43.8325298" lon="11.2886394"><ele>288.0</ele><time>2026-03-28T13:04:19.663Z</time></trkpt><trkpt lat="43.8325856" lon="11.2887249"><ele>288.0</ele><time>2026-03-28T13:04:20.659Z</time></trkpt><trkpt lat="43.8326184" lon="11.288827"><ele>288.0</ele><time>2026-03-28T13:04:21.66Z</time></trkpt><trkpt lat="43.8326347" lon="11.2889251"><ele>288.0</ele><time>2026-03-28T13:04:22.662Z</time></trkpt><trkpt lat="43.8326318" lon="11.2890313"><ele>288.0</ele><time>2026-03-28T13:04:23.665Z</time></trkpt><trkpt lat="43.8326191" lon="11.2891345"><ele>288.5</ele><time>2026-03-28T13:04:24.658Z</time></trkpt><trkpt lat="43.8326181" lon="11.2892292"><ele>289.0</ele><time>2026-03-28T13:04:25.655Z</time></trkpt><trkpt lat="43.832634" lon="11.2893156"><ele>289.5</ele><time>2026-03-28T13:04:26.662Z</time></trkpt><trkpt lat="43.8326752" lon="11.2894014"><ele>290.0</ele><time>2026-03-28T13:04:27.658Z</time></trkpt><trkpt lat="43.8327328" lon="11.2894838"><ele>290.5</ele><time>2026-03-28T13:04:28.668Z</time></trkpt><trkpt lat="43.8328005" lon="11.2895679"><ele>291.0</ele><time>2026-03-28T13:04:29.66Z</time></trkpt><trkpt lat="43.8328714" lon="11.2896607"><ele>289.8333333333333</ele><time>2026-03-28T13:04:30.673Z</time></trkpt><trkpt lat="43.8329229" lon="11.2897747"><ele>288.6666666666667</ele><time>2026-03-28T13:04:31.658Z</time></trkpt><trkpt lat="43.8329601" lon="11.2898956"><ele>287.5</ele><time>2026-03-28T13:04:32.663Z</time></trkpt><trkpt lat="43.832995" lon="11.2900093"><ele>286.33333333333337</ele><time>2026-03-28T13:04:33.666Z</time></trkpt><trkpt lat="43.8330275" lon="11.2901215"><ele>285.1666666666667</ele><time>2026-03-28T13:04:34.66Z</time></trkpt><trkpt lat="43.8330575" lon="11.2902255"><ele>284.0</ele><time>2026-03-28T13:04:35.664Z</time></trkpt><trkpt lat="43.833086" lon="11.2903258"><ele>284.0</ele><time>2026-03-28T13:04:36.661Z</time></trkpt><trkpt lat="43.8331102" lon="11.2904277"><ele>284.0</ele><time>2026-03-28T13:04:37.665Z</time></trkpt><trkpt lat="43.8331328" lon="11.2905279"><ele>284.0</ele><time>2026-03-28T13:04:38.669Z</time></trkpt><trkpt lat="43.8331482" lon="11.2906269"><ele>284.0</ele><time>2026-03-28T13:04:39.67Z</time></trkpt><trkpt lat="43.8331616" lon="11.2907222"><ele>284.0</ele><time>2026-03-28T13:04:40.664Z</time></trkpt><trkpt lat="43.8331706" lon="11.2908148"><ele>284.0</ele><time>2026-03-28T13:04:41.655Z</time></trkpt><trkpt lat="43.8331737" lon="11.2909033"><ele>284.0</ele><time>2026-03-28T13:04:42.661Z</time></trkpt><trkpt lat="43.8331717" lon="11.290993"><ele>282.42857142857144</ele><time>2026-03-28T13:04:43.67Z</time></trkpt><trkpt lat="43.8331614" lon="11.2910857"><ele>280.85714285714283</ele><time>2026-03-28T13:04:44.657Z</time></trkpt><trkpt lat="43.8331519" lon="11.2911861"><ele>279.2857142857143</ele><time>2026-03-28T13:04:45.659Z</time></trkpt><trkpt lat="43.8331506" lon="11.2912858"><ele>277.7142857142857</ele><time>2026-03-28T13:04:46.655Z</time></trkpt><trkpt lat="43.833167" lon="11.2913756"><ele>276.1428571428571</ele><time>2026-03-28T13:04:47.772Z</time></trkpt><trkpt lat="43.8331922" lon="11.2914607"><ele>274.57142857142856</ele><time>2026-03-28T13:04:48.764Z</time></trkpt><trkpt lat="43.8332457" lon="11.2915209"><ele>273.0</ele><time>2026-03-28T13:04:49.663Z</time></trkpt><trkpt lat="43.833326" lon="11.2915581"><ele>273.8333333333333</ele><time>2026-03-28T13:04:50.659Z</time></trkpt><trkpt lat="43.8334059" lon="11.2915898"><ele>274.6666666666667</ele><time>2026-03-28T13:04:51.665Z</time></trkpt><trkpt lat="43.83349" lon="11.2916221"><ele>275.5</ele><time>2026-03-28T13:04:52.663Z</time></trkpt><trkpt lat="43.8335634" lon="11.2916524"><ele>276.33333333333337</ele><time>2026-03-28T13:04:53.67Z</time></trkpt><trkpt lat="43.8336264" lon="11.2916993"><ele>277.1666666666667</ele><time>2026-03-28T13:04:54.658Z</time></trkpt><trkpt lat="43.8336681" lon="11.2917696"><ele>278.0</ele><time>2026-03-28T13:04:55.657Z</time></trkpt><trkpt lat="43.8336845" lon="11.2918596"><ele>278.0</ele><time>2026-03-28T13:04:56.67Z</time></trkpt><trkpt lat="43.8336763" lon="11.2919622"><ele>278.0</ele><time>2026-03-28T13:04:57.77Z</time></trkpt><trkpt lat="43.8336513" lon="11.2921673"><ele>278.0</ele><time>2026-03-28T13:04:59.651Z</time></trkpt><trkpt lat="43.8336073" lon="11.2922566"><ele>278.0</ele><time>2026-03-28T13:05:00.652Z</time></trkpt><trkpt lat="43.8335489" lon="11.292338"><ele>278.0</ele><time>2026-03-28T13:05:01.65Z</time></trkpt><trkpt lat="43.8334885" lon="11.2924244"><ele>271.0</ele><time>2026-03-28T13:05:02.656Z</time></trkpt><trkpt lat="43.8334244" lon="11.2925204"><ele>264.0</ele><time>2026-03-28T13:05:03.767Z</time></trkpt><trkpt lat="43.8332987" lon="11.2927291"><ele>257.0</ele><time>2026-03-28T13:05:05.652Z</time></trkpt><trkpt lat="43.833246" lon="11.292849"><ele>250.0</ele><time>2026-03-28T13:05:06.659Z</time></trkpt><trkpt lat="43.8331881" lon="11.292966"><ele>250.0</ele><time>2026-03-28T13:05:07.665Z</time></trkpt><trkpt lat="43.8331379" lon="11.2930811"><ele>250.0</ele><time>2026-03-28T13:05:08.665Z</time></trkpt><trkpt lat="43.8330912" lon="11.2931988"><ele>250.0</ele><time>2026-03-28T13:05:09.659Z</time></trkpt><trkpt lat="43.8330548" lon="11.2933135"><ele>250.0</ele><time>2026-03-28T13:05:10.653Z</time></trkpt><trkpt lat="43.8330373" lon="11.2934373"><ele>250.0</ele><time>2026-03-28T13:05:11.657Z</time></trkpt><trkpt lat="43.8330317" lon="11.2935641"><ele>248.99999999999997</ele><time>2026-03-28T13:05:12.744Z</time></trkpt><trkpt lat="43.8330303" lon="11.2936823"><ele>248.0</ele><time>2026-03-28T13:05:13.701Z</time></trkpt><trkpt lat="43.8330341" lon="11.2937962"><ele>247.0</ele><time>2026-03-28T13:05:14.654Z</time></trkpt><trkpt lat="43.8330571" lon="11.2939113"><ele>246.0</ele><time>2026-03-28T13:05:15.645Z</time></trkpt><trkpt lat="43.8331066" lon="11.2940142"><ele>244.99999999999997</ele><time>2026-03-28T13:05:16.658Z</time></trkpt><trkpt lat="43.8331745" lon="11.2941161"><ele>244.0</ele><time>2026-03-28T13:05:17.658Z</time></trkpt><trkpt lat="43.8332554" lon="11.2942095"><ele>243.16666666666666</ele><time>2026-03-28T13:05:18.661Z</time></trkpt><trkpt lat="43.8333302" lon="11.2942917"><ele>242.33333333333331</ele><time>2026-03-28T13:05:19.664Z</time></trkpt><trkpt lat="43.8334019" lon="11.2943554"><ele>241.5</ele><time>2026-03-28T13:05:20.668Z</time></trkpt><trkpt lat="43.8334754" lon="11.2944191"><ele>240.66666666666669</ele><time>2026-03-28T13:05:21.651Z</time></trkpt><trkpt lat="43.8335489" lon="11.2944877"><ele>239.83333333333334</ele><time>2026-03-28T13:05:22.665Z</time></trkpt><trkpt lat="43.8336268" lon="11.2945498"><ele>239.0</ele><time>2026-03-28T13:05:23.669Z</time></trkpt><trkpt lat="43.8337107" lon="11.294603"><ele>239.0</ele><time>2026-03-28T13:05:24.665Z</time></trkpt><trkpt lat="43.8338079" lon="11.2946571"><ele>238.99999999999997</ele><time>2026-03-28T13:05:25.653Z</time></trkpt><trkpt lat="43.8339175" lon="11.2947103"><ele>238.99999999999997</ele><time>2026-03-28T13:05:26.768Z</time></trkpt><trkpt lat="43.8340206" lon="11.2947512"><ele>239.0</ele><time>2026-03-28T13:05:27.781Z</time></trkpt><trkpt lat="43.8341217" lon="11.2947804"><ele>239.0</ele><time>2026-03-28T13:05:28.772Z</time></trkpt><trkpt lat="43.8343073" lon="11.2948423"><ele>237.50000000000003</ele><time>2026-03-28T13:05:30.663Z</time></trkpt><trkpt lat="43.8343895" lon="11.2948762"><ele>236.0</ele><time>2026-03-28T13:05:31.763Z</time></trkpt><trkpt lat="43.8344488" lon="11.2949311"><ele>234.5</ele><time>2026-03-28T13:05:32.766Z</time></trkpt><trkpt lat="43.8344892" lon="11.2950063"><ele>233.0</ele><time>2026-03-28T13:05:33.773Z</time></trkpt><trkpt lat="43.8345483" lon="11.2951657"><ele>231.50000000000003</ele><time>2026-03-28T13:05:35.663Z</time></trkpt><trkpt lat="43.8345929" lon="11.295231"><ele>230.0</ele><time>2026-03-28T13:05:36.659Z</time></trkpt><trkpt lat="43.8346763" lon="11.295328"><ele>230.0</ele><time>2026-03-28T13:05:38.65Z</time></trkpt><trkpt lat="43.8347641" lon="11.2953787"><ele>230.0</ele><time>2026-03-28T13:05:40.656Z</time></trkpt><trkpt lat="43.8348535" lon="11.2952817"><ele>230.0</ele><time>2026-03-28T13:05:42.764Z</time></trkpt><trkpt lat="43.8350042" lon="11.2951718"><ele>230.0</ele><time>2026-03-28T13:05:45.672Z</time></trkpt><trkpt lat="43.8351135" lon="11.2951479"><ele>231.2</ele><time>2026-03-28T13:05:47.66Z</time></trkpt><trkpt lat="43.8352205" lon="11.2951229"><ele>232.4</ele><time>2026-03-28T13:05:49.655Z</time></trkpt><trkpt lat="43.8353295" lon="11.2951106"><ele>233.60000000000002</ele><time>2026-03-28T13:05:51.785Z</time></trkpt><trkpt lat="43.8354438" lon="11.2951276"><ele>234.8</ele><time>2026-03-28T13:05:53.663Z</time></trkpt><trkpt lat="43.8355095" lon="11.2952084"><ele>236.0</ele><time>2026-03-28T13:05:55.653Z</time></trkpt><trkpt lat="43.8354603" lon="11.2953307"><ele>236.00000000000003</ele><time>2026-03-28T13:05:58.774Z</time></trkpt><trkpt lat="43.8354154" lon="11.2954234"><ele>236.0</ele><time>2026-03-28T13:06:00.66Z</time></trkpt><trkpt lat="43.8353867" lon="11.2955038"><ele>236.0</ele><time>2026-03-28T13:06:02.782Z</time></trkpt><trkpt lat="43.8353387" lon="11.295616"><ele>236.0</ele><time>2026-03-28T13:06:05.677Z</time></trkpt><trkpt lat="43.8352976" lon="11.2957327"><ele>236.00000000000003</ele><time>2026-03-28T13:06:08.777Z</time></trkpt><trkpt lat="43.8352683" lon="11.2958273"><ele>236.0</ele><time>2026-03-28T13:06:10.67Z</time></trkpt><trkpt lat="43.8352341" lon="11.2959532"><ele>235.0</ele><time>2026-03-28T13:06:12.779Z</time></trkpt><trkpt lat="43.8352431" lon="11.2961347"><ele>234.00000000000003</ele><time>2026-03-28T13:06:15.654Z</time></trkpt><trkpt lat="43.8352609" lon="11.2962376"><ele>233.00000000000003</ele><time>2026-03-28T13:06:17.771Z</time></trkpt><trkpt lat="43.8352817" lon="11.2963938"><ele>232.0</ele><time>2026-03-28T13:06:20.656Z</time></trkpt><trkpt lat="43.8352938" lon="11.2965153"><ele>231.0</ele><time>2026-03-28T13:06:22.648Z</time></trkpt><trkpt lat="43.8353073" lon="11.2966308"><ele>231.0</ele><time>2026-03-28T13:06:24.67Z</time></trkpt><trkpt lat="43.8353256" lon="11.2967463"><ele>231.0</ele><time>2026-03-28T13:06:26.637Z</time></trkpt><trkpt lat="43.8353491" lon="11.2968543"><ele>231.0</ele><time>2026-03-28T13:06:28.77Z</time></trkpt><trkpt lat="43.8353696" lon="11.2969609"><ele>231.0</ele><time>2026-03-28T13:06:30.66Z</time></trkpt><trkpt lat="43.8353649" lon="11.2970503"><ele>231.0</ele><time>2026-03-28T13:06:32.666Z</time></trkpt><trkpt lat="43.8353306" lon="11.2971281"><ele>231.0</ele><time>2026-03-28T13:06:34.659Z</time></trkpt><trkpt lat="43.8352393" lon="11.2971567"><ele>230.4</ele><time>2026-03-28T13:06:36.661Z</time></trkpt><trkpt lat="43.8351282" lon="11.2971598"><ele>229.8</ele><time>2026-03-28T13:06:38.658Z</time></trkpt><trkpt lat="43.8350084" lon="11.2971561"><ele>229.20000000000002</ele><time>2026-03-28T13:06:40.663Z</time></trkpt><trkpt lat="43.834911" lon="11.2971977"><ele>228.60000000000002</ele><time>2026-03-28T13:06:42.655Z</time></trkpt><trkpt lat="43.8348887" lon="11.2973346"><ele>228.0</ele><time>2026-03-28T13:06:44.666Z</time></trkpt><trkpt lat="43.8348901" lon="11.2974829"><ele>228.0</ele><time>2026-03-28T13:06:46.658Z</time></trkpt><trkpt lat="43.8348958" lon="11.2976254"><ele>228.0</ele><time>2026-03-28T13:06:48.669Z</time></trkpt><trkpt lat="43.8348746" lon="11.2977504"><ele>228.0</ele><time>2026-03-28T13:06:50.657Z</time></trkpt><trkpt lat="43.8348042" lon="11.2978411"><ele>228.0</ele><time>2026-03-28T13:06:52.663Z</time></trkpt><trkpt lat="43.8347049" lon="11.2978895"><ele>228.0</ele><time>2026-03-28T13:06:54.656Z</time></trkpt><trkpt lat="43.8345791" lon="11.2979076"><ele>228.0</ele><time>2026-03-28T13:06:56.67Z</time></trkpt><trkpt lat="43.8344676" lon="11.2979449"><ele>228.0</ele><time>2026-03-28T13:06:58.661Z</time></trkpt><trkpt lat="43.8343935" lon="11.2980719"><ele>228.0</ele><time>2026-03-28T13:07:00.663Z</time></trkpt><trkpt lat="43.8343542" lon="11.2982148"><ele>228.0</ele><time>2026-03-28T13:07:02.656Z</time></trkpt><trkpt lat="43.8343123" lon="11.298367"><ele>227.5</ele><time>2026-03-28T13:07:04.657Z</time></trkpt><trkpt lat="43.8342426" lon="11.2985091"><ele>227.0</ele><time>2026-03-28T13:07:06.761Z</time></trkpt><trkpt lat="43.8341625" lon="11.2986336"><ele>226.5</ele><time>2026-03-28T13:07:08.664Z</time></trkpt><trkpt lat="43.8340751" lon="11.2987435"><ele>226.0</ele><time>2026-03-28T13:07:10.665Z</time></trkpt><trkpt lat="43.8339824" lon="11.2988669"><ele>226.83333333333331</ele><time>2026-03-28T13:07:12.664Z</time></trkpt><trkpt lat="43.8339284" lon="11.2989372"><ele>227.66666666666666</ele><time>2026-03-28T13:07:13.771Z</time></trkpt><trkpt lat="43.8338255" lon="11.2990848"><ele>228.5</ele><time>2026-03-28T13:07:15.671Z</time></trkpt><trkpt lat="43.8337711" lon="11.2991581"><ele>229.33333333333331</ele><time>2026-03-28T13:07:16.659Z</time></trkpt><trkpt lat="43.8337184" lon="11.2992272"><ele>230.16666666666666</ele><time>2026-03-28T13:07:17.658Z</time></trkpt><trkpt lat="43.8336628" lon="11.2992962"><ele>231.0</ele><time>2026-03-28T13:07:18.666Z</time></trkpt><trkpt lat="43.833613" lon="11.2993619"><ele>231.0</ele><time>2026-03-28T13:07:19.659Z</time></trkpt><trkpt lat="43.8335676" lon="11.2994298"><ele>231.00000000000003</ele><time>2026-03-28T13:07:20.672Z</time></trkpt><trkpt lat="43.8334953" lon="11.2995606"><ele>231.00000000000003</ele><time>2026-03-28T13:07:22.701Z</time></trkpt><trkpt lat="43.8334398" lon="11.2996903"><ele>231.0</ele><time>2026-03-28T13:07:24.669Z</time></trkpt><trkpt lat="43.8333829" lon="11.2998105"><ele>231.0</ele><time>2026-03-28T13:07:26.66Z</time></trkpt><trkpt lat="43.8333322" lon="11.2999175"><ele>231.33333333333334</ele><time>2026-03-28T13:07:28.663Z</time></trkpt><trkpt lat="43.8332839" lon="11.3000225"><ele>231.66666666666669</ele><time>2026-03-28T13:07:30.662Z</time></trkpt><trkpt lat="43.8332453" lon="11.3001209"><ele>232.0</ele><time>2026-03-28T13:07:32.659Z</time></trkpt><trkpt lat="43.8331899" lon="11.3002499"><ele>232.33333333333334</ele><time>2026-03-28T13:07:35.67Z</time></trkpt><trkpt lat="43.8332212" lon="11.3003475"><ele>232.66666666666669</ele><time>2026-03-28T13:07:38.769Z</time></trkpt><trkpt lat="43.8332985" lon="11.3004037"><ele>233.0</ele><time>2026-03-28T13:07:41.749Z</time></trkpt><trkpt lat="43.8332349" lon="11.3004725"><ele>233.00000000000003</ele><time>2026-03-28T13:07:45.664Z</time></trkpt><trkpt lat="43.8331453" lon="11.3005182"><ele>233.0</ele><time>2026-03-28T13:07:48.774Z</time></trkpt><trkpt lat="43.8330881" lon="11.3005658"><ele>233.0</ele><time>2026-03-28T13:07:50.671Z</time></trkpt><trkpt lat="43.8330338" lon="11.3006107"><ele>233.0</ele><time>2026-03-28T13:07:52.772Z</time></trkpt><trkpt lat="43.8329576" lon="11.3006829"><ele>233.00000000000003</ele><time>2026-03-28T13:07:55.657Z</time></trkpt><trkpt lat="43.8329053" lon="11.3007621"><ele>233.0</ele><time>2026-03-28T13:07:58.656Z</time></trkpt><trkpt lat="43.8328708" lon="11.3008384"><ele>236.2</ele><time>2026-03-28T13:08:01.773Z</time></trkpt><trkpt lat="43.8327953" lon="11.3009021"><ele>239.4</ele><time>2026-03-28T13:08:04.662Z</time></trkpt><trkpt lat="43.8327282" lon="11.3009864"><ele>242.59999999999997</ele><time>2026-03-28T13:08:06.675Z</time></trkpt><trkpt lat="43.8326881" lon="11.3011004"><ele>245.79999999999998</ele><time>2026-03-28T13:08:08.769Z</time></trkpt><trkpt lat="43.8326853" lon="11.3012596"><ele>249.0</ele><time>2026-03-28T13:08:10.676Z</time></trkpt><trkpt lat="43.8327026" lon="11.3013467"><ele>249.16666666666666</ele><time>2026-03-28T13:08:11.665Z</time></trkpt><trkpt lat="43.8327316" lon="11.3014292"><ele>249.33333333333331</ele><time>2026-03-28T13:08:12.668Z</time></trkpt><trkpt lat="43.8327774" lon="11.3015056"><ele>249.5</ele><time>2026-03-28T13:08:13.662Z</time></trkpt><trkpt lat="43.8328484" lon="11.3015909"><ele>249.66666666666666</ele><time>2026-03-28T13:08:14.657Z</time></trkpt><trkpt lat="43.8329254" lon="11.3016837"><ele>249.83333333333331</ele><time>2026-03-28T13:08:15.642Z</time></trkpt><trkpt lat="43.8330072" lon="11.3017872"><ele>250.0</ele><time>2026-03-28T13:08:16.766Z</time></trkpt><trkpt lat="43.8330815" lon="11.3018947"><ele>250.0</ele><time>2026-03-28T13:08:17.766Z</time></trkpt><trkpt lat="43.8331404" lon="11.3020096"><ele>250.0</ele><time>2026-03-28T13:08:18.768Z</time></trkpt><trkpt lat="43.8332383" lon="11.3022273"><ele>250.0</ele><time>2026-03-28T13:08:20.659Z</time></trkpt><trkpt lat="43.8332753" lon="11.3023068"><ele>250.0</ele><time>2026-03-28T13:08:21.745Z</time></trkpt><trkpt lat="43.8333136" lon="11.3023859"><ele>250.0</ele><time>2026-03-28T13:08:22.775Z</time></trkpt><trkpt lat="43.8333523" lon="11.302465"><ele>248.8</ele><time>2026-03-28T13:08:23.768Z</time></trkpt><trkpt lat="43.8333983" lon="11.3025293"><ele>247.6</ele><time>2026-03-28T13:08:24.671Z</time></trkpt><trkpt lat="43.8334909" lon="11.3026097"><ele>246.39999999999998</ele><time>2026-03-28T13:08:26.75Z</time></trkpt><trkpt lat="43.8334378" lon="11.3027098"><ele>245.2</ele><time>2026-03-28T13:08:30.662Z</time></trkpt><trkpt lat="43.8333136" lon="11.3027081"><ele>244.0</ele><time>2026-03-28T13:08:32.761Z</time></trkpt><trkpt lat="43.8332336" lon="11.3027071"><ele>242.16666666666666</ele><time>2026-03-28T13:08:33.778Z</time></trkpt><trkpt lat="43.8331549" lon="11.3026876"><ele>240.33333333333331</ele><time>2026-03-28T13:08:34.684Z</time></trkpt><trkpt lat="43.833079" lon="11.3026368"><ele>238.5</ele><time>2026-03-28T13:08:35.666Z</time></trkpt><trkpt lat="43.8330047" lon="11.3025757"><ele>236.66666666666669</ele><time>2026-03-28T13:08:36.747Z</time></trkpt><trkpt lat="43.8329293" lon="11.3025067"><ele>234.83333333333334</ele><time>2026-03-28T13:08:37.778Z</time></trkpt><trkpt lat="43.832851" lon="11.3024318"><ele>233.0</ele><time>2026-03-28T13:08:38.777Z</time></trkpt><trkpt lat="43.8327109" lon="11.3022969"><ele>232.00000000000003</ele><time>2026-03-28T13:08:40.669Z</time></trkpt><trkpt lat="43.8326382" lon="11.3022323"><ele>231.0</ele><time>2026-03-28T13:08:41.671Z</time></trkpt><trkpt lat="43.8325602" lon="11.3021704"><ele>230.0</ele><time>2026-03-28T13:08:42.668Z</time></trkpt><trkpt lat="43.8324841" lon="11.3021066"><ele>229.0</ele><time>2026-03-28T13:08:43.662Z</time></trkpt><trkpt lat="43.8324091" lon="11.3020462"><ele>228.00000000000003</ele><time>2026-03-28T13:08:44.649Z</time></trkpt><trkpt lat="43.8323336" lon="11.3019965"><ele>227.0</ele><time>2026-03-28T13:08:45.661Z</time></trkpt><trkpt lat="43.8322517" lon="11.301948"><ele>227.0</ele><time>2026-03-28T13:08:46.752Z</time></trkpt><trkpt lat="43.8321599" lon="11.3019074"><ele>227.0</ele><time>2026-03-28T13:08:47.709Z</time></trkpt><trkpt lat="43.8320553" lon="11.3018701"><ele>227.0</ele><time>2026-03-28T13:08:48.659Z</time></trkpt><trkpt lat="43.8319397" lon="11.3018319"><ele>227.0</ele><time>2026-03-28T13:08:49.665Z</time></trkpt><trkpt lat="43.8318186" lon="11.3018027"><ele>227.0</ele><time>2026-03-28T13:08:50.667Z</time></trkpt><trkpt lat="43.8317007" lon="11.3017691"><ele>222.6</ele><time>2026-03-28T13:08:51.667Z</time></trkpt><trkpt lat="43.8315908" lon="11.3017273"><ele>218.2</ele><time>2026-03-28T13:08:52.662Z</time></trkpt><trkpt lat="43.8314901" lon="11.3016886"><ele>213.8</ele><time>2026-03-28T13:08:53.662Z</time></trkpt><trkpt lat="43.8313938" lon="11.301639"><ele>209.4</ele><time>2026-03-28T13:08:54.659Z</time></trkpt><trkpt lat="43.8313069" lon="11.3015802"><ele>205.0</ele><time>2026-03-28T13:08:55.655Z</time></trkpt><trkpt lat="43.8312271" lon="11.3015216"><ele>204.99999999999997</ele><time>2026-03-28T13:08:56.665Z</time></trkpt><trkpt lat="43.8311529" lon="11.3014642"><ele>205.0</ele><time>2026-03-28T13:08:57.664Z</time></trkpt><trkpt lat="43.831082" lon="11.3014246"><ele>205.0</ele><time>2026-03-28T13:08:58.662Z</time></trkpt><trkpt lat="43.8310087" lon="11.3013898"><ele>205.0</ele><time>2026-03-28T13:08:59.674Z</time></trkpt><trkpt lat="43.8309344" lon="11.301357"><ele>204.99999999999997</ele><time>2026-03-28T13:09:00.662Z</time></trkpt><trkpt lat="43.8308592" lon="11.3013209"><ele>205.0</ele><time>2026-03-28T13:09:01.66Z</time></trkpt><trkpt lat="43.8307861" lon="11.30128"><ele>203.0</ele><time>2026-03-28T13:09:02.677Z</time></trkpt><trkpt lat="43.8307132" lon="11.301246"><ele>201.0</ele><time>2026-03-28T13:09:03.768Z</time></trkpt><trkpt lat="43.8305254" lon="11.3012246"><ele>199.0</ele><time>2026-03-28T13:09:05.653Z</time></trkpt><trkpt lat="43.8304201" lon="11.3012388"><ele>197.0</ele><time>2026-03-28T13:09:06.753Z</time></trkpt><trkpt lat="43.8303329" lon="11.3012602"><ele>197.0</ele><time>2026-03-28T13:09:07.768Z</time></trkpt><trkpt lat="43.8302506" lon="11.3012824"><ele>197.0</ele><time>2026-03-28T13:09:08.778Z</time></trkpt><trkpt lat="43.830096" lon="11.3012958"><ele>197.0</ele><time>2026-03-28T13:09:10.67Z</time></trkpt><trkpt lat="43.830009" lon="11.3012812"><ele>197.0</ele><time>2026-03-28T13:09:11.744Z</time></trkpt><trkpt lat="43.8299177" lon="11.3012621"><ele>197.0</ele><time>2026-03-28T13:09:12.782Z</time></trkpt><trkpt lat="43.8298336" lon="11.301232"><ele>193.6</ele><time>2026-03-28T13:09:13.771Z</time></trkpt><trkpt lat="43.829683" lon="11.3011812"><ele>190.2</ele><time>2026-03-28T13:09:15.663Z</time></trkpt><trkpt lat="43.8296134" lon="11.3011505"><ele>186.8</ele><time>2026-03-28T13:09:16.743Z</time></trkpt><trkpt lat="43.829546" lon="11.3011009"><ele>183.4</ele><time>2026-03-28T13:09:17.766Z</time></trkpt><trkpt lat="43.8294769" lon="11.301047"><ele>180.0</ele><time>2026-03-28T13:09:18.766Z</time></trkpt><trkpt lat="43.8293229" lon="11.3009224"><ele>178.2</ele><time>2026-03-28T13:09:20.667Z</time></trkpt><trkpt lat="43.8292468" lon="11.3008435"><ele>176.4</ele><time>2026-03-28T13:09:21.744Z</time></trkpt><trkpt lat="43.8291664" lon="11.3007661"><ele>174.60000000000002</ele><time>2026-03-28T13:09:22.763Z</time></trkpt><trkpt lat="43.8290855" lon="11.3006885"><ele>172.8</ele><time>2026-03-28T13:09:23.664Z</time></trkpt><trkpt lat="43.8289978" lon="11.3006212"><ele>171.0</ele><time>2026-03-28T13:09:24.666Z</time></trkpt><trkpt lat="43.8289127" lon="11.3005596"><ele>170.60000000000002</ele><time>2026-03-28T13:09:25.655Z</time></trkpt><trkpt lat="43.8288303" lon="11.3005068"><ele>170.2</ele><time>2026-03-28T13:09:26.661Z</time></trkpt><trkpt lat="43.8287507" lon="11.3004549"><ele>169.8</ele><time>2026-03-28T13:09:27.668Z</time></trkpt><trkpt lat="43.8286749" lon="11.3004053"><ele>169.39999999999998</ele><time>2026-03-28T13:09:28.793Z</time></trkpt><trkpt lat="43.8285277" lon="11.3003345"><ele>169.0</ele><time>2026-03-28T13:09:30.661Z</time></trkpt><trkpt lat="43.828451" lon="11.3003086"><ele>166.33333333333334</ele><time>2026-03-28T13:09:31.666Z</time></trkpt><trkpt lat="43.8283704" lon="11.3002904"><ele>163.66666666666669</ele><time>2026-03-28T13:09:32.662Z</time></trkpt><trkpt lat="43.8282947" lon="11.3002733"><ele>161.0</ele><time>2026-03-28T13:09:33.687Z</time></trkpt><trkpt lat="43.8282165" lon="11.3002779"><ele>158.33333333333334</ele><time>2026-03-28T13:09:34.663Z</time></trkpt><trkpt lat="43.8281287" lon="11.3003314"><ele>155.66666666666666</ele><time>2026-03-28T13:09:35.663Z</time></trkpt><trkpt lat="43.8280418" lon="11.3004095"><ele>153.0</ele><time>2026-03-28T13:09:36.663Z</time></trkpt><trkpt lat="43.8279694" lon="11.3004944"><ele>153.0</ele><time>2026-03-28T13:09:37.776Z</time></trkpt><trkpt lat="43.8279065" lon="11.3005621"><ele>153.0</ele><time>2026-03-28T13:09:38.765Z</time></trkpt><trkpt lat="43.8278213" lon="11.3006744"><ele>153.0</ele><time>2026-03-28T13:09:40.667Z</time></trkpt><trkpt lat="43.8277689" lon="11.3007427"><ele>153.0</ele><time>2026-03-28T13:09:42.67Z</time></trkpt><trkpt lat="43.8277955" lon="11.3008337"><ele>153.0</ele><time>2026-03-28T13:10:15.67Z</time></trkpt><trkpt lat="43.827864" lon="11.3008325"><ele>153.0</ele><time>2026-03-28T13:10:18.665Z</time></trkpt><trkpt lat="43.8277873" lon="11.3007777"><ele>152.4</ele><time>2026-03-28T13:10:21.664Z</time></trkpt><trkpt lat="43.8277017" lon="11.3008079"><ele>151.8</ele><time>2026-03-28T13:10:23.666Z</time></trkpt><trkpt lat="43.8276188" lon="11.300859"><ele>151.2</ele><time>2026-03-28T13:10:25.669Z</time></trkpt><trkpt lat="43.8275225" lon="11.300925"><ele>150.6</ele><time>2026-03-28T13:10:27.667Z</time></trkpt><trkpt lat="43.8274107" lon="11.300982"><ele>150.0</ele><time>2026-03-28T13:10:29.671Z</time></trkpt><trkpt lat="43.8273119" lon="11.3010423"><ele>148.2</ele><time>2026-03-28T13:10:31.662Z</time></trkpt><trkpt lat="43.8272126" lon="11.3011017"><ele>146.4</ele><time>2026-03-28T13:10:33.663Z</time></trkpt><trkpt lat="43.8271208" lon="11.3011631"><ele>144.6</ele><time>2026-03-28T13:10:35.677Z</time></trkpt><trkpt lat="43.8270336" lon="11.3012226"><ele>142.8</ele><time>2026-03-28T13:10:37.78Z</time></trkpt><trkpt lat="43.8269155" lon="11.3013318"><ele>141.0</ele><time>2026-03-28T13:10:40.667Z</time></trkpt><trkpt lat="43.8268381" lon="11.3013848"><ele>140.6</ele><time>2026-03-28T13:10:42.766Z</time></trkpt><trkpt lat="43.8267638" lon="11.3014408"><ele>140.2</ele><time>2026-03-28T13:10:44.672Z</time></trkpt><trkpt lat="43.8267592" lon="11.3015752"><ele>139.8</ele><time>2026-03-28T13:10:46.735Z</time></trkpt><trkpt lat="43.8268127" lon="11.3017194"><ele>139.4</ele><time>2026-03-28T13:10:48.762Z</time></trkpt><trkpt lat="43.8268558" lon="11.3018623"><ele>139.0</ele><time>2026-03-28T13:10:50.672Z</time></trkpt><trkpt lat="43.8268934" lon="11.3019844"><ele>139.0</ele><time>2026-03-28T13:10:52.774Z</time></trkpt><trkpt lat="43.8269334" lon="11.3021066"><ele>139.0</ele><time>2026-03-28T13:10:54.666Z</time></trkpt><trkpt lat="43.8269698" lon="11.3022294"><ele>139.0</ele><time>2026-03-28T13:10:56.66Z</time></trkpt><trkpt lat="43.8270044" lon="11.3023407"><ele>139.0</ele><time>2026-03-28T13:10:58.674Z</time></trkpt><trkpt lat="43.8270475" lon="11.3024251"><ele>139.0</ele><time>2026-03-28T13:11:00.656Z</time></trkpt><trkpt lat="43.8271487" lon="11.3024205"><ele>139.0</ele><time>2026-03-28T13:11:02.649Z</time></trkpt><trkpt lat="43.8272449" lon="11.3024299"><ele>139.0</ele><time>2026-03-28T13:11:04.646Z</time></trkpt><trkpt lat="43.8273198" lon="11.3024661"><ele>139.0</ele><time>2026-03-28T13:11:06.668Z</time></trkpt><trkpt lat="43.8273903" lon="11.3025249"><ele>139.0</ele><time>2026-03-28T13:11:08.645Z</time></trkpt><trkpt lat="43.8274521" lon="11.3025938"><ele>139.0</ele><time>2026-03-28T13:11:10.672Z</time></trkpt><trkpt lat="43.8275085" lon="11.3026712"><ele>139.0</ele><time>2026-03-28T13:11:12.661Z</time></trkpt><trkpt lat="43.8275755" lon="11.3027432"><ele>139.0</ele><time>2026-03-28T13:11:14.67Z</time></trkpt><trkpt lat="43.8276407" lon="11.3028255"><ele>139.0</ele><time>2026-03-28T13:11:16.672Z</time></trkpt><trkpt lat="43.8277043" lon="11.3029142"><ele>139.0</ele><time>2026-03-28T13:11:18.673Z</time></trkpt><trkpt lat="43.8277672" lon="11.3029964"><ele>139.0</ele><time>2026-03-28T13:11:20.663Z</time></trkpt><trkpt lat="43.8278318" lon="11.3030732"><ele>139.0</ele><time>2026-03-28T13:11:22.659Z</time></trkpt><trkpt lat="43.8278934" lon="11.3031454"><ele>139.0</ele><time>2026-03-28T13:11:24.662Z</time></trkpt><trkpt lat="43.8279539" lon="11.3032197"><ele>139.42857142857142</ele><time>2026-03-28T13:11:26.675Z</time></trkpt><trkpt lat="43.8280086" lon="11.3032842"><ele>139.85714285714286</ele><time>2026-03-28T13:11:28.668Z</time></trkpt><trkpt lat="43.8280721" lon="11.3033428"><ele>140.28571428571428</ele><time>2026-03-28T13:11:30.667Z</time></trkpt><trkpt lat="43.8281293" lon="11.3034097"><ele>140.71428571428572</ele><time>2026-03-28T13:11:32.663Z</time></trkpt><trkpt lat="43.8281849" lon="11.3034795"><ele>141.14285714285714</ele><time>2026-03-28T13:11:34.67Z</time></trkpt><trkpt lat="43.8282407" lon="11.3035456"><ele>141.57142857142856</ele><time>2026-03-28T13:11:36.672Z</time></trkpt><trkpt lat="43.8282943" lon="11.3036001"><ele>142.0</ele><time>2026-03-28T13:11:38.66Z</time></trkpt><trkpt lat="43.8283509" lon="11.3036539"><ele>142.0</ele><time>2026-03-28T13:11:40.669Z</time></trkpt><trkpt lat="43.8284009" lon="11.3037208"><ele>142.0</ele><time>2026-03-28T13:11:42.661Z</time></trkpt><trkpt lat="43.8284572" lon="11.3037894"><ele>142.0</ele><time>2026-03-28T13:11:44.665Z</time></trkpt><trkpt lat="43.8285158" lon="11.3038564"><ele>142.0</ele><time>2026-03-28T13:11:46.661Z</time></trkpt><trkpt lat="43.8285826" lon="11.3039281"><ele>142.0</ele><time>2026-03-28T13:11:48.668Z</time></trkpt><trkpt lat="43.8286638" lon="11.303989"><ele>142.0</ele><time>2026-03-28T13:11:50.679Z</time></trkpt><trkpt lat="43.8287399" lon="11.304031"><ele>142.6</ele><time>2026-03-28T13:11:52.66Z</time></trkpt><trkpt lat="43.8288156" lon="11.3040834"><ele>143.2</ele><time>2026-03-28T13:11:54.649Z</time></trkpt><trkpt lat="43.8288947" lon="11.3041541"><ele>143.8</ele><time>2026-03-28T13:11:56.671Z</time></trkpt><trkpt lat="43.8289778" lon="11.3042311"><ele>144.4</ele><time>2026-03-28T13:11:58.768Z</time></trkpt><trkpt lat="43.8290533" lon="11.3043074"><ele>145.0</ele><time>2026-03-28T13:12:00.658Z</time></trkpt><trkpt lat="43.8291229" lon="11.3043785"><ele>145.0</ele><time>2026-03-28T13:12:02.764Z</time></trkpt><trkpt lat="43.8292368" lon="11.304492"><ele>145.0</ele><time>2026-03-28T13:12:05.678Z</time></trkpt><trkpt lat="43.8293067" lon="11.3045861"><ele>145.0</ele><time>2026-03-28T13:12:07.769Z</time></trkpt><trkpt lat="43.8294061" lon="11.3047272"><ele>145.0</ele><time>2026-03-28T13:12:10.662Z</time></trkpt><trkpt lat="43.8294699" lon="11.3048102"><ele>145.8</ele><time>2026-03-28T13:12:12.775Z</time></trkpt><trkpt lat="43.8295729" lon="11.3049333"><ele>146.6</ele><time>2026-03-28T13:12:15.657Z</time></trkpt><trkpt lat="43.8296417" lon="11.3050201"><ele>147.4</ele><time>2026-03-28T13:12:17.778Z</time></trkpt><trkpt lat="43.8297129" lon="11.3051051"><ele>148.2</ele><time>2026-03-28T13:12:19.658Z</time></trkpt><trkpt lat="43.8297867" lon="11.3051909"><ele>149.0</ele><time>2026-03-28T13:12:21.664Z</time></trkpt><trkpt lat="43.8298575" lon="11.3052752"><ele>149.0</ele><time>2026-03-28T13:12:23.647Z</time></trkpt><trkpt lat="43.829915" lon="11.3053606"><ele>149.0</ele><time>2026-03-28T13:12:25.674Z</time></trkpt><trkpt lat="43.8299891" lon="11.3054952"><ele>149.0</ele><time>2026-03-28T13:12:28.666Z</time></trkpt><trkpt lat="43.8300413" lon="11.3055955"><ele>149.0</ele><time>2026-03-28T13:12:30.657Z</time></trkpt><trkpt lat="43.8301058" lon="11.3056799"><ele>149.0</ele><time>2026-03-28T13:12:32.775Z</time></trkpt><trkpt lat="43.830217" lon="11.3057796"><ele>149.16666666666666</ele><time>2026-03-28T13:12:35.651Z</time></trkpt><trkpt lat="43.8303006" lon="11.3058394"><ele>149.33333333333331</ele><time>2026-03-28T13:12:37.655Z</time></trkpt><trkpt lat="43.8303851" lon="11.3058966"><ele>149.5</ele><time>2026-03-28T13:12:39.658Z</time></trkpt><trkpt lat="43.8304574" lon="11.3059458"><ele>149.66666666666666</ele><time>2026-03-28T13:12:41.767Z</time></trkpt><trkpt lat="43.8305298" lon="11.3059946"><ele>149.83333333333334</ele><time>2026-03-28T13:12:43.771Z</time></trkpt><trkpt lat="43.8306054" lon="11.3060458"><ele>150.0</ele><time>2026-03-28T13:12:45.658Z</time></trkpt><trkpt lat="43.8306938" lon="11.3060935"><ele>150.0</ele><time>2026-03-28T13:12:47.777Z</time></trkpt><trkpt lat="43.8308223" lon="11.3061375"><ele>150.0</ele><time>2026-03-28T13:12:50.663Z</time></trkpt><trkpt lat="43.8309092" lon="11.3061562"><ele>150.0</ele><time>2026-03-28T13:12:52.77Z</time></trkpt><trkpt lat="43.8309888" lon="11.3061764"><ele>150.0</ele><time>2026-03-28T13:12:54.668Z</time></trkpt><trkpt lat="43.8310652" lon="11.3061993"><ele>150.0</ele><time>2026-03-28T13:12:56.746Z</time></trkpt><trkpt lat="43.8311452" lon="11.306233"><ele>150.8</ele><time>2026-03-28T13:12:58.769Z</time></trkpt><trkpt lat="43.8312256" lon="11.3062736"><ele>151.6</ele><time>2026-03-28T13:13:00.658Z</time></trkpt><trkpt lat="43.8312988" lon="11.3062955"><ele>152.4</ele><time>2026-03-28T13:13:02.774Z</time></trkpt><trkpt lat="43.8314265" lon="11.3063737"><ele>153.2</ele><time>2026-03-28T13:13:05.663Z</time></trkpt><trkpt lat="43.8315269" lon="11.3064139"><ele>154.0</ele><time>2026-03-28T13:13:07.667Z</time></trkpt><trkpt lat="43.8316068" lon="11.3064571"><ele>154.0</ele><time>2026-03-28T13:13:09.653Z</time></trkpt><trkpt lat="43.831679" lon="11.3064915"><ele>154.0</ele><time>2026-03-28T13:13:11.703Z</time></trkpt><trkpt lat="43.8317364" lon="11.3065301"><ele>154.0</ele><time>2026-03-28T13:13:13.647Z</time></trkpt><trkpt lat="43.831794" lon="11.3065881"><ele>154.0</ele><time>2026-03-28T13:13:15.659Z</time></trkpt><trkpt lat="43.8318521" lon="11.3066575"><ele>154.0</ele><time>2026-03-28T13:13:17.669Z</time></trkpt><trkpt lat="43.8318783" lon="11.3067492"><ele>154.0</ele><time>2026-03-28T13:13:20.665Z</time></trkpt><trkpt lat="43.8318601" lon="11.3068597"><ele>154.0</ele><time>2026-03-28T13:13:23.674Z</time></trkpt><trkpt lat="43.8318289" lon="11.3069498"><ele>154.0</ele><time>2026-03-28T13:13:26.672Z</time></trkpt><trkpt lat="43.8317868" lon="11.3070418"><ele>154.0</ele><time>2026-03-28T13:13:29.661Z</time></trkpt><trkpt lat="43.8317596" lon="11.3071606"><ele>154.0</ele><time>2026-03-28T13:13:32.67Z</time></trkpt><trkpt lat="43.8317274" lon="11.3072786"><ele>154.0</ele><time>2026-03-28T13:13:35.663Z</time></trkpt><trkpt lat="43.8317087" lon="11.3073668"><ele>154.0</ele><time>2026-03-28T13:13:37.664Z</time></trkpt><trkpt lat="43.8317178" lon="11.3074695"><ele>154.0</ele><time>2026-03-28T13:13:41.665Z</time></trkpt><trkpt lat="43.8317792" lon="11.307547"><ele>154.33333333333334</ele><time>2026-03-28T13:13:44.669Z</time></trkpt><trkpt lat="43.8318274" lon="11.3076068"><ele>154.66666666666669</ele><time>2026-03-28T13:13:46.671Z</time></trkpt><trkpt lat="43.8319002" lon="11.3076829"><ele>155.0</ele><time>2026-03-28T13:13:49.697Z</time></trkpt><trkpt lat="43.8319735" lon="11.3077526"><ele>155.33333333333334</ele><time>2026-03-28T13:13:52.675Z</time></trkpt><trkpt lat="43.8320245" lon="11.3078072"><ele>155.66666666666666</ele><time>2026-03-28T13:13:54.669Z</time></trkpt><trkpt lat="43.832085" lon="11.3078663"><ele>156.0</ele><time>2026-03-28T13:13:56.65Z</time></trkpt><trkpt lat="43.8321429" lon="11.3079254"><ele>156.0</ele><time>2026-03-28T13:13:58.674Z</time></trkpt><trkpt lat="43.8321953" lon="11.3080007"><ele>156.0</ele><time>2026-03-28T13:14:00.665Z</time></trkpt><trkpt lat="43.8322442" lon="11.308091"><ele>156.0</ele><time>2026-03-28T13:14:02.672Z</time></trkpt><trkpt lat="43.8322931" lon="11.3081983"><ele>156.0</ele><time>2026-03-28T13:14:04.666Z</time></trkpt><trkpt lat="43.8323381" lon="11.3082759"><ele>156.0</ele><time>2026-03-28T13:14:06.665Z</time></trkpt><trkpt lat="43.8323933" lon="11.308375"><ele>156.0</ele><time>2026-03-28T13:14:09.663Z</time></trkpt><trkpt lat="43.8324354" lon="11.3084561"><ele>161.0</ele><time>2026-03-28T13:14:12.66Z</time></trkpt><trkpt lat="43.8324389" lon="11.3085536"><ele>161.0</ele><time>2026-03-28T13:14:48.669Z</time></trkpt><trkpt lat="43.8323898" lon="11.3086083"><ele>161.0</ele><time>2026-03-28T13:14:51.665Z</time></trkpt></trkseg></trk></gpx>